<?xml version="1.0" encoding="UTF-8" standalone="no" ?>
<gpx xmlns="http://www.topografix.com/GPX/1/1" xmlns:xsi="http://www.w3.org/2001/XMLSchema-instance" xsi:schemaLocation="http://www.topografix.com/GPX/1/1 http://www.topografix.com/GPX/1/1/gpx.xsd" version="1.1" creator="VisuGPX - https://www.visugpx.com">
  <metadata>
    <name>42  forez</name>
  </metadata>
  <trk>
    <name><![CDATA[J1  Aboen Biesse]]></name>
    <trkseg>
      <trkpt lat="45.5094" lon="4.17103">
        <ele>387</ele>
        <time>2018-09-26T14:29:23Z</time>
      </trkpt>
      <trkpt lat="45.50961" lon="4.17255">
        <ele>385</ele>
        <time>2018-09-26T14:30:23Z</time>
      </trkpt>
      <trkpt lat="45.50982" lon="4.17287">
        <ele>385</ele>
        <time>2018-09-26T14:31:23Z</time>
      </trkpt>
      <trkpt lat="45.51035" lon="4.17332">
        <ele>385</ele>
        <time>2018-09-26T14:32:23Z</time>
      </trkpt>
      <trkpt lat="45.51093" lon="4.17346">
        <ele>383</ele>
        <time>2018-09-26T14:33:23Z</time>
      </trkpt>
      <trkpt lat="45.51066" lon="4.17472">
        <ele>385</ele>
        <time>2018-09-26T14:34:23Z</time>
      </trkpt>
      <trkpt lat="45.51049" lon="4.17506">
        <ele>385</ele>
        <time>2018-09-26T14:35:23Z</time>
      </trkpt>
      <trkpt lat="45.51031" lon="4.17541">
        <ele>386</ele>
        <time>2018-09-26T14:36:23Z</time>
      </trkpt>
      <trkpt lat="45.51047" lon="4.17632">
        <ele>385</ele>
        <time>2018-09-26T14:37:23Z</time>
      </trkpt>
      <trkpt lat="45.51058" lon="4.1764">
        <ele>385</ele>
        <time>2018-09-26T14:38:23Z</time>
      </trkpt>
      <trkpt lat="45.51098" lon="4.17649">
        <ele>386</ele>
        <time>2018-09-26T14:39:23Z</time>
      </trkpt>
      <trkpt lat="45.51134" lon="4.17677">
        <ele>387</ele>
        <time>2018-09-26T14:40:23Z</time>
      </trkpt>
      <trkpt lat="45.51169" lon="4.1772">
        <ele>387</ele>
        <time>2018-09-26T14:41:23Z</time>
      </trkpt>
      <trkpt lat="45.5119" lon="4.17758">
        <ele>386</ele>
        <time>2018-09-26T14:42:23Z</time>
      </trkpt>
      <trkpt lat="45.51197" lon="4.17777">
        <ele>387</ele>
        <time>2018-09-26T14:43:23Z</time>
      </trkpt>
      <trkpt lat="45.51187" lon="4.17793">
        <ele>386</ele>
        <time>2018-09-26T14:44:23Z</time>
      </trkpt>
      <trkpt lat="45.51181" lon="4.17814">
        <ele>386</ele>
        <time>2018-09-26T14:45:23Z</time>
      </trkpt>
      <trkpt lat="45.51178" lon="4.1786">
        <ele>386</ele>
        <time>2018-09-26T14:46:23Z</time>
      </trkpt>
      <trkpt lat="45.51233" lon="4.17845">
        <ele>387</ele>
        <time>2018-09-26T14:47:23Z</time>
      </trkpt>
      <trkpt lat="45.51275" lon="4.17855">
        <ele>388</ele>
        <time>2018-09-26T14:48:23Z</time>
      </trkpt>
      <trkpt lat="45.51253" lon="4.17945">
        <ele>388</ele>
        <time>2018-09-26T14:49:23Z</time>
      </trkpt>
      <trkpt lat="45.51249" lon="4.18012">
        <ele>389</ele>
        <time>2018-09-26T14:50:23Z</time>
      </trkpt>
      <trkpt lat="45.51257" lon="4.1811">
        <ele>388</ele>
        <time>2018-09-26T14:51:23Z</time>
      </trkpt>
      <trkpt lat="45.51276" lon="4.18185">
        <ele>389</ele>
        <time>2018-09-26T14:52:23Z</time>
      </trkpt>
      <trkpt lat="45.51299" lon="4.18223">
        <ele>389</ele>
        <time>2018-09-26T14:53:23Z</time>
      </trkpt>
      <trkpt lat="45.51329" lon="4.18269">
        <ele>388</ele>
        <time>2018-09-26T14:54:23Z</time>
      </trkpt>
      <trkpt lat="45.5143" lon="4.18399">
        <ele>388</ele>
        <time>2018-09-26T14:55:23Z</time>
      </trkpt>
      <trkpt lat="45.51441" lon="4.1843">
        <ele>389</ele>
        <time>2018-09-26T14:56:23Z</time>
      </trkpt>
      <trkpt lat="45.5146" lon="4.18478">
        <ele>390</ele>
        <time>2018-09-26T14:57:23Z</time>
      </trkpt>
      <trkpt lat="45.51468" lon="4.18572">
        <ele>390</ele>
        <time>2018-09-26T14:58:23Z</time>
      </trkpt>
      <trkpt lat="45.51465" lon="4.18655">
        <ele>390</ele>
        <time>2018-09-26T14:59:23Z</time>
      </trkpt>
      <trkpt lat="45.5145" lon="4.18711">
        <ele>390</ele>
        <time>2018-09-26T15:00:23Z</time>
      </trkpt>
      <trkpt lat="45.51435" lon="4.18756">
        <ele>390</ele>
        <time>2018-09-26T15:01:23Z</time>
      </trkpt>
      <trkpt lat="45.51408" lon="4.18799">
        <ele>389</ele>
        <time>2018-09-26T15:02:23Z</time>
      </trkpt>
      <trkpt lat="45.51385" lon="4.18834">
        <ele>388</ele>
        <time>2018-09-26T15:03:23Z</time>
      </trkpt>
      <trkpt lat="45.51335" lon="4.18913">
        <ele>387</ele>
        <time>2018-09-26T15:04:23Z</time>
      </trkpt>
      <trkpt lat="45.51293" lon="4.18972">
        <ele>388</ele>
        <time>2018-09-26T15:05:23Z</time>
      </trkpt>
      <trkpt lat="45.51251" lon="4.19006">
        <ele>389</ele>
        <time>2018-09-26T15:06:23Z</time>
      </trkpt>
      <trkpt lat="45.51231" lon="4.19013">
        <ele>389</ele>
        <time>2018-09-26T15:07:23Z</time>
      </trkpt>
      <trkpt lat="45.51196" lon="4.19019">
        <ele>389</ele>
        <time>2018-09-26T15:08:23Z</time>
      </trkpt>
      <trkpt lat="45.51161" lon="4.19032">
        <ele>390</ele>
        <time>2018-09-26T15:09:23Z</time>
      </trkpt>
      <trkpt lat="45.5114" lon="4.1904">
        <ele>390</ele>
        <time>2018-09-26T15:10:23Z</time>
      </trkpt>
      <trkpt lat="45.51117" lon="4.19073">
        <ele>390</ele>
        <time>2018-09-26T15:11:23Z</time>
      </trkpt>
      <trkpt lat="45.51101" lon="4.19122">
        <ele>390</ele>
        <time>2018-09-26T15:12:23Z</time>
      </trkpt>
      <trkpt lat="45.50944" lon="4.1907">
        <ele>393</ele>
        <time>2018-09-26T15:13:23Z</time>
      </trkpt>
      <trkpt lat="45.50863" lon="4.19037">
        <ele>395</ele>
        <time>2018-09-26T15:14:23Z</time>
      </trkpt>
      <trkpt lat="45.50712" lon="4.1899">
        <ele>398</ele>
        <time>2018-09-26T15:15:23Z</time>
      </trkpt>
      <trkpt lat="45.50467" lon="4.18855">
        <ele>404</ele>
        <time>2018-09-26T15:16:23Z</time>
      </trkpt>
      <trkpt lat="45.50308" lon="4.18755">
        <ele>405</ele>
        <time>2018-09-26T15:17:23Z</time>
      </trkpt>
      <trkpt lat="45.50154" lon="4.18698">
        <ele>404</ele>
        <time>2018-09-26T15:18:23Z</time>
      </trkpt>
      <trkpt lat="45.49904" lon="4.18618">
        <ele>409</ele>
        <time>2018-09-26T15:19:23Z</time>
      </trkpt>
      <trkpt lat="45.4976" lon="4.18582">
        <ele>414</ele>
        <time>2018-09-26T15:20:23Z</time>
      </trkpt>
      <trkpt lat="45.49657" lon="4.18566">
        <ele>415</ele>
        <time>2018-09-26T15:21:23Z</time>
      </trkpt>
      <trkpt lat="45.49491" lon="4.18557">
        <ele>414</ele>
        <time>2018-09-26T15:22:23Z</time>
      </trkpt>
      <trkpt lat="45.49364" lon="4.1856">
        <ele>414</ele>
        <time>2018-09-26T15:23:23Z</time>
      </trkpt>
      <trkpt lat="45.49182" lon="4.18577">
        <ele>416</ele>
        <time>2018-09-26T15:24:23Z</time>
      </trkpt>
      <trkpt lat="45.49027" lon="4.18604">
        <ele>415</ele>
        <time>2018-09-26T15:25:23Z</time>
      </trkpt>
      <trkpt lat="45.48889" lon="4.18645">
        <ele>414</ele>
        <time>2018-09-26T15:26:23Z</time>
      </trkpt>
      <trkpt lat="45.48814" lon="4.18667">
        <ele>416</ele>
        <time>2018-09-26T15:27:23Z</time>
      </trkpt>
      <trkpt lat="45.48681" lon="4.18625">
        <ele>419</ele>
        <time>2018-09-26T15:28:23Z</time>
      </trkpt>
      <trkpt lat="45.4864" lon="4.18606">
        <ele>421</ele>
        <time>2018-09-26T15:29:23Z</time>
      </trkpt>
      <trkpt lat="45.48588" lon="4.18602">
        <ele>424</ele>
        <time>2018-09-26T15:30:23Z</time>
      </trkpt>
      <trkpt lat="45.48554" lon="4.18606">
        <ele>427</ele>
        <time>2018-09-26T15:31:23Z</time>
      </trkpt>
      <trkpt lat="45.48508" lon="4.18624">
        <ele>430</ele>
        <time>2018-09-26T15:32:23Z</time>
      </trkpt>
      <trkpt lat="45.48417" lon="4.18669">
        <ele>434</ele>
        <time>2018-09-26T15:33:23Z</time>
      </trkpt>
      <trkpt lat="45.48249" lon="4.1873">
        <ele>437</ele>
        <time>2018-09-26T15:34:23Z</time>
      </trkpt>
      <trkpt lat="45.48159" lon="4.1875">
        <ele>442</ele>
        <time>2018-09-26T15:35:23Z</time>
      </trkpt>
      <trkpt lat="45.48049" lon="4.18748">
        <ele>443</ele>
        <time>2018-09-26T15:36:23Z</time>
      </trkpt>
      <trkpt lat="45.47988" lon="4.18735">
        <ele>442</ele>
        <time>2018-09-26T15:37:23Z</time>
      </trkpt>
      <trkpt lat="45.47922" lon="4.18689">
        <ele>446</ele>
        <time>2018-09-26T15:38:23Z</time>
      </trkpt>
      <trkpt lat="45.47893" lon="4.18658">
        <ele>448</ele>
        <time>2018-09-26T15:39:23Z</time>
      </trkpt>
      <trkpt lat="45.47872" lon="4.18625">
        <ele>449</ele>
        <time>2018-09-26T15:40:23Z</time>
      </trkpt>
      <trkpt lat="45.47837" lon="4.18573">
        <ele>449</ele>
        <time>2018-09-26T15:41:23Z</time>
      </trkpt>
      <trkpt lat="45.47748" lon="4.18362">
        <ele>454</ele>
        <time>2018-09-26T15:42:23Z</time>
      </trkpt>
      <trkpt lat="45.47725" lon="4.18306">
        <ele>457</ele>
        <time>2018-09-26T15:43:23Z</time>
      </trkpt>
      <trkpt lat="45.47643" lon="4.18207">
        <ele>461</ele>
        <time>2018-09-26T15:44:23Z</time>
      </trkpt>
      <trkpt lat="45.47544" lon="4.18086">
        <ele>466</ele>
        <time>2018-09-26T15:45:23Z</time>
      </trkpt>
      <trkpt lat="45.47477" lon="4.1799">
        <ele>471</ele>
        <time>2018-09-26T15:46:23Z</time>
      </trkpt>
      <trkpt lat="45.47406" lon="4.17824">
        <ele>472</ele>
        <time>2018-09-26T15:47:23Z</time>
      </trkpt>
      <trkpt lat="45.47358" lon="4.17739">
        <ele>474</ele>
        <time>2018-09-26T15:48:23Z</time>
      </trkpt>
      <trkpt lat="45.47344" lon="4.17718">
        <ele>475</ele>
        <time>2018-09-26T15:49:23Z</time>
      </trkpt>
      <trkpt lat="45.47309" lon="4.17716">
        <ele>473</ele>
        <time>2018-09-26T15:50:23Z</time>
      </trkpt>
      <trkpt lat="45.47278" lon="4.17656">
        <ele>474</ele>
        <time>2018-09-26T15:51:23Z</time>
      </trkpt>
      <trkpt lat="45.47231" lon="4.17624">
        <ele>475</ele>
        <time>2018-09-26T15:52:23Z</time>
      </trkpt>
      <trkpt lat="45.47215" lon="4.17611">
        <ele>476</ele>
        <time>2018-09-26T15:53:23Z</time>
      </trkpt>
      <trkpt lat="45.47223" lon="4.17664">
        <ele>475</ele>
        <time>2018-09-26T15:54:23Z</time>
      </trkpt>
      <trkpt lat="45.47234" lon="4.17723">
        <ele>473</ele>
        <time>2018-09-26T15:55:23Z</time>
      </trkpt>
      <trkpt lat="45.4723" lon="4.17754">
        <ele>474</ele>
        <time>2018-09-26T15:56:23Z</time>
      </trkpt>
      <trkpt lat="45.47212" lon="4.17758">
        <ele>476</ele>
        <time>2018-09-26T15:57:23Z</time>
      </trkpt>
      <trkpt lat="45.47191" lon="4.17813">
        <ele>481</ele>
        <time>2018-09-26T15:58:23Z</time>
      </trkpt>
      <trkpt lat="45.4718" lon="4.17864">
        <ele>482</ele>
        <time>2018-09-26T15:59:23Z</time>
      </trkpt>
      <trkpt lat="45.47168" lon="4.179">
        <ele>484</ele>
        <time>2018-09-26T16:00:23Z</time>
      </trkpt>
      <trkpt lat="45.47163" lon="4.17909">
        <ele>484</ele>
        <time>2018-09-26T16:01:23Z</time>
      </trkpt>
      <trkpt lat="45.47179" lon="4.17943">
        <ele>483</ele>
        <time>2018-09-26T16:02:23Z</time>
      </trkpt>
      <trkpt lat="45.47164" lon="4.17953">
        <ele>486</ele>
        <time>2018-09-26T16:03:23Z</time>
      </trkpt>
      <trkpt lat="45.47155" lon="4.17966">
        <ele>487</ele>
        <time>2018-09-26T16:04:23Z</time>
      </trkpt>
      <trkpt lat="45.47146" lon="4.17979">
        <ele>488</ele>
        <time>2018-09-26T16:05:23Z</time>
      </trkpt>
      <trkpt lat="45.47147" lon="4.17997">
        <ele>489</ele>
        <time>2018-09-26T16:06:23Z</time>
      </trkpt>
      <trkpt lat="45.47155" lon="4.18018">
        <ele>489</ele>
        <time>2018-09-26T16:07:23Z</time>
      </trkpt>
      <trkpt lat="45.47163" lon="4.18038">
        <ele>489</ele>
        <time>2018-09-26T16:08:23Z</time>
      </trkpt>
      <trkpt lat="45.47172" lon="4.18057">
        <ele>489</ele>
        <time>2018-09-26T16:09:23Z</time>
      </trkpt>
      <trkpt lat="45.47191" lon="4.18104">
        <ele>488</ele>
        <time>2018-09-26T16:10:23Z</time>
      </trkpt>
      <trkpt lat="45.47199" lon="4.18132">
        <ele>488</ele>
        <time>2018-09-26T16:11:23Z</time>
      </trkpt>
      <trkpt lat="45.47152" lon="4.18292">
        <ele>492</ele>
        <time>2018-09-26T16:12:23Z</time>
      </trkpt>
      <trkpt lat="45.4713" lon="4.1835">
        <ele>490</ele>
        <time>2018-09-26T16:13:23Z</time>
      </trkpt>
      <trkpt lat="45.47118" lon="4.18392">
        <ele>486</ele>
        <time>2018-09-26T16:14:23Z</time>
      </trkpt>
      <trkpt lat="45.47098" lon="4.18403">
        <ele>484</ele>
        <time>2018-09-26T16:15:23Z</time>
      </trkpt>
      <trkpt lat="45.47066" lon="4.1841">
        <ele>481</ele>
        <time>2018-09-26T16:16:23Z</time>
      </trkpt>
      <trkpt lat="45.47042" lon="4.18403">
        <ele>479</ele>
        <time>2018-09-26T16:17:23Z</time>
      </trkpt>
      <trkpt lat="45.47011" lon="4.18383">
        <ele>479</ele>
        <time>2018-09-26T16:18:23Z</time>
      </trkpt>
      <trkpt lat="45.4697" lon="4.18386">
        <ele>475</ele>
        <time>2018-09-26T16:19:23Z</time>
      </trkpt>
      <trkpt lat="45.46934" lon="4.18389">
        <ele>472</ele>
        <time>2018-09-26T16:20:23Z</time>
      </trkpt>
      <trkpt lat="45.46882" lon="4.18396">
        <ele>467</ele>
        <time>2018-09-26T16:21:23Z</time>
      </trkpt>
      <trkpt lat="45.46819" lon="4.18413">
        <ele>460</ele>
        <time>2018-09-26T16:22:23Z</time>
      </trkpt>
      <trkpt lat="45.46799" lon="4.18414">
        <ele>458</ele>
        <time>2018-09-26T16:23:23Z</time>
      </trkpt>
      <trkpt lat="45.46799" lon="4.18425">
        <ele>456</ele>
        <time>2018-09-26T16:24:23Z</time>
      </trkpt>
      <trkpt lat="45.46826" lon="4.18445">
        <ele>454</ele>
        <time>2018-09-26T16:25:23Z</time>
      </trkpt>
      <trkpt lat="45.46869" lon="4.18469">
        <ele>452</ele>
        <time>2018-09-26T16:26:23Z</time>
      </trkpt>
      <trkpt lat="45.46916" lon="4.185">
        <ele>448</ele>
        <time>2018-09-26T16:27:23Z</time>
      </trkpt>
      <trkpt lat="45.46953" lon="4.18521">
        <ele>447</ele>
        <time>2018-09-26T16:28:23Z</time>
      </trkpt>
      <trkpt lat="45.46999" lon="4.18552">
        <ele>442</ele>
        <time>2018-09-26T16:29:23Z</time>
      </trkpt>
      <trkpt lat="45.47027" lon="4.18564">
        <ele>440</ele>
        <time>2018-09-26T16:30:23Z</time>
      </trkpt>
      <trkpt lat="45.47058" lon="4.1858">
        <ele>436</ele>
        <time>2018-09-26T16:31:23Z</time>
      </trkpt>
      <trkpt lat="45.4708" lon="4.18596">
        <ele>433</ele>
        <time>2018-09-26T16:32:23Z</time>
      </trkpt>
      <trkpt lat="45.47117" lon="4.18615">
        <ele>434</ele>
        <time>2018-09-26T16:33:23Z</time>
      </trkpt>
      <trkpt lat="45.47137" lon="4.18631">
        <ele>433</ele>
        <time>2018-09-26T16:34:23Z</time>
      </trkpt>
      <trkpt lat="45.47103" lon="4.18694">
        <ele>424</ele>
        <time>2018-09-26T16:35:23Z</time>
      </trkpt>
      <trkpt lat="45.47114" lon="4.18724">
        <ele>424</ele>
        <time>2018-09-26T16:36:23Z</time>
      </trkpt>
      <trkpt lat="45.47119" lon="4.1875">
        <ele>423</ele>
        <time>2018-09-26T16:37:23Z</time>
      </trkpt>
      <trkpt lat="45.47128" lon="4.18786">
        <ele>423</ele>
        <time>2018-09-26T16:38:23Z</time>
      </trkpt>
      <trkpt lat="45.47124" lon="4.18816">
        <ele>424</ele>
        <time>2018-09-26T16:39:23Z</time>
      </trkpt>
      <trkpt lat="45.47134" lon="4.18834">
        <ele>424</ele>
        <time>2018-09-26T16:40:23Z</time>
      </trkpt>
      <trkpt lat="45.47143" lon="4.18847">
        <ele>423</ele>
        <time>2018-09-26T16:41:23Z</time>
      </trkpt>
      <trkpt lat="45.47147" lon="4.18859">
        <ele>424</ele>
        <time>2018-09-26T16:42:23Z</time>
      </trkpt>
      <trkpt lat="45.47139" lon="4.18875">
        <ele>424</ele>
        <time>2018-09-26T16:43:23Z</time>
      </trkpt>
      <trkpt lat="45.47123" lon="4.1889">
        <ele>426</ele>
        <time>2018-09-26T16:44:23Z</time>
      </trkpt>
      <trkpt lat="45.47109" lon="4.18895">
        <ele>428</ele>
        <time>2018-09-26T16:45:23Z</time>
      </trkpt>
      <trkpt lat="45.47138" lon="4.18959">
        <ele>430</ele>
        <time>2018-09-26T16:46:23Z</time>
      </trkpt>
      <trkpt lat="45.47145" lon="4.19015">
        <ele>435</ele>
        <time>2018-09-26T16:47:23Z</time>
      </trkpt>
      <trkpt lat="45.47184" lon="4.19066">
        <ele>437</ele>
        <time>2018-09-26T16:48:23Z</time>
      </trkpt>
      <trkpt lat="45.47194" lon="4.19089">
        <ele>438</ele>
        <time>2018-09-26T16:49:23Z</time>
      </trkpt>
      <trkpt lat="45.472" lon="4.19119">
        <ele>441</ele>
        <time>2018-09-26T16:50:23Z</time>
      </trkpt>
      <trkpt lat="45.47203" lon="4.19152">
        <ele>444</ele>
        <time>2018-09-26T16:51:23Z</time>
      </trkpt>
      <trkpt lat="45.47208" lon="4.19181">
        <ele>446</ele>
        <time>2018-09-26T16:52:23Z</time>
      </trkpt>
      <trkpt lat="45.47216" lon="4.19215">
        <ele>448</ele>
        <time>2018-09-26T16:53:23Z</time>
      </trkpt>
      <trkpt lat="45.47226" lon="4.19264">
        <ele>451</ele>
        <time>2018-09-26T16:54:23Z</time>
      </trkpt>
      <trkpt lat="45.47232" lon="4.19312">
        <ele>454</ele>
        <time>2018-09-26T16:55:23Z</time>
      </trkpt>
      <trkpt lat="45.47236" lon="4.19356">
        <ele>456</ele>
        <time>2018-09-26T16:56:23Z</time>
      </trkpt>
      <trkpt lat="45.47234" lon="4.1939">
        <ele>458</ele>
        <time>2018-09-26T16:57:23Z</time>
      </trkpt>
      <trkpt lat="45.47226" lon="4.19408">
        <ele>460</ele>
        <time>2018-09-26T16:58:23Z</time>
      </trkpt>
      <trkpt lat="45.47209" lon="4.19426">
        <ele>464</ele>
        <time>2018-09-26T16:59:23Z</time>
      </trkpt>
      <trkpt lat="45.47191" lon="4.19442">
        <ele>468</ele>
        <time>2018-09-26T17:00:23Z</time>
      </trkpt>
      <trkpt lat="45.47166" lon="4.19452">
        <ele>472</ele>
        <time>2018-09-26T17:01:23Z</time>
      </trkpt>
      <trkpt lat="45.47147" lon="4.19466">
        <ele>475</ele>
        <time>2018-09-26T17:02:23Z</time>
      </trkpt>
      <trkpt lat="45.47112" lon="4.19472">
        <ele>478</ele>
        <time>2018-09-26T17:03:23Z</time>
      </trkpt>
      <trkpt lat="45.47081" lon="4.19473">
        <ele>481</ele>
        <time>2018-09-26T17:04:23Z</time>
      </trkpt>
      <trkpt lat="45.47045" lon="4.19479">
        <ele>484</ele>
        <time>2018-09-26T17:05:23Z</time>
      </trkpt>
      <trkpt lat="45.47014" lon="4.19476">
        <ele>486</ele>
        <time>2018-09-26T17:06:23Z</time>
      </trkpt>
      <trkpt lat="45.47" lon="4.19482">
        <ele>487</ele>
        <time>2018-09-26T17:07:23Z</time>
      </trkpt>
      <trkpt lat="45.46994" lon="4.19501">
        <ele>489</ele>
        <time>2018-09-26T17:08:23Z</time>
      </trkpt>
      <trkpt lat="45.46994" lon="4.19522">
        <ele>490</ele>
        <time>2018-09-26T17:09:23Z</time>
      </trkpt>
      <trkpt lat="45.46975" lon="4.19537">
        <ele>492</ele>
        <time>2018-09-26T17:10:23Z</time>
      </trkpt>
      <trkpt lat="45.46957" lon="4.19558">
        <ele>495</ele>
        <time>2018-09-26T17:11:23Z</time>
      </trkpt>
      <trkpt lat="45.4691" lon="4.19605">
        <ele>500</ele>
        <time>2018-09-26T17:12:23Z</time>
      </trkpt>
      <trkpt lat="45.46893" lon="4.19608">
        <ele>501</ele>
        <time>2018-09-26T17:13:23Z</time>
      </trkpt>
      <trkpt lat="45.46871" lon="4.19606">
        <ele>504</ele>
        <time>2018-09-26T17:14:23Z</time>
      </trkpt>
      <trkpt lat="45.46846" lon="4.19613">
        <ele>506</ele>
        <time>2018-09-26T17:15:23Z</time>
      </trkpt>
      <trkpt lat="45.46791" lon="4.19611">
        <ele>511</ele>
        <time>2018-09-26T17:16:23Z</time>
      </trkpt>
      <trkpt lat="45.46709" lon="4.19699">
        <ele>520</ele>
        <time>2018-09-26T17:17:23Z</time>
      </trkpt>
      <trkpt lat="45.46709" lon="4.19743">
        <ele>519</ele>
        <time>2018-09-26T17:18:23Z</time>
      </trkpt>
      <trkpt lat="45.46699" lon="4.19781">
        <ele>519</ele>
        <time>2018-09-26T17:19:23Z</time>
      </trkpt>
      <trkpt lat="45.4669" lon="4.19818">
        <ele>519</ele>
        <time>2018-09-26T17:20:23Z</time>
      </trkpt>
      <trkpt lat="45.46671" lon="4.19874">
        <ele>520</ele>
        <time>2018-09-26T17:21:23Z</time>
      </trkpt>
      <trkpt lat="45.46655" lon="4.19922">
        <ele>519</ele>
        <time>2018-09-26T17:22:23Z</time>
      </trkpt>
      <trkpt lat="45.46644" lon="4.19945">
        <ele>519</ele>
        <time>2018-09-26T17:23:23Z</time>
      </trkpt>
      <trkpt lat="45.46651" lon="4.19962">
        <ele>517</ele>
        <time>2018-09-26T17:24:23Z</time>
      </trkpt>
      <trkpt lat="45.4665" lon="4.19995">
        <ele>516</ele>
        <time>2018-09-26T17:25:23Z</time>
      </trkpt>
      <trkpt lat="45.46639" lon="4.2002">
        <ele>514</ele>
        <time>2018-09-26T17:26:23Z</time>
      </trkpt>
      <trkpt lat="45.46631" lon="4.20025">
        <ele>514</ele>
        <time>2018-09-26T17:27:23Z</time>
      </trkpt>
      <trkpt lat="45.46621" lon="4.20026">
        <ele>515</ele>
        <time>2018-09-26T17:28:23Z</time>
      </trkpt>
      <trkpt lat="45.46608" lon="4.20021">
        <ele>517</ele>
        <time>2018-09-26T17:29:23Z</time>
      </trkpt>
      <trkpt lat="45.46574" lon="4.20031">
        <ele>519</ele>
        <time>2018-09-26T17:30:23Z</time>
      </trkpt>
      <trkpt lat="45.46531" lon="4.20049">
        <ele>521</ele>
        <time>2018-09-26T17:31:23Z</time>
      </trkpt>
      <trkpt lat="45.46497" lon="4.20059">
        <ele>523</ele>
        <time>2018-09-26T17:32:23Z</time>
      </trkpt>
      <trkpt lat="45.46471" lon="4.20055">
        <ele>525</ele>
        <time>2018-09-26T17:33:23Z</time>
      </trkpt>
      <trkpt lat="45.46461" lon="4.20055">
        <ele>526</ele>
        <time>2018-09-26T17:34:23Z</time>
      </trkpt>
      <trkpt lat="45.46437" lon="4.20024">
        <ele>530</ele>
        <time>2018-09-26T17:35:23Z</time>
      </trkpt>
      <trkpt lat="45.46428" lon="4.20016">
        <ele>531</ele>
        <time>2018-09-26T17:36:23Z</time>
      </trkpt>
      <trkpt lat="45.46398" lon="4.20008">
        <ele>534</ele>
        <time>2018-09-26T17:37:23Z</time>
      </trkpt>
      <trkpt lat="45.46364" lon="4.20003">
        <ele>537</ele>
        <time>2018-09-26T17:38:23Z</time>
      </trkpt>
      <trkpt lat="45.46321" lon="4.19989">
        <ele>543</ele>
        <time>2018-09-26T17:39:23Z</time>
      </trkpt>
      <trkpt lat="45.46307" lon="4.20007">
        <ele>543</ele>
        <time>2018-09-26T17:40:23Z</time>
      </trkpt>
      <trkpt lat="45.46274" lon="4.20045">
        <ele>545</ele>
        <time>2018-09-26T17:41:23Z</time>
      </trkpt>
      <trkpt lat="45.4626" lon="4.2006">
        <ele>546</ele>
        <time>2018-09-26T17:42:23Z</time>
      </trkpt>
      <trkpt lat="45.46244" lon="4.20075">
        <ele>547</ele>
        <time>2018-09-26T17:43:23Z</time>
      </trkpt>
      <trkpt lat="45.46182" lon="4.20102">
        <ele>551</ele>
        <time>2018-09-26T17:44:23Z</time>
      </trkpt>
      <trkpt lat="45.46138" lon="4.20132">
        <ele>553</ele>
        <time>2018-09-26T17:45:23Z</time>
      </trkpt>
      <trkpt lat="45.46076" lon="4.20181">
        <ele>554</ele>
        <time>2018-09-26T17:46:23Z</time>
      </trkpt>
      <trkpt lat="45.45979" lon="4.20251">
        <ele>561</ele>
        <time>2018-09-26T17:47:23Z</time>
      </trkpt>
      <trkpt lat="45.45957" lon="4.20268">
        <ele>563</ele>
        <time>2018-09-26T17:48:23Z</time>
      </trkpt>
      <trkpt lat="45.45908" lon="4.20295">
        <ele>567</ele>
        <time>2018-09-26T17:49:23Z</time>
      </trkpt>
      <trkpt lat="45.45888" lon="4.20309">
        <ele>569</ele>
        <time>2018-09-26T17:50:23Z</time>
      </trkpt>
      <trkpt lat="45.45829" lon="4.20318">
        <ele>575</ele>
        <time>2018-09-26T17:51:23Z</time>
      </trkpt>
      <trkpt lat="45.45774" lon="4.2033">
        <ele>578</ele>
        <time>2018-09-26T17:52:23Z</time>
      </trkpt>
      <trkpt lat="45.4573" lon="4.20345">
        <ele>580</ele>
        <time>2018-09-26T17:53:23Z</time>
      </trkpt>
      <trkpt lat="45.45695" lon="4.20362">
        <ele>582</ele>
        <time>2018-09-26T17:54:23Z</time>
      </trkpt>
      <trkpt lat="45.45671" lon="4.20372">
        <ele>584</ele>
        <time>2018-09-26T17:55:23Z</time>
      </trkpt>
      <trkpt lat="45.45635" lon="4.20378">
        <ele>587</ele>
        <time>2018-09-26T17:56:23Z</time>
      </trkpt>
      <trkpt lat="45.45604" lon="4.20414">
        <ele>590</ele>
        <time>2018-09-26T17:57:23Z</time>
      </trkpt>
      <trkpt lat="45.45577" lon="4.20453">
        <ele>593</ele>
        <time>2018-09-26T17:58:23Z</time>
      </trkpt>
      <trkpt lat="45.45563" lon="4.2049">
        <ele>595</ele>
        <time>2018-09-26T17:59:23Z</time>
      </trkpt>
      <trkpt lat="45.4554" lon="4.20565">
        <ele>597</ele>
        <time>2018-09-26T18:00:23Z</time>
      </trkpt>
      <trkpt lat="45.45513" lon="4.20633">
        <ele>600</ele>
        <time>2018-09-26T18:01:23Z</time>
      </trkpt>
      <trkpt lat="45.45483" lon="4.2071">
        <ele>603</ele>
        <time>2018-09-26T18:02:23Z</time>
      </trkpt>
      <trkpt lat="45.45462" lon="4.20771">
        <ele>601</ele>
        <time>2018-09-26T18:03:23Z</time>
      </trkpt>
      <trkpt lat="45.45453" lon="4.20801">
        <ele>599</ele>
        <time>2018-09-26T18:04:23Z</time>
      </trkpt>
      <trkpt lat="45.45433" lon="4.20812">
        <ele>599</ele>
        <time>2018-09-26T18:05:23Z</time>
      </trkpt>
      <trkpt lat="45.45415" lon="4.20817">
        <ele>599</ele>
        <time>2018-09-26T18:06:23Z</time>
      </trkpt>
      <trkpt lat="45.45403" lon="4.20815">
        <ele>600</ele>
        <time>2018-09-26T18:07:23Z</time>
      </trkpt>
      <trkpt lat="45.45389" lon="4.20805">
        <ele>603</ele>
        <time>2018-09-26T18:08:23Z</time>
      </trkpt>
      <trkpt lat="45.45379" lon="4.20792">
        <ele>605</ele>
        <time>2018-09-26T18:09:23Z</time>
      </trkpt>
      <trkpt lat="45.4537" lon="4.20792">
        <ele>606</ele>
        <time>2018-09-26T18:10:23Z</time>
      </trkpt>
      <trkpt lat="45.45373" lon="4.20818">
        <ele>604</ele>
        <time>2018-09-26T18:11:23Z</time>
      </trkpt>
      <trkpt lat="45.45375" lon="4.20851">
        <ele>602</ele>
        <time>2018-09-26T18:12:23Z</time>
      </trkpt>
      <trkpt lat="45.45371" lon="4.2087">
        <ele>602</ele>
        <time>2018-09-26T18:13:23Z</time>
      </trkpt>
      <trkpt lat="45.45361" lon="4.20894">
        <ele>603</ele>
        <time>2018-09-26T18:14:23Z</time>
      </trkpt>
      <trkpt lat="45.45346" lon="4.20909">
        <ele>605</ele>
        <time>2018-09-26T18:15:23Z</time>
      </trkpt>
      <trkpt lat="45.45342" lon="4.2093">
        <ele>605</ele>
        <time>2018-09-26T18:16:23Z</time>
      </trkpt>
      <trkpt lat="45.4535" lon="4.20975">
        <ele>605</ele>
        <time>2018-09-26T18:17:23Z</time>
      </trkpt>
      <trkpt lat="45.45366" lon="4.21003">
        <ele>604</ele>
        <time>2018-09-26T18:18:23Z</time>
      </trkpt>
      <trkpt lat="45.45404" lon="4.21101">
        <ele>603</ele>
        <time>2018-09-26T18:19:23Z</time>
      </trkpt>
      <trkpt lat="45.45423" lon="4.21137">
        <ele>601</ele>
        <time>2018-09-26T18:20:23Z</time>
      </trkpt>
      <trkpt lat="45.4561" lon="4.21248">
        <ele>599</ele>
        <time>2018-09-26T18:21:23Z</time>
      </trkpt>
      <trkpt lat="45.45638" lon="4.21276">
        <ele>598</ele>
        <time>2018-09-26T18:22:23Z</time>
      </trkpt>
      <trkpt lat="45.45648" lon="4.213">
        <ele>598</ele>
        <time>2018-09-26T18:23:23Z</time>
      </trkpt>
      <trkpt lat="45.45664" lon="4.21339">
        <ele>597</ele>
        <time>2018-09-26T18:24:23Z</time>
      </trkpt>
      <trkpt lat="45.45674" lon="4.2137">
        <ele>598</ele>
        <time>2018-09-26T18:25:23Z</time>
      </trkpt>
      <trkpt lat="45.45676" lon="4.2139">
        <ele>599</ele>
        <time>2018-09-26T18:26:23Z</time>
      </trkpt>
      <trkpt lat="45.45677" lon="4.21432">
        <ele>601</ele>
        <time>2018-09-26T18:27:23Z</time>
      </trkpt>
      <trkpt lat="45.45682" lon="4.21463">
        <ele>603</ele>
        <time>2018-09-26T18:28:23Z</time>
      </trkpt>
      <trkpt lat="45.45695" lon="4.21484">
        <ele>603</ele>
        <time>2018-09-26T18:29:23Z</time>
      </trkpt>
      <trkpt lat="45.45709" lon="4.2152">
        <ele>604</ele>
        <time>2018-09-26T18:30:23Z</time>
      </trkpt>
      <trkpt lat="45.45701" lon="4.2169">
        <ele>615</ele>
        <time>2018-09-26T18:31:23Z</time>
      </trkpt>
      <trkpt lat="45.45742" lon="4.21695">
        <ele>614</ele>
        <time>2018-09-26T18:32:23Z</time>
      </trkpt>
      <trkpt lat="45.45809" lon="4.2167">
        <ele>609</ele>
        <time>2018-09-26T18:33:23Z</time>
      </trkpt>
      <trkpt lat="45.4592" lon="4.21624">
        <ele>600</ele>
        <time>2018-09-26T18:34:23Z</time>
      </trkpt>
      <trkpt lat="45.45967" lon="4.21615">
        <ele>593</ele>
        <time>2018-09-26T18:35:23Z</time>
      </trkpt>
      <trkpt lat="45.46006" lon="4.21597">
        <ele>589</ele>
        <time>2018-09-26T18:36:23Z</time>
      </trkpt>
      <trkpt lat="45.46038" lon="4.2158">
        <ele>584</ele>
        <time>2018-09-26T18:37:23Z</time>
      </trkpt>
      <trkpt lat="45.46118" lon="4.21613">
        <ele>574</ele>
        <time>2018-09-26T18:38:23Z</time>
      </trkpt>
      <trkpt lat="45.46146" lon="4.21618">
        <ele>571</ele>
        <time>2018-09-26T18:39:23Z</time>
      </trkpt>
      <trkpt lat="45.46222" lon="4.21658">
        <ele>563</ele>
        <time>2018-09-26T18:40:23Z</time>
      </trkpt>
      <trkpt lat="45.46249" lon="4.21683">
        <ele>559</ele>
        <time>2018-09-26T18:41:23Z</time>
      </trkpt>
      <trkpt lat="45.46276" lon="4.21734">
        <ele>553</ele>
        <time>2018-09-26T18:42:23Z</time>
      </trkpt>
      <trkpt lat="45.46317" lon="4.21805">
        <ele>546</ele>
        <time>2018-09-26T18:43:23Z</time>
      </trkpt>
      <trkpt lat="45.46367" lon="4.21904">
        <ele>537</ele>
        <time>2018-09-26T18:44:23Z</time>
      </trkpt>
      <trkpt lat="45.46386" lon="4.21972">
        <ele>532</ele>
        <time>2018-09-26T18:45:23Z</time>
      </trkpt>
      <trkpt lat="45.46403" lon="4.22008">
        <ele>529</ele>
        <time>2018-09-26T18:46:23Z</time>
      </trkpt>
      <trkpt lat="45.46434" lon="4.22038">
        <ele>526</ele>
        <time>2018-09-26T18:47:23Z</time>
      </trkpt>
      <trkpt lat="45.46475" lon="4.22078">
        <ele>520</ele>
        <time>2018-09-26T18:48:23Z</time>
      </trkpt>
      <trkpt lat="45.46487" lon="4.22093">
        <ele>518</ele>
        <time>2018-09-26T18:49:23Z</time>
      </trkpt>
      <trkpt lat="45.46504" lon="4.22116">
        <ele>514</ele>
        <time>2018-09-26T18:50:23Z</time>
      </trkpt>
      <trkpt lat="45.46543" lon="4.22129">
        <ele>510</ele>
        <time>2018-09-26T18:51:23Z</time>
      </trkpt>
      <trkpt lat="45.4658" lon="4.22125">
        <ele>508</ele>
        <time>2018-09-26T18:52:23Z</time>
      </trkpt>
      <trkpt lat="45.46605" lon="4.22114">
        <ele>507</ele>
        <time>2018-09-26T18:53:23Z</time>
      </trkpt>
      <trkpt lat="45.46638" lon="4.22115">
        <ele>503</ele>
        <time>2018-09-26T18:54:23Z</time>
      </trkpt>
      <trkpt lat="45.46642" lon="4.22129">
        <ele>500</ele>
        <time>2018-09-26T18:55:23Z</time>
      </trkpt>
      <trkpt lat="45.46631" lon="4.22139">
        <ele>500</ele>
        <time>2018-09-26T18:56:23Z</time>
      </trkpt>
      <trkpt lat="45.46608" lon="4.22166">
        <ele>499</ele>
        <time>2018-09-26T18:57:23Z</time>
      </trkpt>
      <trkpt lat="45.46591" lon="4.22182">
        <ele>499</ele>
        <time>2018-09-26T18:58:23Z</time>
      </trkpt>
      <trkpt lat="45.46577" lon="4.22195">
        <ele>499</ele>
        <time>2018-09-26T18:59:23Z</time>
      </trkpt>
      <trkpt lat="45.46556" lon="4.222">
        <ele>501</ele>
        <time>2018-09-26T19:00:23Z</time>
      </trkpt>
      <trkpt lat="45.46537" lon="4.22205">
        <ele>502</ele>
        <time>2018-09-26T19:01:23Z</time>
      </trkpt>
      <trkpt lat="45.46522" lon="4.22215">
        <ele>503</ele>
        <time>2018-09-26T19:02:23Z</time>
      </trkpt>
      <trkpt lat="45.46518" lon="4.22238">
        <ele>502</ele>
        <time>2018-09-26T19:03:23Z</time>
      </trkpt>
      <trkpt lat="45.46539" lon="4.22258">
        <ele>500</ele>
        <time>2018-09-26T19:04:23Z</time>
      </trkpt>
      <trkpt lat="45.46574" lon="4.22269">
        <ele>498</ele>
        <time>2018-09-26T19:05:23Z</time>
      </trkpt>
      <trkpt lat="45.46629" lon="4.22268">
        <ele>494</ele>
        <time>2018-09-26T19:06:23Z</time>
      </trkpt>
      <trkpt lat="45.46658" lon="4.22274">
        <ele>493</ele>
        <time>2018-09-26T19:07:23Z</time>
      </trkpt>
      <trkpt lat="45.46687" lon="4.22286">
        <ele>494</ele>
        <time>2018-09-26T19:08:23Z</time>
      </trkpt>
      <trkpt lat="45.4671" lon="4.22298">
        <ele>495</ele>
        <time>2018-09-26T19:09:23Z</time>
      </trkpt>
      <trkpt lat="45.46725" lon="4.22335">
        <ele>502</ele>
        <time>2018-09-26T19:10:23Z</time>
      </trkpt>
      <trkpt lat="45.46736" lon="4.22356">
        <ele>504</ele>
        <time>2018-09-26T19:11:23Z</time>
      </trkpt>
      <trkpt lat="45.46747" lon="4.22377">
        <ele>505</ele>
        <time>2018-09-26T19:12:23Z</time>
      </trkpt>
      <trkpt lat="45.46766" lon="4.22386">
        <ele>505</ele>
        <time>2018-09-26T19:13:23Z</time>
      </trkpt>
      <trkpt lat="45.468" lon="4.22543">
        <ele>505</ele>
        <time>2018-09-26T19:14:23Z</time>
      </trkpt>
      <trkpt lat="45.46814" lon="4.22585">
        <ele>504</ele>
        <time>2018-09-26T19:15:23Z</time>
      </trkpt>
      <trkpt lat="45.46829" lon="4.2264">
        <ele>503</ele>
        <time>2018-09-26T19:16:23Z</time>
      </trkpt>
      <trkpt lat="45.46845" lon="4.22741">
        <ele>503</ele>
        <time>2018-09-26T19:17:23Z</time>
      </trkpt>
      <trkpt lat="45.46839" lon="4.22777">
        <ele>504</ele>
        <time>2018-09-26T19:18:23Z</time>
      </trkpt>
      <trkpt lat="45.46829" lon="4.22829">
        <ele>506</ele>
        <time>2018-09-26T19:19:23Z</time>
      </trkpt>
      <trkpt lat="45.46818" lon="4.2287">
        <ele>505</ele>
        <time>2018-09-26T19:20:23Z</time>
      </trkpt>
      <trkpt lat="45.46801" lon="4.22944">
        <ele>503</ele>
        <time>2018-09-26T19:21:23Z</time>
      </trkpt>
      <trkpt lat="45.46781" lon="4.22984">
        <ele>503</ele>
        <time>2018-09-26T19:22:23Z</time>
      </trkpt>
      <trkpt lat="45.46763" lon="4.23024">
        <ele>502</ele>
        <time>2018-09-26T19:23:23Z</time>
      </trkpt>
      <trkpt lat="45.46739" lon="4.23067">
        <ele>500</ele>
        <time>2018-09-26T19:24:23Z</time>
      </trkpt>
      <trkpt lat="45.4675" lon="4.23164">
        <ele>496</ele>
        <time>2018-09-26T19:25:23Z</time>
      </trkpt>
      <trkpt lat="45.46756" lon="4.23184">
        <ele>495</ele>
        <time>2018-09-26T19:26:23Z</time>
      </trkpt>
      <trkpt lat="45.46798" lon="4.23243">
        <ele>492</ele>
        <time>2018-09-26T19:27:23Z</time>
      </trkpt>
      <trkpt lat="45.4682" lon="4.2327">
        <ele>491</ele>
        <time>2018-09-26T19:28:23Z</time>
      </trkpt>
      <trkpt lat="45.46842" lon="4.23302">
        <ele>489</ele>
        <time>2018-09-26T19:29:23Z</time>
      </trkpt>
      <trkpt lat="45.46874" lon="4.23341">
        <ele>487</ele>
        <time>2018-09-26T19:30:23Z</time>
      </trkpt>
      <trkpt lat="45.46836" lon="4.23331">
        <ele>486</ele>
        <time>2018-09-26T19:31:23Z</time>
      </trkpt>
      <trkpt lat="45.4677" lon="4.23309">
        <ele>485</ele>
        <time>2018-09-26T19:32:23Z</time>
      </trkpt>
      <trkpt lat="45.46736" lon="4.23312">
        <ele>483</ele>
        <time>2018-09-26T19:33:23Z</time>
      </trkpt>
      <trkpt lat="45.46702" lon="4.23321">
        <ele>481</ele>
        <time>2018-09-26T19:34:23Z</time>
      </trkpt>
      <trkpt lat="45.46681" lon="4.23326">
        <ele>480</ele>
        <time>2018-09-26T19:35:23Z</time>
      </trkpt>
      <trkpt lat="45.46665" lon="4.23322">
        <ele>480</ele>
        <time>2018-09-26T19:36:23Z</time>
      </trkpt>
      <trkpt lat="45.4665" lon="4.23317">
        <ele>480</ele>
        <time>2018-09-26T19:37:23Z</time>
      </trkpt>
      <trkpt lat="45.46638" lon="4.23298">
        <ele>482</ele>
        <time>2018-09-26T19:38:23Z</time>
      </trkpt>
      <trkpt lat="45.46622" lon="4.23292">
        <ele>483</ele>
        <time>2018-09-26T19:39:23Z</time>
      </trkpt>
      <trkpt lat="45.466" lon="4.233">
        <ele>482</ele>
        <time>2018-09-26T19:40:23Z</time>
      </trkpt>
      <trkpt lat="45.46568" lon="4.23315">
        <ele>481</ele>
        <time>2018-09-26T19:41:23Z</time>
      </trkpt>
      <trkpt lat="45.46541" lon="4.23316">
        <ele>484</ele>
        <time>2018-09-26T19:42:23Z</time>
      </trkpt>
      <trkpt lat="45.46532" lon="4.23328">
        <ele>483</ele>
        <time>2018-09-26T19:43:23Z</time>
      </trkpt>
      <trkpt lat="45.46526" lon="4.23349">
        <ele>484</ele>
        <time>2018-09-26T19:44:23Z</time>
      </trkpt>
      <trkpt lat="45.46525" lon="4.23368">
        <ele>484</ele>
        <time>2018-09-26T19:45:23Z</time>
      </trkpt>
      <trkpt lat="45.46533" lon="4.23385">
        <ele>484</ele>
        <time>2018-09-26T19:46:23Z</time>
      </trkpt>
      <trkpt lat="45.46548" lon="4.23415">
        <ele>484</ele>
        <time>2018-09-26T19:47:23Z</time>
      </trkpt>
      <trkpt lat="45.46551" lon="4.23435">
        <ele>484</ele>
        <time>2018-09-26T19:48:23Z</time>
      </trkpt>
      <trkpt lat="45.46546" lon="4.23453">
        <ele>484</ele>
        <time>2018-09-26T19:49:23Z</time>
      </trkpt>
      <trkpt lat="45.46528" lon="4.23459">
        <ele>486</ele>
        <time>2018-09-26T19:50:23Z</time>
      </trkpt>
      <trkpt lat="45.46504" lon="4.23456">
        <ele>489</ele>
        <time>2018-09-26T19:51:23Z</time>
      </trkpt>
      <trkpt lat="45.46489" lon="4.23449">
        <ele>490</ele>
        <time>2018-09-26T19:52:23Z</time>
      </trkpt>
      <trkpt lat="45.46458" lon="4.23436">
        <ele>494</ele>
        <time>2018-09-26T19:53:23Z</time>
      </trkpt>
      <trkpt lat="45.46431" lon="4.2343">
        <ele>498</ele>
        <time>2018-09-26T19:54:23Z</time>
      </trkpt>
      <trkpt lat="45.46406" lon="4.23423">
        <ele>501</ele>
        <time>2018-09-26T19:55:23Z</time>
      </trkpt>
      <trkpt lat="45.46383" lon="4.23411">
        <ele>503</ele>
        <time>2018-09-26T19:56:23Z</time>
      </trkpt>
      <trkpt lat="45.46362" lon="4.23398">
        <ele>504</ele>
        <time>2018-09-26T19:57:23Z</time>
      </trkpt>
      <trkpt lat="45.46343" lon="4.23388">
        <ele>506</ele>
        <time>2018-09-26T19:58:23Z</time>
      </trkpt>
      <trkpt lat="45.46331" lon="4.23388">
        <ele>507</ele>
        <time>2018-09-26T19:59:23Z</time>
      </trkpt>
      <trkpt lat="45.46317" lon="4.234">
        <ele>509</ele>
        <time>2018-09-26T20:00:23Z</time>
      </trkpt>
      <trkpt lat="45.46314" lon="4.2341">
        <ele>510</ele>
        <time>2018-09-26T20:01:23Z</time>
      </trkpt>
      <trkpt lat="45.46295" lon="4.23431">
        <ele>511</ele>
        <time>2018-09-26T20:02:23Z</time>
      </trkpt>
      <trkpt lat="45.46264" lon="4.23452">
        <ele>512</ele>
        <time>2018-09-26T20:03:23Z</time>
      </trkpt>
      <trkpt lat="45.46252" lon="4.23459">
        <ele>513</ele>
        <time>2018-09-26T20:04:23Z</time>
      </trkpt>
      <trkpt lat="45.46222" lon="4.23508">
        <ele>509</ele>
        <time>2018-09-26T20:05:23Z</time>
      </trkpt>
      <trkpt lat="45.46214" lon="4.2352">
        <ele>506</ele>
        <time>2018-09-26T20:06:23Z</time>
      </trkpt>
      <trkpt lat="45.462" lon="4.23528">
        <ele>505</ele>
        <time>2018-09-26T20:07:23Z</time>
      </trkpt>
      <trkpt lat="45.46149" lon="4.23528">
        <ele>507</ele>
        <time>2018-09-26T20:08:23Z</time>
      </trkpt>
      <trkpt lat="45.46123" lon="4.2353">
        <ele>505</ele>
        <time>2018-09-26T20:09:23Z</time>
      </trkpt>
      <trkpt lat="45.46111" lon="4.23526">
        <ele>506</ele>
        <time>2018-09-26T20:10:23Z</time>
      </trkpt>
      <trkpt lat="45.4606" lon="4.23509">
        <ele>509</ele>
        <time>2018-09-26T20:11:23Z</time>
      </trkpt>
      <trkpt lat="45.46041" lon="4.2351">
        <ele>509</ele>
        <time>2018-09-26T20:12:23Z</time>
      </trkpt>
      <trkpt lat="45.45973" lon="4.23525">
        <ele>510</ele>
        <time>2018-09-26T20:13:23Z</time>
      </trkpt>
      <trkpt lat="45.4596" lon="4.23519">
        <ele>510</ele>
        <time>2018-09-26T20:14:23Z</time>
      </trkpt>
      <trkpt lat="45.45941" lon="4.2352">
        <ele>511</ele>
        <time>2018-09-26T20:15:23Z</time>
      </trkpt>
      <trkpt lat="45.45937" lon="4.23535">
        <ele>512</ele>
        <time>2018-09-26T20:16:23Z</time>
      </trkpt>
      <trkpt lat="45.46032" lon="4.23623">
        <ele>504</ele>
        <time>2018-09-26T20:17:23Z</time>
      </trkpt>
      <trkpt lat="45.46037" lon="4.23646">
        <ele>504</ele>
        <time>2018-09-26T20:18:23Z</time>
      </trkpt>
      <trkpt lat="45.46033" lon="4.23662">
        <ele>507</ele>
        <time>2018-09-26T20:19:23Z</time>
      </trkpt>
      <trkpt lat="45.46027" lon="4.23675">
        <ele>510</ele>
        <time>2018-09-26T20:20:23Z</time>
      </trkpt>
      <trkpt lat="45.46018" lon="4.237">
        <ele>515</ele>
        <time>2018-09-26T20:21:23Z</time>
      </trkpt>
      <trkpt lat="45.4603" lon="4.23714">
        <ele>514</ele>
        <time>2018-09-26T20:22:23Z</time>
      </trkpt>
      <trkpt lat="45.46056" lon="4.2372">
        <ele>509</ele>
        <time>2018-09-26T20:23:23Z</time>
      </trkpt>
      <trkpt lat="45.46071" lon="4.23741">
        <ele>509</ele>
        <time>2018-09-26T20:24:23Z</time>
      </trkpt>
      <trkpt lat="45.46085" lon="4.23758">
        <ele>508</ele>
        <time>2018-09-26T20:25:23Z</time>
      </trkpt>
      <trkpt lat="45.46087" lon="4.23775">
        <ele>510</ele>
        <time>2018-09-26T20:26:23Z</time>
      </trkpt>
      <trkpt lat="45.46073" lon="4.23791">
        <ele>515</ele>
        <time>2018-09-26T20:27:23Z</time>
      </trkpt>
      <trkpt lat="45.4606" lon="4.23804">
        <ele>520</ele>
        <time>2018-09-26T20:28:23Z</time>
      </trkpt>
      <trkpt lat="45.4604" lon="4.23816">
        <ele>526</ele>
        <time>2018-09-26T20:29:23Z</time>
      </trkpt>
      <trkpt lat="45.46035" lon="4.23827">
        <ele>529</ele>
        <time>2018-09-26T20:30:23Z</time>
      </trkpt>
      <trkpt lat="45.46033" lon="4.23842">
        <ele>532</ele>
        <time>2018-09-26T20:31:23Z</time>
      </trkpt>
      <trkpt lat="45.46062" lon="4.23864">
        <ele>532</ele>
        <time>2018-09-26T20:32:23Z</time>
      </trkpt>
      <trkpt lat="45.46118" lon="4.23898">
        <ele>528</ele>
        <time>2018-09-26T20:33:23Z</time>
      </trkpt>
      <trkpt lat="45.46155" lon="4.23931">
        <ele>527</ele>
        <time>2018-09-26T20:34:23Z</time>
      </trkpt>
      <trkpt lat="45.46172" lon="4.23955">
        <ele>529</ele>
        <time>2018-09-26T20:35:23Z</time>
      </trkpt>
      <trkpt lat="45.46197" lon="4.23994">
        <ele>530</ele>
        <time>2018-09-26T20:36:23Z</time>
      </trkpt>
      <trkpt lat="45.46208" lon="4.24026">
        <ele>531</ele>
        <time>2018-09-26T20:37:23Z</time>
      </trkpt>
      <trkpt lat="45.46204" lon="4.24055">
        <ele>536</ele>
        <time>2018-09-26T20:38:23Z</time>
      </trkpt>
      <trkpt lat="45.46197" lon="4.24072">
        <ele>542</ele>
        <time>2018-09-26T20:39:23Z</time>
      </trkpt>
      <trkpt lat="45.46194" lon="4.24096">
        <ele>546</ele>
        <time>2018-09-26T20:40:23Z</time>
      </trkpt>
      <trkpt lat="45.46201" lon="4.24118">
        <ele>546</ele>
        <time>2018-09-26T20:41:23Z</time>
      </trkpt>
      <trkpt lat="45.46223" lon="4.24133">
        <ele>541</ele>
        <time>2018-09-26T20:42:23Z</time>
      </trkpt>
      <trkpt lat="45.46212" lon="4.2414">
        <ele>545</ele>
        <time>2018-09-26T20:43:23Z</time>
      </trkpt>
      <trkpt lat="45.46194" lon="4.24129">
        <ele>549</ele>
        <time>2018-09-26T20:44:23Z</time>
      </trkpt>
      <trkpt lat="45.46182" lon="4.24115">
        <ele>552</ele>
        <time>2018-09-26T20:45:23Z</time>
      </trkpt>
      <trkpt lat="45.46175" lon="4.241">
        <ele>553</ele>
        <time>2018-09-26T20:46:23Z</time>
      </trkpt>
      <trkpt lat="45.46173" lon="4.24089">
        <ele>553</ele>
        <time>2018-09-26T20:47:23Z</time>
      </trkpt>
      <trkpt lat="45.46167" lon="4.24066">
        <ele>552</ele>
        <time>2018-09-26T20:48:23Z</time>
      </trkpt>
      <trkpt lat="45.46161" lon="4.24059">
        <ele>553</ele>
        <time>2018-09-26T20:49:23Z</time>
      </trkpt>
      <trkpt lat="45.46155" lon="4.24081">
        <ele>558</ele>
        <time>2018-09-26T20:50:23Z</time>
      </trkpt>
      <trkpt lat="45.46158" lon="4.24106">
        <ele>559</ele>
        <time>2018-09-26T20:51:23Z</time>
      </trkpt>
      <trkpt lat="45.46164" lon="4.24132">
        <ele>559</ele>
        <time>2018-09-26T20:52:23Z</time>
      </trkpt>
      <trkpt lat="45.46176" lon="4.24173">
        <ele>559</ele>
        <time>2018-09-26T20:53:23Z</time>
      </trkpt>
      <trkpt lat="45.46183" lon="4.242">
        <ele>557</ele>
        <time>2018-09-26T20:54:23Z</time>
      </trkpt>
      <trkpt lat="45.46182" lon="4.24228">
        <ele>558</ele>
        <time>2018-09-26T20:55:23Z</time>
      </trkpt>
      <trkpt lat="45.46178" lon="4.24272">
        <ele>560</ele>
        <time>2018-09-26T20:56:23Z</time>
      </trkpt>
      <trkpt lat="45.46177" lon="4.2429">
        <ele>560</ele>
        <time>2018-09-26T20:57:23Z</time>
      </trkpt>
      <trkpt lat="45.46183" lon="4.2431">
        <ele>560</ele>
        <time>2018-09-26T20:58:23Z</time>
      </trkpt>
      <trkpt lat="45.4619" lon="4.2433">
        <ele>559</ele>
        <time>2018-09-26T20:59:23Z</time>
      </trkpt>
      <trkpt lat="45.46189" lon="4.24346">
        <ele>560</ele>
        <time>2018-09-26T21:00:23Z</time>
      </trkpt>
      <trkpt lat="45.46185" lon="4.24373">
        <ele>562</ele>
        <time>2018-09-26T21:01:23Z</time>
      </trkpt>
      <trkpt lat="45.46187" lon="4.24415">
        <ele>565</ele>
        <time>2018-09-26T21:02:23Z</time>
      </trkpt>
      <trkpt lat="45.46191" lon="4.24449">
        <ele>564</ele>
        <time>2018-09-26T21:03:23Z</time>
      </trkpt>
      <trkpt lat="45.46195" lon="4.24485">
        <ele>563</ele>
        <time>2018-09-26T21:04:23Z</time>
      </trkpt>
      <trkpt lat="45.46202" lon="4.24508">
        <ele>562</ele>
        <time>2018-09-26T21:05:23Z</time>
      </trkpt>
      <trkpt lat="45.46228" lon="4.24515">
        <ele>559</ele>
        <time>2018-09-26T21:06:23Z</time>
      </trkpt>
      <trkpt lat="45.46218" lon="4.24527">
        <ele>560</ele>
        <time>2018-09-26T21:07:23Z</time>
      </trkpt>
      <trkpt lat="45.46211" lon="4.24543">
        <ele>560</ele>
        <time>2018-09-26T21:08:23Z</time>
      </trkpt>
      <trkpt lat="45.46199" lon="4.2456">
        <ele>561</ele>
        <time>2018-09-26T21:09:23Z</time>
      </trkpt>
      <trkpt lat="45.46176" lon="4.24575">
        <ele>564</ele>
        <time>2018-09-26T21:10:23Z</time>
      </trkpt>
      <trkpt lat="45.46155" lon="4.24587">
        <ele>565</ele>
        <time>2018-09-26T21:11:23Z</time>
      </trkpt>
      <trkpt lat="45.46139" lon="4.24592">
        <ele>565</ele>
        <time>2018-09-26T21:12:23Z</time>
      </trkpt>
      <trkpt lat="45.46118" lon="4.24593">
        <ele>565</ele>
        <time>2018-09-26T21:13:23Z</time>
      </trkpt>
      <trkpt lat="45.46099" lon="4.24597">
        <ele>564</ele>
        <time>2018-09-26T21:14:23Z</time>
      </trkpt>
      <trkpt lat="45.46077" lon="4.2461">
        <ele>563</ele>
        <time>2018-09-26T21:15:23Z</time>
      </trkpt>
      <trkpt lat="45.46046" lon="4.24617">
        <ele>562</ele>
        <time>2018-09-26T21:16:23Z</time>
      </trkpt>
      <trkpt lat="45.4602" lon="4.24626">
        <ele>560</ele>
        <time>2018-09-26T21:17:23Z</time>
      </trkpt>
      <trkpt lat="45.45997" lon="4.24622">
        <ele>559</ele>
        <time>2018-09-26T21:18:23Z</time>
      </trkpt>
      <trkpt lat="45.45984" lon="4.24603">
        <ele>559</ele>
        <time>2018-09-26T21:19:23Z</time>
      </trkpt>
      <trkpt lat="45.45943" lon="4.24564">
        <ele>559</ele>
        <time>2018-09-26T21:20:23Z</time>
      </trkpt>
      <trkpt lat="45.45925" lon="4.24543">
        <ele>561</ele>
        <time>2018-09-26T21:21:23Z</time>
      </trkpt>
      <trkpt lat="45.45902" lon="4.24507">
        <ele>564</ele>
        <time>2018-09-26T21:22:23Z</time>
      </trkpt>
      <trkpt lat="45.45888" lon="4.24489">
        <ele>564</ele>
        <time>2018-09-26T21:23:23Z</time>
      </trkpt>
      <trkpt lat="45.45876" lon="4.24474">
        <ele>563</ele>
        <time>2018-09-26T21:24:23Z</time>
      </trkpt>
      <trkpt lat="45.45857" lon="4.24436">
        <ele>566</ele>
        <time>2018-09-26T21:25:23Z</time>
      </trkpt>
      <trkpt lat="45.45835" lon="4.24395">
        <ele>567</ele>
        <time>2018-09-26T21:26:23Z</time>
      </trkpt>
      <trkpt lat="45.45829" lon="4.24351">
        <ele>571</ele>
        <time>2018-09-26T21:27:23Z</time>
      </trkpt>
      <trkpt lat="45.4582" lon="4.24298">
        <ele>573</ele>
        <time>2018-09-26T21:28:23Z</time>
      </trkpt>
      <trkpt lat="45.45805" lon="4.24262">
        <ele>572</ele>
        <time>2018-09-26T21:29:23Z</time>
      </trkpt>
      <trkpt lat="45.45763" lon="4.24173">
        <ele>571</ele>
        <time>2018-09-26T21:30:23Z</time>
      </trkpt>
      <trkpt lat="45.45753" lon="4.24156">
        <ele>570</ele>
        <time>2018-09-26T21:31:23Z</time>
      </trkpt>
      <trkpt lat="45.45735" lon="4.24138">
        <ele>569</ele>
        <time>2018-09-26T21:32:23Z</time>
      </trkpt>
      <trkpt lat="45.45721" lon="4.24116">
        <ele>568</ele>
        <time>2018-09-26T21:33:23Z</time>
      </trkpt>
      <trkpt lat="45.45712" lon="4.24092">
        <ele>569</ele>
        <time>2018-09-26T21:34:23Z</time>
      </trkpt>
      <trkpt lat="45.45703" lon="4.23984">
        <ele>570</ele>
        <time>2018-09-26T21:35:23Z</time>
      </trkpt>
      <trkpt lat="45.45689" lon="4.23952">
        <ele>569</ele>
        <time>2018-09-26T21:36:23Z</time>
      </trkpt>
      <trkpt lat="45.45674" lon="4.23934">
        <ele>568</ele>
        <time>2018-09-26T21:37:23Z</time>
      </trkpt>
      <trkpt lat="45.45595" lon="4.23819">
        <ele>571</ele>
        <time>2018-09-26T21:38:23Z</time>
      </trkpt>
      <trkpt lat="45.45578" lon="4.23792">
        <ele>570</ele>
        <time>2018-09-26T21:39:23Z</time>
      </trkpt>
      <trkpt lat="45.45568" lon="4.23782">
        <ele>571</ele>
        <time>2018-09-26T21:40:23Z</time>
      </trkpt>
      <trkpt lat="45.45418" lon="4.2366">
        <ele>588</ele>
        <time>2018-09-26T21:41:23Z</time>
      </trkpt>
      <trkpt lat="45.45407" lon="4.2368">
        <ele>589</ele>
        <time>2018-09-26T21:42:23Z</time>
      </trkpt>
      <trkpt lat="45.45394" lon="4.23689">
        <ele>591</ele>
        <time>2018-09-26T21:43:23Z</time>
      </trkpt>
      <trkpt lat="45.45368" lon="4.237">
        <ele>593</ele>
        <time>2018-09-26T21:44:23Z</time>
      </trkpt>
      <trkpt lat="45.45353" lon="4.23704">
        <ele>595</ele>
        <time>2018-09-26T21:45:23Z</time>
      </trkpt>
      <trkpt lat="45.4533" lon="4.23704">
        <ele>597</ele>
        <time>2018-09-26T21:46:23Z</time>
      </trkpt>
      <trkpt lat="45.45282" lon="4.23699">
        <ele>600</ele>
        <time>2018-09-26T21:47:23Z</time>
      </trkpt>
      <trkpt lat="45.45239" lon="4.23695">
        <ele>601</ele>
        <time>2018-09-26T21:48:23Z</time>
      </trkpt>
      <trkpt lat="45.4523" lon="4.23695">
        <ele>601</ele>
        <time>2018-09-26T21:49:23Z</time>
      </trkpt>
      <trkpt lat="45.45197" lon="4.237">
        <ele>600</ele>
        <time>2018-09-26T21:50:23Z</time>
      </trkpt>
      <trkpt lat="45.45168" lon="4.23699">
        <ele>599</ele>
        <time>2018-09-26T21:51:23Z</time>
      </trkpt>
      <trkpt lat="45.45146" lon="4.23694">
        <ele>597</ele>
        <time>2018-09-26T21:52:23Z</time>
      </trkpt>
      <trkpt lat="45.45142" lon="4.23656">
        <ele>597</ele>
        <time>2018-09-26T21:53:23Z</time>
      </trkpt>
      <trkpt lat="45.45124" lon="4.23663">
        <ele>596</ele>
        <time>2018-09-26T21:54:23Z</time>
      </trkpt>
      <trkpt lat="45.45105" lon="4.23662">
        <ele>595</ele>
        <time>2018-09-26T21:55:23Z</time>
      </trkpt>
      <trkpt lat="45.45093" lon="4.23673">
        <ele>594</ele>
        <time>2018-09-26T21:56:23Z</time>
      </trkpt>
      <trkpt lat="45.45084" lon="4.23665">
        <ele>594</ele>
        <time>2018-09-26T21:57:23Z</time>
      </trkpt>
      <trkpt lat="45.45063" lon="4.23638">
        <ele>594</ele>
        <time>2018-09-26T21:58:23Z</time>
      </trkpt>
      <trkpt lat="45.45054" lon="4.23617">
        <ele>594</ele>
        <time>2018-09-26T21:59:23Z</time>
      </trkpt>
      <trkpt lat="45.45051" lon="4.23573">
        <ele>595</ele>
        <time>2018-09-26T22:00:23Z</time>
      </trkpt>
      <trkpt lat="45.45041" lon="4.23571">
        <ele>595</ele>
        <time>2018-09-26T22:01:23Z</time>
      </trkpt>
      <trkpt lat="45.45032" lon="4.23589">
        <ele>595</ele>
        <time>2018-09-26T22:02:23Z</time>
      </trkpt>
      <trkpt lat="45.45029" lon="4.23614">
        <ele>594</ele>
        <time>2018-09-26T22:03:23Z</time>
      </trkpt>
      <trkpt lat="45.45032" lon="4.23655">
        <ele>594</ele>
        <time>2018-09-26T22:04:23Z</time>
      </trkpt>
      <trkpt lat="45.45039" lon="4.23695">
        <ele>593</ele>
        <time>2018-09-26T22:05:23Z</time>
      </trkpt>
      <trkpt lat="45.45037" lon="4.23729">
        <ele>591</ele>
        <time>2018-09-26T22:06:23Z</time>
      </trkpt>
      <trkpt lat="45.45025" lon="4.2374">
        <ele>591</ele>
        <time>2018-09-26T22:07:23Z</time>
      </trkpt>
      <trkpt lat="45.45014" lon="4.23757">
        <ele>591</ele>
        <time>2018-09-26T22:08:23Z</time>
      </trkpt>
      <trkpt lat="45.45017" lon="4.23788">
        <ele>591</ele>
        <time>2018-09-26T22:09:23Z</time>
      </trkpt>
      <trkpt lat="45.45018" lon="4.23816">
        <ele>591</ele>
        <time>2018-09-26T22:10:23Z</time>
      </trkpt>
      <trkpt lat="45.45022" lon="4.23844">
        <ele>591</ele>
        <time>2018-09-26T22:11:23Z</time>
      </trkpt>
      <trkpt lat="45.45029" lon="4.23871">
        <ele>592</ele>
        <time>2018-09-26T22:12:23Z</time>
      </trkpt>
      <trkpt lat="45.45031" lon="4.23894">
        <ele>592</ele>
        <time>2018-09-26T22:13:23Z</time>
      </trkpt>
      <trkpt lat="45.45032" lon="4.23912">
        <ele>593</ele>
        <time>2018-09-26T22:14:23Z</time>
      </trkpt>
      <trkpt lat="45.45043" lon="4.23968">
        <ele>592</ele>
        <time>2018-09-26T22:15:23Z</time>
      </trkpt>
      <trkpt lat="45.45035" lon="4.24008">
        <ele>596</ele>
        <time>2018-09-26T22:16:23Z</time>
      </trkpt>
      <trkpt lat="45.45027" lon="4.2405">
        <ele>599</ele>
        <time>2018-09-26T22:17:23Z</time>
      </trkpt>
      <trkpt lat="45.45031" lon="4.24077">
        <ele>598</ele>
        <time>2018-09-26T22:18:23Z</time>
      </trkpt>
      <trkpt lat="45.45063" lon="4.24124">
        <ele>592</ele>
        <time>2018-09-26T22:19:23Z</time>
      </trkpt>
      <trkpt lat="45.45066" lon="4.24145">
        <ele>591</ele>
        <time>2018-09-26T22:20:23Z</time>
      </trkpt>
      <trkpt lat="45.45063" lon="4.24161">
        <ele>592</ele>
        <time>2018-09-26T22:21:23Z</time>
      </trkpt>
      <trkpt lat="45.44993" lon="4.24183">
        <ele>603</ele>
        <time>2018-09-26T22:22:23Z</time>
      </trkpt>
      <trkpt lat="45.44972" lon="4.24186">
        <ele>605</ele>
        <time>2018-09-26T22:23:23Z</time>
      </trkpt>
      <trkpt lat="45.44952" lon="4.24191">
        <ele>608</ele>
        <time>2018-09-26T22:24:23Z</time>
      </trkpt>
      <trkpt lat="45.44924" lon="4.24187">
        <ele>612</ele>
        <time>2018-09-26T22:25:23Z</time>
      </trkpt>
      <trkpt lat="45.44819" lon="4.24153">
        <ele>623</ele>
        <time>2018-09-26T22:26:23Z</time>
      </trkpt>
      <trkpt lat="45.44674" lon="4.24114">
        <ele>623</ele>
        <time>2018-09-26T22:27:23Z</time>
      </trkpt>
      <trkpt lat="45.44661" lon="4.24112">
        <ele>622</ele>
        <time>2018-09-26T22:28:23Z</time>
      </trkpt>
      <trkpt lat="45.44633" lon="4.24086">
        <ele>621</ele>
        <time>2018-09-26T22:29:23Z</time>
      </trkpt>
      <trkpt lat="45.44596" lon="4.2407">
        <ele>619</ele>
        <time>2018-09-26T22:30:23Z</time>
      </trkpt>
      <trkpt lat="45.44557" lon="4.24059">
        <ele>618</ele>
        <time>2018-09-26T22:31:23Z</time>
      </trkpt>
      <trkpt lat="45.44516" lon="4.24055">
        <ele>618</ele>
        <time>2018-09-26T22:32:23Z</time>
      </trkpt>
      <trkpt lat="45.44439" lon="4.24014">
        <ele>617</ele>
        <time>2018-09-26T22:33:23Z</time>
      </trkpt>
      <trkpt lat="45.44384" lon="4.24018">
        <ele>621</ele>
        <time>2018-09-26T22:34:23Z</time>
      </trkpt>
      <trkpt lat="45.44369" lon="4.24021">
        <ele>623</ele>
        <time>2018-09-26T22:35:23Z</time>
      </trkpt>
      <trkpt lat="45.44354" lon="4.24009">
        <ele>624</ele>
        <time>2018-09-26T22:36:23Z</time>
      </trkpt>
      <trkpt lat="45.44342" lon="4.24001">
        <ele>624</ele>
        <time>2018-09-26T22:37:23Z</time>
      </trkpt>
      <trkpt lat="45.44332" lon="4.24003">
        <ele>625</ele>
        <time>2018-09-26T22:38:23Z</time>
      </trkpt>
      <trkpt lat="45.44358" lon="4.24023">
        <ele>624</ele>
        <time>2018-09-26T22:39:23Z</time>
      </trkpt>
      <trkpt lat="45.44366" lon="4.24037">
        <ele>624</ele>
        <time>2018-09-26T22:40:23Z</time>
      </trkpt>
      <trkpt lat="45.44366" lon="4.24073">
        <ele>627</ele>
        <time>2018-09-26T22:41:23Z</time>
      </trkpt>
      <trkpt lat="45.44367" lon="4.24112">
        <ele>626</ele>
        <time>2018-09-26T22:42:23Z</time>
      </trkpt>
      <trkpt lat="45.44363" lon="4.24137">
        <ele>626</ele>
        <time>2018-09-26T22:43:23Z</time>
      </trkpt>
      <trkpt lat="45.44351" lon="4.2414">
        <ele>626</ele>
        <time>2018-09-26T22:44:23Z</time>
      </trkpt>
      <trkpt lat="45.44315" lon="4.24143">
        <ele>627</ele>
        <time>2018-09-26T22:45:23Z</time>
      </trkpt>
      <trkpt lat="45.44253" lon="4.24141">
        <ele>627</ele>
        <time>2018-09-26T22:46:23Z</time>
      </trkpt>
      <trkpt lat="45.44216" lon="4.24154">
        <ele>627</ele>
        <time>2018-09-26T22:47:23Z</time>
      </trkpt>
      <trkpt lat="45.44153" lon="4.24169">
        <ele>625</ele>
        <time>2018-09-26T22:48:23Z</time>
      </trkpt>
      <trkpt lat="45.44136" lon="4.24166">
        <ele>622</ele>
        <time>2018-09-26T22:49:23Z</time>
      </trkpt>
      <trkpt lat="45.44129" lon="4.24156">
        <ele>621</ele>
        <time>2018-09-26T22:50:23Z</time>
      </trkpt>
      <trkpt lat="45.44155" lon="4.24143">
        <ele>628</ele>
        <time>2018-09-26T22:51:23Z</time>
      </trkpt>
      <trkpt lat="45.44162" lon="4.24132">
        <ele>631</ele>
        <time>2018-09-26T22:52:23Z</time>
      </trkpt>
      <trkpt lat="45.44164" lon="4.24122">
        <ele>632</ele>
        <time>2018-09-26T22:53:23Z</time>
      </trkpt>
      <trkpt lat="45.44153" lon="4.24125">
        <ele>630</ele>
        <time>2018-09-26T22:54:23Z</time>
      </trkpt>
      <trkpt lat="45.44144" lon="4.2413">
        <ele>627</ele>
        <time>2018-09-26T22:55:23Z</time>
      </trkpt>
      <trkpt lat="45.44133" lon="4.24126">
        <ele>626</ele>
        <time>2018-09-26T22:56:23Z</time>
      </trkpt>
      <trkpt lat="45.44128" lon="4.24116">
        <ele>626</ele>
        <time>2018-09-26T22:57:23Z</time>
      </trkpt>
      <trkpt lat="45.44126" lon="4.24098">
        <ele>627</ele>
        <time>2018-09-26T22:58:23Z</time>
      </trkpt>
      <trkpt lat="45.44126" lon="4.24085">
        <ele>629</ele>
        <time>2018-09-26T22:59:23Z</time>
      </trkpt>
      <trkpt lat="45.44126" lon="4.24066">
        <ele>630</ele>
        <time>2018-09-26T23:00:23Z</time>
      </trkpt>
      <trkpt lat="45.44135" lon="4.24056">
        <ele>632</ele>
        <time>2018-09-26T23:01:23Z</time>
      </trkpt>
      <trkpt lat="45.44149" lon="4.24041">
        <ele>634</ele>
        <time>2018-09-26T23:02:23Z</time>
      </trkpt>
      <trkpt lat="45.44156" lon="4.24019">
        <ele>635</ele>
        <time>2018-09-26T23:03:23Z</time>
      </trkpt>
      <trkpt lat="45.44158" lon="4.23989">
        <ele>635</ele>
        <time>2018-09-26T23:04:23Z</time>
      </trkpt>
      <trkpt lat="45.44158" lon="4.23978">
        <ele>635</ele>
        <time>2018-09-26T23:05:23Z</time>
      </trkpt>
      <trkpt lat="45.44158" lon="4.23968">
        <ele>634</ele>
        <time>2018-09-26T23:06:23Z</time>
      </trkpt>
      <trkpt lat="45.44153" lon="4.23963">
        <ele>634</ele>
        <time>2018-09-26T23:07:23Z</time>
      </trkpt>
      <trkpt lat="45.44163" lon="4.23833">
        <ele>630</ele>
        <time>2018-09-26T23:08:23Z</time>
      </trkpt>
      <trkpt lat="45.44167" lon="4.23806">
        <ele>631</ele>
        <time>2018-09-26T23:09:23Z</time>
      </trkpt>
      <trkpt lat="45.44175" lon="4.2378">
        <ele>632</ele>
        <time>2018-09-26T23:10:23Z</time>
      </trkpt>
      <trkpt lat="45.44187" lon="4.23764">
        <ele>633</ele>
        <time>2018-09-26T23:11:23Z</time>
      </trkpt>
      <trkpt lat="45.44221" lon="4.23747">
        <ele>634</ele>
        <time>2018-09-26T23:12:23Z</time>
      </trkpt>
      <trkpt lat="45.4422" lon="4.23737">
        <ele>635</ele>
        <time>2018-09-26T23:13:23Z</time>
      </trkpt>
      <trkpt lat="45.44229" lon="4.23699">
        <ele>638</ele>
        <time>2018-09-26T23:14:23Z</time>
      </trkpt>
      <trkpt lat="45.4424" lon="4.23643">
        <ele>643</ele>
        <time>2018-09-26T23:15:23Z</time>
      </trkpt>
      <trkpt lat="45.44244" lon="4.23605">
        <ele>646</ele>
        <time>2018-09-26T23:16:23Z</time>
      </trkpt>
      <trkpt lat="45.44252" lon="4.23552">
        <ele>650</ele>
        <time>2018-09-26T23:17:23Z</time>
      </trkpt>
      <trkpt lat="45.44262" lon="4.23503">
        <ele>654</ele>
        <time>2018-09-26T23:18:23Z</time>
      </trkpt>
      <trkpt lat="45.44273" lon="4.23459">
        <ele>655</ele>
        <time>2018-09-26T23:19:23Z</time>
      </trkpt>
      <trkpt lat="45.44287" lon="4.23416">
        <ele>656</ele>
        <time>2018-09-26T23:20:23Z</time>
      </trkpt>
      <trkpt lat="45.44291" lon="4.23386">
        <ele>657</ele>
        <time>2018-09-26T23:21:23Z</time>
      </trkpt>
      <trkpt lat="45.44291" lon="4.23373">
        <ele>657</ele>
        <time>2018-09-26T23:22:23Z</time>
      </trkpt>
      <trkpt lat="45.44286" lon="4.23351">
        <ele>659</ele>
        <time>2018-09-26T23:23:23Z</time>
      </trkpt>
      <trkpt lat="45.44281" lon="4.23335">
        <ele>660</ele>
        <time>2018-09-26T23:24:23Z</time>
      </trkpt>
      <trkpt lat="45.44273" lon="4.23315">
        <ele>661</ele>
        <time>2018-09-26T23:25:23Z</time>
      </trkpt>
      <trkpt lat="45.44271" lon="4.23305">
        <ele>661</ele>
        <time>2018-09-26T23:26:23Z</time>
      </trkpt>
      <trkpt lat="45.44259" lon="4.23288">
        <ele>663</ele>
        <time>2018-09-26T23:27:23Z</time>
      </trkpt>
      <trkpt lat="45.44226" lon="4.23284">
        <ele>667</ele>
        <time>2018-09-26T23:28:23Z</time>
      </trkpt>
      <trkpt lat="45.44197" lon="4.23272">
        <ele>671</ele>
        <time>2018-09-26T23:29:23Z</time>
      </trkpt>
      <trkpt lat="45.44168" lon="4.23259">
        <ele>676</ele>
        <time>2018-09-26T23:30:23Z</time>
      </trkpt>
      <trkpt lat="45.44136" lon="4.23242">
        <ele>678</ele>
        <time>2018-09-26T23:31:23Z</time>
      </trkpt>
      <trkpt lat="45.4411" lon="4.23228">
        <ele>681</ele>
        <time>2018-09-26T23:32:23Z</time>
      </trkpt>
      <trkpt lat="45.44088" lon="4.23223">
        <ele>683</ele>
        <time>2018-09-26T23:33:23Z</time>
      </trkpt>
      <trkpt lat="45.44062" lon="4.23221">
        <ele>686</ele>
        <time>2018-09-26T23:34:23Z</time>
      </trkpt>
      <trkpt lat="45.44035" lon="4.23225">
        <ele>688</ele>
        <time>2018-09-26T23:35:23Z</time>
      </trkpt>
      <trkpt lat="45.44004" lon="4.23226">
        <ele>691</ele>
        <time>2018-09-26T23:36:23Z</time>
      </trkpt>
      <trkpt lat="45.43978" lon="4.23228">
        <ele>693</ele>
        <time>2018-09-26T23:37:23Z</time>
      </trkpt>
      <trkpt lat="45.43962" lon="4.23227">
        <ele>693</ele>
        <time>2018-09-26T23:38:23Z</time>
      </trkpt>
      <trkpt lat="45.43945" lon="4.2322">
        <ele>694</ele>
        <time>2018-09-26T23:39:23Z</time>
      </trkpt>
      <trkpt lat="45.43914" lon="4.23196">
        <ele>696</ele>
        <time>2018-09-26T23:40:23Z</time>
      </trkpt>
      <trkpt lat="45.43869" lon="4.23153">
        <ele>700</ele>
        <time>2018-09-26T23:41:23Z</time>
      </trkpt>
      <trkpt lat="45.4386" lon="4.23142">
        <ele>701</ele>
        <time>2018-09-26T23:42:23Z</time>
      </trkpt>
      <trkpt lat="45.43817" lon="4.23119">
        <ele>702</ele>
        <time>2018-09-26T23:43:23Z</time>
      </trkpt>
      <trkpt lat="45.43784" lon="4.23097">
        <ele>701</ele>
        <time>2018-09-26T23:44:23Z</time>
      </trkpt>
      <trkpt lat="45.43755" lon="4.23072">
        <ele>701</ele>
        <time>2018-09-26T23:45:23Z</time>
      </trkpt>
      <trkpt lat="45.43696" lon="4.23022">
        <ele>702</ele>
        <time>2018-09-26T23:46:23Z</time>
      </trkpt>
      <trkpt lat="45.43635" lon="4.22966">
        <ele>704</ele>
        <time>2018-09-26T23:47:23Z</time>
      </trkpt>
      <trkpt lat="45.43616" lon="4.22948">
        <ele>705</ele>
        <time>2018-09-26T23:48:23Z</time>
      </trkpt>
      <trkpt lat="45.43608" lon="4.22933">
        <ele>705</ele>
        <time>2018-09-26T23:49:23Z</time>
      </trkpt>
      <trkpt lat="45.43599" lon="4.22915">
        <ele>705</ele>
        <time>2018-09-26T23:50:23Z</time>
      </trkpt>
      <trkpt lat="45.43588" lon="4.22894">
        <ele>704</ele>
        <time>2018-09-26T23:51:23Z</time>
      </trkpt>
      <trkpt lat="45.43569" lon="4.22864">
        <ele>703</ele>
        <time>2018-09-26T23:52:23Z</time>
      </trkpt>
      <trkpt lat="45.43557" lon="4.22848">
        <ele>702</ele>
        <time>2018-09-26T23:53:23Z</time>
      </trkpt>
      <trkpt lat="45.43547" lon="4.22841">
        <ele>703</ele>
        <time>2018-09-26T23:54:23Z</time>
      </trkpt>
      <trkpt lat="45.43529" lon="4.22828">
        <ele>703</ele>
        <time>2018-09-26T23:55:23Z</time>
      </trkpt>
      <trkpt lat="45.43506" lon="4.22813">
        <ele>703</ele>
        <time>2018-09-26T23:56:23Z</time>
      </trkpt>
      <trkpt lat="45.43473" lon="4.228">
        <ele>704</ele>
        <time>2018-09-26T23:57:23Z</time>
      </trkpt>
      <trkpt lat="45.43434" lon="4.22782">
        <ele>705</ele>
        <time>2018-09-26T23:58:23Z</time>
      </trkpt>
      <trkpt lat="45.43406" lon="4.2276">
        <ele>707</ele>
        <time>2018-09-26T23:59:23Z</time>
      </trkpt>
      <trkpt lat="45.43335" lon="4.22682">
        <ele>715</ele>
        <time>2018-09-27T00:00:23Z</time>
      </trkpt>
      <trkpt lat="45.43317" lon="4.22659">
        <ele>718</ele>
        <time>2018-09-27T00:01:23Z</time>
      </trkpt>
      <trkpt lat="45.43296" lon="4.22626">
        <ele>723</ele>
        <time>2018-09-27T00:02:23Z</time>
      </trkpt>
      <trkpt lat="45.43275" lon="4.22587">
        <ele>727</ele>
        <time>2018-09-27T00:03:23Z</time>
      </trkpt>
      <trkpt lat="45.43267" lon="4.22574">
        <ele>728</ele>
        <time>2018-09-27T00:04:23Z</time>
      </trkpt>
      <trkpt lat="45.43244" lon="4.22535">
        <ele>729</ele>
        <time>2018-09-27T00:05:23Z</time>
      </trkpt>
      <trkpt lat="45.43216" lon="4.22489">
        <ele>731</ele>
        <time>2018-09-27T00:06:23Z</time>
      </trkpt>
      <trkpt lat="45.43182" lon="4.22538">
        <ele>733</ele>
        <time>2018-09-27T00:07:23Z</time>
      </trkpt>
      <trkpt lat="45.43192" lon="4.22537">
        <ele>732</ele>
        <time>2018-09-27T00:08:23Z</time>
      </trkpt>
    </trkseg>
  </trk>
  <trk>
    <name><![CDATA[J2  Biesse la Cote Fournier]]></name>
    <trkseg>
      <trkpt lat="45.43194" lon="4.22521">
        <ele>732</ele>
        <time>2018-09-26T14:32:09Z</time>
      </trkpt>
      <trkpt lat="45.43215" lon="4.2249">
        <ele>731</ele>
        <time>2018-09-26T14:33:09Z</time>
      </trkpt>
      <trkpt lat="45.43159" lon="4.22409">
        <ele>732</ele>
        <time>2018-09-26T14:34:09Z</time>
      </trkpt>
      <trkpt lat="45.43138" lon="4.22478">
        <ele>734</ele>
        <time>2018-09-26T14:35:09Z</time>
      </trkpt>
      <trkpt lat="45.43116" lon="4.22545">
        <ele>734</ele>
        <time>2018-09-26T14:36:09Z</time>
      </trkpt>
      <trkpt lat="45.43113" lon="4.22575">
        <ele>734</ele>
        <time>2018-09-26T14:37:09Z</time>
      </trkpt>
      <trkpt lat="45.43109" lon="4.22618">
        <ele>732</ele>
        <time>2018-09-26T14:38:09Z</time>
      </trkpt>
      <trkpt lat="45.43077" lon="4.2262">
        <ele>731</ele>
        <time>2018-09-26T14:39:09Z</time>
      </trkpt>
      <trkpt lat="45.43056" lon="4.22606">
        <ele>731</ele>
        <time>2018-09-26T14:40:09Z</time>
      </trkpt>
      <trkpt lat="45.42997" lon="4.22577">
        <ele>731</ele>
        <time>2018-09-26T14:41:09Z</time>
      </trkpt>
      <trkpt lat="45.42821" lon="4.22391">
        <ele>720</ele>
        <time>2018-09-26T14:42:09Z</time>
      </trkpt>
      <trkpt lat="45.42816" lon="4.22285">
        <ele>718</ele>
        <time>2018-09-26T14:43:09Z</time>
      </trkpt>
      <trkpt lat="45.42793" lon="4.22218">
        <ele>715</ele>
        <time>2018-09-26T14:44:09Z</time>
      </trkpt>
      <trkpt lat="45.42767" lon="4.2214">
        <ele>711</ele>
        <time>2018-09-26T14:45:09Z</time>
      </trkpt>
      <trkpt lat="45.42716" lon="4.2203">
        <ele>714</ele>
        <time>2018-09-26T14:46:09Z</time>
      </trkpt>
      <trkpt lat="45.42734" lon="4.21998">
        <ele>715</ele>
        <time>2018-09-26T14:47:09Z</time>
      </trkpt>
      <trkpt lat="45.42793" lon="4.22027">
        <ele>715</ele>
        <time>2018-09-26T14:48:09Z</time>
      </trkpt>
      <trkpt lat="45.42847" lon="4.21962">
        <ele>718</ele>
        <time>2018-09-26T14:49:09Z</time>
      </trkpt>
      <trkpt lat="45.42886" lon="4.21908">
        <ele>719</ele>
        <time>2018-09-26T14:50:09Z</time>
      </trkpt>
      <trkpt lat="45.42925" lon="4.21879">
        <ele>720</ele>
        <time>2018-09-26T14:51:09Z</time>
      </trkpt>
      <trkpt lat="45.42963" lon="4.21859">
        <ele>720</ele>
        <time>2018-09-26T14:52:09Z</time>
      </trkpt>
      <trkpt lat="45.43052" lon="4.21814">
        <ele>719</ele>
        <time>2018-09-26T14:53:09Z</time>
      </trkpt>
      <trkpt lat="45.43035" lon="4.21642">
        <ele>718</ele>
        <time>2018-09-26T14:54:09Z</time>
      </trkpt>
      <trkpt lat="45.43032" lon="4.21619">
        <ele>718</ele>
        <time>2018-09-26T14:55:09Z</time>
      </trkpt>
      <trkpt lat="45.43049" lon="4.21579">
        <ele>718</ele>
        <time>2018-09-26T14:56:09Z</time>
      </trkpt>
      <trkpt lat="45.43061" lon="4.2153">
        <ele>718</ele>
        <time>2018-09-26T14:57:09Z</time>
      </trkpt>
      <trkpt lat="45.43074" lon="4.21464">
        <ele>720</ele>
        <time>2018-09-26T14:58:09Z</time>
      </trkpt>
      <trkpt lat="45.43071" lon="4.21423">
        <ele>721</ele>
        <time>2018-09-26T14:59:09Z</time>
      </trkpt>
      <trkpt lat="45.43065" lon="4.21325">
        <ele>720</ele>
        <time>2018-09-26T15:00:09Z</time>
      </trkpt>
      <trkpt lat="45.42937" lon="4.21297">
        <ele>726</ele>
        <time>2018-09-26T15:01:09Z</time>
      </trkpt>
      <trkpt lat="45.42895" lon="4.21287">
        <ele>727</ele>
        <time>2018-09-26T15:02:09Z</time>
      </trkpt>
      <trkpt lat="45.42883" lon="4.21275">
        <ele>727</ele>
        <time>2018-09-26T15:03:09Z</time>
      </trkpt>
      <trkpt lat="45.42783" lon="4.21156">
        <ele>729</ele>
        <time>2018-09-26T15:04:09Z</time>
      </trkpt>
      <trkpt lat="45.42772" lon="4.21143">
        <ele>730</ele>
        <time>2018-09-26T15:05:09Z</time>
      </trkpt>
      <trkpt lat="45.4275" lon="4.211">
        <ele>732</ele>
        <time>2018-09-26T15:06:09Z</time>
      </trkpt>
      <trkpt lat="45.42815" lon="4.2086">
        <ele>729</ele>
        <time>2018-09-26T15:07:09Z</time>
      </trkpt>
      <trkpt lat="45.42826" lon="4.20831">
        <ele>729</ele>
        <time>2018-09-26T15:08:09Z</time>
      </trkpt>
      <trkpt lat="45.4285" lon="4.20809">
        <ele>730</ele>
        <time>2018-09-26T15:09:09Z</time>
      </trkpt>
      <trkpt lat="45.42885" lon="4.20781">
        <ele>731</ele>
        <time>2018-09-26T15:10:09Z</time>
      </trkpt>
      <trkpt lat="45.42916" lon="4.20731">
        <ele>732</ele>
        <time>2018-09-26T15:11:09Z</time>
      </trkpt>
      <trkpt lat="45.42928" lon="4.20692">
        <ele>733</ele>
        <time>2018-09-26T15:12:09Z</time>
      </trkpt>
      <trkpt lat="45.42945" lon="4.20656">
        <ele>734</ele>
        <time>2018-09-26T15:13:09Z</time>
      </trkpt>
      <trkpt lat="45.42961" lon="4.20596">
        <ele>735</ele>
        <time>2018-09-26T15:14:09Z</time>
      </trkpt>
      <trkpt lat="45.42965" lon="4.20581">
        <ele>735</ele>
        <time>2018-09-26T15:15:09Z</time>
      </trkpt>
      <trkpt lat="45.42915" lon="4.20537">
        <ele>733</ele>
        <time>2018-09-26T15:16:09Z</time>
      </trkpt>
      <trkpt lat="45.42855" lon="4.20502">
        <ele>730</ele>
        <time>2018-09-26T15:17:09Z</time>
      </trkpt>
      <trkpt lat="45.42787" lon="4.20477">
        <ele>726</ele>
        <time>2018-09-26T15:18:09Z</time>
      </trkpt>
      <trkpt lat="45.42773" lon="4.20471">
        <ele>726</ele>
        <time>2018-09-26T15:19:09Z</time>
      </trkpt>
      <trkpt lat="45.42659" lon="4.20457">
        <ele>719</ele>
        <time>2018-09-26T15:20:09Z</time>
      </trkpt>
      <trkpt lat="45.42617" lon="4.20447">
        <ele>717</ele>
        <time>2018-09-26T15:21:09Z</time>
      </trkpt>
      <trkpt lat="45.42531" lon="4.20418">
        <ele>712</ele>
        <time>2018-09-26T15:22:09Z</time>
      </trkpt>
      <trkpt lat="45.42498" lon="4.20403">
        <ele>711</ele>
        <time>2018-09-26T15:23:09Z</time>
      </trkpt>
      <trkpt lat="45.42484" lon="4.20402">
        <ele>710</ele>
        <time>2018-09-26T15:24:09Z</time>
      </trkpt>
      <trkpt lat="45.42412" lon="4.20399">
        <ele>707</ele>
        <time>2018-09-26T15:25:09Z</time>
      </trkpt>
      <trkpt lat="45.42398" lon="4.20391">
        <ele>707</ele>
        <time>2018-09-26T15:26:09Z</time>
      </trkpt>
      <trkpt lat="45.42368" lon="4.20363">
        <ele>706</ele>
        <time>2018-09-26T15:27:09Z</time>
      </trkpt>
      <trkpt lat="45.42355" lon="4.20358">
        <ele>705</ele>
        <time>2018-09-26T15:28:09Z</time>
      </trkpt>
      <trkpt lat="45.4231" lon="4.20352">
        <ele>706</ele>
        <time>2018-09-26T15:29:09Z</time>
      </trkpt>
      <trkpt lat="45.42257" lon="4.2035">
        <ele>709</ele>
        <time>2018-09-26T15:30:09Z</time>
      </trkpt>
      <trkpt lat="45.42181" lon="4.20303">
        <ele>713</ele>
        <time>2018-09-26T15:31:09Z</time>
      </trkpt>
      <trkpt lat="45.4216" lon="4.20289">
        <ele>714</ele>
        <time>2018-09-26T15:32:09Z</time>
      </trkpt>
      <trkpt lat="45.4214" lon="4.20271">
        <ele>716</ele>
        <time>2018-09-26T15:33:09Z</time>
      </trkpt>
      <trkpt lat="45.42065" lon="4.20221">
        <ele>722</ele>
        <time>2018-09-26T15:34:09Z</time>
      </trkpt>
      <trkpt lat="45.42037" lon="4.20205">
        <ele>724</ele>
        <time>2018-09-26T15:35:09Z</time>
      </trkpt>
      <trkpt lat="45.41957" lon="4.20178">
        <ele>727</ele>
        <time>2018-09-26T15:36:09Z</time>
      </trkpt>
      <trkpt lat="45.41931" lon="4.20122">
        <ele>732</ele>
        <time>2018-09-26T15:37:09Z</time>
      </trkpt>
      <trkpt lat="45.41905" lon="4.20056">
        <ele>736</ele>
        <time>2018-09-26T15:38:09Z</time>
      </trkpt>
      <trkpt lat="45.41864" lon="4.1999">
        <ele>739</ele>
        <time>2018-09-26T15:39:09Z</time>
      </trkpt>
      <trkpt lat="45.4184" lon="4.19968">
        <ele>740</ele>
        <time>2018-09-26T15:40:09Z</time>
      </trkpt>
      <trkpt lat="45.41821" lon="4.19965">
        <ele>740</ele>
        <time>2018-09-26T15:41:09Z</time>
      </trkpt>
      <trkpt lat="45.41733" lon="4.19876">
        <ele>748</ele>
        <time>2018-09-26T15:42:09Z</time>
      </trkpt>
      <trkpt lat="45.41686" lon="4.19849">
        <ele>753</ele>
        <time>2018-09-26T15:43:09Z</time>
      </trkpt>
      <trkpt lat="45.41635" lon="4.19829">
        <ele>756</ele>
        <time>2018-09-26T15:44:09Z</time>
      </trkpt>
      <trkpt lat="45.41489" lon="4.19783">
        <ele>757</ele>
        <time>2018-09-26T15:45:09Z</time>
      </trkpt>
      <trkpt lat="45.41416" lon="4.19796">
        <ele>759</ele>
        <time>2018-09-26T15:46:09Z</time>
      </trkpt>
      <trkpt lat="45.4139" lon="4.19783">
        <ele>761</ele>
        <time>2018-09-26T15:47:09Z</time>
      </trkpt>
      <trkpt lat="45.41355" lon="4.19769">
        <ele>763</ele>
        <time>2018-09-26T15:48:09Z</time>
      </trkpt>
      <trkpt lat="45.41331" lon="4.19749">
        <ele>764</ele>
        <time>2018-09-26T15:49:09Z</time>
      </trkpt>
      <trkpt lat="45.41275" lon="4.19731">
        <ele>765</ele>
        <time>2018-09-26T15:50:09Z</time>
      </trkpt>
      <trkpt lat="45.41193" lon="4.19714">
        <ele>767</ele>
        <time>2018-09-26T15:51:09Z</time>
      </trkpt>
      <trkpt lat="45.41183" lon="4.1957">
        <ele>771</ele>
        <time>2018-09-26T15:52:09Z</time>
      </trkpt>
      <trkpt lat="45.41172" lon="4.19525">
        <ele>773</ele>
        <time>2018-09-26T15:53:09Z</time>
      </trkpt>
      <trkpt lat="45.4115" lon="4.19454">
        <ele>775</ele>
        <time>2018-09-26T15:54:09Z</time>
      </trkpt>
      <trkpt lat="45.4113" lon="4.19436">
        <ele>776</ele>
        <time>2018-09-26T15:55:09Z</time>
      </trkpt>
      <trkpt lat="45.41117" lon="4.194">
        <ele>776</ele>
        <time>2018-09-26T15:56:09Z</time>
      </trkpt>
      <trkpt lat="45.41098" lon="4.1934">
        <ele>776</ele>
        <time>2018-09-26T15:57:09Z</time>
      </trkpt>
      <trkpt lat="45.41098" lon="4.19296">
        <ele>775</ele>
        <time>2018-09-26T15:58:09Z</time>
      </trkpt>
      <trkpt lat="45.41104" lon="4.19245">
        <ele>776</ele>
        <time>2018-09-26T15:59:09Z</time>
      </trkpt>
      <trkpt lat="45.41121" lon="4.19194">
        <ele>777</ele>
        <time>2018-09-26T16:00:09Z</time>
      </trkpt>
      <trkpt lat="45.4115" lon="4.19121">
        <ele>775</ele>
        <time>2018-09-26T16:01:09Z</time>
      </trkpt>
      <trkpt lat="45.41161" lon="4.19084">
        <ele>773</ele>
        <time>2018-09-26T16:02:09Z</time>
      </trkpt>
      <trkpt lat="45.41198" lon="4.19032">
        <ele>770</ele>
        <time>2018-09-26T16:03:09Z</time>
      </trkpt>
      <trkpt lat="45.41206" lon="4.18986">
        <ele>768</ele>
        <time>2018-09-26T16:04:09Z</time>
      </trkpt>
      <trkpt lat="45.41218" lon="4.18923">
        <ele>765</ele>
        <time>2018-09-26T16:05:09Z</time>
      </trkpt>
      <trkpt lat="45.4122" lon="4.18872">
        <ele>763</ele>
        <time>2018-09-26T16:06:09Z</time>
      </trkpt>
      <trkpt lat="45.41241" lon="4.18798">
        <ele>763</ele>
        <time>2018-09-26T16:07:09Z</time>
      </trkpt>
      <trkpt lat="45.4125" lon="4.18743">
        <ele>765</ele>
        <time>2018-09-26T16:08:09Z</time>
      </trkpt>
      <trkpt lat="45.41248" lon="4.18704">
        <ele>766</ele>
        <time>2018-09-26T16:09:09Z</time>
      </trkpt>
      <trkpt lat="45.41272" lon="4.18552">
        <ele>768</ele>
        <time>2018-09-26T16:10:09Z</time>
      </trkpt>
      <trkpt lat="45.4132" lon="4.18466">
        <ele>770</ele>
        <time>2018-09-26T16:11:09Z</time>
      </trkpt>
      <trkpt lat="45.41357" lon="4.18411">
        <ele>770</ele>
        <time>2018-09-26T16:12:09Z</time>
      </trkpt>
      <trkpt lat="45.41396" lon="4.18411">
        <ele>771</ele>
        <time>2018-09-26T16:13:09Z</time>
      </trkpt>
      <trkpt lat="45.41482" lon="4.18362">
        <ele>769</ele>
        <time>2018-09-26T16:14:09Z</time>
      </trkpt>
      <trkpt lat="45.41502" lon="4.18358">
        <ele>769</ele>
        <time>2018-09-26T16:15:09Z</time>
      </trkpt>
      <trkpt lat="45.41498" lon="4.18316">
        <ele>766</ele>
        <time>2018-09-26T16:16:09Z</time>
      </trkpt>
      <trkpt lat="45.41548" lon="4.18142">
        <ele>755</ele>
        <time>2018-09-26T16:17:09Z</time>
      </trkpt>
      <trkpt lat="45.4158" lon="4.1808">
        <ele>753</ele>
        <time>2018-09-26T16:18:09Z</time>
      </trkpt>
      <trkpt lat="45.41614" lon="4.1798">
        <ele>743</ele>
        <time>2018-09-26T16:19:09Z</time>
      </trkpt>
      <trkpt lat="45.41616" lon="4.17956">
        <ele>742</ele>
        <time>2018-09-26T16:20:09Z</time>
      </trkpt>
      <trkpt lat="45.41617" lon="4.17904">
        <ele>740</ele>
        <time>2018-09-26T16:21:09Z</time>
      </trkpt>
      <trkpt lat="45.41627" lon="4.17862">
        <ele>739</ele>
        <time>2018-09-26T16:22:09Z</time>
      </trkpt>
      <trkpt lat="45.4165" lon="4.17824">
        <ele>737</ele>
        <time>2018-09-26T16:23:09Z</time>
      </trkpt>
      <trkpt lat="45.41657" lon="4.17802">
        <ele>736</ele>
        <time>2018-09-26T16:24:09Z</time>
      </trkpt>
      <trkpt lat="45.41695" lon="4.17735">
        <ele>728</ele>
        <time>2018-09-26T16:25:09Z</time>
      </trkpt>
      <trkpt lat="45.41742" lon="4.17686">
        <ele>722</ele>
        <time>2018-09-26T16:26:09Z</time>
      </trkpt>
      <trkpt lat="45.41783" lon="4.17671">
        <ele>721</ele>
        <time>2018-09-26T16:27:09Z</time>
      </trkpt>
      <trkpt lat="45.41831" lon="4.1767">
        <ele>721</ele>
        <time>2018-09-26T16:28:09Z</time>
      </trkpt>
      <trkpt lat="45.41872" lon="4.17666">
        <ele>721</ele>
        <time>2018-09-26T16:29:09Z</time>
      </trkpt>
      <trkpt lat="45.41907" lon="4.17646">
        <ele>721</ele>
        <time>2018-09-26T16:30:09Z</time>
      </trkpt>
      <trkpt lat="45.41916" lon="4.1763">
        <ele>720</ele>
        <time>2018-09-26T16:31:09Z</time>
      </trkpt>
      <trkpt lat="45.41927" lon="4.17563">
        <ele>717</ele>
        <time>2018-09-26T16:32:09Z</time>
      </trkpt>
      <trkpt lat="45.41954" lon="4.17531">
        <ele>715</ele>
        <time>2018-09-26T16:33:09Z</time>
      </trkpt>
      <trkpt lat="45.4201" lon="4.17469">
        <ele>711</ele>
        <time>2018-09-26T16:34:09Z</time>
      </trkpt>
      <trkpt lat="45.42053" lon="4.17438">
        <ele>710</ele>
        <time>2018-09-26T16:35:09Z</time>
      </trkpt>
      <trkpt lat="45.42113" lon="4.17423">
        <ele>707</ele>
        <time>2018-09-26T16:36:09Z</time>
      </trkpt>
      <trkpt lat="45.42184" lon="4.17425">
        <ele>703</ele>
        <time>2018-09-26T16:37:09Z</time>
      </trkpt>
      <trkpt lat="45.42192" lon="4.17385">
        <ele>703</ele>
        <time>2018-09-26T16:38:09Z</time>
      </trkpt>
      <trkpt lat="45.42203" lon="4.17322">
        <ele>701</ele>
        <time>2018-09-26T16:39:09Z</time>
      </trkpt>
      <trkpt lat="45.42224" lon="4.17255">
        <ele>693</ele>
        <time>2018-09-26T16:40:09Z</time>
      </trkpt>
      <trkpt lat="45.42221" lon="4.17223">
        <ele>691</ele>
        <time>2018-09-26T16:41:09Z</time>
      </trkpt>
      <trkpt lat="45.42217" lon="4.1719">
        <ele>688</ele>
        <time>2018-09-26T16:42:09Z</time>
      </trkpt>
      <trkpt lat="45.42212" lon="4.17146">
        <ele>684</ele>
        <time>2018-09-26T16:43:09Z</time>
      </trkpt>
      <trkpt lat="45.42212" lon="4.17115">
        <ele>681</ele>
        <time>2018-09-26T16:44:09Z</time>
      </trkpt>
      <trkpt lat="45.42227" lon="4.16988">
        <ele>670</ele>
        <time>2018-09-26T16:45:09Z</time>
      </trkpt>
      <trkpt lat="45.42199" lon="4.16878">
        <ele>665</ele>
        <time>2018-09-26T16:46:09Z</time>
      </trkpt>
      <trkpt lat="45.42191" lon="4.16837">
        <ele>661</ele>
        <time>2018-09-26T16:47:09Z</time>
      </trkpt>
      <trkpt lat="45.4218" lon="4.16713">
        <ele>648</ele>
        <time>2018-09-26T16:48:09Z</time>
      </trkpt>
      <trkpt lat="45.42174" lon="4.16673">
        <ele>644</ele>
        <time>2018-09-26T16:49:09Z</time>
      </trkpt>
      <trkpt lat="45.42172" lon="4.16641">
        <ele>641</ele>
        <time>2018-09-26T16:50:09Z</time>
      </trkpt>
      <trkpt lat="45.42175" lon="4.16602">
        <ele>636</ele>
        <time>2018-09-26T16:51:09Z</time>
      </trkpt>
      <trkpt lat="45.4218" lon="4.16576">
        <ele>634</ele>
        <time>2018-09-26T16:52:09Z</time>
      </trkpt>
      <trkpt lat="45.42175" lon="4.16565">
        <ele>633</ele>
        <time>2018-09-26T16:53:09Z</time>
      </trkpt>
      <trkpt lat="45.42169" lon="4.16547">
        <ele>631</ele>
        <time>2018-09-26T16:54:09Z</time>
      </trkpt>
      <trkpt lat="45.42167" lon="4.16529">
        <ele>629</ele>
        <time>2018-09-26T16:55:09Z</time>
      </trkpt>
      <trkpt lat="45.42176" lon="4.16503">
        <ele>627</ele>
        <time>2018-09-26T16:56:09Z</time>
      </trkpt>
      <trkpt lat="45.42148" lon="4.16478">
        <ele>628</ele>
        <time>2018-09-26T16:57:09Z</time>
      </trkpt>
      <trkpt lat="45.42143" lon="4.16463">
        <ele>628</ele>
        <time>2018-09-26T16:58:09Z</time>
      </trkpt>
      <trkpt lat="45.42145" lon="4.16451">
        <ele>628</ele>
        <time>2018-09-26T16:59:09Z</time>
      </trkpt>
      <trkpt lat="45.42151" lon="4.16435">
        <ele>628</ele>
        <time>2018-09-26T17:00:09Z</time>
      </trkpt>
      <trkpt lat="45.42126" lon="4.16422">
        <ele>629</ele>
        <time>2018-09-26T17:01:09Z</time>
      </trkpt>
      <trkpt lat="45.42103" lon="4.16403">
        <ele>629</ele>
        <time>2018-09-26T17:02:09Z</time>
      </trkpt>
      <trkpt lat="45.42086" lon="4.16389">
        <ele>629</ele>
        <time>2018-09-26T17:03:09Z</time>
      </trkpt>
      <trkpt lat="45.42026" lon="4.16389">
        <ele>635</ele>
        <time>2018-09-26T17:04:09Z</time>
      </trkpt>
      <trkpt lat="45.4201" lon="4.1641">
        <ele>639</ele>
        <time>2018-09-26T17:05:09Z</time>
      </trkpt>
      <trkpt lat="45.41995" lon="4.16435">
        <ele>642</ele>
        <time>2018-09-26T17:06:09Z</time>
      </trkpt>
      <trkpt lat="45.41974" lon="4.16471">
        <ele>645</ele>
        <time>2018-09-26T17:07:09Z</time>
      </trkpt>
      <trkpt lat="45.41952" lon="4.1649">
        <ele>648</ele>
        <time>2018-09-26T17:08:09Z</time>
      </trkpt>
      <trkpt lat="45.41905" lon="4.16504">
        <ele>653</ele>
        <time>2018-09-26T17:09:09Z</time>
      </trkpt>
      <trkpt lat="45.41872" lon="4.16486">
        <ele>657</ele>
        <time>2018-09-26T17:10:09Z</time>
      </trkpt>
      <trkpt lat="45.41829" lon="4.16441">
        <ele>663</ele>
        <time>2018-09-26T17:11:09Z</time>
      </trkpt>
      <trkpt lat="45.41804" lon="4.16435">
        <ele>665</ele>
        <time>2018-09-26T17:12:09Z</time>
      </trkpt>
      <trkpt lat="45.41787" lon="4.16437">
        <ele>666</ele>
        <time>2018-09-26T17:13:09Z</time>
      </trkpt>
      <trkpt lat="45.41722" lon="4.164">
        <ele>673</ele>
        <time>2018-09-26T17:14:09Z</time>
      </trkpt>
      <trkpt lat="45.41686" lon="4.16342">
        <ele>680</ele>
        <time>2018-09-26T17:15:09Z</time>
      </trkpt>
      <trkpt lat="45.41678" lon="4.16323">
        <ele>682</ele>
        <time>2018-09-26T17:16:09Z</time>
      </trkpt>
      <trkpt lat="45.41678" lon="4.16308">
        <ele>682</ele>
        <time>2018-09-26T17:17:09Z</time>
      </trkpt>
      <trkpt lat="45.41673" lon="4.16288">
        <ele>683</ele>
        <time>2018-09-26T17:18:09Z</time>
      </trkpt>
      <trkpt lat="45.41676" lon="4.16239">
        <ele>684</ele>
        <time>2018-09-26T17:19:09Z</time>
      </trkpt>
      <trkpt lat="45.41694" lon="4.16218">
        <ele>682</ele>
        <time>2018-09-26T17:20:09Z</time>
      </trkpt>
      <trkpt lat="45.4171" lon="4.1618">
        <ele>679</ele>
        <time>2018-09-26T17:21:09Z</time>
      </trkpt>
      <trkpt lat="45.41721" lon="4.16109">
        <ele>677</ele>
        <time>2018-09-26T17:22:09Z</time>
      </trkpt>
      <trkpt lat="45.41728" lon="4.16067">
        <ele>676</ele>
        <time>2018-09-26T17:23:09Z</time>
      </trkpt>
      <trkpt lat="45.41739" lon="4.16019">
        <ele>674</ele>
        <time>2018-09-26T17:24:09Z</time>
      </trkpt>
      <trkpt lat="45.41741" lon="4.16005">
        <ele>673</ele>
        <time>2018-09-26T17:25:09Z</time>
      </trkpt>
      <trkpt lat="45.41733" lon="4.15991">
        <ele>673</ele>
        <time>2018-09-26T17:26:09Z</time>
      </trkpt>
      <trkpt lat="45.41722" lon="4.15987">
        <ele>674</ele>
        <time>2018-09-26T17:27:09Z</time>
      </trkpt>
      <trkpt lat="45.41699" lon="4.15983">
        <ele>675</ele>
        <time>2018-09-26T17:28:09Z</time>
      </trkpt>
      <trkpt lat="45.41697" lon="4.15964">
        <ele>674</ele>
        <time>2018-09-26T17:29:09Z</time>
      </trkpt>
      <trkpt lat="45.41696" lon="4.15948">
        <ele>673</ele>
        <time>2018-09-26T17:30:09Z</time>
      </trkpt>
      <trkpt lat="45.41699" lon="4.15932">
        <ele>671</ele>
        <time>2018-09-26T17:31:09Z</time>
      </trkpt>
      <trkpt lat="45.41691" lon="4.15857">
        <ele>665</ele>
        <time>2018-09-26T17:32:09Z</time>
      </trkpt>
      <trkpt lat="45.41666" lon="4.15835">
        <ele>666</ele>
        <time>2018-09-26T17:33:09Z</time>
      </trkpt>
      <trkpt lat="45.41664" lon="4.15819">
        <ele>665</ele>
        <time>2018-09-26T17:34:09Z</time>
      </trkpt>
      <trkpt lat="45.41658" lon="4.15766">
        <ele>663</ele>
        <time>2018-09-26T17:35:09Z</time>
      </trkpt>
      <trkpt lat="45.41633" lon="4.15725">
        <ele>662</ele>
        <time>2018-09-26T17:36:09Z</time>
      </trkpt>
      <trkpt lat="45.41636" lon="4.15708">
        <ele>661</ele>
        <time>2018-09-26T17:37:09Z</time>
      </trkpt>
      <trkpt lat="45.41639" lon="4.15678">
        <ele>659</ele>
        <time>2018-09-26T17:38:09Z</time>
      </trkpt>
      <trkpt lat="45.41632" lon="4.1561">
        <ele>652</ele>
        <time>2018-09-26T17:39:09Z</time>
      </trkpt>
      <trkpt lat="45.41624" lon="4.15584">
        <ele>650</ele>
        <time>2018-09-26T17:40:09Z</time>
      </trkpt>
      <trkpt lat="45.41611" lon="4.15583">
        <ele>649</ele>
        <time>2018-09-26T17:41:09Z</time>
      </trkpt>
      <trkpt lat="45.41641" lon="4.15537">
        <ele>649</ele>
        <time>2018-09-26T17:42:09Z</time>
      </trkpt>
      <trkpt lat="45.41657" lon="4.15495">
        <ele>649</ele>
        <time>2018-09-26T17:43:09Z</time>
      </trkpt>
      <trkpt lat="45.417" lon="4.15497">
        <ele>647</ele>
        <time>2018-09-26T17:44:09Z</time>
      </trkpt>
      <trkpt lat="45.41733" lon="4.1549">
        <ele>646</ele>
        <time>2018-09-26T17:45:09Z</time>
      </trkpt>
      <trkpt lat="45.41812" lon="4.15478">
        <ele>648</ele>
        <time>2018-09-26T17:46:09Z</time>
      </trkpt>
      <trkpt lat="45.41868" lon="4.15472">
        <ele>651</ele>
        <time>2018-09-26T17:47:09Z</time>
      </trkpt>
      <trkpt lat="45.41916" lon="4.15454">
        <ele>655</ele>
        <time>2018-09-26T17:48:09Z</time>
      </trkpt>
      <trkpt lat="45.41947" lon="4.15452">
        <ele>658</ele>
        <time>2018-09-26T17:49:09Z</time>
      </trkpt>
      <trkpt lat="45.41992" lon="4.1546">
        <ele>662</ele>
        <time>2018-09-26T17:50:09Z</time>
      </trkpt>
      <trkpt lat="45.42032" lon="4.15448">
        <ele>665</ele>
        <time>2018-09-26T17:51:09Z</time>
      </trkpt>
      <trkpt lat="45.42052" lon="4.15429">
        <ele>666</ele>
        <time>2018-09-26T17:52:09Z</time>
      </trkpt>
      <trkpt lat="45.42057" lon="4.15384">
        <ele>667</ele>
        <time>2018-09-26T17:53:09Z</time>
      </trkpt>
      <trkpt lat="45.42066" lon="4.15356">
        <ele>668</ele>
        <time>2018-09-26T17:54:09Z</time>
      </trkpt>
      <trkpt lat="45.42091" lon="4.15308">
        <ele>672</ele>
        <time>2018-09-26T17:55:09Z</time>
      </trkpt>
      <trkpt lat="45.42079" lon="4.15275">
        <ele>672</ele>
        <time>2018-09-26T17:56:09Z</time>
      </trkpt>
      <trkpt lat="45.4207" lon="4.15259">
        <ele>672</ele>
        <time>2018-09-26T17:57:09Z</time>
      </trkpt>
      <trkpt lat="45.42069" lon="4.15246">
        <ele>673</ele>
        <time>2018-09-26T17:58:09Z</time>
      </trkpt>
      <trkpt lat="45.42074" lon="4.15217">
        <ele>673</ele>
        <time>2018-09-26T17:59:09Z</time>
      </trkpt>
      <trkpt lat="45.42037" lon="4.152">
        <ele>670</ele>
        <time>2018-09-26T18:00:09Z</time>
      </trkpt>
      <trkpt lat="45.42" lon="4.15172">
        <ele>668</ele>
        <time>2018-09-26T18:01:09Z</time>
      </trkpt>
      <trkpt lat="45.41967" lon="4.15146">
        <ele>666</ele>
        <time>2018-09-26T18:02:09Z</time>
      </trkpt>
      <trkpt lat="45.41945" lon="4.15118">
        <ele>664</ele>
        <time>2018-09-26T18:03:09Z</time>
      </trkpt>
      <trkpt lat="45.41919" lon="4.15068">
        <ele>662</ele>
        <time>2018-09-26T18:04:09Z</time>
      </trkpt>
      <trkpt lat="45.41899" lon="4.15036">
        <ele>661</ele>
        <time>2018-09-26T18:05:09Z</time>
      </trkpt>
      <trkpt lat="45.41879" lon="4.15011">
        <ele>661</ele>
        <time>2018-09-26T18:06:09Z</time>
      </trkpt>
      <trkpt lat="45.41868" lon="4.14948">
        <ele>663</ele>
        <time>2018-09-26T18:07:09Z</time>
      </trkpt>
      <trkpt lat="45.41851" lon="4.14883">
        <ele>666</ele>
        <time>2018-09-26T18:08:09Z</time>
      </trkpt>
      <trkpt lat="45.41859" lon="4.14839">
        <ele>668</ele>
        <time>2018-09-26T18:09:09Z</time>
      </trkpt>
      <trkpt lat="45.4187" lon="4.14803">
        <ele>670</ele>
        <time>2018-09-26T18:10:09Z</time>
      </trkpt>
      <trkpt lat="45.41888" lon="4.14759">
        <ele>674</ele>
        <time>2018-09-26T18:11:09Z</time>
      </trkpt>
      <trkpt lat="45.41943" lon="4.14637">
        <ele>679</ele>
        <time>2018-09-26T18:12:09Z</time>
      </trkpt>
      <trkpt lat="45.41989" lon="4.1455">
        <ele>684</ele>
        <time>2018-09-26T18:13:09Z</time>
      </trkpt>
      <trkpt lat="45.42033" lon="4.14466">
        <ele>684</ele>
        <time>2018-09-26T18:14:09Z</time>
      </trkpt>
      <trkpt lat="45.42061" lon="4.14386">
        <ele>684</ele>
        <time>2018-09-26T18:15:09Z</time>
      </trkpt>
      <trkpt lat="45.42079" lon="4.1432">
        <ele>682</ele>
        <time>2018-09-26T18:16:09Z</time>
      </trkpt>
      <trkpt lat="45.42094" lon="4.14251">
        <ele>681</ele>
        <time>2018-09-26T18:17:09Z</time>
      </trkpt>
      <trkpt lat="45.42109" lon="4.14148">
        <ele>678</ele>
        <time>2018-09-26T18:18:09Z</time>
      </trkpt>
      <trkpt lat="45.4212" lon="4.14071">
        <ele>677</ele>
        <time>2018-09-26T18:19:09Z</time>
      </trkpt>
      <trkpt lat="45.42148" lon="4.13911">
        <ele>679</ele>
        <time>2018-09-26T18:20:09Z</time>
      </trkpt>
      <trkpt lat="45.42161" lon="4.13827">
        <ele>678</ele>
        <time>2018-09-26T18:21:09Z</time>
      </trkpt>
      <trkpt lat="45.42156" lon="4.13789">
        <ele>678</ele>
        <time>2018-09-26T18:22:09Z</time>
      </trkpt>
      <trkpt lat="45.42153" lon="4.13754">
        <ele>677</ele>
        <time>2018-09-26T18:23:09Z</time>
      </trkpt>
      <trkpt lat="45.42152" lon="4.13705">
        <ele>677</ele>
        <time>2018-09-26T18:24:09Z</time>
      </trkpt>
      <trkpt lat="45.42157" lon="4.13676">
        <ele>676</ele>
        <time>2018-09-26T18:25:09Z</time>
      </trkpt>
      <trkpt lat="45.42162" lon="4.13658">
        <ele>676</ele>
        <time>2018-09-26T18:26:09Z</time>
      </trkpt>
      <trkpt lat="45.42178" lon="4.13628">
        <ele>676</ele>
        <time>2018-09-26T18:27:09Z</time>
      </trkpt>
      <trkpt lat="45.422" lon="4.13593">
        <ele>677</ele>
        <time>2018-09-26T18:28:09Z</time>
      </trkpt>
      <trkpt lat="45.42135" lon="4.13518">
        <ele>680</ele>
        <time>2018-09-26T18:29:09Z</time>
      </trkpt>
      <trkpt lat="45.4227" lon="4.13429">
        <ele>675</ele>
        <time>2018-09-26T18:30:09Z</time>
      </trkpt>
      <trkpt lat="45.42279" lon="4.13415">
        <ele>675</ele>
        <time>2018-09-26T18:31:09Z</time>
      </trkpt>
      <trkpt lat="45.42287" lon="4.13397">
        <ele>673</ele>
        <time>2018-09-26T18:32:09Z</time>
      </trkpt>
      <trkpt lat="45.42295" lon="4.13376">
        <ele>671</ele>
        <time>2018-09-26T18:33:09Z</time>
      </trkpt>
      <trkpt lat="45.42327" lon="4.13341">
        <ele>669</ele>
        <time>2018-09-26T18:34:09Z</time>
      </trkpt>
      <trkpt lat="45.42356" lon="4.13307">
        <ele>666</ele>
        <time>2018-09-26T18:35:09Z</time>
      </trkpt>
      <trkpt lat="45.42372" lon="4.13294">
        <ele>665</ele>
        <time>2018-09-26T18:36:09Z</time>
      </trkpt>
      <trkpt lat="45.42383" lon="4.13287">
        <ele>665</ele>
        <time>2018-09-26T18:37:09Z</time>
      </trkpt>
      <trkpt lat="45.42431" lon="4.13233">
        <ele>663</ele>
        <time>2018-09-26T18:38:09Z</time>
      </trkpt>
      <trkpt lat="45.42471" lon="4.1319">
        <ele>660</ele>
        <time>2018-09-26T18:39:09Z</time>
      </trkpt>
      <trkpt lat="45.42486" lon="4.13169">
        <ele>659</ele>
        <time>2018-09-26T18:40:09Z</time>
      </trkpt>
      <trkpt lat="45.42492" lon="4.13139">
        <ele>658</ele>
        <time>2018-09-26T18:41:09Z</time>
      </trkpt>
      <trkpt lat="45.42495" lon="4.13108">
        <ele>658</ele>
        <time>2018-09-26T18:42:09Z</time>
      </trkpt>
      <trkpt lat="45.42505" lon="4.13069">
        <ele>658</ele>
        <time>2018-09-26T18:43:09Z</time>
      </trkpt>
      <trkpt lat="45.42516" lon="4.13042">
        <ele>657</ele>
        <time>2018-09-26T18:44:09Z</time>
      </trkpt>
      <trkpt lat="45.42678" lon="4.12935">
        <ele>646</ele>
        <time>2018-09-26T18:45:09Z</time>
      </trkpt>
      <trkpt lat="45.42708" lon="4.12939">
        <ele>643</ele>
        <time>2018-09-26T18:46:09Z</time>
      </trkpt>
      <trkpt lat="45.4277" lon="4.12989">
        <ele>634</ele>
        <time>2018-09-26T18:47:09Z</time>
      </trkpt>
      <trkpt lat="45.42817" lon="4.12997">
        <ele>631</ele>
        <time>2018-09-26T18:48:09Z</time>
      </trkpt>
      <trkpt lat="45.42872" lon="4.13013">
        <ele>624</ele>
        <time>2018-09-26T18:49:09Z</time>
      </trkpt>
      <trkpt lat="45.42906" lon="4.13049">
        <ele>618</ele>
        <time>2018-09-26T18:50:09Z</time>
      </trkpt>
      <trkpt lat="45.42923" lon="4.13046">
        <ele>617</ele>
        <time>2018-09-26T18:51:09Z</time>
      </trkpt>
      <trkpt lat="45.42931" lon="4.13028">
        <ele>616</ele>
        <time>2018-09-26T18:52:09Z</time>
      </trkpt>
      <trkpt lat="45.42942" lon="4.13017">
        <ele>615</ele>
        <time>2018-09-26T18:53:09Z</time>
      </trkpt>
      <trkpt lat="45.42958" lon="4.13004">
        <ele>613</ele>
        <time>2018-09-26T18:54:09Z</time>
      </trkpt>
      <trkpt lat="45.42978" lon="4.12979">
        <ele>609</ele>
        <time>2018-09-26T18:55:09Z</time>
      </trkpt>
      <trkpt lat="45.42998" lon="4.12989">
        <ele>606</ele>
        <time>2018-09-26T18:56:09Z</time>
      </trkpt>
      <trkpt lat="45.42974" lon="4.12898">
        <ele>609</ele>
        <time>2018-09-26T18:57:09Z</time>
      </trkpt>
      <trkpt lat="45.42968" lon="4.12867">
        <ele>610</ele>
        <time>2018-09-26T18:58:09Z</time>
      </trkpt>
      <trkpt lat="45.4297" lon="4.12833">
        <ele>610</ele>
        <time>2018-09-26T18:59:09Z</time>
      </trkpt>
      <trkpt lat="45.42973" lon="4.12795">
        <ele>611</ele>
        <time>2018-09-26T19:00:09Z</time>
      </trkpt>
      <trkpt lat="45.42977" lon="4.12746">
        <ele>612</ele>
        <time>2018-09-26T19:01:09Z</time>
      </trkpt>
      <trkpt lat="45.42974" lon="4.12717">
        <ele>614</ele>
        <time>2018-09-26T19:02:09Z</time>
      </trkpt>
      <trkpt lat="45.42959" lon="4.12685">
        <ele>618</ele>
        <time>2018-09-26T19:03:09Z</time>
      </trkpt>
      <trkpt lat="45.42952" lon="4.12662">
        <ele>619</ele>
        <time>2018-09-26T19:04:09Z</time>
      </trkpt>
      <trkpt lat="45.42938" lon="4.12648">
        <ele>620</ele>
        <time>2018-09-26T19:05:09Z</time>
      </trkpt>
      <trkpt lat="45.42919" lon="4.12629">
        <ele>621</ele>
        <time>2018-09-26T19:06:09Z</time>
      </trkpt>
      <trkpt lat="45.42902" lon="4.12618">
        <ele>621</ele>
        <time>2018-09-26T19:07:09Z</time>
      </trkpt>
      <trkpt lat="45.42856" lon="4.12607">
        <ele>620</ele>
        <time>2018-09-26T19:08:09Z</time>
      </trkpt>
      <trkpt lat="45.42883" lon="4.12529">
        <ele>619</ele>
        <time>2018-09-26T19:09:09Z</time>
      </trkpt>
      <trkpt lat="45.42882" lon="4.12499">
        <ele>618</ele>
        <time>2018-09-26T19:10:09Z</time>
      </trkpt>
      <trkpt lat="45.42883" lon="4.1245">
        <ele>616</ele>
        <time>2018-09-26T19:11:09Z</time>
      </trkpt>
      <trkpt lat="45.42885" lon="4.12427">
        <ele>616</ele>
        <time>2018-09-26T19:12:09Z</time>
      </trkpt>
      <trkpt lat="45.42891" lon="4.12365">
        <ele>612</ele>
        <time>2018-09-26T19:13:09Z</time>
      </trkpt>
      <trkpt lat="45.42892" lon="4.12328">
        <ele>610</ele>
        <time>2018-09-26T19:14:09Z</time>
      </trkpt>
      <trkpt lat="45.42882" lon="4.12278">
        <ele>608</ele>
        <time>2018-09-26T19:15:09Z</time>
      </trkpt>
      <trkpt lat="45.42878" lon="4.12236">
        <ele>608</ele>
        <time>2018-09-26T19:16:09Z</time>
      </trkpt>
      <trkpt lat="45.42884" lon="4.12171">
        <ele>606</ele>
        <time>2018-09-26T19:17:09Z</time>
      </trkpt>
      <trkpt lat="45.42894" lon="4.12124">
        <ele>602</ele>
        <time>2018-09-26T19:18:09Z</time>
      </trkpt>
      <trkpt lat="45.42905" lon="4.12104">
        <ele>599</ele>
        <time>2018-09-26T19:19:09Z</time>
      </trkpt>
      <trkpt lat="45.42951" lon="4.12071">
        <ele>593</ele>
        <time>2018-09-26T19:20:09Z</time>
      </trkpt>
      <trkpt lat="45.42979" lon="4.11969">
        <ele>592</ele>
        <time>2018-09-26T19:21:09Z</time>
      </trkpt>
      <trkpt lat="45.43036" lon="4.11947">
        <ele>592</ele>
        <time>2018-09-26T19:22:09Z</time>
      </trkpt>
      <trkpt lat="45.43013" lon="4.11925">
        <ele>594</ele>
        <time>2018-09-26T19:23:09Z</time>
      </trkpt>
      <trkpt lat="45.43009" lon="4.11912">
        <ele>595</ele>
        <time>2018-09-26T19:24:09Z</time>
      </trkpt>
      <trkpt lat="45.43007" lon="4.11894">
        <ele>596</ele>
        <time>2018-09-26T19:25:09Z</time>
      </trkpt>
      <trkpt lat="45.42998" lon="4.11871">
        <ele>598</ele>
        <time>2018-09-26T19:26:09Z</time>
      </trkpt>
      <trkpt lat="45.42939" lon="4.11732">
        <ele>606</ele>
        <time>2018-09-26T19:27:09Z</time>
      </trkpt>
      <trkpt lat="45.42906" lon="4.11648">
        <ele>611</ele>
        <time>2018-09-26T19:28:09Z</time>
      </trkpt>
      <trkpt lat="45.42867" lon="4.11561">
        <ele>615</ele>
        <time>2018-09-26T19:29:09Z</time>
      </trkpt>
      <trkpt lat="45.4285" lon="4.11532">
        <ele>617</ele>
        <time>2018-09-26T19:30:09Z</time>
      </trkpt>
      <trkpt lat="45.42815" lon="4.11494">
        <ele>619</ele>
        <time>2018-09-26T19:31:09Z</time>
      </trkpt>
      <trkpt lat="45.42802" lon="4.11463">
        <ele>620</ele>
        <time>2018-09-26T19:32:09Z</time>
      </trkpt>
      <trkpt lat="45.4279" lon="4.11438">
        <ele>620</ele>
        <time>2018-09-26T19:33:09Z</time>
      </trkpt>
      <trkpt lat="45.42778" lon="4.1142">
        <ele>620</ele>
        <time>2018-09-26T19:34:09Z</time>
      </trkpt>
      <trkpt lat="45.42761" lon="4.11415">
        <ele>619</ele>
        <time>2018-09-26T19:35:09Z</time>
      </trkpt>
      <trkpt lat="45.42743" lon="4.11424">
        <ele>617</ele>
        <time>2018-09-26T19:36:09Z</time>
      </trkpt>
      <trkpt lat="45.4273" lon="4.11432">
        <ele>616</ele>
        <time>2018-09-26T19:37:09Z</time>
      </trkpt>
      <trkpt lat="45.42689" lon="4.11471">
        <ele>610</ele>
        <time>2018-09-26T19:38:09Z</time>
      </trkpt>
      <trkpt lat="45.42648" lon="4.11502">
        <ele>605</ele>
        <time>2018-09-26T19:39:09Z</time>
      </trkpt>
      <trkpt lat="45.42613" lon="4.11543">
        <ele>601</ele>
        <time>2018-09-26T19:40:09Z</time>
      </trkpt>
      <trkpt lat="45.42592" lon="4.11492">
        <ele>601</ele>
        <time>2018-09-26T19:41:09Z</time>
      </trkpt>
      <trkpt lat="45.4257" lon="4.11477">
        <ele>601</ele>
        <time>2018-09-26T19:42:09Z</time>
      </trkpt>
      <trkpt lat="45.42553" lon="4.11457">
        <ele>602</ele>
        <time>2018-09-26T19:43:09Z</time>
      </trkpt>
      <trkpt lat="45.42545" lon="4.11417">
        <ele>606</ele>
        <time>2018-09-26T19:44:09Z</time>
      </trkpt>
      <trkpt lat="45.42535" lon="4.11403">
        <ele>608</ele>
        <time>2018-09-26T19:45:09Z</time>
      </trkpt>
      <trkpt lat="45.42521" lon="4.11383">
        <ele>612</ele>
        <time>2018-09-26T19:46:09Z</time>
      </trkpt>
      <trkpt lat="45.42462" lon="4.11361">
        <ele>622</ele>
        <time>2018-09-26T19:47:09Z</time>
      </trkpt>
      <trkpt lat="45.42429" lon="4.11348">
        <ele>627</ele>
        <time>2018-09-26T19:48:09Z</time>
      </trkpt>
      <trkpt lat="45.42346" lon="4.11317">
        <ele>640</ele>
        <time>2018-09-26T19:49:09Z</time>
      </trkpt>
      <trkpt lat="45.42308" lon="4.11293">
        <ele>642</ele>
        <time>2018-09-26T19:50:09Z</time>
      </trkpt>
      <trkpt lat="45.42248" lon="4.11261">
        <ele>644</ele>
        <time>2018-09-26T19:51:09Z</time>
      </trkpt>
      <trkpt lat="45.42195" lon="4.11259">
        <ele>648</ele>
        <time>2018-09-26T19:52:09Z</time>
      </trkpt>
      <trkpt lat="45.42138" lon="4.11272">
        <ele>651</ele>
        <time>2018-09-26T19:53:09Z</time>
      </trkpt>
      <trkpt lat="45.42105" lon="4.11291">
        <ele>653</ele>
        <time>2018-09-26T19:54:09Z</time>
      </trkpt>
      <trkpt lat="45.42071" lon="4.1131">
        <ele>654</ele>
        <time>2018-09-26T19:55:09Z</time>
      </trkpt>
      <trkpt lat="45.42027" lon="4.11321">
        <ele>656</ele>
        <time>2018-09-26T19:56:09Z</time>
      </trkpt>
      <trkpt lat="45.41982" lon="4.11317">
        <ele>657</ele>
        <time>2018-09-26T19:57:09Z</time>
      </trkpt>
      <trkpt lat="45.41912" lon="4.11291">
        <ele>657</ele>
        <time>2018-09-26T19:58:09Z</time>
      </trkpt>
      <trkpt lat="45.4183" lon="4.11265">
        <ele>661</ele>
        <time>2018-09-26T19:59:09Z</time>
      </trkpt>
      <trkpt lat="45.41811" lon="4.11269">
        <ele>661</ele>
        <time>2018-09-26T20:00:09Z</time>
      </trkpt>
      <trkpt lat="45.4182" lon="4.11307">
        <ele>661</ele>
        <time>2018-09-26T20:01:09Z</time>
      </trkpt>
      <trkpt lat="45.41822" lon="4.11363">
        <ele>659</ele>
        <time>2018-09-26T20:02:09Z</time>
      </trkpt>
      <trkpt lat="45.41823" lon="4.11411">
        <ele>657</ele>
        <time>2018-09-26T20:03:09Z</time>
      </trkpt>
      <trkpt lat="45.4182" lon="4.11432">
        <ele>655</ele>
        <time>2018-09-26T20:04:09Z</time>
      </trkpt>
      <trkpt lat="45.41807" lon="4.11469">
        <ele>652</ele>
        <time>2018-09-26T20:05:09Z</time>
      </trkpt>
      <trkpt lat="45.418" lon="4.11504">
        <ele>649</ele>
        <time>2018-09-26T20:06:09Z</time>
      </trkpt>
      <trkpt lat="45.41796" lon="4.11538">
        <ele>645</ele>
        <time>2018-09-26T20:07:09Z</time>
      </trkpt>
      <trkpt lat="45.41803" lon="4.1156">
        <ele>642</ele>
        <time>2018-09-26T20:08:09Z</time>
      </trkpt>
      <trkpt lat="45.4181" lon="4.1159">
        <ele>639</ele>
        <time>2018-09-26T20:09:09Z</time>
      </trkpt>
      <trkpt lat="45.41808" lon="4.11616">
        <ele>636</ele>
        <time>2018-09-26T20:10:09Z</time>
      </trkpt>
      <trkpt lat="45.41796" lon="4.11636">
        <ele>634</ele>
        <time>2018-09-26T20:11:09Z</time>
      </trkpt>
      <trkpt lat="45.41779" lon="4.11634">
        <ele>634</ele>
        <time>2018-09-26T20:12:09Z</time>
      </trkpt>
      <trkpt lat="45.41764" lon="4.11631">
        <ele>634</ele>
        <time>2018-09-26T20:13:09Z</time>
      </trkpt>
      <trkpt lat="45.41754" lon="4.11617">
        <ele>635</ele>
        <time>2018-09-26T20:14:09Z</time>
      </trkpt>
      <trkpt lat="45.41744" lon="4.11598">
        <ele>637</ele>
        <time>2018-09-26T20:15:09Z</time>
      </trkpt>
      <trkpt lat="45.41734" lon="4.11587">
        <ele>639</ele>
        <time>2018-09-26T20:16:09Z</time>
      </trkpt>
      <trkpt lat="45.41721" lon="4.11588">
        <ele>639</ele>
        <time>2018-09-26T20:17:09Z</time>
      </trkpt>
      <trkpt lat="45.41714" lon="4.11607">
        <ele>636</ele>
        <time>2018-09-26T20:18:09Z</time>
      </trkpt>
      <trkpt lat="45.41704" lon="4.11619">
        <ele>634</ele>
        <time>2018-09-26T20:19:09Z</time>
      </trkpt>
      <trkpt lat="45.41696" lon="4.11633">
        <ele>632</ele>
        <time>2018-09-26T20:20:09Z</time>
      </trkpt>
      <trkpt lat="45.4167" lon="4.11648">
        <ele>629</ele>
        <time>2018-09-26T20:21:09Z</time>
      </trkpt>
      <trkpt lat="45.41631" lon="4.11656">
        <ele>630</ele>
        <time>2018-09-26T20:22:09Z</time>
      </trkpt>
      <trkpt lat="45.41597" lon="4.11666">
        <ele>631</ele>
        <time>2018-09-26T20:23:09Z</time>
      </trkpt>
      <trkpt lat="45.41591" lon="4.11685">
        <ele>628</ele>
        <time>2018-09-26T20:24:09Z</time>
      </trkpt>
      <trkpt lat="45.41598" lon="4.11709">
        <ele>623</ele>
        <time>2018-09-26T20:25:09Z</time>
      </trkpt>
      <trkpt lat="45.41599" lon="4.11726">
        <ele>620</ele>
        <time>2018-09-26T20:26:09Z</time>
      </trkpt>
      <trkpt lat="45.41588" lon="4.11753">
        <ele>617</ele>
        <time>2018-09-26T20:27:09Z</time>
      </trkpt>
      <trkpt lat="45.41581" lon="4.11772">
        <ele>617</ele>
        <time>2018-09-26T20:28:09Z</time>
      </trkpt>
      <trkpt lat="45.41585" lon="4.11814">
        <ele>617</ele>
        <time>2018-09-26T20:29:09Z</time>
      </trkpt>
      <trkpt lat="45.41612" lon="4.11833">
        <ele>615</ele>
        <time>2018-09-26T20:30:09Z</time>
      </trkpt>
      <trkpt lat="45.41608" lon="4.11865">
        <ele>618</ele>
        <time>2018-09-26T20:31:09Z</time>
      </trkpt>
      <trkpt lat="45.41607" lon="4.11897">
        <ele>622</ele>
        <time>2018-09-26T20:32:09Z</time>
      </trkpt>
      <trkpt lat="45.41609" lon="4.11925">
        <ele>624</ele>
        <time>2018-09-26T20:33:09Z</time>
      </trkpt>
      <trkpt lat="45.4161" lon="4.11952">
        <ele>626</ele>
        <time>2018-09-26T20:34:09Z</time>
      </trkpt>
      <trkpt lat="45.41602" lon="4.11963">
        <ele>627</ele>
        <time>2018-09-26T20:35:09Z</time>
      </trkpt>
      <trkpt lat="45.41593" lon="4.11973">
        <ele>627</ele>
        <time>2018-09-26T20:36:09Z</time>
      </trkpt>
      <trkpt lat="45.4156" lon="4.12014">
        <ele>631</ele>
        <time>2018-09-26T20:37:09Z</time>
      </trkpt>
      <trkpt lat="45.41516" lon="4.12079">
        <ele>634</ele>
        <time>2018-09-26T20:38:09Z</time>
      </trkpt>
      <trkpt lat="45.41496" lon="4.12125">
        <ele>638</ele>
        <time>2018-09-26T20:39:09Z</time>
      </trkpt>
      <trkpt lat="45.41472" lon="4.12185">
        <ele>645</ele>
        <time>2018-09-26T20:40:09Z</time>
      </trkpt>
      <trkpt lat="45.41464" lon="4.12204">
        <ele>646</ele>
        <time>2018-09-26T20:41:09Z</time>
      </trkpt>
      <trkpt lat="45.41444" lon="4.12254">
        <ele>649</ele>
        <time>2018-09-26T20:42:09Z</time>
      </trkpt>
      <trkpt lat="45.41432" lon="4.123">
        <ele>654</ele>
        <time>2018-09-26T20:43:09Z</time>
      </trkpt>
      <trkpt lat="45.41428" lon="4.12338">
        <ele>658</ele>
        <time>2018-09-26T20:44:09Z</time>
      </trkpt>
      <trkpt lat="45.41417" lon="4.1239">
        <ele>663</ele>
        <time>2018-09-26T20:45:09Z</time>
      </trkpt>
      <trkpt lat="45.4142" lon="4.12445">
        <ele>670</ele>
        <time>2018-09-26T20:46:09Z</time>
      </trkpt>
      <trkpt lat="45.41416" lon="4.12473">
        <ele>673</ele>
        <time>2018-09-26T20:47:09Z</time>
      </trkpt>
      <trkpt lat="45.41405" lon="4.12514">
        <ele>677</ele>
        <time>2018-09-26T20:48:09Z</time>
      </trkpt>
      <trkpt lat="45.41401" lon="4.12535">
        <ele>680</ele>
        <time>2018-09-26T20:49:09Z</time>
      </trkpt>
      <trkpt lat="45.41388" lon="4.12559">
        <ele>683</ele>
        <time>2018-09-26T20:50:09Z</time>
      </trkpt>
      <trkpt lat="45.41375" lon="4.12582">
        <ele>685</ele>
        <time>2018-09-26T20:51:09Z</time>
      </trkpt>
      <trkpt lat="45.4137" lon="4.126">
        <ele>687</ele>
        <time>2018-09-26T20:52:09Z</time>
      </trkpt>
      <trkpt lat="45.41367" lon="4.12616">
        <ele>688</ele>
        <time>2018-09-26T20:53:09Z</time>
      </trkpt>
      <trkpt lat="45.41371" lon="4.12628">
        <ele>690</ele>
        <time>2018-09-26T20:54:09Z</time>
      </trkpt>
      <trkpt lat="45.41401" lon="4.12633">
        <ele>691</ele>
        <time>2018-09-26T20:55:09Z</time>
      </trkpt>
      <trkpt lat="45.41401" lon="4.12658">
        <ele>694</ele>
        <time>2018-09-26T20:56:09Z</time>
      </trkpt>
      <trkpt lat="45.41399" lon="4.12713">
        <ele>698</ele>
        <time>2018-09-26T20:57:09Z</time>
      </trkpt>
      <trkpt lat="45.41405" lon="4.12754">
        <ele>701</ele>
        <time>2018-09-26T20:58:09Z</time>
      </trkpt>
      <trkpt lat="45.41412" lon="4.12787">
        <ele>703</ele>
        <time>2018-09-26T20:59:09Z</time>
      </trkpt>
      <trkpt lat="45.41425" lon="4.12819">
        <ele>705</ele>
        <time>2018-09-26T21:00:09Z</time>
      </trkpt>
      <trkpt lat="45.41433" lon="4.12846">
        <ele>706</ele>
        <time>2018-09-26T21:01:09Z</time>
      </trkpt>
      <trkpt lat="45.41444" lon="4.1287">
        <ele>707</ele>
        <time>2018-09-26T21:02:09Z</time>
      </trkpt>
      <trkpt lat="45.41467" lon="4.12878">
        <ele>709</ele>
        <time>2018-09-26T21:03:09Z</time>
      </trkpt>
      <trkpt lat="45.41469" lon="4.12903">
        <ele>710</ele>
        <time>2018-09-26T21:04:09Z</time>
      </trkpt>
      <trkpt lat="45.4147" lon="4.12945">
        <ele>711</ele>
        <time>2018-09-26T21:05:09Z</time>
      </trkpt>
      <trkpt lat="45.41471" lon="4.13">
        <ele>713</ele>
        <time>2018-09-26T21:06:09Z</time>
      </trkpt>
      <trkpt lat="45.41474" lon="4.13023">
        <ele>714</ele>
        <time>2018-09-26T21:07:09Z</time>
      </trkpt>
      <trkpt lat="45.41481" lon="4.13046">
        <ele>714</ele>
        <time>2018-09-26T21:08:09Z</time>
      </trkpt>
      <trkpt lat="45.41479" lon="4.13074">
        <ele>715</ele>
        <time>2018-09-26T21:09:09Z</time>
      </trkpt>
      <trkpt lat="45.41468" lon="4.13095">
        <ele>715</ele>
        <time>2018-09-26T21:10:09Z</time>
      </trkpt>
      <trkpt lat="45.41455" lon="4.13115">
        <ele>715</ele>
        <time>2018-09-26T21:11:09Z</time>
      </trkpt>
      <trkpt lat="45.41445" lon="4.13136">
        <ele>715</ele>
        <time>2018-09-26T21:12:09Z</time>
      </trkpt>
      <trkpt lat="45.41375" lon="4.13139">
        <ele>717</ele>
        <time>2018-09-26T21:13:09Z</time>
      </trkpt>
      <trkpt lat="45.41324" lon="4.13145">
        <ele>719</ele>
        <time>2018-09-26T21:14:09Z</time>
      </trkpt>
      <trkpt lat="45.41284" lon="4.13148">
        <ele>720</ele>
        <time>2018-09-26T21:15:09Z</time>
      </trkpt>
      <trkpt lat="45.41222" lon="4.13157">
        <ele>722</ele>
        <time>2018-09-26T21:16:09Z</time>
      </trkpt>
      <trkpt lat="45.41194" lon="4.13141">
        <ele>723</ele>
        <time>2018-09-26T21:17:09Z</time>
      </trkpt>
      <trkpt lat="45.41191" lon="4.13171">
        <ele>722</ele>
        <time>2018-09-26T21:18:09Z</time>
      </trkpt>
      <trkpt lat="45.41134" lon="4.13196">
        <ele>722</ele>
        <time>2018-09-26T21:19:09Z</time>
      </trkpt>
      <trkpt lat="45.41075" lon="4.1321">
        <ele>721</ele>
        <time>2018-09-26T21:20:09Z</time>
      </trkpt>
      <trkpt lat="45.41045" lon="4.13213">
        <ele>721</ele>
        <time>2018-09-26T21:21:09Z</time>
      </trkpt>
      <trkpt lat="45.41012" lon="4.13226">
        <ele>721</ele>
        <time>2018-09-26T21:22:09Z</time>
      </trkpt>
      <trkpt lat="45.40972" lon="4.13219">
        <ele>721</ele>
        <time>2018-09-26T21:23:09Z</time>
      </trkpt>
      <trkpt lat="45.40915" lon="4.13215">
        <ele>720</ele>
        <time>2018-09-26T21:24:09Z</time>
      </trkpt>
      <trkpt lat="45.40884" lon="4.1322">
        <ele>721</ele>
        <time>2018-09-26T21:25:09Z</time>
      </trkpt>
      <trkpt lat="45.40872" lon="4.13239">
        <ele>721</ele>
        <time>2018-09-26T21:26:09Z</time>
      </trkpt>
      <trkpt lat="45.4086" lon="4.13254">
        <ele>721</ele>
        <time>2018-09-26T21:27:09Z</time>
      </trkpt>
      <trkpt lat="45.40814" lon="4.13253">
        <ele>723</ele>
        <time>2018-09-26T21:28:09Z</time>
      </trkpt>
      <trkpt lat="45.40712" lon="4.13248">
        <ele>727</ele>
        <time>2018-09-26T21:29:09Z</time>
      </trkpt>
      <trkpt lat="45.40688" lon="4.13289">
        <ele>727</ele>
        <time>2018-09-26T21:30:09Z</time>
      </trkpt>
      <trkpt lat="45.40533" lon="4.13262">
        <ele>731</ele>
        <time>2018-09-26T21:31:09Z</time>
      </trkpt>
      <trkpt lat="45.40515" lon="4.13253">
        <ele>732</ele>
        <time>2018-09-26T21:32:09Z</time>
      </trkpt>
      <trkpt lat="45.40459" lon="4.13199">
        <ele>734</ele>
        <time>2018-09-26T21:33:09Z</time>
      </trkpt>
      <trkpt lat="45.40439" lon="4.13201">
        <ele>733</ele>
        <time>2018-09-26T21:34:09Z</time>
      </trkpt>
      <trkpt lat="45.40401" lon="4.13204">
        <ele>730</ele>
        <time>2018-09-26T21:35:09Z</time>
      </trkpt>
      <trkpt lat="45.4037" lon="4.13194">
        <ele>728</ele>
        <time>2018-09-26T21:36:09Z</time>
      </trkpt>
      <trkpt lat="45.40328" lon="4.13173">
        <ele>726</ele>
        <time>2018-09-26T21:37:09Z</time>
      </trkpt>
      <trkpt lat="45.4028" lon="4.13134">
        <ele>722</ele>
        <time>2018-09-26T21:38:09Z</time>
      </trkpt>
      <trkpt lat="45.40227" lon="4.131">
        <ele>718</ele>
        <time>2018-09-26T21:39:09Z</time>
      </trkpt>
      <trkpt lat="45.40181" lon="4.13063">
        <ele>716</ele>
        <time>2018-09-26T21:40:09Z</time>
      </trkpt>
      <trkpt lat="45.40168" lon="4.13037">
        <ele>715</ele>
        <time>2018-09-26T21:41:09Z</time>
      </trkpt>
      <trkpt lat="45.40161" lon="4.13022">
        <ele>715</ele>
        <time>2018-09-26T21:42:09Z</time>
      </trkpt>
      <trkpt lat="45.40156" lon="4.12989">
        <ele>716</ele>
        <time>2018-09-26T21:43:09Z</time>
      </trkpt>
      <trkpt lat="45.40145" lon="4.12917">
        <ele>718</ele>
        <time>2018-09-26T21:44:09Z</time>
      </trkpt>
      <trkpt lat="45.40138" lon="4.12886">
        <ele>719</ele>
        <time>2018-09-26T21:45:09Z</time>
      </trkpt>
      <trkpt lat="45.40128" lon="4.12864">
        <ele>719</ele>
        <time>2018-09-26T21:46:09Z</time>
      </trkpt>
      <trkpt lat="45.40115" lon="4.12847">
        <ele>719</ele>
        <time>2018-09-26T21:47:09Z</time>
      </trkpt>
      <trkpt lat="45.40094" lon="4.12813">
        <ele>719</ele>
        <time>2018-09-26T21:48:09Z</time>
      </trkpt>
      <trkpt lat="45.40091" lon="4.12787">
        <ele>720</ele>
        <time>2018-09-26T21:49:09Z</time>
      </trkpt>
      <trkpt lat="45.40081" lon="4.12723">
        <ele>721</ele>
        <time>2018-09-26T21:50:09Z</time>
      </trkpt>
      <trkpt lat="45.40076" lon="4.12658">
        <ele>724</ele>
        <time>2018-09-26T21:51:09Z</time>
      </trkpt>
      <trkpt lat="45.40073" lon="4.12584">
        <ele>725</ele>
        <time>2018-09-26T21:52:09Z</time>
      </trkpt>
      <trkpt lat="45.40074" lon="4.12556">
        <ele>726</ele>
        <time>2018-09-26T21:53:09Z</time>
      </trkpt>
      <trkpt lat="45.40073" lon="4.12501">
        <ele>726</ele>
        <time>2018-09-26T21:54:09Z</time>
      </trkpt>
      <trkpt lat="45.40077" lon="4.12456">
        <ele>728</ele>
        <time>2018-09-26T21:55:09Z</time>
      </trkpt>
      <trkpt lat="45.40077" lon="4.12399">
        <ele>730</ele>
        <time>2018-09-26T21:56:09Z</time>
      </trkpt>
      <trkpt lat="45.40079" lon="4.12366">
        <ele>731</ele>
        <time>2018-09-26T21:57:09Z</time>
      </trkpt>
      <trkpt lat="45.40076" lon="4.12293">
        <ele>732</ele>
        <time>2018-09-26T21:58:09Z</time>
      </trkpt>
      <trkpt lat="45.40072" lon="4.12253">
        <ele>733</ele>
        <time>2018-09-26T21:59:09Z</time>
      </trkpt>
      <trkpt lat="45.40065" lon="4.12234">
        <ele>734</ele>
        <time>2018-09-26T22:00:09Z</time>
      </trkpt>
      <trkpt lat="45.40078" lon="4.12213">
        <ele>734</ele>
        <time>2018-09-26T22:01:09Z</time>
      </trkpt>
      <trkpt lat="45.40087" lon="4.12175">
        <ele>734</ele>
        <time>2018-09-26T22:02:09Z</time>
      </trkpt>
      <trkpt lat="45.40107" lon="4.12138">
        <ele>734</ele>
        <time>2018-09-26T22:03:09Z</time>
      </trkpt>
      <trkpt lat="45.40079" lon="4.12078">
        <ele>731</ele>
        <time>2018-09-26T22:04:09Z</time>
      </trkpt>
      <trkpt lat="45.4007" lon="4.1205">
        <ele>730</ele>
        <time>2018-09-26T22:05:09Z</time>
      </trkpt>
      <trkpt lat="45.40052" lon="4.11996">
        <ele>730</ele>
        <time>2018-09-26T22:06:09Z</time>
      </trkpt>
      <trkpt lat="45.40041" lon="4.11973">
        <ele>728</ele>
        <time>2018-09-26T22:07:09Z</time>
      </trkpt>
      <trkpt lat="45.4002" lon="4.1194">
        <ele>727</ele>
        <time>2018-09-26T22:08:09Z</time>
      </trkpt>
      <trkpt lat="45.39992" lon="4.11902">
        <ele>728</ele>
        <time>2018-09-26T22:09:09Z</time>
      </trkpt>
      <trkpt lat="45.39987" lon="4.11889">
        <ele>729</ele>
        <time>2018-09-26T22:10:09Z</time>
      </trkpt>
      <trkpt lat="45.39987" lon="4.11869">
        <ele>729</ele>
        <time>2018-09-26T22:11:09Z</time>
      </trkpt>
      <trkpt lat="45.39992" lon="4.11856">
        <ele>728</ele>
        <time>2018-09-26T22:12:09Z</time>
      </trkpt>
      <trkpt lat="45.40017" lon="4.11835">
        <ele>726</ele>
        <time>2018-09-26T22:13:09Z</time>
      </trkpt>
      <trkpt lat="45.40025" lon="4.1181">
        <ele>727</ele>
        <time>2018-09-26T22:14:09Z</time>
      </trkpt>
      <trkpt lat="45.40022" lon="4.11791">
        <ele>729</ele>
        <time>2018-09-26T22:15:09Z</time>
      </trkpt>
      <trkpt lat="45.40022" lon="4.11767">
        <ele>732</ele>
        <time>2018-09-26T22:16:09Z</time>
      </trkpt>
      <trkpt lat="45.40023" lon="4.11747">
        <ele>733</ele>
        <time>2018-09-26T22:17:09Z</time>
      </trkpt>
      <trkpt lat="45.40028" lon="4.1171">
        <ele>734</ele>
        <time>2018-09-26T22:18:09Z</time>
      </trkpt>
      <trkpt lat="45.40023" lon="4.11695">
        <ele>736</ele>
        <time>2018-09-26T22:19:09Z</time>
      </trkpt>
      <trkpt lat="45.40037" lon="4.1167">
        <ele>736</ele>
        <time>2018-09-26T22:20:09Z</time>
      </trkpt>
      <trkpt lat="45.40042" lon="4.11654">
        <ele>736</ele>
        <time>2018-09-26T22:21:09Z</time>
      </trkpt>
      <trkpt lat="45.40037" lon="4.1164">
        <ele>735</ele>
        <time>2018-09-26T22:22:09Z</time>
      </trkpt>
      <trkpt lat="45.40032" lon="4.11624">
        <ele>734</ele>
        <time>2018-09-26T22:23:09Z</time>
      </trkpt>
      <trkpt lat="45.40026" lon="4.11571">
        <ele>733</ele>
        <time>2018-09-26T22:24:09Z</time>
      </trkpt>
      <trkpt lat="45.40022" lon="4.11538">
        <ele>735</ele>
        <time>2018-09-26T22:25:09Z</time>
      </trkpt>
      <trkpt lat="45.40035" lon="4.11486">
        <ele>735</ele>
        <time>2018-09-26T22:26:09Z</time>
      </trkpt>
      <trkpt lat="45.40046" lon="4.11431">
        <ele>736</ele>
        <time>2018-09-26T22:27:09Z</time>
      </trkpt>
      <trkpt lat="45.40055" lon="4.11375">
        <ele>737</ele>
        <time>2018-09-26T22:28:09Z</time>
      </trkpt>
      <trkpt lat="45.40057" lon="4.11321">
        <ele>738</ele>
        <time>2018-09-26T22:29:09Z</time>
      </trkpt>
      <trkpt lat="45.40052" lon="4.11288">
        <ele>738</ele>
        <time>2018-09-26T22:30:09Z</time>
      </trkpt>
      <trkpt lat="45.40043" lon="4.11255">
        <ele>738</ele>
        <time>2018-09-26T22:31:09Z</time>
      </trkpt>
      <trkpt lat="45.40027" lon="4.1125">
        <ele>738</ele>
        <time>2018-09-26T22:32:09Z</time>
      </trkpt>
      <trkpt lat="45.39994" lon="4.11261">
        <ele>740</ele>
        <time>2018-09-26T22:33:09Z</time>
      </trkpt>
      <trkpt lat="45.39978" lon="4.11274">
        <ele>742</ele>
        <time>2018-09-26T22:34:09Z</time>
      </trkpt>
      <trkpt lat="45.39948" lon="4.11292">
        <ele>744</ele>
        <time>2018-09-26T22:35:09Z</time>
      </trkpt>
      <trkpt lat="45.39925" lon="4.1131">
        <ele>747</ele>
        <time>2018-09-26T22:36:09Z</time>
      </trkpt>
      <trkpt lat="45.39894" lon="4.11328">
        <ele>750</ele>
        <time>2018-09-26T22:37:09Z</time>
      </trkpt>
      <trkpt lat="45.39856" lon="4.11346">
        <ele>752</ele>
        <time>2018-09-26T22:38:09Z</time>
      </trkpt>
      <trkpt lat="45.39843" lon="4.11358">
        <ele>752</ele>
        <time>2018-09-26T22:39:09Z</time>
      </trkpt>
      <trkpt lat="45.3982" lon="4.11386">
        <ele>755</ele>
        <time>2018-09-26T22:40:09Z</time>
      </trkpt>
      <trkpt lat="45.39813" lon="4.11403">
        <ele>756</ele>
        <time>2018-09-26T22:41:09Z</time>
      </trkpt>
      <trkpt lat="45.39784" lon="4.1146">
        <ele>758</ele>
        <time>2018-09-26T22:42:09Z</time>
      </trkpt>
      <trkpt lat="45.39764" lon="4.11487">
        <ele>759</ele>
        <time>2018-09-26T22:43:09Z</time>
      </trkpt>
      <trkpt lat="45.39738" lon="4.11515">
        <ele>760</ele>
        <time>2018-09-26T22:44:09Z</time>
      </trkpt>
      <trkpt lat="45.39693" lon="4.11405">
        <ele>760</ele>
        <time>2018-09-26T22:45:09Z</time>
      </trkpt>
      <trkpt lat="45.39648" lon="4.11374">
        <ele>759</ele>
        <time>2018-09-26T22:46:09Z</time>
      </trkpt>
      <trkpt lat="45.39633" lon="4.1137">
        <ele>760</ele>
        <time>2018-09-26T22:47:09Z</time>
      </trkpt>
      <trkpt lat="45.396" lon="4.11358">
        <ele>761</ele>
        <time>2018-09-26T22:48:09Z</time>
      </trkpt>
      <trkpt lat="45.39587" lon="4.11344">
        <ele>761</ele>
        <time>2018-09-26T22:49:09Z</time>
      </trkpt>
      <trkpt lat="45.39563" lon="4.11324">
        <ele>763</ele>
        <time>2018-09-26T22:50:09Z</time>
      </trkpt>
      <trkpt lat="45.39533" lon="4.11292">
        <ele>766</ele>
        <time>2018-09-26T22:51:09Z</time>
      </trkpt>
      <trkpt lat="45.395" lon="4.11261">
        <ele>769</ele>
        <time>2018-09-26T22:52:09Z</time>
      </trkpt>
      <trkpt lat="45.39465" lon="4.11228">
        <ele>770</ele>
        <time>2018-09-26T22:53:09Z</time>
      </trkpt>
      <trkpt lat="45.39444" lon="4.11214">
        <ele>770</ele>
        <time>2018-09-26T22:54:09Z</time>
      </trkpt>
      <trkpt lat="45.39395" lon="4.11194">
        <ele>770</ele>
        <time>2018-09-26T22:55:09Z</time>
      </trkpt>
      <trkpt lat="45.39372" lon="4.11187">
        <ele>770</ele>
        <time>2018-09-26T22:56:09Z</time>
      </trkpt>
      <trkpt lat="45.39295" lon="4.11145">
        <ele>770</ele>
        <time>2018-09-26T22:57:09Z</time>
      </trkpt>
      <trkpt lat="45.39262" lon="4.11129">
        <ele>771</ele>
        <time>2018-09-26T22:58:09Z</time>
      </trkpt>
      <trkpt lat="45.3924" lon="4.11092">
        <ele>769</ele>
        <time>2018-09-26T22:59:09Z</time>
      </trkpt>
      <trkpt lat="45.39205" lon="4.1109">
        <ele>770</ele>
        <time>2018-09-26T23:00:09Z</time>
      </trkpt>
      <trkpt lat="45.39172" lon="4.11093">
        <ele>770</ele>
        <time>2018-09-26T23:01:09Z</time>
      </trkpt>
      <trkpt lat="45.39096" lon="4.11097">
        <ele>772</ele>
        <time>2018-09-26T23:02:09Z</time>
      </trkpt>
      <trkpt lat="45.39088" lon="4.11109">
        <ele>772</ele>
        <time>2018-09-26T23:03:09Z</time>
      </trkpt>
      <trkpt lat="45.3907" lon="4.11074">
        <ele>773</ele>
        <time>2018-09-26T23:04:09Z</time>
      </trkpt>
      <trkpt lat="45.3905" lon="4.11005">
        <ele>774</ele>
        <time>2018-09-26T23:05:09Z</time>
      </trkpt>
      <trkpt lat="45.39028" lon="4.10947">
        <ele>778</ele>
        <time>2018-09-26T23:06:09Z</time>
      </trkpt>
      <trkpt lat="45.39021" lon="4.10923">
        <ele>780</ele>
        <time>2018-09-26T23:07:09Z</time>
      </trkpt>
      <trkpt lat="45.38994" lon="4.10875">
        <ele>783</ele>
        <time>2018-09-26T23:08:09Z</time>
      </trkpt>
      <trkpt lat="45.38963" lon="4.10817">
        <ele>786</ele>
        <time>2018-09-26T23:09:09Z</time>
      </trkpt>
      <trkpt lat="45.38949" lon="4.10792">
        <ele>787</ele>
        <time>2018-09-26T23:10:09Z</time>
      </trkpt>
      <trkpt lat="45.38922" lon="4.10745">
        <ele>791</ele>
        <time>2018-09-26T23:11:09Z</time>
      </trkpt>
      <trkpt lat="45.38913" lon="4.10677">
        <ele>794</ele>
        <time>2018-09-26T23:12:09Z</time>
      </trkpt>
      <trkpt lat="45.38916" lon="4.1065">
        <ele>795</ele>
        <time>2018-09-26T23:13:09Z</time>
      </trkpt>
      <trkpt lat="45.38911" lon="4.10623">
        <ele>797</ele>
        <time>2018-09-26T23:14:09Z</time>
      </trkpt>
      <trkpt lat="45.38901" lon="4.10606">
        <ele>798</ele>
        <time>2018-09-26T23:15:09Z</time>
      </trkpt>
      <trkpt lat="45.38904" lon="4.10563">
        <ele>800</ele>
        <time>2018-09-26T23:16:09Z</time>
      </trkpt>
      <trkpt lat="45.3891" lon="4.10524">
        <ele>801</ele>
        <time>2018-09-26T23:17:09Z</time>
      </trkpt>
      <trkpt lat="45.38913" lon="4.10502">
        <ele>802</ele>
        <time>2018-09-26T23:18:09Z</time>
      </trkpt>
      <trkpt lat="45.38905" lon="4.10459">
        <ele>802</ele>
        <time>2018-09-26T23:19:09Z</time>
      </trkpt>
      <trkpt lat="45.38897" lon="4.10409">
        <ele>802</ele>
        <time>2018-09-26T23:20:09Z</time>
      </trkpt>
      <trkpt lat="45.38893" lon="4.10371">
        <ele>802</ele>
        <time>2018-09-26T23:21:09Z</time>
      </trkpt>
      <trkpt lat="45.38898" lon="4.10325">
        <ele>803</ele>
        <time>2018-09-26T23:22:09Z</time>
      </trkpt>
      <trkpt lat="45.38901" lon="4.1028">
        <ele>804</ele>
        <time>2018-09-26T23:23:09Z</time>
      </trkpt>
      <trkpt lat="45.38904" lon="4.10243">
        <ele>805</ele>
        <time>2018-09-26T23:24:09Z</time>
      </trkpt>
      <trkpt lat="45.38909" lon="4.10204">
        <ele>806</ele>
        <time>2018-09-26T23:25:09Z</time>
      </trkpt>
      <trkpt lat="45.3892" lon="4.1016">
        <ele>806</ele>
        <time>2018-09-26T23:26:09Z</time>
      </trkpt>
      <trkpt lat="45.3895" lon="4.10109">
        <ele>805</ele>
        <time>2018-09-26T23:27:09Z</time>
      </trkpt>
      <trkpt lat="45.38969" lon="4.10073">
        <ele>803</ele>
        <time>2018-09-26T23:28:09Z</time>
      </trkpt>
      <trkpt lat="45.38993" lon="4.1004">
        <ele>800</ele>
        <time>2018-09-26T23:29:09Z</time>
      </trkpt>
      <trkpt lat="45.39021" lon="4.10019">
        <ele>798</ele>
        <time>2018-09-26T23:30:09Z</time>
      </trkpt>
      <trkpt lat="45.39074" lon="4.10003">
        <ele>794</ele>
        <time>2018-09-26T23:31:09Z</time>
      </trkpt>
      <trkpt lat="45.3911" lon="4.09993">
        <ele>790</ele>
        <time>2018-09-26T23:32:09Z</time>
      </trkpt>
      <trkpt lat="45.39131" lon="4.09973">
        <ele>789</ele>
        <time>2018-09-26T23:33:09Z</time>
      </trkpt>
      <trkpt lat="45.39139" lon="4.09947">
        <ele>790</ele>
        <time>2018-09-26T23:34:09Z</time>
      </trkpt>
      <trkpt lat="45.39175" lon="4.09941">
        <ele>788</ele>
        <time>2018-09-26T23:35:09Z</time>
      </trkpt>
      <trkpt lat="45.39201" lon="4.0992">
        <ele>790</ele>
        <time>2018-09-26T23:36:09Z</time>
      </trkpt>
      <trkpt lat="45.39277" lon="4.09868">
        <ele>797</ele>
        <time>2018-09-26T23:37:09Z</time>
      </trkpt>
      <trkpt lat="45.39301" lon="4.09846">
        <ele>800</ele>
        <time>2018-09-26T23:38:09Z</time>
      </trkpt>
      <trkpt lat="45.39321" lon="4.09823">
        <ele>803</ele>
        <time>2018-09-26T23:39:09Z</time>
      </trkpt>
      <trkpt lat="45.39363" lon="4.09785">
        <ele>801</ele>
        <time>2018-09-26T23:40:09Z</time>
      </trkpt>
      <trkpt lat="45.39356" lon="4.09756">
        <ele>803</ele>
        <time>2018-09-26T23:41:09Z</time>
      </trkpt>
      <trkpt lat="45.39353" lon="4.09729">
        <ele>803</ele>
        <time>2018-09-26T23:42:09Z</time>
      </trkpt>
      <trkpt lat="45.39332" lon="4.09721">
        <ele>806</ele>
        <time>2018-09-26T23:43:09Z</time>
      </trkpt>
      <trkpt lat="45.39318" lon="4.09746">
        <ele>807</ele>
        <time>2018-09-26T23:44:09Z</time>
      </trkpt>
      <trkpt lat="45.39298" lon="4.09761">
        <ele>807</ele>
        <time>2018-09-26T23:45:09Z</time>
      </trkpt>
      <trkpt lat="45.39262" lon="4.09747">
        <ele>809</ele>
        <time>2018-09-26T23:46:09Z</time>
      </trkpt>
      <trkpt lat="45.39244" lon="4.09719">
        <ele>812</ele>
        <time>2018-09-26T23:47:09Z</time>
      </trkpt>
      <trkpt lat="45.39226" lon="4.09698">
        <ele>815</ele>
        <time>2018-09-26T23:48:09Z</time>
      </trkpt>
      <trkpt lat="45.39214" lon="4.0967">
        <ele>820</ele>
        <time>2018-09-26T23:49:09Z</time>
      </trkpt>
      <trkpt lat="45.39216" lon="4.09647">
        <ele>821</ele>
        <time>2018-09-26T23:50:09Z</time>
      </trkpt>
      <trkpt lat="45.39226" lon="4.09617">
        <ele>822</ele>
        <time>2018-09-26T23:51:09Z</time>
      </trkpt>
      <trkpt lat="45.39236" lon="4.0958">
        <ele>824</ele>
        <time>2018-09-26T23:52:09Z</time>
      </trkpt>
      <trkpt lat="45.39243" lon="4.09549">
        <ele>825</ele>
        <time>2018-09-26T23:53:09Z</time>
      </trkpt>
      <trkpt lat="45.3925" lon="4.09512">
        <ele>827</ele>
        <time>2018-09-26T23:54:09Z</time>
      </trkpt>
      <trkpt lat="45.39257" lon="4.09423">
        <ele>829</ele>
        <time>2018-09-26T23:55:09Z</time>
      </trkpt>
      <trkpt lat="45.39252" lon="4.09402">
        <ele>830</ele>
        <time>2018-09-26T23:56:09Z</time>
      </trkpt>
      <trkpt lat="45.39236" lon="4.09376">
        <ele>831</ele>
        <time>2018-09-26T23:57:09Z</time>
      </trkpt>
      <trkpt lat="45.39219" lon="4.0935">
        <ele>832</ele>
        <time>2018-09-26T23:58:09Z</time>
      </trkpt>
      <trkpt lat="45.39202" lon="4.09344">
        <ele>832</ele>
        <time>2018-09-26T23:59:09Z</time>
      </trkpt>
      <trkpt lat="45.39168" lon="4.09337">
        <ele>833</ele>
        <time>2018-09-27T00:00:09Z</time>
      </trkpt>
      <trkpt lat="45.39125" lon="4.09331">
        <ele>833</ele>
        <time>2018-09-27T00:01:09Z</time>
      </trkpt>
      <trkpt lat="45.39102" lon="4.09333">
        <ele>834</ele>
        <time>2018-09-27T00:02:09Z</time>
      </trkpt>
      <trkpt lat="45.39138" lon="4.09299">
        <ele>833</ele>
        <time>2018-09-27T00:03:09Z</time>
      </trkpt>
      <trkpt lat="45.39249" lon="4.09185">
        <ele>821</ele>
        <time>2018-09-27T00:04:09Z</time>
      </trkpt>
      <trkpt lat="45.393" lon="4.09141">
        <ele>817</ele>
        <time>2018-09-27T00:05:09Z</time>
      </trkpt>
      <trkpt lat="45.39317" lon="4.09099">
        <ele>811</ele>
        <time>2018-09-27T00:06:09Z</time>
      </trkpt>
      <trkpt lat="45.3934" lon="4.09044">
        <ele>807</ele>
        <time>2018-09-27T00:07:09Z</time>
      </trkpt>
      <trkpt lat="45.39351" lon="4.09025">
        <ele>806</ele>
        <time>2018-09-27T00:08:09Z</time>
      </trkpt>
      <trkpt lat="45.3941" lon="4.08957">
        <ele>800</ele>
        <time>2018-09-27T00:09:09Z</time>
      </trkpt>
      <trkpt lat="45.39447" lon="4.0892">
        <ele>794</ele>
        <time>2018-09-27T00:10:09Z</time>
      </trkpt>
      <trkpt lat="45.39484" lon="4.08889">
        <ele>787</ele>
        <time>2018-09-27T00:11:09Z</time>
      </trkpt>
      <trkpt lat="45.39519" lon="4.08878">
        <ele>783</ele>
        <time>2018-09-27T00:12:09Z</time>
      </trkpt>
      <trkpt lat="45.39577" lon="4.08868">
        <ele>777</ele>
        <time>2018-09-27T00:13:09Z</time>
      </trkpt>
      <trkpt lat="45.39639" lon="4.08898">
        <ele>771</ele>
        <time>2018-09-27T00:14:09Z</time>
      </trkpt>
      <trkpt lat="45.39667" lon="4.08923">
        <ele>770</ele>
        <time>2018-09-27T00:15:09Z</time>
      </trkpt>
      <trkpt lat="45.3969" lon="4.08937">
        <ele>766</ele>
        <time>2018-09-27T00:16:09Z</time>
      </trkpt>
      <trkpt lat="45.3971" lon="4.08948">
        <ele>763</ele>
        <time>2018-09-27T00:17:09Z</time>
      </trkpt>
      <trkpt lat="45.39731" lon="4.0896">
        <ele>759</ele>
        <time>2018-09-27T00:18:09Z</time>
      </trkpt>
      <trkpt lat="45.39754" lon="4.0899">
        <ele>757</ele>
        <time>2018-09-27T00:19:09Z</time>
      </trkpt>
      <trkpt lat="45.39787" lon="4.09007">
        <ele>753</ele>
        <time>2018-09-27T00:20:09Z</time>
      </trkpt>
      <trkpt lat="45.39815" lon="4.09035">
        <ele>751</ele>
        <time>2018-09-27T00:21:09Z</time>
      </trkpt>
      <trkpt lat="45.39831" lon="4.09063">
        <ele>750</ele>
        <time>2018-09-27T00:22:09Z</time>
      </trkpt>
      <trkpt lat="45.39844" lon="4.09095">
        <ele>749</ele>
        <time>2018-09-27T00:23:09Z</time>
      </trkpt>
      <trkpt lat="45.3985" lon="4.09039">
        <ele>746</ele>
        <time>2018-09-27T00:24:09Z</time>
      </trkpt>
      <trkpt lat="45.39844" lon="4.09002">
        <ele>746</ele>
        <time>2018-09-27T00:25:09Z</time>
      </trkpt>
      <trkpt lat="45.39839" lon="4.08963">
        <ele>743</ele>
        <time>2018-09-27T00:26:09Z</time>
      </trkpt>
      <trkpt lat="45.39837" lon="4.08929">
        <ele>740</ele>
        <time>2018-09-27T00:27:09Z</time>
      </trkpt>
      <trkpt lat="45.39831" lon="4.08887">
        <ele>740</ele>
        <time>2018-09-27T00:28:09Z</time>
      </trkpt>
      <trkpt lat="45.39824" lon="4.08821">
        <ele>741</ele>
        <time>2018-09-27T00:29:09Z</time>
      </trkpt>
      <trkpt lat="45.39833" lon="4.08799">
        <ele>742</ele>
        <time>2018-09-27T00:30:09Z</time>
      </trkpt>
      <trkpt lat="45.39867" lon="4.08794">
        <ele>747</ele>
        <time>2018-09-27T00:31:09Z</time>
      </trkpt>
      <trkpt lat="45.39906" lon="4.08801">
        <ele>753</ele>
        <time>2018-09-27T00:32:09Z</time>
      </trkpt>
      <trkpt lat="45.39931" lon="4.08815">
        <ele>757</ele>
        <time>2018-09-27T00:33:09Z</time>
      </trkpt>
      <trkpt lat="45.39947" lon="4.08798">
        <ele>760</ele>
        <time>2018-09-27T00:34:09Z</time>
      </trkpt>
      <trkpt lat="45.39957" lon="4.08772">
        <ele>764</ele>
        <time>2018-09-27T00:35:09Z</time>
      </trkpt>
      <trkpt lat="45.40009" lon="4.08662">
        <ele>775</ele>
        <time>2018-09-27T00:36:09Z</time>
      </trkpt>
      <trkpt lat="45.40042" lon="4.08586">
        <ele>780</ele>
        <time>2018-09-27T00:37:09Z</time>
      </trkpt>
      <trkpt lat="45.40069" lon="4.08558">
        <ele>784</ele>
        <time>2018-09-27T00:38:09Z</time>
      </trkpt>
      <trkpt lat="45.40096" lon="4.08511">
        <ele>786</ele>
        <time>2018-09-27T00:39:09Z</time>
      </trkpt>
      <trkpt lat="45.40121" lon="4.0849">
        <ele>785</ele>
        <time>2018-09-27T00:40:09Z</time>
      </trkpt>
      <trkpt lat="45.40159" lon="4.08468">
        <ele>785</ele>
        <time>2018-09-27T00:41:09Z</time>
      </trkpt>
      <trkpt lat="45.40182" lon="4.08452">
        <ele>785</ele>
        <time>2018-09-27T00:42:09Z</time>
      </trkpt>
      <trkpt lat="45.40216" lon="4.08397">
        <ele>783</ele>
        <time>2018-09-27T00:43:09Z</time>
      </trkpt>
      <trkpt lat="45.40237" lon="4.08366">
        <ele>784</ele>
        <time>2018-09-27T00:44:09Z</time>
      </trkpt>
      <trkpt lat="45.4025" lon="4.08313">
        <ele>785</ele>
        <time>2018-09-27T00:45:09Z</time>
      </trkpt>
      <trkpt lat="45.40209" lon="4.08361">
        <ele>783</ele>
        <time>2018-09-27T00:46:09Z</time>
      </trkpt>
    </trkseg>
  </trk>
  <trk>
    <name><![CDATA[J3  La Cote Fournier Salayes]]></name>
    <trkseg>
      <trkpt lat="45.40195" lon="4.08391">
        <ele>782</ele>
        <time>2021-01-19T14:06:29Z</time>
      </trkpt>
      <trkpt lat="45.4025" lon="4.08317">
        <ele>785</ele>
        <time>2021-01-19T14:07:30Z</time>
      </trkpt>
      <trkpt lat="45.40289" lon="4.08254">
        <ele>787</ele>
        <time>2021-01-19T14:08:17Z</time>
      </trkpt>
      <trkpt lat="45.40262" lon="4.08259">
        <ele>786</ele>
        <time>2021-01-19T14:08:39Z</time>
      </trkpt>
      <trkpt lat="45.40237" lon="4.08253">
        <ele>785</ele>
        <time>2021-01-19T14:08:59Z</time>
      </trkpt>
      <trkpt lat="45.40207" lon="4.08219">
        <ele>785</ele>
        <time>2021-01-19T14:09:30Z</time>
      </trkpt>
      <trkpt lat="45.402" lon="4.08134">
        <ele>786</ele>
        <time>2021-01-19T14:10:18Z</time>
      </trkpt>
      <trkpt lat="45.40201" lon="4.08093">
        <ele>788</ele>
        <time>2021-01-19T14:10:41Z</time>
      </trkpt>
      <trkpt lat="45.40192" lon="4.08066">
        <ele>787</ele>
        <time>2021-01-19T14:10:58Z</time>
      </trkpt>
      <trkpt lat="45.40158" lon="4.08032">
        <ele>785</ele>
        <time>2021-01-19T14:11:31Z</time>
      </trkpt>
      <trkpt lat="45.4013" lon="4.0802">
        <ele>783</ele>
        <time>2021-01-19T14:11:54Z</time>
      </trkpt>
      <trkpt lat="45.40107" lon="4.08005">
        <ele>782</ele>
        <time>2021-01-19T14:12:15Z</time>
      </trkpt>
      <trkpt lat="45.40088" lon="4.07991">
        <ele>781</ele>
        <time>2021-01-19T14:12:32Z</time>
      </trkpt>
      <trkpt lat="45.40063" lon="4.07968">
        <ele>779</ele>
        <time>2021-01-19T14:12:55Z</time>
      </trkpt>
      <trkpt lat="45.40044" lon="4.07944">
        <ele>777</ele>
        <time>2021-01-19T14:13:16Z</time>
      </trkpt>
      <trkpt lat="45.40036" lon="4.07924">
        <ele>776</ele>
        <time>2021-01-19T14:13:29Z</time>
      </trkpt>
      <trkpt lat="45.39992" lon="4.07881">
        <ele>772</ele>
        <time>2021-01-19T14:14:11Z</time>
      </trkpt>
      <trkpt lat="45.39948" lon="4.07804">
        <ele>772</ele>
        <time>2021-01-19T14:15:07Z</time>
      </trkpt>
      <trkpt lat="45.39926" lon="4.0779">
        <ele>772</ele>
        <time>2021-01-19T14:15:27Z</time>
      </trkpt>
      <trkpt lat="45.39897" lon="4.07777">
        <ele>773</ele>
        <time>2021-01-19T14:15:51Z</time>
      </trkpt>
      <trkpt lat="45.39856" lon="4.0774">
        <ele>776</ele>
        <time>2021-01-19T14:16:30Z</time>
      </trkpt>
      <trkpt lat="45.3985" lon="4.07727">
        <ele>777</ele>
        <time>2021-01-19T14:16:39Z</time>
      </trkpt>
      <trkpt lat="45.39802" lon="4.07697">
        <ele>778</ele>
        <time>2021-01-19T14:17:20Z</time>
      </trkpt>
      <trkpt lat="45.39783" lon="4.0767">
        <ele>779</ele>
        <time>2021-01-19T14:17:42Z</time>
      </trkpt>
      <trkpt lat="45.39755" lon="4.07639">
        <ele>780</ele>
        <time>2021-01-19T14:18:10Z</time>
      </trkpt>
      <trkpt lat="45.39707" lon="4.07596">
        <ele>781</ele>
        <time>2021-01-19T14:18:56Z</time>
      </trkpt>
      <trkpt lat="45.39689" lon="4.07594">
        <ele>780</ele>
        <time>2021-01-19T14:19:10Z</time>
      </trkpt>
      <trkpt lat="45.3967" lon="4.076">
        <ele>778</ele>
        <time>2021-01-19T14:19:26Z</time>
      </trkpt>
      <trkpt lat="45.39654" lon="4.07619">
        <ele>779</ele>
        <time>2021-01-19T14:19:43Z</time>
      </trkpt>
      <trkpt lat="45.39649" lon="4.07638">
        <ele>779</ele>
        <time>2021-01-19T14:19:54Z</time>
      </trkpt>
      <trkpt lat="45.39541" lon="4.07673">
        <ele>796</ele>
        <time>2021-01-19T14:21:23Z</time>
      </trkpt>
      <trkpt lat="45.39484" lon="4.07659">
        <ele>805</ele>
        <time>2021-01-19T14:22:09Z</time>
      </trkpt>
      <trkpt lat="45.39388" lon="4.07659">
        <ele>814</ele>
        <time>2021-01-19T14:23:26Z</time>
      </trkpt>
      <trkpt lat="45.39379" lon="4.0761">
        <ele>816</ele>
        <time>2021-01-19T14:23:54Z</time>
      </trkpt>
      <trkpt lat="45.39364" lon="4.07593">
        <ele>817</ele>
        <time>2021-01-19T14:24:10Z</time>
      </trkpt>
      <trkpt lat="45.39287" lon="4.07462">
        <ele>828</ele>
        <time>2021-01-19T14:25:46Z</time>
      </trkpt>
      <trkpt lat="45.39278" lon="4.07413">
        <ele>830</ele>
        <time>2021-01-19T14:26:14Z</time>
      </trkpt>
      <trkpt lat="45.39258" lon="4.07356">
        <ele>831</ele>
        <time>2021-01-19T14:26:50Z</time>
      </trkpt>
      <trkpt lat="45.39218" lon="4.07286">
        <ele>843</ele>
        <time>2021-01-19T14:27:41Z</time>
      </trkpt>
      <trkpt lat="45.39213" lon="4.07256">
        <ele>847</ele>
        <time>2021-01-19T14:27:58Z</time>
      </trkpt>
      <trkpt lat="45.39222" lon="4.0724">
        <ele>848</ele>
        <time>2021-01-19T14:28:10Z</time>
      </trkpt>
      <trkpt lat="45.39244" lon="4.07223">
        <ele>845</ele>
        <time>2021-01-19T14:28:30Z</time>
      </trkpt>
      <trkpt lat="45.39255" lon="4.072">
        <ele>848</ele>
        <time>2021-01-19T14:28:45Z</time>
      </trkpt>
      <trkpt lat="45.39272" lon="4.07181">
        <ele>848</ele>
        <time>2021-01-19T14:29:03Z</time>
      </trkpt>
      <trkpt lat="45.39269" lon="4.07126">
        <ele>856</ele>
        <time>2021-01-19T14:29:34Z</time>
      </trkpt>
      <trkpt lat="45.39245" lon="4.06873">
        <ele>876</ele>
        <time>2021-01-19T14:31:57Z</time>
      </trkpt>
      <trkpt lat="45.39239" lon="4.06751">
        <ele>880</ele>
        <time>2021-01-19T14:33:06Z</time>
      </trkpt>
      <trkpt lat="45.39233" lon="4.06716">
        <ele>881</ele>
        <time>2021-01-19T14:33:26Z</time>
      </trkpt>
      <trkpt lat="45.39226" lon="4.06692">
        <ele>882</ele>
        <time>2021-01-19T14:33:41Z</time>
      </trkpt>
      <trkpt lat="45.39205" lon="4.06672">
        <ele>884</ele>
        <time>2021-01-19T14:34:01Z</time>
      </trkpt>
      <trkpt lat="45.39185" lon="4.06664">
        <ele>885</ele>
        <time>2021-01-19T14:34:18Z</time>
      </trkpt>
      <trkpt lat="45.39159" lon="4.06663">
        <ele>889</ele>
        <time>2021-01-19T14:34:38Z</time>
      </trkpt>
      <trkpt lat="45.39135" lon="4.06665">
        <ele>893</ele>
        <time>2021-01-19T14:34:58Z</time>
      </trkpt>
      <trkpt lat="45.39112" lon="4.06655">
        <ele>898</ele>
        <time>2021-01-19T14:35:17Z</time>
      </trkpt>
      <trkpt lat="45.39065" lon="4.06643">
        <ele>907</ele>
        <time>2021-01-19T14:35:55Z</time>
      </trkpt>
      <trkpt lat="45.39006" lon="4.06649">
        <ele>917</ele>
        <time>2021-01-19T14:36:43Z</time>
      </trkpt>
      <trkpt lat="45.38997" lon="4.06638">
        <ele>919</ele>
        <time>2021-01-19T14:36:52Z</time>
      </trkpt>
      <trkpt lat="45.38952" lon="4.06597">
        <ele>926</ele>
        <time>2021-01-19T14:37:35Z</time>
      </trkpt>
      <trkpt lat="45.38915" lon="4.06574">
        <ele>932</ele>
        <time>2021-01-19T14:38:07Z</time>
      </trkpt>
      <trkpt lat="45.38881" lon="4.06538">
        <ele>937</ele>
        <time>2021-01-19T14:38:41Z</time>
      </trkpt>
      <trkpt lat="45.38869" lon="4.065">
        <ele>937</ele>
        <time>2021-01-19T14:39:04Z</time>
      </trkpt>
      <trkpt lat="45.38884" lon="4.06361">
        <ele>942</ele>
        <time>2021-01-19T14:40:24Z</time>
      </trkpt>
      <trkpt lat="45.38933" lon="4.06289">
        <ele>940</ele>
        <time>2021-01-19T14:41:20Z</time>
      </trkpt>
      <trkpt lat="45.38946" lon="4.06253">
        <ele>940</ele>
        <time>2021-01-19T14:41:43Z</time>
      </trkpt>
      <trkpt lat="45.38955" lon="4.062">
        <ele>940</ele>
        <time>2021-01-19T14:42:13Z</time>
      </trkpt>
      <trkpt lat="45.3897" lon="4.06156">
        <ele>939</ele>
        <time>2021-01-19T14:42:41Z</time>
      </trkpt>
      <trkpt lat="45.39026" lon="4.06063">
        <ele>936</ele>
        <time>2021-01-19T14:43:50Z</time>
      </trkpt>
      <trkpt lat="45.39046" lon="4.06018">
        <ele>935</ele>
        <time>2021-01-19T14:44:20Z</time>
      </trkpt>
      <trkpt lat="45.39055" lon="4.05979">
        <ele>933</ele>
        <time>2021-01-19T14:44:43Z</time>
      </trkpt>
      <trkpt lat="45.39071" lon="4.05963">
        <ele>931</ele>
        <time>2021-01-19T14:44:58Z</time>
      </trkpt>
      <trkpt lat="45.39104" lon="4.05919">
        <ele>925</ele>
        <time>2021-01-19T14:45:35Z</time>
      </trkpt>
      <trkpt lat="45.39167" lon="4.05919">
        <ele>920</ele>
        <time>2021-01-19T14:46:25Z</time>
      </trkpt>
      <trkpt lat="45.39191" lon="4.05898">
        <ele>921</ele>
        <time>2021-01-19T14:46:48Z</time>
      </trkpt>
      <trkpt lat="45.39214" lon="4.05869">
        <ele>925</ele>
        <time>2021-01-19T14:47:12Z</time>
      </trkpt>
      <trkpt lat="45.39284" lon="4.05902">
        <ele>923</ele>
        <time>2021-01-19T14:48:11Z</time>
      </trkpt>
      <trkpt lat="45.39326" lon="4.05931">
        <ele>923</ele>
        <time>2021-01-19T14:48:49Z</time>
      </trkpt>
      <trkpt lat="45.39344" lon="4.05948">
        <ele>923</ele>
        <time>2021-01-19T14:49:06Z</time>
      </trkpt>
      <trkpt lat="45.39364" lon="4.05989">
        <ele>920</ele>
        <time>2021-01-19T14:49:34Z</time>
      </trkpt>
      <trkpt lat="45.39392" lon="4.05981">
        <ele>925</ele>
        <time>2021-01-19T14:49:57Z</time>
      </trkpt>
      <trkpt lat="45.39404" lon="4.05966">
        <ele>927</ele>
        <time>2021-01-19T14:50:10Z</time>
      </trkpt>
      <trkpt lat="45.39414" lon="4.05948">
        <ele>930</ele>
        <time>2021-01-19T14:50:23Z</time>
      </trkpt>
      <trkpt lat="45.3942" lon="4.05929">
        <ele>932</ele>
        <time>2021-01-19T14:50:34Z</time>
      </trkpt>
      <trkpt lat="45.39421" lon="4.05878">
        <ele>937</ele>
        <time>2021-01-19T14:51:03Z</time>
      </trkpt>
      <trkpt lat="45.39425" lon="4.05844">
        <ele>940</ele>
        <time>2021-01-19T14:51:22Z</time>
      </trkpt>
      <trkpt lat="45.39407" lon="4.05827">
        <ele>943</ele>
        <time>2021-01-19T14:51:40Z</time>
      </trkpt>
      <trkpt lat="45.39386" lon="4.0579">
        <ele>948</ele>
        <time>2021-01-19T14:52:06Z</time>
      </trkpt>
      <trkpt lat="45.39368" lon="4.05751">
        <ele>955</ele>
        <time>2021-01-19T14:52:33Z</time>
      </trkpt>
      <trkpt lat="45.39337" lon="4.05665">
        <ele>961</ele>
        <time>2021-01-19T14:53:27Z</time>
      </trkpt>
      <trkpt lat="45.39318" lon="4.05636">
        <ele>962</ele>
        <time>2021-01-19T14:53:49Z</time>
      </trkpt>
      <trkpt lat="45.39306" lon="4.05623">
        <ele>962</ele>
        <time>2021-01-19T14:54:01Z</time>
      </trkpt>
      <trkpt lat="45.39278" lon="4.05579">
        <ele>963</ele>
        <time>2021-01-19T14:54:35Z</time>
      </trkpt>
      <trkpt lat="45.39269" lon="4.05551">
        <ele>963</ele>
        <time>2021-01-19T14:54:52Z</time>
      </trkpt>
      <trkpt lat="45.39267" lon="4.05523">
        <ele>963</ele>
        <time>2021-01-19T14:55:08Z</time>
      </trkpt>
      <trkpt lat="45.39261" lon="4.05505">
        <ele>963</ele>
        <time>2021-01-19T14:55:19Z</time>
      </trkpt>
      <trkpt lat="45.39261" lon="4.05403">
        <ele>961</ele>
        <time>2021-01-19T14:56:16Z</time>
      </trkpt>
      <trkpt lat="45.39264" lon="4.0537">
        <ele>961</ele>
        <time>2021-01-19T14:56:35Z</time>
      </trkpt>
      <trkpt lat="45.39271" lon="4.05313">
        <ele>960</ele>
        <time>2021-01-19T14:57:08Z</time>
      </trkpt>
      <trkpt lat="45.39282" lon="4.05253">
        <ele>957</ele>
        <time>2021-01-19T14:57:43Z</time>
      </trkpt>
      <trkpt lat="45.39307" lon="4.05185">
        <ele>956</ele>
        <time>2021-01-19T14:58:26Z</time>
      </trkpt>
      <trkpt lat="45.39243" lon="4.05138">
        <ele>953</ele>
        <time>2021-01-19T14:59:23Z</time>
      </trkpt>
      <trkpt lat="45.39236" lon="4.05113">
        <ele>953</ele>
        <time>2021-01-19T14:59:38Z</time>
      </trkpt>
      <trkpt lat="45.39201" lon="4.05054">
        <ele>954</ele>
        <time>2021-01-19T15:00:22Z</time>
      </trkpt>
      <trkpt lat="45.39186" lon="4.05041">
        <ele>954</ele>
        <time>2021-01-19T15:00:36Z</time>
      </trkpt>
      <trkpt lat="45.39147" lon="4.04999">
        <ele>955</ele>
        <time>2021-01-19T15:01:15Z</time>
      </trkpt>
      <trkpt lat="45.39077" lon="4.04948">
        <ele>955</ele>
        <time>2021-01-19T15:02:18Z</time>
      </trkpt>
      <trkpt lat="45.39002" lon="4.04911">
        <ele>951</ele>
        <time>2021-01-19T15:03:22Z</time>
      </trkpt>
      <trkpt lat="45.38976" lon="4.04894">
        <ele>948</ele>
        <time>2021-01-19T15:03:45Z</time>
      </trkpt>
      <trkpt lat="45.38948" lon="4.04902">
        <ele>947</ele>
        <time>2021-01-19T15:04:07Z</time>
      </trkpt>
      <trkpt lat="45.38899" lon="4.04907">
        <ele>945</ele>
        <time>2021-01-19T15:04:47Z</time>
      </trkpt>
      <trkpt lat="45.38883" lon="4.04914">
        <ele>944</ele>
        <time>2021-01-19T15:05:00Z</time>
      </trkpt>
      <trkpt lat="45.38858" lon="4.04917">
        <ele>941</ele>
        <time>2021-01-19T15:05:20Z</time>
      </trkpt>
      <trkpt lat="45.3885" lon="4.04913">
        <ele>940</ele>
        <time>2021-01-19T15:05:27Z</time>
      </trkpt>
      <trkpt lat="45.38838" lon="4.04888">
        <ele>937</ele>
        <time>2021-01-19T15:05:44Z</time>
      </trkpt>
      <trkpt lat="45.3882" lon="4.04873">
        <ele>935</ele>
        <time>2021-01-19T15:06:01Z</time>
      </trkpt>
      <trkpt lat="45.38808" lon="4.0485">
        <ele>934</ele>
        <time>2021-01-19T15:06:17Z</time>
      </trkpt>
      <trkpt lat="45.38787" lon="4.04832">
        <ele>933</ele>
        <time>2021-01-19T15:06:36Z</time>
      </trkpt>
      <trkpt lat="45.3876" lon="4.04828">
        <ele>933</ele>
        <time>2021-01-19T15:06:58Z</time>
      </trkpt>
      <trkpt lat="45.38734" lon="4.04828">
        <ele>934</ele>
        <time>2021-01-19T15:07:19Z</time>
      </trkpt>
      <trkpt lat="45.38698" lon="4.0465">
        <ele>937</ele>
        <time>2021-01-19T15:09:03Z</time>
      </trkpt>
      <trkpt lat="45.38695" lon="4.04461">
        <ele>937</ele>
        <time>2021-01-19T15:10:50Z</time>
      </trkpt>
      <trkpt lat="45.38706" lon="4.0444">
        <ele>937</ele>
        <time>2021-01-19T15:11:04Z</time>
      </trkpt>
      <trkpt lat="45.38707" lon="4.04381">
        <ele>938</ele>
        <time>2021-01-19T15:11:37Z</time>
      </trkpt>
      <trkpt lat="45.38707" lon="4.04348">
        <ele>939</ele>
        <time>2021-01-19T15:11:56Z</time>
      </trkpt>
      <trkpt lat="45.38697" lon="4.04264">
        <ele>942</ele>
        <time>2021-01-19T15:12:44Z</time>
      </trkpt>
      <trkpt lat="45.387" lon="4.04176">
        <ele>947</ele>
        <time>2021-01-19T15:13:33Z</time>
      </trkpt>
      <trkpt lat="45.38699" lon="4.04136">
        <ele>949</ele>
        <time>2021-01-19T15:13:56Z</time>
      </trkpt>
      <trkpt lat="45.38701" lon="4.04072">
        <ele>951</ele>
        <time>2021-01-19T15:14:32Z</time>
      </trkpt>
      <trkpt lat="45.3871" lon="4.03999">
        <ele>953</ele>
        <time>2021-01-19T15:15:14Z</time>
      </trkpt>
      <trkpt lat="45.38702" lon="4.03948">
        <ele>953</ele>
        <time>2021-01-19T15:15:43Z</time>
      </trkpt>
      <trkpt lat="45.38689" lon="4.03925">
        <ele>954</ele>
        <time>2021-01-19T15:16:00Z</time>
      </trkpt>
      <trkpt lat="45.38682" lon="4.03905">
        <ele>954</ele>
        <time>2021-01-19T15:16:12Z</time>
      </trkpt>
      <trkpt lat="45.38667" lon="4.03875">
        <ele>955</ele>
        <time>2021-01-19T15:16:33Z</time>
      </trkpt>
      <trkpt lat="45.38662" lon="4.03848">
        <ele>956</ele>
        <time>2021-01-19T15:16:49Z</time>
      </trkpt>
      <trkpt lat="45.38667" lon="4.03816">
        <ele>956</ele>
        <time>2021-01-19T15:17:07Z</time>
      </trkpt>
      <trkpt lat="45.38688" lon="4.0377">
        <ele>955</ele>
        <time>2021-01-19T15:17:38Z</time>
      </trkpt>
      <trkpt lat="45.38698" lon="4.03708">
        <ele>954</ele>
        <time>2021-01-19T15:18:14Z</time>
      </trkpt>
      <trkpt lat="45.3869" lon="4.03697">
        <ele>954</ele>
        <time>2021-01-19T15:18:23Z</time>
      </trkpt>
      <trkpt lat="45.38667" lon="4.03686">
        <ele>954</ele>
        <time>2021-01-19T15:18:42Z</time>
      </trkpt>
      <trkpt lat="45.38542" lon="4.03661">
        <ele>959</ele>
        <time>2021-01-19T15:20:23Z</time>
      </trkpt>
      <trkpt lat="45.38514" lon="4.03663">
        <ele>960</ele>
        <time>2021-01-19T15:20:46Z</time>
      </trkpt>
      <trkpt lat="45.38429" lon="4.03695">
        <ele>961</ele>
        <time>2021-01-19T15:21:56Z</time>
      </trkpt>
      <trkpt lat="45.3838" lon="4.03716">
        <ele>960</ele>
        <time>2021-01-19T15:22:37Z</time>
      </trkpt>
      <trkpt lat="45.38312" lon="4.0374">
        <ele>958</ele>
        <time>2021-01-19T15:23:33Z</time>
      </trkpt>
      <trkpt lat="45.38258" lon="4.03755">
        <ele>957</ele>
        <time>2021-01-19T15:24:17Z</time>
      </trkpt>
      <trkpt lat="45.38157" lon="4.03803">
        <ele>951</ele>
        <time>2021-01-19T15:25:42Z</time>
      </trkpt>
      <trkpt lat="45.38089" lon="4.03821">
        <ele>947</ele>
        <time>2021-01-19T15:26:38Z</time>
      </trkpt>
      <trkpt lat="45.38056" lon="4.03814">
        <ele>946</ele>
        <time>2021-01-19T15:27:04Z</time>
      </trkpt>
      <trkpt lat="45.38007" lon="4.03808">
        <ele>944</ele>
        <time>2021-01-19T15:27:44Z</time>
      </trkpt>
      <trkpt lat="45.37822" lon="4.03766">
        <ele>945</ele>
        <time>2021-01-19T15:30:14Z</time>
      </trkpt>
      <trkpt lat="45.37778" lon="4.0375">
        <ele>945</ele>
        <time>2021-01-19T15:30:50Z</time>
      </trkpt>
      <trkpt lat="45.37758" lon="4.0373">
        <ele>945</ele>
        <time>2021-01-19T15:31:10Z</time>
      </trkpt>
      <trkpt lat="45.37724" lon="4.03706">
        <ele>945</ele>
        <time>2021-01-19T15:31:40Z</time>
      </trkpt>
      <trkpt lat="45.3767" lon="4.03677">
        <ele>943</ele>
        <time>2021-01-19T15:32:26Z</time>
      </trkpt>
      <trkpt lat="45.37634" lon="4.03667">
        <ele>941</ele>
        <time>2021-01-19T15:32:56Z</time>
      </trkpt>
      <trkpt lat="45.37604" lon="4.03653">
        <ele>940</ele>
        <time>2021-01-19T15:33:21Z</time>
      </trkpt>
      <trkpt lat="45.3758" lon="4.03645">
        <ele>938</ele>
        <time>2021-01-19T15:33:41Z</time>
      </trkpt>
      <trkpt lat="45.37564" lon="4.03619">
        <ele>936</ele>
        <time>2021-01-19T15:34:00Z</time>
      </trkpt>
      <trkpt lat="45.37543" lon="4.03602">
        <ele>935</ele>
        <time>2021-01-19T15:34:19Z</time>
      </trkpt>
      <trkpt lat="45.37447" lon="4.03551">
        <ele>932</ele>
        <time>2021-01-19T15:35:41Z</time>
      </trkpt>
      <trkpt lat="45.37337" lon="4.03446">
        <ele>926</ele>
        <time>2021-01-19T15:37:28Z</time>
      </trkpt>
      <trkpt lat="45.37308" lon="4.0343">
        <ele>925</ele>
        <time>2021-01-19T15:37:52Z</time>
      </trkpt>
      <trkpt lat="45.37268" lon="4.03421">
        <ele>924</ele>
        <time>2021-01-19T15:38:25Z</time>
      </trkpt>
      <trkpt lat="45.37227" lon="4.03416">
        <ele>923</ele>
        <time>2021-01-19T15:38:58Z</time>
      </trkpt>
      <trkpt lat="45.3718" lon="4.03394">
        <ele>923</ele>
        <time>2021-01-19T15:39:37Z</time>
      </trkpt>
      <trkpt lat="45.37166" lon="4.03384">
        <ele>922</ele>
        <time>2021-01-19T15:39:50Z</time>
      </trkpt>
      <trkpt lat="45.37129" lon="4.03348">
        <ele>922</ele>
        <time>2021-01-19T15:40:26Z</time>
      </trkpt>
      <trkpt lat="45.37083" lon="4.03317">
        <ele>922</ele>
        <time>2021-01-19T15:41:07Z</time>
      </trkpt>
      <trkpt lat="45.37109" lon="4.03182">
        <ele>922</ele>
        <time>2021-01-19T15:42:25Z</time>
      </trkpt>
      <trkpt lat="45.37138" lon="4.03153">
        <ele>920</ele>
        <time>2021-01-19T15:42:54Z</time>
      </trkpt>
      <trkpt lat="45.37165" lon="4.03">
        <ele>919</ele>
        <time>2021-01-19T15:44:22Z</time>
      </trkpt>
      <trkpt lat="45.37172" lon="4.02973">
        <ele>918</ele>
        <time>2021-01-19T15:44:39Z</time>
      </trkpt>
      <trkpt lat="45.37167" lon="4.0293">
        <ele>917</ele>
        <time>2021-01-19T15:45:03Z</time>
      </trkpt>
      <trkpt lat="45.37193" lon="4.02755">
        <ele>913</ele>
        <time>2021-01-19T15:46:44Z</time>
      </trkpt>
      <trkpt lat="45.37202" lon="4.02718">
        <ele>913</ele>
        <time>2021-01-19T15:47:06Z</time>
      </trkpt>
      <trkpt lat="45.37257" lon="4.02641">
        <ele>910</ele>
        <time>2021-01-19T15:48:08Z</time>
      </trkpt>
      <trkpt lat="45.37291" lon="4.02605">
        <ele>910</ele>
        <time>2021-01-19T15:48:41Z</time>
      </trkpt>
      <trkpt lat="45.37368" lon="4.02478">
        <ele>913</ele>
        <time>2021-01-19T15:50:16Z</time>
      </trkpt>
      <trkpt lat="45.37367" lon="4.02455">
        <ele>914</ele>
        <time>2021-01-19T15:50:29Z</time>
      </trkpt>
      <trkpt lat="45.37379" lon="4.02414">
        <ele>916</ele>
        <time>2021-01-19T15:50:54Z</time>
      </trkpt>
      <trkpt lat="45.37392" lon="4.02345">
        <ele>922</ele>
        <time>2021-01-19T15:51:34Z</time>
      </trkpt>
      <trkpt lat="45.3739" lon="4.02321">
        <ele>923</ele>
        <time>2021-01-19T15:51:48Z</time>
      </trkpt>
      <trkpt lat="45.37386" lon="4.02302">
        <ele>925</ele>
        <time>2021-01-19T15:51:59Z</time>
      </trkpt>
      <trkpt lat="45.37375" lon="4.02273">
        <ele>926</ele>
        <time>2021-01-19T15:52:17Z</time>
      </trkpt>
      <trkpt lat="45.37359" lon="4.02254">
        <ele>927</ele>
        <time>2021-01-19T15:52:34Z</time>
      </trkpt>
      <trkpt lat="45.37354" lon="4.02244">
        <ele>928</ele>
        <time>2021-01-19T15:52:41Z</time>
      </trkpt>
      <trkpt lat="45.3734" lon="4.02237">
        <ele>927</ele>
        <time>2021-01-19T15:52:53Z</time>
      </trkpt>
      <trkpt lat="45.37342" lon="4.02214">
        <ele>927</ele>
        <time>2021-01-19T15:53:06Z</time>
      </trkpt>
      <trkpt lat="45.37359" lon="4.02175">
        <ele>928</ele>
        <time>2021-01-19T15:53:32Z</time>
      </trkpt>
      <trkpt lat="45.37402" lon="4.02036">
        <ele>933</ele>
        <time>2021-01-19T15:54:57Z</time>
      </trkpt>
      <trkpt lat="45.37416" lon="4.01961">
        <ele>937</ele>
        <time>2021-01-19T15:55:41Z</time>
      </trkpt>
      <trkpt lat="45.37433" lon="4.01911">
        <ele>939</ele>
        <time>2021-01-19T15:56:12Z</time>
      </trkpt>
      <trkpt lat="45.37478" lon="4.01794">
        <ele>945</ele>
        <time>2021-01-19T15:57:27Z</time>
      </trkpt>
      <trkpt lat="45.37502" lon="4.01749">
        <ele>946</ele>
        <time>2021-01-19T15:57:59Z</time>
      </trkpt>
      <trkpt lat="45.37497" lon="4.01724">
        <ele>947</ele>
        <time>2021-01-19T15:58:13Z</time>
      </trkpt>
      <trkpt lat="45.37497" lon="4.01664">
        <ele>947</ele>
        <time>2021-01-19T15:58:47Z</time>
      </trkpt>
      <trkpt lat="45.3748" lon="4.01608">
        <ele>947</ele>
        <time>2021-01-19T15:59:21Z</time>
      </trkpt>
      <trkpt lat="45.37507" lon="4.01621">
        <ele>943</ele>
        <time>2021-01-19T15:59:44Z</time>
      </trkpt>
      <trkpt lat="45.37532" lon="4.01623">
        <ele>940</ele>
        <time>2021-01-19T16:00:04Z</time>
      </trkpt>
      <trkpt lat="45.3756" lon="4.01621">
        <ele>936</ele>
        <time>2021-01-19T16:00:27Z</time>
      </trkpt>
      <trkpt lat="45.37599" lon="4.01611">
        <ele>930</ele>
        <time>2021-01-19T16:00:58Z</time>
      </trkpt>
      <trkpt lat="45.37583" lon="4.01594">
        <ele>930</ele>
        <time>2021-01-19T16:01:14Z</time>
      </trkpt>
      <trkpt lat="45.37562" lon="4.01489">
        <ele>922</ele>
        <time>2021-01-19T16:02:16Z</time>
      </trkpt>
      <trkpt lat="45.37552" lon="4.01462">
        <ele>919</ele>
        <time>2021-01-19T16:02:33Z</time>
      </trkpt>
      <trkpt lat="45.37539" lon="4.01441">
        <ele>916</ele>
        <time>2021-01-19T16:02:49Z</time>
      </trkpt>
      <trkpt lat="45.37509" lon="4.01408">
        <ele>910</ele>
        <time>2021-01-19T16:03:19Z</time>
      </trkpt>
      <trkpt lat="45.37464" lon="4.01368">
        <ele>907</ele>
        <time>2021-01-19T16:04:02Z</time>
      </trkpt>
      <trkpt lat="45.3745" lon="4.01343">
        <ele>904</ele>
        <time>2021-01-19T16:04:20Z</time>
      </trkpt>
      <trkpt lat="45.3742" lon="4.01283">
        <ele>901</ele>
        <time>2021-01-19T16:05:01Z</time>
      </trkpt>
      <trkpt lat="45.37398" lon="4.01227">
        <ele>899</ele>
        <time>2021-01-19T16:05:37Z</time>
      </trkpt>
      <trkpt lat="45.37395" lon="4.01208">
        <ele>899</ele>
        <time>2021-01-19T16:05:48Z</time>
      </trkpt>
      <trkpt lat="45.37396" lon="4.01184">
        <ele>899</ele>
        <time>2021-01-19T16:06:02Z</time>
      </trkpt>
      <trkpt lat="45.37357" lon="4.01102">
        <ele>901</ele>
        <time>2021-01-19T16:06:57Z</time>
      </trkpt>
      <trkpt lat="45.3729" lon="4.00986">
        <ele>894</ele>
        <time>2021-01-19T16:08:22Z</time>
      </trkpt>
      <trkpt lat="45.37267" lon="4.00956">
        <ele>888</ele>
        <time>2021-01-19T16:08:47Z</time>
      </trkpt>
      <trkpt lat="45.37258" lon="4.00918">
        <ele>880</ele>
        <time>2021-01-19T16:09:09Z</time>
      </trkpt>
      <trkpt lat="45.37245" lon="4.00905">
        <ele>878</ele>
        <time>2021-01-19T16:09:22Z</time>
      </trkpt>
      <trkpt lat="45.37211" lon="4.00882">
        <ele>873</ele>
        <time>2021-01-19T16:09:52Z</time>
      </trkpt>
      <trkpt lat="45.37172" lon="4.00862">
        <ele>868</ele>
        <time>2021-01-19T16:10:25Z</time>
      </trkpt>
      <trkpt lat="45.37153" lon="4.0086">
        <ele>867</ele>
        <time>2021-01-19T16:10:41Z</time>
      </trkpt>
      <trkpt lat="45.37133" lon="4.00845">
        <ele>863</ele>
        <time>2021-01-19T16:10:59Z</time>
      </trkpt>
      <trkpt lat="45.37131" lon="4.00826">
        <ele>861</ele>
        <time>2021-01-19T16:11:09Z</time>
      </trkpt>
      <trkpt lat="45.37133" lon="4.00796">
        <ele>861</ele>
        <time>2021-01-19T16:11:26Z</time>
      </trkpt>
      <trkpt lat="45.3712" lon="4.00787">
        <ele>861</ele>
        <time>2021-01-19T16:11:38Z</time>
      </trkpt>
      <trkpt lat="45.3711" lon="4.00772">
        <ele>862</ele>
        <time>2021-01-19T16:11:50Z</time>
      </trkpt>
      <trkpt lat="45.37101" lon="4.00751">
        <ele>863</ele>
        <time>2021-01-19T16:12:03Z</time>
      </trkpt>
      <trkpt lat="45.37086" lon="4.00728">
        <ele>866</ele>
        <time>2021-01-19T16:12:21Z</time>
      </trkpt>
      <trkpt lat="45.3707" lon="4.00713">
        <ele>867</ele>
        <time>2021-01-19T16:12:36Z</time>
      </trkpt>
      <trkpt lat="45.37057" lon="4.00712">
        <ele>867</ele>
        <time>2021-01-19T16:12:47Z</time>
      </trkpt>
      <trkpt lat="45.37009" lon="4.00676">
        <ele>867</ele>
        <time>2021-01-19T16:13:30Z</time>
      </trkpt>
      <trkpt lat="45.36992" lon="4.00652">
        <ele>867</ele>
        <time>2021-01-19T16:13:49Z</time>
      </trkpt>
      <trkpt lat="45.3697" lon="4.0061">
        <ele>865</ele>
        <time>2021-01-19T16:14:19Z</time>
      </trkpt>
      <trkpt lat="45.3696" lon="4.00589">
        <ele>865</ele>
        <time>2021-01-19T16:14:33Z</time>
      </trkpt>
      <trkpt lat="45.36957" lon="4.00569">
        <ele>863</ele>
        <time>2021-01-19T16:14:45Z</time>
      </trkpt>
      <trkpt lat="45.36986" lon="4.00533">
        <ele>863</ele>
        <time>2021-01-19T16:15:16Z</time>
      </trkpt>
      <trkpt lat="45.37003" lon="4.0047">
        <ele>858</ele>
        <time>2021-01-19T16:15:53Z</time>
      </trkpt>
      <trkpt lat="45.37003" lon="4.00456">
        <ele>857</ele>
        <time>2021-01-19T16:16:01Z</time>
      </trkpt>
      <trkpt lat="45.36999" lon="4.00434">
        <ele>855</ele>
        <time>2021-01-19T16:16:14Z</time>
      </trkpt>
      <trkpt lat="45.37003" lon="4.00413">
        <ele>854</ele>
        <time>2021-01-19T16:16:26Z</time>
      </trkpt>
      <trkpt lat="45.36988" lon="4.00425">
        <ele>853</ele>
        <time>2021-01-19T16:16:40Z</time>
      </trkpt>
      <trkpt lat="45.36972" lon="4.00453">
        <ele>852</ele>
        <time>2021-01-19T16:17:00Z</time>
      </trkpt>
      <trkpt lat="45.36951" lon="4.00477">
        <ele>851</ele>
        <time>2021-01-19T16:17:22Z</time>
      </trkpt>
      <trkpt lat="45.36913" lon="4.00495">
        <ele>848</ele>
        <time>2021-01-19T16:17:54Z</time>
      </trkpt>
      <trkpt lat="45.36865" lon="4.00481">
        <ele>843</ele>
        <time>2021-01-19T16:18:33Z</time>
      </trkpt>
      <trkpt lat="45.36809" lon="4.00484">
        <ele>842</ele>
        <time>2021-01-19T16:19:18Z</time>
      </trkpt>
      <trkpt lat="45.36781" lon="4.00494">
        <ele>845</ele>
        <time>2021-01-19T16:19:41Z</time>
      </trkpt>
      <trkpt lat="45.3673" lon="4.00495">
        <ele>849</ele>
        <time>2021-01-19T16:20:22Z</time>
      </trkpt>
      <trkpt lat="45.36697" lon="4.00491">
        <ele>853</ele>
        <time>2021-01-19T16:20:49Z</time>
      </trkpt>
      <trkpt lat="45.36679" lon="4.00499">
        <ele>858</ele>
        <time>2021-01-19T16:21:04Z</time>
      </trkpt>
      <trkpt lat="45.36662" lon="4.00487">
        <ele>858</ele>
        <time>2021-01-19T16:21:19Z</time>
      </trkpt>
      <trkpt lat="45.3663" lon="4.0047">
        <ele>857</ele>
        <time>2021-01-19T16:21:46Z</time>
      </trkpt>
      <trkpt lat="45.36575" lon="4.00509">
        <ele>872</ele>
        <time>2021-01-19T16:22:35Z</time>
      </trkpt>
      <trkpt lat="45.36556" lon="4.00514">
        <ele>874</ele>
        <time>2021-01-19T16:22:51Z</time>
      </trkpt>
      <trkpt lat="45.36512" lon="4.00443">
        <ele>858</ele>
        <time>2021-01-19T16:23:44Z</time>
      </trkpt>
      <trkpt lat="45.36488" lon="4.00421">
        <ele>853</ele>
        <time>2021-01-19T16:24:07Z</time>
      </trkpt>
      <trkpt lat="45.3645" lon="4.00398">
        <ele>849</ele>
        <time>2021-01-19T16:24:40Z</time>
      </trkpt>
      <trkpt lat="45.36421" lon="4.00395">
        <ele>849</ele>
        <time>2021-01-19T16:25:03Z</time>
      </trkpt>
      <trkpt lat="45.36403" lon="4.00386">
        <ele>848</ele>
        <time>2021-01-19T16:25:19Z</time>
      </trkpt>
      <trkpt lat="45.36392" lon="4.00367">
        <ele>844</ele>
        <time>2021-01-19T16:25:33Z</time>
      </trkpt>
      <trkpt lat="45.36388" lon="4.00341">
        <ele>835</ele>
        <time>2021-01-19T16:25:48Z</time>
      </trkpt>
      <trkpt lat="45.36387" lon="4.00292">
        <ele>831</ele>
        <time>2021-01-19T16:26:15Z</time>
      </trkpt>
      <trkpt lat="45.36382" lon="4.00281">
        <ele>831</ele>
        <time>2021-01-19T16:26:22Z</time>
      </trkpt>
      <trkpt lat="45.36363" lon="4.00274">
        <ele>831</ele>
        <time>2021-01-19T16:26:38Z</time>
      </trkpt>
      <trkpt lat="45.36347" lon="4.00265">
        <ele>831</ele>
        <time>2021-01-19T16:26:52Z</time>
      </trkpt>
      <trkpt lat="45.36383" lon="4.00246">
        <ele>831</ele>
        <time>2021-01-19T16:27:23Z</time>
      </trkpt>
      <trkpt lat="45.36428" lon="4.00241">
        <ele>831</ele>
        <time>2021-01-19T16:27:59Z</time>
      </trkpt>
      <trkpt lat="45.36443" lon="4.00224">
        <ele>833</ele>
        <time>2021-01-19T16:28:14Z</time>
      </trkpt>
      <trkpt lat="45.36447" lon="4.00207">
        <ele>835</ele>
        <time>2021-01-19T16:28:24Z</time>
      </trkpt>
      <trkpt lat="45.36426" lon="4.00176">
        <ele>839</ele>
        <time>2021-01-19T16:28:48Z</time>
      </trkpt>
      <trkpt lat="45.36417" lon="4.00119">
        <ele>850</ele>
        <time>2021-01-19T16:29:21Z</time>
      </trkpt>
      <trkpt lat="45.3635" lon="4.00078">
        <ele>858</ele>
        <time>2021-01-19T16:30:20Z</time>
      </trkpt>
      <trkpt lat="45.36301" lon="4.00064">
        <ele>857</ele>
        <time>2021-01-19T16:31:00Z</time>
      </trkpt>
      <trkpt lat="45.36295" lon="4.00048">
        <ele>859</ele>
        <time>2021-01-19T16:31:10Z</time>
      </trkpt>
      <trkpt lat="45.36315" lon="4.00031">
        <ele>862</ele>
        <time>2021-01-19T16:31:29Z</time>
      </trkpt>
      <trkpt lat="45.36374" lon="3.99946">
        <ele>869</ele>
        <time>2021-01-19T16:32:36Z</time>
      </trkpt>
      <trkpt lat="45.36416" lon="3.99937">
        <ele>873</ele>
        <time>2021-01-19T16:33:10Z</time>
      </trkpt>
      <trkpt lat="45.36495" lon="3.99928">
        <ele>880</ele>
        <time>2021-01-19T16:34:13Z</time>
      </trkpt>
      <trkpt lat="45.36547" lon="3.99917">
        <ele>886</ele>
        <time>2021-01-19T16:34:55Z</time>
      </trkpt>
      <trkpt lat="45.36587" lon="3.99912">
        <ele>891</ele>
        <time>2021-01-19T16:35:28Z</time>
      </trkpt>
      <trkpt lat="45.36628" lon="3.99886">
        <ele>898</ele>
        <time>2021-01-19T16:36:03Z</time>
      </trkpt>
      <trkpt lat="45.36642" lon="3.99874">
        <ele>900</ele>
        <time>2021-01-19T16:36:17Z</time>
      </trkpt>
      <trkpt lat="45.36635" lon="3.99855">
        <ele>900</ele>
        <time>2021-01-19T16:36:29Z</time>
      </trkpt>
      <trkpt lat="45.36641" lon="3.99768">
        <ele>905</ele>
        <time>2021-01-19T16:37:18Z</time>
      </trkpt>
      <trkpt lat="45.36654" lon="3.99689">
        <ele>911</ele>
        <time>2021-01-19T16:38:03Z</time>
      </trkpt>
      <trkpt lat="45.36648" lon="3.99682">
        <ele>911</ele>
        <time>2021-01-19T16:38:10Z</time>
      </trkpt>
      <trkpt lat="45.36608" lon="3.99688">
        <ele>910</ele>
        <time>2021-01-19T16:38:42Z</time>
      </trkpt>
      <trkpt lat="45.36589" lon="3.99683">
        <ele>911</ele>
        <time>2021-01-19T16:38:57Z</time>
      </trkpt>
      <trkpt lat="45.36578" lon="3.99676">
        <ele>911</ele>
        <time>2021-01-19T16:39:07Z</time>
      </trkpt>
      <trkpt lat="45.36557" lon="3.99647">
        <ele>912</ele>
        <time>2021-01-19T16:39:30Z</time>
      </trkpt>
      <trkpt lat="45.36546" lon="3.99641">
        <ele>912</ele>
        <time>2021-01-19T16:39:40Z</time>
      </trkpt>
      <trkpt lat="45.36523" lon="3.99601">
        <ele>912</ele>
        <time>2021-01-19T16:40:09Z</time>
      </trkpt>
      <trkpt lat="45.36505" lon="3.99585">
        <ele>912</ele>
        <time>2021-01-19T16:40:26Z</time>
      </trkpt>
      <trkpt lat="45.36479" lon="3.99528">
        <ele>914</ele>
        <time>2021-01-19T16:41:04Z</time>
      </trkpt>
      <trkpt lat="45.36451" lon="3.99496">
        <ele>915</ele>
        <time>2021-01-19T16:41:33Z</time>
      </trkpt>
      <trkpt lat="45.36432" lon="3.99479">
        <ele>914</ele>
        <time>2021-01-19T16:41:51Z</time>
      </trkpt>
      <trkpt lat="45.36419" lon="3.9945">
        <ele>914</ele>
        <time>2021-01-19T16:42:10Z</time>
      </trkpt>
      <trkpt lat="45.36476" lon="3.99401">
        <ele>919</ele>
        <time>2021-01-19T16:43:04Z</time>
      </trkpt>
      <trkpt lat="45.36482" lon="3.99387">
        <ele>920</ele>
        <time>2021-01-19T16:43:13Z</time>
      </trkpt>
      <trkpt lat="45.36461" lon="3.99367">
        <ele>919</ele>
        <time>2021-01-19T16:43:33Z</time>
      </trkpt>
      <trkpt lat="45.36455" lon="3.99355">
        <ele>919</ele>
        <time>2021-01-19T16:43:41Z</time>
      </trkpt>
      <trkpt lat="45.36447" lon="3.99285">
        <ele>920</ele>
        <time>2021-01-19T16:44:21Z</time>
      </trkpt>
      <trkpt lat="45.36439" lon="3.99254">
        <ele>921</ele>
        <time>2021-01-19T16:44:40Z</time>
      </trkpt>
      <trkpt lat="45.36431" lon="3.99208">
        <ele>922</ele>
        <time>2021-01-19T16:45:06Z</time>
      </trkpt>
      <trkpt lat="45.3642" lon="3.99206">
        <ele>922</ele>
        <time>2021-01-19T16:45:15Z</time>
      </trkpt>
      <trkpt lat="45.36446" lon="3.99171">
        <ele>924</ele>
        <time>2021-01-19T16:45:44Z</time>
      </trkpt>
      <trkpt lat="45.36454" lon="3.99152">
        <ele>923</ele>
        <time>2021-01-19T16:45:56Z</time>
      </trkpt>
      <trkpt lat="45.36473" lon="3.99082">
        <ele>920</ele>
        <time>2021-01-19T16:46:39Z</time>
      </trkpt>
      <trkpt lat="45.36482" lon="3.99067">
        <ele>919</ele>
        <time>2021-01-19T16:46:50Z</time>
      </trkpt>
      <trkpt lat="45.36585" lon="3.98928">
        <ele>910</ele>
        <time>2021-01-19T16:48:43Z</time>
      </trkpt>
      <trkpt lat="45.36645" lon="3.98877">
        <ele>908</ele>
        <time>2021-01-19T16:49:39Z</time>
      </trkpt>
      <trkpt lat="45.36695" lon="3.98826">
        <ele>904</ele>
        <time>2021-01-19T16:50:29Z</time>
      </trkpt>
      <trkpt lat="45.3673" lon="3.98797">
        <ele>901</ele>
        <time>2021-01-19T16:51:01Z</time>
      </trkpt>
      <trkpt lat="45.36797" lon="3.98754">
        <ele>897</ele>
        <time>2021-01-19T16:52:00Z</time>
      </trkpt>
      <trkpt lat="45.36893" lon="3.987">
        <ele>897</ele>
        <time>2021-01-19T16:53:23Z</time>
      </trkpt>
      <trkpt lat="45.36934" lon="3.98682">
        <ele>896</ele>
        <time>2021-01-19T16:53:57Z</time>
      </trkpt>
      <trkpt lat="45.36966" lon="3.98676">
        <ele>897</ele>
        <time>2021-01-19T16:54:23Z</time>
      </trkpt>
      <trkpt lat="45.37001" lon="3.98676">
        <ele>899</ele>
        <time>2021-01-19T16:54:51Z</time>
      </trkpt>
      <trkpt lat="45.37032" lon="3.9868">
        <ele>898</ele>
        <time>2021-01-19T16:55:16Z</time>
      </trkpt>
      <trkpt lat="45.37077" lon="3.98724">
        <ele>899</ele>
        <time>2021-01-19T16:55:59Z</time>
      </trkpt>
      <trkpt lat="45.36973" lon="3.98393">
        <ele>897</ele>
        <time>2021-01-19T16:59:23Z</time>
      </trkpt>
      <trkpt lat="45.36857" lon="3.98111">
        <ele>895</ele>
        <time>2021-01-19T17:02:27Z</time>
      </trkpt>
      <trkpt lat="45.3689" lon="3.98076">
        <ele>897</ele>
        <time>2021-01-19T17:03:00Z</time>
      </trkpt>
      <trkpt lat="45.36893" lon="3.97918">
        <ele>902</ele>
        <time>2021-01-19T17:04:29Z</time>
      </trkpt>
      <trkpt lat="45.36907" lon="3.97798">
        <ele>910</ele>
        <time>2021-01-19T17:05:37Z</time>
      </trkpt>
      <trkpt lat="45.36964" lon="3.97563">
        <ele>916</ele>
        <time>2021-01-19T17:07:57Z</time>
      </trkpt>
      <trkpt lat="45.36994" lon="3.97487">
        <ele>918</ele>
        <time>2021-01-19T17:08:46Z</time>
      </trkpt>
      <trkpt lat="45.36976" lon="3.97471">
        <ele>915</ele>
        <time>2021-01-19T17:09:03Z</time>
      </trkpt>
      <trkpt lat="45.36995" lon="3.97424">
        <ele>914</ele>
        <time>2021-01-19T17:09:34Z</time>
      </trkpt>
      <trkpt lat="45.37018" lon="3.97381">
        <ele>913</ele>
        <time>2021-01-19T17:10:04Z</time>
      </trkpt>
      <trkpt lat="45.37003" lon="3.9737">
        <ele>911</ele>
        <time>2021-01-19T17:10:18Z</time>
      </trkpt>
      <trkpt lat="45.37012" lon="3.9735">
        <ele>911</ele>
        <time>2021-01-19T17:10:31Z</time>
      </trkpt>
      <trkpt lat="45.37018" lon="3.97327">
        <ele>910</ele>
        <time>2021-01-19T17:10:45Z</time>
      </trkpt>
      <trkpt lat="45.37037" lon="3.97294">
        <ele>909</ele>
        <time>2021-01-19T17:11:09Z</time>
      </trkpt>
      <trkpt lat="45.37049" lon="3.97234">
        <ele>906</ele>
        <time>2021-01-19T17:11:44Z</time>
      </trkpt>
      <trkpt lat="45.37037" lon="3.97144">
        <ele>904</ele>
        <time>2021-01-19T17:12:35Z</time>
      </trkpt>
      <trkpt lat="45.37025" lon="3.97121">
        <ele>903</ele>
        <time>2021-01-19T17:12:52Z</time>
      </trkpt>
      <trkpt lat="45.37025" lon="3.97085">
        <ele>902</ele>
        <time>2021-01-19T17:13:12Z</time>
      </trkpt>
      <trkpt lat="45.37006" lon="3.96991">
        <ele>902</ele>
        <time>2021-01-19T17:14:07Z</time>
      </trkpt>
      <trkpt lat="45.37" lon="3.96933">
        <ele>903</ele>
        <time>2021-01-19T17:14:40Z</time>
      </trkpt>
      <trkpt lat="45.37" lon="3.9688">
        <ele>907</ele>
        <time>2021-01-19T17:15:10Z</time>
      </trkpt>
      <trkpt lat="45.3699" lon="3.96761">
        <ele>918</ele>
        <time>2021-01-19T17:16:17Z</time>
      </trkpt>
      <trkpt lat="45.36976" lon="3.96683">
        <ele>921</ele>
        <time>2021-01-19T17:17:02Z</time>
      </trkpt>
      <trkpt lat="45.36976" lon="3.96582">
        <ele>921</ele>
        <time>2021-01-19T17:17:59Z</time>
      </trkpt>
      <trkpt lat="45.36985" lon="3.96507">
        <ele>919</ele>
        <time>2021-01-19T17:18:42Z</time>
      </trkpt>
      <trkpt lat="45.36996" lon="3.96462">
        <ele>918</ele>
        <time>2021-01-19T17:19:09Z</time>
      </trkpt>
      <trkpt lat="45.37" lon="3.96317">
        <ele>913</ele>
        <time>2021-01-19T17:20:30Z</time>
      </trkpt>
      <trkpt lat="45.36971" lon="3.96058">
        <ele>902</ele>
        <time>2021-01-19T17:22:58Z</time>
      </trkpt>
      <trkpt lat="45.36956" lon="3.96029">
        <ele>902</ele>
        <time>2021-01-19T17:23:18Z</time>
      </trkpt>
      <trkpt lat="45.36946" lon="3.95999">
        <ele>901</ele>
        <time>2021-01-19T17:23:37Z</time>
      </trkpt>
      <trkpt lat="45.36905" lon="3.95923">
        <ele>899</ele>
        <time>2021-01-19T17:24:31Z</time>
      </trkpt>
      <trkpt lat="45.36894" lon="3.95908">
        <ele>899</ele>
        <time>2021-01-19T17:24:43Z</time>
      </trkpt>
      <trkpt lat="45.3688" lon="3.95899">
        <ele>899</ele>
        <time>2021-01-19T17:24:55Z</time>
      </trkpt>
      <trkpt lat="45.36846" lon="3.95847">
        <ele>901</ele>
        <time>2021-01-19T17:25:35Z</time>
      </trkpt>
      <trkpt lat="45.36829" lon="3.95813">
        <ele>902</ele>
        <time>2021-01-19T17:25:59Z</time>
      </trkpt>
      <trkpt lat="45.36819" lon="3.95742">
        <ele>907</ele>
        <time>2021-01-19T17:26:39Z</time>
      </trkpt>
      <trkpt lat="45.36819" lon="3.95704">
        <ele>909</ele>
        <time>2021-01-19T17:27:01Z</time>
      </trkpt>
      <trkpt lat="45.36806" lon="3.95647">
        <ele>912</ele>
        <time>2021-01-19T17:27:35Z</time>
      </trkpt>
      <trkpt lat="45.3679" lon="3.95598">
        <ele>916</ele>
        <time>2021-01-19T17:28:05Z</time>
      </trkpt>
      <trkpt lat="45.36789" lon="3.95558">
        <ele>918</ele>
        <time>2021-01-19T17:28:27Z</time>
      </trkpt>
      <trkpt lat="45.36777" lon="3.95394">
        <ele>919</ele>
        <time>2021-01-19T17:30:00Z</time>
      </trkpt>
      <trkpt lat="45.36783" lon="3.9534">
        <ele>919</ele>
        <time>2021-01-19T17:30:31Z</time>
      </trkpt>
      <trkpt lat="45.36791" lon="3.95304">
        <ele>919</ele>
        <time>2021-01-19T17:30:52Z</time>
      </trkpt>
      <trkpt lat="45.36825" lon="3.95211">
        <ele>919</ele>
        <time>2021-01-19T17:31:51Z</time>
      </trkpt>
      <trkpt lat="45.36862" lon="3.95176">
        <ele>921</ele>
        <time>2021-01-19T17:32:27Z</time>
      </trkpt>
      <trkpt lat="45.36887" lon="3.95131">
        <ele>922</ele>
        <time>2021-01-19T17:32:59Z</time>
      </trkpt>
      <trkpt lat="45.36879" lon="3.95041">
        <ele>921</ele>
        <time>2021-01-19T17:33:50Z</time>
      </trkpt>
      <trkpt lat="45.36889" lon="3.95004">
        <ele>921</ele>
        <time>2021-01-19T17:34:12Z</time>
      </trkpt>
      <trkpt lat="45.36911" lon="3.94948">
        <ele>922</ele>
        <time>2021-01-19T17:34:48Z</time>
      </trkpt>
      <trkpt lat="45.36927" lon="3.94857">
        <ele>921</ele>
        <time>2021-01-19T17:35:41Z</time>
      </trkpt>
      <trkpt lat="45.36928" lon="3.94829">
        <ele>921</ele>
        <time>2021-01-19T17:35:57Z</time>
      </trkpt>
      <trkpt lat="45.36922" lon="3.94791">
        <ele>921</ele>
        <time>2021-01-19T17:36:19Z</time>
      </trkpt>
      <trkpt lat="45.36933" lon="3.9472">
        <ele>921</ele>
        <time>2021-01-19T17:37:00Z</time>
      </trkpt>
      <trkpt lat="45.36926" lon="3.94687">
        <ele>923</ele>
        <time>2021-01-19T17:37:19Z</time>
      </trkpt>
      <trkpt lat="45.36923" lon="3.94659">
        <ele>924</ele>
        <time>2021-01-19T17:37:35Z</time>
      </trkpt>
      <trkpt lat="45.36924" lon="3.94633">
        <ele>924</ele>
        <time>2021-01-19T17:37:50Z</time>
      </trkpt>
      <trkpt lat="45.36954" lon="3.94499">
        <ele>920</ele>
        <time>2021-01-19T17:39:09Z</time>
      </trkpt>
      <trkpt lat="45.36957" lon="3.9441">
        <ele>918</ele>
        <time>2021-01-19T17:39:59Z</time>
      </trkpt>
      <trkpt lat="45.36966" lon="3.94365">
        <ele>918</ele>
        <time>2021-01-19T17:40:25Z</time>
      </trkpt>
      <trkpt lat="45.3699" lon="3.94284">
        <ele>917</ele>
        <time>2021-01-19T17:41:15Z</time>
      </trkpt>
      <trkpt lat="45.3699" lon="3.94254">
        <ele>918</ele>
        <time>2021-01-19T17:41:32Z</time>
      </trkpt>
      <trkpt lat="45.36985" lon="3.94191">
        <ele>916</ele>
        <time>2021-01-19T17:42:07Z</time>
      </trkpt>
      <trkpt lat="45.36985" lon="3.941">
        <ele>916</ele>
        <time>2021-01-19T17:42:58Z</time>
      </trkpt>
      <trkpt lat="45.3698" lon="3.94049">
        <ele>918</ele>
        <time>2021-01-19T17:43:27Z</time>
      </trkpt>
      <trkpt lat="45.3698" lon="3.94008">
        <ele>920</ele>
        <time>2021-01-19T17:43:50Z</time>
      </trkpt>
      <trkpt lat="45.36989" lon="3.93934">
        <ele>923</ele>
        <time>2021-01-19T17:44:33Z</time>
      </trkpt>
      <trkpt lat="45.37" lon="3.93874">
        <ele>923</ele>
        <time>2021-01-19T17:45:08Z</time>
      </trkpt>
      <trkpt lat="45.37015" lon="3.93768">
        <ele>922</ele>
        <time>2021-01-19T17:46:08Z</time>
      </trkpt>
      <trkpt lat="45.37018" lon="3.93714">
        <ele>922</ele>
        <time>2021-01-19T17:46:39Z</time>
      </trkpt>
      <trkpt lat="45.37024" lon="3.93669">
        <ele>921</ele>
        <time>2021-01-19T17:47:05Z</time>
      </trkpt>
      <trkpt lat="45.37031" lon="3.93577">
        <ele>921</ele>
        <time>2021-01-19T17:47:57Z</time>
      </trkpt>
      <trkpt lat="45.37019" lon="3.93438">
        <ele>922</ele>
        <time>2021-01-19T17:49:15Z</time>
      </trkpt>
      <trkpt lat="45.37014" lon="3.9329">
        <ele>918</ele>
        <time>2021-01-19T17:50:39Z</time>
      </trkpt>
      <trkpt lat="45.37021" lon="3.93189">
        <ele>918</ele>
        <time>2021-01-19T17:51:36Z</time>
      </trkpt>
      <trkpt lat="45.3703" lon="3.93126">
        <ele>917</ele>
        <time>2021-01-19T17:52:12Z</time>
      </trkpt>
      <trkpt lat="45.37028" lon="3.93099">
        <ele>916</ele>
        <time>2021-01-19T17:52:27Z</time>
      </trkpt>
      <trkpt lat="45.37018" lon="3.93042">
        <ele>914</ele>
        <time>2021-01-19T17:53:00Z</time>
      </trkpt>
      <trkpt lat="45.37006" lon="3.92991">
        <ele>912</ele>
        <time>2021-01-19T17:53:31Z</time>
      </trkpt>
      <trkpt lat="45.36998" lon="3.92934">
        <ele>910</ele>
        <time>2021-01-19T17:54:03Z</time>
      </trkpt>
      <trkpt lat="45.36987" lon="3.92885">
        <ele>912</ele>
        <time>2021-01-19T17:54:32Z</time>
      </trkpt>
      <trkpt lat="45.36979" lon="3.92834">
        <ele>914</ele>
        <time>2021-01-19T17:55:02Z</time>
      </trkpt>
      <trkpt lat="45.36968" lon="3.92785">
        <ele>914</ele>
        <time>2021-01-19T17:55:31Z</time>
      </trkpt>
      <trkpt lat="45.36958" lon="3.92718">
        <ele>913</ele>
        <time>2021-01-19T17:56:09Z</time>
      </trkpt>
      <trkpt lat="45.3697" lon="3.92725">
        <ele>913</ele>
        <time>2021-01-19T17:56:20Z</time>
      </trkpt>
      <trkpt lat="45.37006" lon="3.9273">
        <ele>912</ele>
        <time>2021-01-19T17:56:48Z</time>
      </trkpt>
      <trkpt lat="45.37037" lon="3.92728">
        <ele>910</ele>
        <time>2021-01-19T17:57:13Z</time>
      </trkpt>
      <trkpt lat="45.37005" lon="3.92664">
        <ele>912</ele>
        <time>2021-01-19T17:57:58Z</time>
      </trkpt>
      <trkpt lat="45.36989" lon="3.92644">
        <ele>912</ele>
        <time>2021-01-19T17:58:15Z</time>
      </trkpt>
      <trkpt lat="45.36911" lon="3.92529">
        <ele>910</ele>
        <time>2021-01-19T17:59:44Z</time>
      </trkpt>
      <trkpt lat="45.36912" lon="3.9251">
        <ele>909</ele>
        <time>2021-01-19T17:59:55Z</time>
      </trkpt>
      <trkpt lat="45.36917" lon="3.92479">
        <ele>908</ele>
        <time>2021-01-19T18:00:13Z</time>
      </trkpt>
      <trkpt lat="45.36941" lon="3.92401">
        <ele>906</ele>
        <time>2021-01-19T18:01:01Z</time>
      </trkpt>
      <trkpt lat="45.36985" lon="3.92274">
        <ele>902</ele>
        <time>2021-01-19T18:02:21Z</time>
      </trkpt>
      <trkpt lat="45.37008" lon="3.92217">
        <ele>900</ele>
        <time>2021-01-19T18:02:58Z</time>
      </trkpt>
      <trkpt lat="45.37017" lon="3.92156">
        <ele>898</ele>
        <time>2021-01-19T18:03:33Z</time>
      </trkpt>
      <trkpt lat="45.37026" lon="3.92115">
        <ele>895</ele>
        <time>2021-01-19T18:03:57Z</time>
      </trkpt>
      <trkpt lat="45.37083" lon="3.92032">
        <ele>886</ele>
        <time>2021-01-19T18:05:02Z</time>
      </trkpt>
      <trkpt lat="45.37112" lon="3.91983">
        <ele>883</ele>
        <time>2021-01-19T18:05:38Z</time>
      </trkpt>
      <trkpt lat="45.37132" lon="3.9192">
        <ele>881</ele>
        <time>2021-01-19T18:06:17Z</time>
      </trkpt>
      <trkpt lat="45.37142" lon="3.9187">
        <ele>878</ele>
        <time>2021-01-19T18:06:46Z</time>
      </trkpt>
      <trkpt lat="45.3715" lon="3.91845">
        <ele>876</ele>
        <time>2021-01-19T18:07:02Z</time>
      </trkpt>
      <trkpt lat="45.37195" lon="3.91739">
        <ele>866</ele>
        <time>2021-01-19T18:08:11Z</time>
      </trkpt>
      <trkpt lat="45.3723" lon="3.91639">
        <ele>860</ele>
        <time>2021-01-19T18:09:14Z</time>
      </trkpt>
      <trkpt lat="45.37231" lon="3.91626">
        <ele>859</ele>
        <time>2021-01-19T18:09:22Z</time>
      </trkpt>
      <trkpt lat="45.37223" lon="3.91615">
        <ele>859</ele>
        <time>2021-01-19T18:09:30Z</time>
      </trkpt>
      <trkpt lat="45.37251" lon="3.91609">
        <ele>857</ele>
        <time>2021-01-19T18:09:53Z</time>
      </trkpt>
      <trkpt lat="45.37262" lon="3.9157">
        <ele>855</ele>
        <time>2021-01-19T18:10:17Z</time>
      </trkpt>
      <trkpt lat="45.37272" lon="3.91552">
        <ele>854</ele>
        <time>2021-01-19T18:10:30Z</time>
      </trkpt>
      <trkpt lat="45.37279" lon="3.91519">
        <ele>853</ele>
        <time>2021-01-19T18:10:49Z</time>
      </trkpt>
      <trkpt lat="45.37272" lon="3.91478">
        <ele>850</ele>
        <time>2021-01-19T18:11:13Z</time>
      </trkpt>
      <trkpt lat="45.37277" lon="3.91463">
        <ele>849</ele>
        <time>2021-01-19T18:11:22Z</time>
      </trkpt>
      <trkpt lat="45.37297" lon="3.91444">
        <ele>847</ele>
        <time>2021-01-19T18:11:41Z</time>
      </trkpt>
      <trkpt lat="45.37302" lon="3.9143">
        <ele>846</ele>
        <time>2021-01-19T18:11:50Z</time>
      </trkpt>
      <trkpt lat="45.37303" lon="3.91414">
        <ele>845</ele>
        <time>2021-01-19T18:11:59Z</time>
      </trkpt>
      <trkpt lat="45.37297" lon="3.91397">
        <ele>844</ele>
        <time>2021-01-19T18:12:10Z</time>
      </trkpt>
      <trkpt lat="45.37302" lon="3.91374">
        <ele>844</ele>
        <time>2021-01-19T18:12:24Z</time>
      </trkpt>
      <trkpt lat="45.37349" lon="3.91299">
        <ele>847</ele>
        <time>2021-01-19T18:13:20Z</time>
      </trkpt>
      <trkpt lat="45.37367" lon="3.91355">
        <ele>850</ele>
        <time>2021-01-19T18:13:55Z</time>
      </trkpt>
      <trkpt lat="45.3739" lon="3.91375">
        <ele>852</ele>
        <time>2021-01-19T18:14:16Z</time>
      </trkpt>
      <trkpt lat="45.3742" lon="3.91417">
        <ele>853</ele>
        <time>2021-01-19T18:14:50Z</time>
      </trkpt>
      <trkpt lat="45.37442" lon="3.91443">
        <ele>853</ele>
        <time>2021-01-19T18:15:13Z</time>
      </trkpt>
      <trkpt lat="45.37543" lon="3.91492">
        <ele>854</ele>
        <time>2021-01-19T18:16:38Z</time>
      </trkpt>
      <trkpt lat="45.37567" lon="3.91512">
        <ele>855</ele>
        <time>2021-01-19T18:17:01Z</time>
      </trkpt>
      <trkpt lat="45.37573" lon="3.91522">
        <ele>856</ele>
        <time>2021-01-19T18:17:08Z</time>
      </trkpt>
      <trkpt lat="45.37577" lon="3.91537">
        <ele>855</ele>
        <time>2021-01-19T18:17:17Z</time>
      </trkpt>
      <trkpt lat="45.37577" lon="3.9156">
        <ele>854</ele>
        <time>2021-01-19T18:17:30Z</time>
      </trkpt>
      <trkpt lat="45.37589" lon="3.91711">
        <ele>857</ele>
        <time>2021-01-19T18:18:55Z</time>
      </trkpt>
      <trkpt lat="45.3759" lon="3.91754">
        <ele>859</ele>
        <time>2021-01-19T18:19:20Z</time>
      </trkpt>
      <trkpt lat="45.37587" lon="3.91799">
        <ele>857</ele>
        <time>2021-01-19T18:19:45Z</time>
      </trkpt>
      <trkpt lat="45.37583" lon="3.91822">
        <ele>856</ele>
        <time>2021-01-19T18:19:58Z</time>
      </trkpt>
      <trkpt lat="45.3759" lon="3.91845">
        <ele>856</ele>
        <time>2021-01-19T18:20:12Z</time>
      </trkpt>
      <trkpt lat="45.3761" lon="3.9185">
        <ele>857</ele>
        <time>2021-01-19T18:20:29Z</time>
      </trkpt>
      <trkpt lat="45.37627" lon="3.91845">
        <ele>859</ele>
        <time>2021-01-19T18:20:43Z</time>
      </trkpt>
      <trkpt lat="45.3767" lon="3.91843">
        <ele>864</ele>
        <time>2021-01-19T18:21:17Z</time>
      </trkpt>
      <trkpt lat="45.37695" lon="3.91846">
        <ele>867</ele>
        <time>2021-01-19T18:21:37Z</time>
      </trkpt>
      <trkpt lat="45.37722" lon="3.91863">
        <ele>869</ele>
        <time>2021-01-19T18:22:01Z</time>
      </trkpt>
      <trkpt lat="45.37731" lon="3.9188">
        <ele>868</ele>
        <time>2021-01-19T18:22:13Z</time>
      </trkpt>
      <trkpt lat="45.37736" lon="3.91896">
        <ele>867</ele>
        <time>2021-01-19T18:22:23Z</time>
      </trkpt>
      <trkpt lat="45.37737" lon="3.9191">
        <ele>866</ele>
        <time>2021-01-19T18:22:31Z</time>
      </trkpt>
      <trkpt lat="45.37723" lon="3.91932">
        <ele>865</ele>
        <time>2021-01-19T18:22:47Z</time>
      </trkpt>
      <trkpt lat="45.37687" lon="3.91965">
        <ele>862</ele>
        <time>2021-01-19T18:23:21Z</time>
      </trkpt>
      <trkpt lat="45.3768" lon="3.91987">
        <ele>862</ele>
        <time>2021-01-19T18:23:35Z</time>
      </trkpt>
      <trkpt lat="45.37676" lon="3.92012">
        <ele>862</ele>
        <time>2021-01-19T18:23:50Z</time>
      </trkpt>
      <trkpt lat="45.37672" lon="3.92121">
        <ele>871</ele>
        <time>2021-01-19T18:24:51Z</time>
      </trkpt>
      <trkpt lat="45.37669" lon="3.9215">
        <ele>873</ele>
        <time>2021-01-19T18:25:07Z</time>
      </trkpt>
      <trkpt lat="45.37634" lon="3.92201">
        <ele>873</ele>
        <time>2021-01-19T18:25:47Z</time>
      </trkpt>
      <trkpt lat="45.3762" lon="3.92227">
        <ele>873</ele>
        <time>2021-01-19T18:26:06Z</time>
      </trkpt>
      <trkpt lat="45.37599" lon="3.92288">
        <ele>874</ele>
        <time>2021-01-19T18:26:44Z</time>
      </trkpt>
      <trkpt lat="45.37563" lon="3.92364">
        <ele>873</ele>
        <time>2021-01-19T18:27:36Z</time>
      </trkpt>
      <trkpt lat="45.37541" lon="3.92403">
        <ele>871</ele>
        <time>2021-01-19T18:28:04Z</time>
      </trkpt>
      <trkpt lat="45.3752" lon="3.92462">
        <ele>868</ele>
        <time>2021-01-19T18:28:41Z</time>
      </trkpt>
      <trkpt lat="45.37517" lon="3.92485">
        <ele>868</ele>
        <time>2021-01-19T18:28:54Z</time>
      </trkpt>
      <trkpt lat="45.37521" lon="3.92509">
        <ele>869</ele>
        <time>2021-01-19T18:29:08Z</time>
      </trkpt>
      <trkpt lat="45.37527" lon="3.92528">
        <ele>870</ele>
        <time>2021-01-19T18:29:20Z</time>
      </trkpt>
      <trkpt lat="45.37558" lon="3.92545">
        <ele>872</ele>
        <time>2021-01-19T18:29:46Z</time>
      </trkpt>
      <trkpt lat="45.37602" lon="3.92598">
        <ele>873</ele>
        <time>2021-01-19T18:30:32Z</time>
      </trkpt>
      <trkpt lat="45.37641" lon="3.9263">
        <ele>875</ele>
        <time>2021-01-19T18:31:09Z</time>
      </trkpt>
      <trkpt lat="45.37672" lon="3.92635">
        <ele>877</ele>
        <time>2021-01-19T18:31:34Z</time>
      </trkpt>
      <trkpt lat="45.37682" lon="3.92643">
        <ele>877</ele>
        <time>2021-01-19T18:31:43Z</time>
      </trkpt>
      <trkpt lat="45.37691" lon="3.92659">
        <ele>876</ele>
        <time>2021-01-19T18:31:54Z</time>
      </trkpt>
      <trkpt lat="45.37716" lon="3.92668">
        <ele>878</ele>
        <time>2021-01-19T18:32:15Z</time>
      </trkpt>
      <trkpt lat="45.37739" lon="3.92665">
        <ele>880</ele>
        <time>2021-01-19T18:32:33Z</time>
      </trkpt>
      <trkpt lat="45.37779" lon="3.92646">
        <ele>888</ele>
        <time>2021-01-19T18:33:07Z</time>
      </trkpt>
      <trkpt lat="45.3779" lon="3.92646">
        <ele>889</ele>
        <time>2021-01-19T18:33:16Z</time>
      </trkpt>
      <trkpt lat="45.37802" lon="3.92656">
        <ele>890</ele>
        <time>2021-01-19T18:33:27Z</time>
      </trkpt>
      <trkpt lat="45.37802" lon="3.92679">
        <ele>889</ele>
        <time>2021-01-19T18:33:40Z</time>
      </trkpt>
      <trkpt lat="45.3779" lon="3.92702">
        <ele>887</ele>
        <time>2021-01-19T18:33:56Z</time>
      </trkpt>
      <trkpt lat="45.37781" lon="3.92733">
        <ele>885</ele>
        <time>2021-01-19T18:34:15Z</time>
      </trkpt>
      <trkpt lat="45.37783" lon="3.92771">
        <ele>884</ele>
        <time>2021-01-19T18:34:36Z</time>
      </trkpt>
      <trkpt lat="45.37787" lon="3.92783">
        <ele>883</ele>
        <time>2021-01-19T18:34:44Z</time>
      </trkpt>
      <trkpt lat="45.37818" lon="3.92831">
        <ele>881</ele>
        <time>2021-01-19T18:35:21Z</time>
      </trkpt>
      <trkpt lat="45.37832" lon="3.92846">
        <ele>880</ele>
        <time>2021-01-19T18:35:35Z</time>
      </trkpt>
      <trkpt lat="45.37842" lon="3.92853">
        <ele>880</ele>
        <time>2021-01-19T18:35:44Z</time>
      </trkpt>
      <trkpt lat="45.37854" lon="3.92848">
        <ele>880</ele>
        <time>2021-01-19T18:35:54Z</time>
      </trkpt>
      <trkpt lat="45.37875" lon="3.92822">
        <ele>883</ele>
        <time>2021-01-19T18:36:16Z</time>
      </trkpt>
      <trkpt lat="45.37903" lon="3.92814">
        <ele>885</ele>
        <time>2021-01-19T18:36:39Z</time>
      </trkpt>
      <trkpt lat="45.37919" lon="3.92833">
        <ele>882</ele>
        <time>2021-01-19T18:36:55Z</time>
      </trkpt>
      <trkpt lat="45.3795" lon="3.92889">
        <ele>887</ele>
        <time>2021-01-19T18:37:35Z</time>
      </trkpt>
      <trkpt lat="45.37964" lon="3.92902">
        <ele>889</ele>
        <time>2021-01-19T18:37:49Z</time>
      </trkpt>
      <trkpt lat="45.38083" lon="3.92959">
        <ele>903</ele>
        <time>2021-01-19T18:39:29Z</time>
      </trkpt>
      <trkpt lat="45.38115" lon="3.92964">
        <ele>904</ele>
        <time>2021-01-19T18:39:55Z</time>
      </trkpt>
      <trkpt lat="45.3816" lon="3.92985">
        <ele>904</ele>
        <time>2021-01-19T18:40:33Z</time>
      </trkpt>
      <trkpt lat="45.38212" lon="3.93005">
        <ele>901</ele>
        <time>2021-01-19T18:41:16Z</time>
      </trkpt>
      <trkpt lat="45.38236" lon="3.93008">
        <ele>900</ele>
        <time>2021-01-19T18:41:35Z</time>
      </trkpt>
      <trkpt lat="45.38285" lon="3.93078">
        <ele>897</ele>
        <time>2021-01-19T18:42:31Z</time>
      </trkpt>
      <trkpt lat="45.383" lon="3.93106">
        <ele>898</ele>
        <time>2021-01-19T18:42:51Z</time>
      </trkpt>
      <trkpt lat="45.38321" lon="3.93084">
        <ele>899</ele>
        <time>2021-01-19T18:43:12Z</time>
      </trkpt>
      <trkpt lat="45.38359" lon="3.93034">
        <ele>903</ele>
        <time>2021-01-19T18:43:53Z</time>
      </trkpt>
      <trkpt lat="45.38374" lon="3.92995">
        <ele>905</ele>
        <time>2021-01-19T18:44:18Z</time>
      </trkpt>
      <trkpt lat="45.38383" lon="3.92955">
        <ele>908</ele>
        <time>2021-01-19T18:44:42Z</time>
      </trkpt>
      <trkpt lat="45.38398" lon="3.9291">
        <ele>912</ele>
        <time>2021-01-19T18:45:10Z</time>
      </trkpt>
      <trkpt lat="45.38402" lon="3.92885">
        <ele>912</ele>
        <time>2021-01-19T18:45:24Z</time>
      </trkpt>
      <trkpt lat="45.38436" lon="3.92807">
        <ele>915</ele>
        <time>2021-01-19T18:46:16Z</time>
      </trkpt>
      <trkpt lat="45.38444" lon="3.92776">
        <ele>916</ele>
        <time>2021-01-19T18:46:34Z</time>
      </trkpt>
      <trkpt lat="45.38461" lon="3.92745">
        <ele>918</ele>
        <time>2021-01-19T18:46:57Z</time>
      </trkpt>
      <trkpt lat="45.38473" lon="3.92731">
        <ele>919</ele>
        <time>2021-01-19T18:47:09Z</time>
      </trkpt>
      <trkpt lat="45.38487" lon="3.92641">
        <ele>921</ele>
        <time>2021-01-19T18:48:01Z</time>
      </trkpt>
      <trkpt lat="45.38493" lon="3.92617">
        <ele>921</ele>
        <time>2021-01-19T18:48:15Z</time>
      </trkpt>
      <trkpt lat="45.3852" lon="3.92561">
        <ele>923</ele>
        <time>2021-01-19T18:48:53Z</time>
      </trkpt>
      <trkpt lat="45.38526" lon="3.92541">
        <ele>925</ele>
        <time>2021-01-19T18:49:06Z</time>
      </trkpt>
      <trkpt lat="45.38554" lon="3.92335">
        <ele>927</ele>
        <time>2021-01-19T18:51:04Z</time>
      </trkpt>
      <trkpt lat="45.38568" lon="3.92284">
        <ele>929</ele>
        <time>2021-01-19T18:51:34Z</time>
      </trkpt>
      <trkpt lat="45.38595" lon="3.92203">
        <ele>929</ele>
        <time>2021-01-19T18:52:25Z</time>
      </trkpt>
      <trkpt lat="45.386" lon="3.9218">
        <ele>929</ele>
        <time>2021-01-19T18:52:38Z</time>
      </trkpt>
      <trkpt lat="45.38619" lon="3.92036">
        <ele>933</ele>
        <time>2021-01-19T18:54:01Z</time>
      </trkpt>
      <trkpt lat="45.38627" lon="3.91934">
        <ele>938</ele>
        <time>2021-01-19T18:54:58Z</time>
      </trkpt>
      <trkpt lat="45.38629" lon="3.91826">
        <ele>938</ele>
        <time>2021-01-19T18:55:59Z</time>
      </trkpt>
      <trkpt lat="45.38622" lon="3.91722">
        <ele>935</ele>
        <time>2021-01-19T18:56:58Z</time>
      </trkpt>
      <trkpt lat="45.38594" lon="3.91584">
        <ele>928</ele>
        <time>2021-01-19T18:58:19Z</time>
      </trkpt>
      <trkpt lat="45.38687" lon="3.91641">
        <ele>932</ele>
        <time>2021-01-19T18:59:40Z</time>
      </trkpt>
      <trkpt lat="45.38716" lon="3.91663">
        <ele>933</ele>
        <time>2021-01-19T19:00:06Z</time>
      </trkpt>
      <trkpt lat="45.3874" lon="3.91687">
        <ele>933</ele>
        <time>2021-01-19T19:00:30Z</time>
      </trkpt>
      <trkpt lat="45.38765" lon="3.91702">
        <ele>932</ele>
        <time>2021-01-19T19:00:51Z</time>
      </trkpt>
      <trkpt lat="45.38802" lon="3.9174">
        <ele>929</ele>
        <time>2021-01-19T19:01:28Z</time>
      </trkpt>
      <trkpt lat="45.38914" lon="3.91844">
        <ele>922</ele>
        <time>2021-01-19T19:03:15Z</time>
      </trkpt>
      <trkpt lat="45.3898" lon="3.91887">
        <ele>925</ele>
        <time>2021-01-19T19:04:13Z</time>
      </trkpt>
      <trkpt lat="45.39011" lon="3.91894">
        <ele>926</ele>
        <time>2021-01-19T19:04:38Z</time>
      </trkpt>
      <trkpt lat="45.39028" lon="3.91903">
        <ele>926</ele>
        <time>2021-01-19T19:04:53Z</time>
      </trkpt>
      <trkpt lat="45.39076" lon="3.91887">
        <ele>926</ele>
        <time>2021-01-19T19:05:32Z</time>
      </trkpt>
      <trkpt lat="45.39073" lon="3.91875">
        <ele>926</ele>
        <time>2021-01-19T19:05:39Z</time>
      </trkpt>
      <trkpt lat="45.3908" lon="3.91819">
        <ele>923</ele>
        <time>2021-01-19T19:06:11Z</time>
      </trkpt>
      <trkpt lat="45.3908" lon="3.91788">
        <ele>921</ele>
        <time>2021-01-19T19:06:29Z</time>
      </trkpt>
      <trkpt lat="45.39071" lon="3.91718">
        <ele>918</ele>
        <time>2021-01-19T19:07:09Z</time>
      </trkpt>
      <trkpt lat="45.39069" lon="3.91674">
        <ele>917</ele>
        <time>2021-01-19T19:07:33Z</time>
      </trkpt>
      <trkpt lat="45.39061" lon="3.91599">
        <ele>915</ele>
        <time>2021-01-19T19:08:16Z</time>
      </trkpt>
      <trkpt lat="45.39032" lon="3.9135">
        <ele>907</ele>
        <time>2021-01-19T19:10:38Z</time>
      </trkpt>
      <trkpt lat="45.39014" lon="3.91241">
        <ele>906</ele>
        <time>2021-01-19T19:11:41Z</time>
      </trkpt>
      <trkpt lat="45.39006" lon="3.9121">
        <ele>906</ele>
        <time>2021-01-19T19:12:00Z</time>
      </trkpt>
      <trkpt lat="45.39001" lon="3.91165">
        <ele>907</ele>
        <time>2021-01-19T19:12:25Z</time>
      </trkpt>
      <trkpt lat="45.39006" lon="3.91154">
        <ele>906</ele>
        <time>2021-01-19T19:12:33Z</time>
      </trkpt>
      <trkpt lat="45.39025" lon="3.91185">
        <ele>907</ele>
        <time>2021-01-19T19:12:56Z</time>
      </trkpt>
      <trkpt lat="45.39043" lon="3.91182">
        <ele>907</ele>
        <time>2021-01-19T19:13:10Z</time>
      </trkpt>
      <trkpt lat="45.39059" lon="3.91185">
        <ele>906</ele>
        <time>2021-01-19T19:13:23Z</time>
      </trkpt>
      <trkpt lat="45.39075" lon="3.91195">
        <ele>906</ele>
        <time>2021-01-19T19:13:37Z</time>
      </trkpt>
      <trkpt lat="45.39119" lon="3.91204">
        <ele>905</ele>
        <time>2021-01-19T19:14:13Z</time>
      </trkpt>
      <trkpt lat="45.39157" lon="3.91208">
        <ele>905</ele>
        <time>2021-01-19T19:14:43Z</time>
      </trkpt>
      <trkpt lat="45.39193" lon="3.91209">
        <ele>902</ele>
        <time>2021-01-19T19:15:12Z</time>
      </trkpt>
      <trkpt lat="45.39223" lon="3.91207">
        <ele>899</ele>
        <time>2021-01-19T19:15:36Z</time>
      </trkpt>
      <trkpt lat="45.39251" lon="3.91211">
        <ele>897</ele>
        <time>2021-01-19T19:15:59Z</time>
      </trkpt>
      <trkpt lat="45.3929" lon="3.91232">
        <ele>897</ele>
        <time>2021-01-19T19:16:32Z</time>
      </trkpt>
      <trkpt lat="45.39334" lon="3.91245">
        <ele>896</ele>
        <time>2021-01-19T19:17:08Z</time>
      </trkpt>
      <trkpt lat="45.39364" lon="3.91257">
        <ele>897</ele>
        <time>2021-01-19T19:17:33Z</time>
      </trkpt>
      <trkpt lat="45.39426" lon="3.9126">
        <ele>895</ele>
        <time>2021-01-19T19:18:23Z</time>
      </trkpt>
      <trkpt lat="45.395" lon="3.91254">
        <ele>889</ele>
        <time>2021-01-19T19:19:22Z</time>
      </trkpt>
      <trkpt lat="45.39535" lon="3.91257">
        <ele>885</ele>
        <time>2021-01-19T19:19:50Z</time>
      </trkpt>
      <trkpt lat="45.3957" lon="3.91269">
        <ele>883</ele>
        <time>2021-01-19T19:20:19Z</time>
      </trkpt>
      <trkpt lat="45.39598" lon="3.91286">
        <ele>883</ele>
        <time>2021-01-19T19:20:43Z</time>
      </trkpt>
      <trkpt lat="45.39622" lon="3.91303">
        <ele>884</ele>
        <time>2021-01-19T19:21:05Z</time>
      </trkpt>
      <trkpt lat="45.39655" lon="3.9134">
        <ele>884</ele>
        <time>2021-01-19T19:21:38Z</time>
      </trkpt>
      <trkpt lat="45.39692" lon="3.9132">
        <ele>882</ele>
        <time>2021-01-19T19:22:10Z</time>
      </trkpt>
      <trkpt lat="45.3976" lon="3.91288">
        <ele>881</ele>
        <time>2021-01-19T19:23:07Z</time>
      </trkpt>
      <trkpt lat="45.39786" lon="3.91338">
        <ele>883</ele>
        <time>2021-01-19T19:23:42Z</time>
      </trkpt>
      <trkpt lat="45.39796" lon="3.91362">
        <ele>884</ele>
        <time>2021-01-19T19:23:58Z</time>
      </trkpt>
      <trkpt lat="45.39821" lon="3.914">
        <ele>886</ele>
        <time>2021-01-19T19:24:27Z</time>
      </trkpt>
      <trkpt lat="45.39841" lon="3.91416">
        <ele>887</ele>
        <time>2021-01-19T19:24:46Z</time>
      </trkpt>
      <trkpt lat="45.39875" lon="3.91436">
        <ele>889</ele>
        <time>2021-01-19T19:25:15Z</time>
      </trkpt>
      <trkpt lat="45.39906" lon="3.91444">
        <ele>891</ele>
        <time>2021-01-19T19:25:40Z</time>
      </trkpt>
      <trkpt lat="45.3993" lon="3.91457">
        <ele>893</ele>
        <time>2021-01-19T19:26:01Z</time>
      </trkpt>
      <trkpt lat="45.39938" lon="3.91473">
        <ele>894</ele>
        <time>2021-01-19T19:26:12Z</time>
      </trkpt>
      <trkpt lat="45.40049" lon="3.91431">
        <ele>899</ele>
        <time>2021-01-19T19:27:44Z</time>
      </trkpt>
      <trkpt lat="45.40078" lon="3.91427">
        <ele>901</ele>
        <time>2021-01-19T19:28:07Z</time>
      </trkpt>
      <trkpt lat="45.40124" lon="3.91398">
        <ele>901</ele>
        <time>2021-01-19T19:28:48Z</time>
      </trkpt>
      <trkpt lat="45.4016" lon="3.91365">
        <ele>901</ele>
        <time>2021-01-19T19:29:22Z</time>
      </trkpt>
      <trkpt lat="45.40172" lon="3.91362">
        <ele>902</ele>
        <time>2021-01-19T19:29:32Z</time>
      </trkpt>
      <trkpt lat="45.40198" lon="3.91366">
        <ele>903</ele>
        <time>2021-01-19T19:29:52Z</time>
      </trkpt>
      <trkpt lat="45.40223" lon="3.91377">
        <ele>904</ele>
        <time>2021-01-19T19:30:13Z</time>
      </trkpt>
      <trkpt lat="45.40331" lon="3.91365">
        <ele>907</ele>
        <time>2021-01-19T19:31:40Z</time>
      </trkpt>
      <trkpt lat="45.40368" lon="3.91369">
        <ele>907</ele>
        <time>2021-01-19T19:32:10Z</time>
      </trkpt>
      <trkpt lat="45.404" lon="3.9136">
        <ele>906</ele>
        <time>2021-01-19T19:32:36Z</time>
      </trkpt>
      <trkpt lat="45.4045" lon="3.91357">
        <ele>905</ele>
        <time>2021-01-19T19:33:16Z</time>
      </trkpt>
      <trkpt lat="45.40576" lon="3.91336">
        <ele>903</ele>
        <time>2021-01-19T19:34:58Z</time>
      </trkpt>
      <trkpt lat="45.40622" lon="3.91353">
        <ele>901</ele>
        <time>2021-01-19T19:35:36Z</time>
      </trkpt>
      <trkpt lat="45.40651" lon="3.91338">
        <ele>896</ele>
        <time>2021-01-19T19:36:00Z</time>
      </trkpt>
      <trkpt lat="45.4068" lon="3.91287">
        <ele>893</ele>
        <time>2021-01-19T19:36:37Z</time>
      </trkpt>
      <trkpt lat="45.40692" lon="3.9125">
        <ele>893</ele>
        <time>2021-01-19T19:37:00Z</time>
      </trkpt>
      <trkpt lat="45.40735" lon="3.91081">
        <ele>883</ele>
        <time>2021-01-19T19:38:41Z</time>
      </trkpt>
      <trkpt lat="45.40786" lon="3.90916">
        <ele>879</ele>
        <time>2021-01-19T19:40:23Z</time>
      </trkpt>
      <trkpt lat="45.40878" lon="3.90801">
        <ele>874</ele>
        <time>2021-01-19T19:42:01Z</time>
      </trkpt>
      <trkpt lat="45.40906" lon="3.90762">
        <ele>872</ele>
        <time>2021-01-19T19:42:32Z</time>
      </trkpt>
      <trkpt lat="45.40935" lon="3.90785">
        <ele>871</ele>
        <time>2021-01-19T19:42:59Z</time>
      </trkpt>
      <trkpt lat="45.40949" lon="3.90803">
        <ele>871</ele>
        <time>2021-01-19T19:43:14Z</time>
      </trkpt>
      <trkpt lat="45.40964" lon="3.90842">
        <ele>873</ele>
        <time>2021-01-19T19:43:39Z</time>
      </trkpt>
      <trkpt lat="45.40979" lon="3.90858">
        <ele>874</ele>
        <time>2021-01-19T19:43:54Z</time>
      </trkpt>
      <trkpt lat="45.40986" lon="3.90877">
        <ele>875</ele>
        <time>2021-01-19T19:44:06Z</time>
      </trkpt>
      <trkpt lat="45.40989" lon="3.9093">
        <ele>879</ele>
        <time>2021-01-19T19:44:36Z</time>
      </trkpt>
      <trkpt lat="45.40998" lon="3.90966">
        <ele>881</ele>
        <time>2021-01-19T19:44:57Z</time>
      </trkpt>
      <trkpt lat="45.40971" lon="3.91077">
        <ele>886</ele>
        <time>2021-01-19T19:46:03Z</time>
      </trkpt>
      <trkpt lat="45.40938" lon="3.91184">
        <ele>885</ele>
        <time>2021-01-19T19:47:09Z</time>
      </trkpt>
      <trkpt lat="45.40913" lon="3.9125">
        <ele>883</ele>
        <time>2021-01-19T19:47:51Z</time>
      </trkpt>
      <trkpt lat="45.40893" lon="3.91277">
        <ele>884</ele>
        <time>2021-01-19T19:48:13Z</time>
      </trkpt>
      <trkpt lat="45.40866" lon="3.91334">
        <ele>885</ele>
        <time>2021-01-19T19:48:52Z</time>
      </trkpt>
      <trkpt lat="45.40849" lon="3.91375">
        <ele>889</ele>
        <time>2021-01-19T19:49:18Z</time>
      </trkpt>
      <trkpt lat="45.40846" lon="3.91398">
        <ele>890</ele>
        <time>2021-01-19T19:49:32Z</time>
      </trkpt>
      <trkpt lat="45.40869" lon="3.91463">
        <ele>891</ele>
        <time>2021-01-19T19:50:12Z</time>
      </trkpt>
      <trkpt lat="45.40869" lon="3.91533">
        <ele>895</ele>
        <time>2021-01-19T19:50:52Z</time>
      </trkpt>
      <trkpt lat="45.40856" lon="3.91595">
        <ele>900</ele>
        <time>2021-01-19T19:51:28Z</time>
      </trkpt>
      <trkpt lat="45.40852" lon="3.91626">
        <ele>900</ele>
        <time>2021-01-19T19:51:46Z</time>
      </trkpt>
      <trkpt lat="45.40842" lon="3.91717">
        <ele>899</ele>
        <time>2021-01-19T19:52:38Z</time>
      </trkpt>
      <trkpt lat="45.40837" lon="3.91815">
        <ele>899</ele>
        <time>2021-01-19T19:53:33Z</time>
      </trkpt>
      <trkpt lat="45.40826" lon="3.91879">
        <ele>901</ele>
        <time>2021-01-19T19:54:10Z</time>
      </trkpt>
      <trkpt lat="45.4087" lon="3.92049">
        <ele>911</ele>
        <time>2021-01-19T19:55:52Z</time>
      </trkpt>
      <trkpt lat="45.40976" lon="3.91909">
        <ele>899</ele>
        <time>2021-01-19T19:57:48Z</time>
      </trkpt>
      <trkpt lat="45.41022" lon="3.91872">
        <ele>894</ele>
        <time>2021-01-19T19:58:30Z</time>
      </trkpt>
      <trkpt lat="45.4106" lon="3.91832">
        <ele>887</ele>
        <time>2021-01-19T19:59:08Z</time>
      </trkpt>
      <trkpt lat="45.41134" lon="3.91738">
        <ele>866</ele>
        <time>2021-01-19T20:00:27Z</time>
      </trkpt>
      <trkpt lat="45.41162" lon="3.9168">
        <ele>860</ele>
        <time>2021-01-19T20:01:07Z</time>
      </trkpt>
      <trkpt lat="45.41198" lon="3.91725">
        <ele>861</ele>
        <time>2021-01-19T20:01:45Z</time>
      </trkpt>
      <trkpt lat="45.4123" lon="3.91783">
        <ele>864</ele>
        <time>2021-01-19T20:02:26Z</time>
      </trkpt>
      <trkpt lat="45.41249" lon="3.9186">
        <ele>869</ele>
        <time>2021-01-19T20:03:12Z</time>
      </trkpt>
      <trkpt lat="45.4129" lon="3.91928">
        <ele>864</ele>
        <time>2021-01-19T20:04:03Z</time>
      </trkpt>
      <trkpt lat="45.41318" lon="3.91916">
        <ele>858</ele>
        <time>2021-01-19T20:04:26Z</time>
      </trkpt>
      <trkpt lat="45.41331" lon="3.91891">
        <ele>855</ele>
        <time>2021-01-19T20:04:44Z</time>
      </trkpt>
      <trkpt lat="45.41357" lon="3.91874">
        <ele>854</ele>
        <time>2021-01-19T20:05:07Z</time>
      </trkpt>
      <trkpt lat="45.41397" lon="3.91874">
        <ele>854</ele>
        <time>2021-01-19T20:05:39Z</time>
      </trkpt>
      <trkpt lat="45.4144" lon="3.91884">
        <ele>854</ele>
        <time>2021-01-19T20:06:13Z</time>
      </trkpt>
      <trkpt lat="45.41477" lon="3.91921">
        <ele>855</ele>
        <time>2021-01-19T20:06:50Z</time>
      </trkpt>
      <trkpt lat="45.41516" lon="3.92002">
        <ele>857</ele>
        <time>2021-01-19T20:07:45Z</time>
      </trkpt>
      <trkpt lat="45.41524" lon="3.9205">
        <ele>859</ele>
        <time>2021-01-19T20:08:13Z</time>
      </trkpt>
      <trkpt lat="45.41611" lon="3.92218">
        <ele>862</ele>
        <time>2021-01-19T20:10:10Z</time>
      </trkpt>
      <trkpt lat="45.41614" lon="3.92255">
        <ele>863</ele>
        <time>2021-01-19T20:10:31Z</time>
      </trkpt>
      <trkpt lat="45.41607" lon="3.92322">
        <ele>869</ele>
        <time>2021-01-19T20:11:09Z</time>
      </trkpt>
      <trkpt lat="45.41666" lon="3.92463">
        <ele>869</ele>
        <time>2021-01-19T20:12:41Z</time>
      </trkpt>
      <trkpt lat="45.41709" lon="3.926">
        <ele>877</ele>
        <time>2021-01-19T20:14:06Z</time>
      </trkpt>
      <trkpt lat="45.41724" lon="3.92624">
        <ele>878</ele>
        <time>2021-01-19T20:14:24Z</time>
      </trkpt>
      <trkpt lat="45.41773" lon="3.92555">
        <ele>881</ele>
        <time>2021-01-19T20:15:19Z</time>
      </trkpt>
      <trkpt lat="45.41794" lon="3.92497">
        <ele>882</ele>
        <time>2021-01-19T20:15:55Z</time>
      </trkpt>
      <trkpt lat="45.41807" lon="3.92507">
        <ele>883</ele>
        <time>2021-01-19T20:16:07Z</time>
      </trkpt>
      <trkpt lat="45.41824" lon="3.92563">
        <ele>889</ele>
        <time>2021-01-19T20:16:42Z</time>
      </trkpt>
      <trkpt lat="45.41829" lon="3.92609">
        <ele>890</ele>
        <time>2021-01-19T20:17:08Z</time>
      </trkpt>
      <trkpt lat="45.41842" lon="3.92646">
        <ele>892</ele>
        <time>2021-01-19T20:17:31Z</time>
      </trkpt>
      <trkpt lat="45.41846" lon="3.92682">
        <ele>892</ele>
        <time>2021-01-19T20:17:51Z</time>
      </trkpt>
    </trkseg>
  </trk>
  <trk>
    <name><![CDATA[J4  Salayes La Chapelle en Lafaye]]></name>
    <trkseg>
      <trkpt lat="45.41842" lon="3.92672">
        <ele>892</ele>
        <time>2018-09-26T14:36:35Z</time>
      </trkpt>
      <trkpt lat="45.41879" lon="3.92648">
        <ele>896</ele>
        <time>2018-09-26T14:37:35Z</time>
      </trkpt>
      <trkpt lat="45.41894" lon="3.92634">
        <ele>898</ele>
        <time>2018-09-26T14:38:35Z</time>
      </trkpt>
      <trkpt lat="45.41908" lon="3.92608">
        <ele>900</ele>
        <time>2018-09-26T14:39:35Z</time>
      </trkpt>
      <trkpt lat="45.41951" lon="3.92599">
        <ele>906</ele>
        <time>2018-09-26T14:40:35Z</time>
      </trkpt>
      <trkpt lat="45.42002" lon="3.92573">
        <ele>912</ele>
        <time>2018-09-26T14:41:35Z</time>
      </trkpt>
      <trkpt lat="45.42047" lon="3.92558">
        <ele>916</ele>
        <time>2018-09-26T14:42:35Z</time>
      </trkpt>
      <trkpt lat="45.42101" lon="3.92548">
        <ele>917</ele>
        <time>2018-09-26T14:43:35Z</time>
      </trkpt>
      <trkpt lat="45.4218" lon="3.92537">
        <ele>913</ele>
        <time>2018-09-26T14:44:35Z</time>
      </trkpt>
      <trkpt lat="45.42221" lon="3.92541">
        <ele>916</ele>
        <time>2018-09-26T14:45:35Z</time>
      </trkpt>
      <trkpt lat="45.4225" lon="3.92538">
        <ele>918</ele>
        <time>2018-09-26T14:46:35Z</time>
      </trkpt>
      <trkpt lat="45.42297" lon="3.92502">
        <ele>921</ele>
        <time>2018-09-26T14:47:35Z</time>
      </trkpt>
      <trkpt lat="45.42389" lon="3.92467">
        <ele>922</ele>
        <time>2018-09-26T14:48:35Z</time>
      </trkpt>
      <trkpt lat="45.42486" lon="3.9244">
        <ele>923</ele>
        <time>2018-09-26T14:49:35Z</time>
      </trkpt>
      <trkpt lat="45.42506" lon="3.92437">
        <ele>923</ele>
        <time>2018-09-26T14:50:35Z</time>
      </trkpt>
      <trkpt lat="45.42566" lon="3.92464">
        <ele>916</ele>
        <time>2018-09-26T14:51:35Z</time>
      </trkpt>
      <trkpt lat="45.42588" lon="3.92493">
        <ele>914</ele>
        <time>2018-09-26T14:52:35Z</time>
      </trkpt>
      <trkpt lat="45.42644" lon="3.92499">
        <ele>907</ele>
        <time>2018-09-26T14:53:35Z</time>
      </trkpt>
      <trkpt lat="45.42768" lon="3.92487">
        <ele>889</ele>
        <time>2018-09-26T14:54:35Z</time>
      </trkpt>
      <trkpt lat="45.42806" lon="3.92441">
        <ele>884</ele>
        <time>2018-09-26T14:55:35Z</time>
      </trkpt>
      <trkpt lat="45.42865" lon="3.92426">
        <ele>880</ele>
        <time>2018-09-26T14:56:35Z</time>
      </trkpt>
      <trkpt lat="45.42906" lon="3.92428">
        <ele>879</ele>
        <time>2018-09-26T14:57:35Z</time>
      </trkpt>
      <trkpt lat="45.43042" lon="3.9245">
        <ele>871</ele>
        <time>2018-09-26T14:58:35Z</time>
      </trkpt>
      <trkpt lat="45.43136" lon="3.92473">
        <ele>865</ele>
        <time>2018-09-26T14:59:35Z</time>
      </trkpt>
      <trkpt lat="45.43182" lon="3.925">
        <ele>865</ele>
        <time>2018-09-26T15:00:35Z</time>
      </trkpt>
      <trkpt lat="45.43204" lon="3.92582">
        <ele>869</ele>
        <time>2018-09-26T15:01:35Z</time>
      </trkpt>
      <trkpt lat="45.43218" lon="3.92625">
        <ele>871</ele>
        <time>2018-09-26T15:02:35Z</time>
      </trkpt>
      <trkpt lat="45.4325" lon="3.92639">
        <ele>866</ele>
        <time>2018-09-26T15:03:35Z</time>
      </trkpt>
      <trkpt lat="45.43278" lon="3.92664">
        <ele>867</ele>
        <time>2018-09-26T15:04:35Z</time>
      </trkpt>
      <trkpt lat="45.43288" lon="3.92696">
        <ele>873</ele>
        <time>2018-09-26T15:05:35Z</time>
      </trkpt>
      <trkpt lat="45.43293" lon="3.92724">
        <ele>878</ele>
        <time>2018-09-26T15:06:35Z</time>
      </trkpt>
      <trkpt lat="45.4331" lon="3.92752">
        <ele>882</ele>
        <time>2018-09-26T15:07:35Z</time>
      </trkpt>
      <trkpt lat="45.43325" lon="3.92761">
        <ele>882</ele>
        <time>2018-09-26T15:08:35Z</time>
      </trkpt>
      <trkpt lat="45.43363" lon="3.92761">
        <ele>878</ele>
        <time>2018-09-26T15:09:35Z</time>
      </trkpt>
      <trkpt lat="45.43395" lon="3.92805">
        <ele>878</ele>
        <time>2018-09-26T15:10:35Z</time>
      </trkpt>
      <trkpt lat="45.43396" lon="3.9284">
        <ele>880</ele>
        <time>2018-09-26T15:11:35Z</time>
      </trkpt>
      <trkpt lat="45.43392" lon="3.9289">
        <ele>881</ele>
        <time>2018-09-26T15:12:35Z</time>
      </trkpt>
      <trkpt lat="45.43392" lon="3.92937">
        <ele>881</ele>
        <time>2018-09-26T15:13:35Z</time>
      </trkpt>
      <trkpt lat="45.43405" lon="3.92963">
        <ele>879</ele>
        <time>2018-09-26T15:14:35Z</time>
      </trkpt>
      <trkpt lat="45.43423" lon="3.92986">
        <ele>877</ele>
        <time>2018-09-26T15:15:35Z</time>
      </trkpt>
      <trkpt lat="45.43433" lon="3.93013">
        <ele>878</ele>
        <time>2018-09-26T15:16:35Z</time>
      </trkpt>
      <trkpt lat="45.43465" lon="3.93065">
        <ele>877</ele>
        <time>2018-09-26T15:17:35Z</time>
      </trkpt>
      <trkpt lat="45.43467" lon="3.93101">
        <ele>878</ele>
        <time>2018-09-26T15:18:35Z</time>
      </trkpt>
      <trkpt lat="45.43481" lon="3.9313">
        <ele>877</ele>
        <time>2018-09-26T15:19:35Z</time>
      </trkpt>
      <trkpt lat="45.43489" lon="3.93177">
        <ele>878</ele>
        <time>2018-09-26T15:20:35Z</time>
      </trkpt>
      <trkpt lat="45.43518" lon="3.93205">
        <ele>877</ele>
        <time>2018-09-26T15:21:35Z</time>
      </trkpt>
      <trkpt lat="45.43555" lon="3.93205">
        <ele>873</ele>
        <time>2018-09-26T15:22:35Z</time>
      </trkpt>
      <trkpt lat="45.43606" lon="3.93214">
        <ele>869</ele>
        <time>2018-09-26T15:23:35Z</time>
      </trkpt>
      <trkpt lat="45.43662" lon="3.93185">
        <ele>867</ele>
        <time>2018-09-26T15:24:35Z</time>
      </trkpt>
      <trkpt lat="45.43719" lon="3.9318">
        <ele>867</ele>
        <time>2018-09-26T15:25:35Z</time>
      </trkpt>
      <trkpt lat="45.43742" lon="3.93157">
        <ele>865</ele>
        <time>2018-09-26T15:26:35Z</time>
      </trkpt>
      <trkpt lat="45.4375" lon="3.93106">
        <ele>866</ele>
        <time>2018-09-26T15:27:35Z</time>
      </trkpt>
      <trkpt lat="45.43759" lon="3.93072">
        <ele>867</ele>
        <time>2018-09-26T15:28:35Z</time>
      </trkpt>
      <trkpt lat="45.43781" lon="3.9303">
        <ele>869</ele>
        <time>2018-09-26T15:29:35Z</time>
      </trkpt>
      <trkpt lat="45.43786" lon="3.93006">
        <ele>870</ele>
        <time>2018-09-26T15:30:35Z</time>
      </trkpt>
      <trkpt lat="45.43799" lon="3.92928">
        <ele>872</ele>
        <time>2018-09-26T15:31:35Z</time>
      </trkpt>
      <trkpt lat="45.43793" lon="3.92913">
        <ele>871</ele>
        <time>2018-09-26T15:32:35Z</time>
      </trkpt>
      <trkpt lat="45.4381" lon="3.92883">
        <ele>874</ele>
        <time>2018-09-26T15:33:35Z</time>
      </trkpt>
      <trkpt lat="45.43819" lon="3.92852">
        <ele>877</ele>
        <time>2018-09-26T15:34:35Z</time>
      </trkpt>
      <trkpt lat="45.43867" lon="3.92792">
        <ele>883</ele>
        <time>2018-09-26T15:35:35Z</time>
      </trkpt>
      <trkpt lat="45.43893" lon="3.92746">
        <ele>888</ele>
        <time>2018-09-26T15:36:35Z</time>
      </trkpt>
      <trkpt lat="45.43917" lon="3.92692">
        <ele>892</ele>
        <time>2018-09-26T15:37:35Z</time>
      </trkpt>
      <trkpt lat="45.43946" lon="3.92639">
        <ele>897</ele>
        <time>2018-09-26T15:38:35Z</time>
      </trkpt>
      <trkpt lat="45.43964" lon="3.92601">
        <ele>901</ele>
        <time>2018-09-26T15:39:35Z</time>
      </trkpt>
      <trkpt lat="45.43978" lon="3.92582">
        <ele>903</ele>
        <time>2018-09-26T15:40:35Z</time>
      </trkpt>
      <trkpt lat="45.44055" lon="3.92548">
        <ele>908</ele>
        <time>2018-09-26T15:41:35Z</time>
      </trkpt>
      <trkpt lat="45.4408" lon="3.92531">
        <ele>911</ele>
        <time>2018-09-26T15:42:35Z</time>
      </trkpt>
      <trkpt lat="45.4413" lon="3.92493">
        <ele>917</ele>
        <time>2018-09-26T15:43:35Z</time>
      </trkpt>
      <trkpt lat="45.44166" lon="3.9246">
        <ele>923</ele>
        <time>2018-09-26T15:44:35Z</time>
      </trkpt>
      <trkpt lat="45.44221" lon="3.92411">
        <ele>927</ele>
        <time>2018-09-26T15:45:35Z</time>
      </trkpt>
      <trkpt lat="45.44265" lon="3.92382">
        <ele>928</ele>
        <time>2018-09-26T15:46:35Z</time>
      </trkpt>
      <trkpt lat="45.44303" lon="3.92375">
        <ele>930</ele>
        <time>2018-09-26T15:47:35Z</time>
      </trkpt>
      <trkpt lat="45.44356" lon="3.92367">
        <ele>933</ele>
        <time>2018-09-26T15:48:35Z</time>
      </trkpt>
      <trkpt lat="45.44408" lon="3.92365">
        <ele>934</ele>
        <time>2018-09-26T15:49:35Z</time>
      </trkpt>
      <trkpt lat="45.44451" lon="3.92364">
        <ele>934</ele>
        <time>2018-09-26T15:50:35Z</time>
      </trkpt>
      <trkpt lat="45.44499" lon="3.92372">
        <ele>934</ele>
        <time>2018-09-26T15:51:35Z</time>
      </trkpt>
      <trkpt lat="45.44529" lon="3.92388">
        <ele>930</ele>
        <time>2018-09-26T15:52:35Z</time>
      </trkpt>
      <trkpt lat="45.44565" lon="3.92422">
        <ele>928</ele>
        <time>2018-09-26T15:53:35Z</time>
      </trkpt>
      <trkpt lat="45.44563" lon="3.92385">
        <ele>926</ele>
        <time>2018-09-26T15:54:35Z</time>
      </trkpt>
      <trkpt lat="45.44561" lon="3.92341">
        <ele>924</ele>
        <time>2018-09-26T15:55:35Z</time>
      </trkpt>
      <trkpt lat="45.44581" lon="3.92297">
        <ele>921</ele>
        <time>2018-09-26T15:56:35Z</time>
      </trkpt>
      <trkpt lat="45.44594" lon="3.92253">
        <ele>921</ele>
        <time>2018-09-26T15:57:35Z</time>
      </trkpt>
      <trkpt lat="45.44599" lon="3.92223">
        <ele>919</ele>
        <time>2018-09-26T15:58:35Z</time>
      </trkpt>
      <trkpt lat="45.44598" lon="3.92197">
        <ele>918</ele>
        <time>2018-09-26T15:59:35Z</time>
      </trkpt>
      <trkpt lat="45.4459" lon="3.92171">
        <ele>918</ele>
        <time>2018-09-26T16:00:35Z</time>
      </trkpt>
      <trkpt lat="45.44583" lon="3.9213">
        <ele>917</ele>
        <time>2018-09-26T16:01:35Z</time>
      </trkpt>
      <trkpt lat="45.44573" lon="3.92089">
        <ele>915</ele>
        <time>2018-09-26T16:02:35Z</time>
      </trkpt>
      <trkpt lat="45.44554" lon="3.9205">
        <ele>910</ele>
        <time>2018-09-26T16:03:35Z</time>
      </trkpt>
      <trkpt lat="45.44546" lon="3.92027">
        <ele>907</ele>
        <time>2018-09-26T16:04:35Z</time>
      </trkpt>
      <trkpt lat="45.44542" lon="3.92013">
        <ele>904</ele>
        <time>2018-09-26T16:05:35Z</time>
      </trkpt>
      <trkpt lat="45.44512" lon="3.91998">
        <ele>906</ele>
        <time>2018-09-26T16:06:35Z</time>
      </trkpt>
      <trkpt lat="45.4451" lon="3.9198">
        <ele>904</ele>
        <time>2018-09-26T16:07:35Z</time>
      </trkpt>
      <trkpt lat="45.44492" lon="3.91963">
        <ele>903</ele>
        <time>2018-09-26T16:08:35Z</time>
      </trkpt>
      <trkpt lat="45.44458" lon="3.9191">
        <ele>896</ele>
        <time>2018-09-26T16:09:35Z</time>
      </trkpt>
      <trkpt lat="45.44426" lon="3.91894">
        <ele>894</ele>
        <time>2018-09-26T16:10:35Z</time>
      </trkpt>
      <trkpt lat="45.44392" lon="3.91875">
        <ele>892</ele>
        <time>2018-09-26T16:11:35Z</time>
      </trkpt>
      <trkpt lat="45.44362" lon="3.91869">
        <ele>892</ele>
        <time>2018-09-26T16:12:35Z</time>
      </trkpt>
      <trkpt lat="45.44354" lon="3.91863">
        <ele>891</ele>
        <time>2018-09-26T16:13:35Z</time>
      </trkpt>
      <trkpt lat="45.44344" lon="3.91881">
        <ele>895</ele>
        <time>2018-09-26T16:14:35Z</time>
      </trkpt>
      <trkpt lat="45.44295" lon="3.91737">
        <ele>882</ele>
        <time>2018-09-26T16:15:35Z</time>
      </trkpt>
      <trkpt lat="45.44277" lon="3.91684">
        <ele>883</ele>
        <time>2018-09-26T16:16:35Z</time>
      </trkpt>
      <trkpt lat="45.44261" lon="3.91637">
        <ele>883</ele>
        <time>2018-09-26T16:17:35Z</time>
      </trkpt>
      <trkpt lat="45.44249" lon="3.91598">
        <ele>883</ele>
        <time>2018-09-26T16:18:35Z</time>
      </trkpt>
      <trkpt lat="45.44231" lon="3.91531">
        <ele>879</ele>
        <time>2018-09-26T16:19:35Z</time>
      </trkpt>
      <trkpt lat="45.4422" lon="3.91476">
        <ele>873</ele>
        <time>2018-09-26T16:20:35Z</time>
      </trkpt>
      <trkpt lat="45.442" lon="3.91438">
        <ele>866</ele>
        <time>2018-09-26T16:21:35Z</time>
      </trkpt>
      <trkpt lat="45.44177" lon="3.9141">
        <ele>861</ele>
        <time>2018-09-26T16:22:35Z</time>
      </trkpt>
      <trkpt lat="45.44154" lon="3.9141">
        <ele>860</ele>
        <time>2018-09-26T16:23:35Z</time>
      </trkpt>
      <trkpt lat="45.44107" lon="3.91393">
        <ele>856</ele>
        <time>2018-09-26T16:24:35Z</time>
      </trkpt>
      <trkpt lat="45.44095" lon="3.91385">
        <ele>854</ele>
        <time>2018-09-26T16:25:35Z</time>
      </trkpt>
      <trkpt lat="45.44091" lon="3.91337">
        <ele>846</ele>
        <time>2018-09-26T16:26:35Z</time>
      </trkpt>
      <trkpt lat="45.44083" lon="3.91296">
        <ele>844</ele>
        <time>2018-09-26T16:27:35Z</time>
      </trkpt>
      <trkpt lat="45.4408" lon="3.91267">
        <ele>843</ele>
        <time>2018-09-26T16:28:35Z</time>
      </trkpt>
      <trkpt lat="45.44073" lon="3.91246">
        <ele>843</ele>
        <time>2018-09-26T16:29:35Z</time>
      </trkpt>
      <trkpt lat="45.44063" lon="3.91223">
        <ele>844</ele>
        <time>2018-09-26T16:30:35Z</time>
      </trkpt>
      <trkpt lat="45.44057" lon="3.912">
        <ele>845</ele>
        <time>2018-09-26T16:31:35Z</time>
      </trkpt>
      <trkpt lat="45.44045" lon="3.9117">
        <ele>847</ele>
        <time>2018-09-26T16:32:35Z</time>
      </trkpt>
      <trkpt lat="45.44043" lon="3.91135">
        <ele>851</ele>
        <time>2018-09-26T16:33:35Z</time>
      </trkpt>
      <trkpt lat="45.44045" lon="3.91108">
        <ele>854</ele>
        <time>2018-09-26T16:34:35Z</time>
      </trkpt>
      <trkpt lat="45.44039" lon="3.91082">
        <ele>858</ele>
        <time>2018-09-26T16:35:35Z</time>
      </trkpt>
      <trkpt lat="45.44026" lon="3.91065">
        <ele>863</ele>
        <time>2018-09-26T16:36:35Z</time>
      </trkpt>
      <trkpt lat="45.44004" lon="3.91055">
        <ele>867</ele>
        <time>2018-09-26T16:37:35Z</time>
      </trkpt>
      <trkpt lat="45.4398" lon="3.91038">
        <ele>871</ele>
        <time>2018-09-26T16:38:35Z</time>
      </trkpt>
      <trkpt lat="45.43956" lon="3.91032">
        <ele>873</ele>
        <time>2018-09-26T16:39:35Z</time>
      </trkpt>
      <trkpt lat="45.43918" lon="3.91017">
        <ele>876</ele>
        <time>2018-09-26T16:40:35Z</time>
      </trkpt>
      <trkpt lat="45.43901" lon="3.90988">
        <ele>879</ele>
        <time>2018-09-26T16:41:35Z</time>
      </trkpt>
      <trkpt lat="45.43963" lon="3.90977">
        <ele>882</ele>
        <time>2018-09-26T16:42:35Z</time>
      </trkpt>
      <trkpt lat="45.43977" lon="3.90913">
        <ele>891</ele>
        <time>2018-09-26T16:43:35Z</time>
      </trkpt>
      <trkpt lat="45.44008" lon="3.90853">
        <ele>900</ele>
        <time>2018-09-26T16:44:35Z</time>
      </trkpt>
      <trkpt lat="45.44071" lon="3.90819">
        <ele>901</ele>
        <time>2018-09-26T16:45:35Z</time>
      </trkpt>
      <trkpt lat="45.44163" lon="3.90801">
        <ele>902</ele>
        <time>2018-09-26T16:46:35Z</time>
      </trkpt>
      <trkpt lat="45.44293" lon="3.90819">
        <ele>896</ele>
        <time>2018-09-26T16:47:35Z</time>
      </trkpt>
      <trkpt lat="45.4436" lon="3.90844">
        <ele>885</ele>
        <time>2018-09-26T16:48:35Z</time>
      </trkpt>
      <trkpt lat="45.44398" lon="3.90836">
        <ele>884</ele>
        <time>2018-09-26T16:49:35Z</time>
      </trkpt>
      <trkpt lat="45.44434" lon="3.90815">
        <ele>887</ele>
        <time>2018-09-26T16:50:35Z</time>
      </trkpt>
      <trkpt lat="45.44581" lon="3.90813">
        <ele>872</ele>
        <time>2018-09-26T16:51:35Z</time>
      </trkpt>
      <trkpt lat="45.44668" lon="3.90834">
        <ele>869</ele>
        <time>2018-09-26T16:52:35Z</time>
      </trkpt>
      <trkpt lat="45.44726" lon="3.90859">
        <ele>872</ele>
        <time>2018-09-26T16:53:35Z</time>
      </trkpt>
      <trkpt lat="45.44761" lon="3.90868">
        <ele>873</ele>
        <time>2018-09-26T16:54:35Z</time>
      </trkpt>
      <trkpt lat="45.44805" lon="3.90857">
        <ele>873</ele>
        <time>2018-09-26T16:55:35Z</time>
      </trkpt>
      <trkpt lat="45.44838" lon="3.90825">
        <ele>876</ele>
        <time>2018-09-26T16:56:35Z</time>
      </trkpt>
      <trkpt lat="45.44889" lon="3.90789">
        <ele>875</ele>
        <time>2018-09-26T16:57:35Z</time>
      </trkpt>
      <trkpt lat="45.4493" lon="3.90763">
        <ele>873</ele>
        <time>2018-09-26T16:58:35Z</time>
      </trkpt>
      <trkpt lat="45.44968" lon="3.90743">
        <ele>870</ele>
        <time>2018-09-26T16:59:35Z</time>
      </trkpt>
      <trkpt lat="45.45008" lon="3.90734">
        <ele>867</ele>
        <time>2018-09-26T17:00:35Z</time>
      </trkpt>
      <trkpt lat="45.45042" lon="3.90736">
        <ele>865</ele>
        <time>2018-09-26T17:01:35Z</time>
      </trkpt>
      <trkpt lat="45.45088" lon="3.90693">
        <ele>866</ele>
        <time>2018-09-26T17:02:35Z</time>
      </trkpt>
      <trkpt lat="45.45212" lon="3.90563">
        <ele>866</ele>
        <time>2018-09-26T17:03:35Z</time>
      </trkpt>
      <trkpt lat="45.45219" lon="3.90592">
        <ele>863</ele>
        <time>2018-09-26T17:04:35Z</time>
      </trkpt>
      <trkpt lat="45.45227" lon="3.90619">
        <ele>862</ele>
        <time>2018-09-26T17:05:35Z</time>
      </trkpt>
      <trkpt lat="45.4523" lon="3.90643">
        <ele>861</ele>
        <time>2018-09-26T17:06:35Z</time>
      </trkpt>
      <trkpt lat="45.45244" lon="3.90654">
        <ele>862</ele>
        <time>2018-09-26T17:07:35Z</time>
      </trkpt>
      <trkpt lat="45.45272" lon="3.90625">
        <ele>866</ele>
        <time>2018-09-26T17:08:35Z</time>
      </trkpt>
      <trkpt lat="45.45298" lon="3.9061">
        <ele>870</ele>
        <time>2018-09-26T17:09:35Z</time>
      </trkpt>
      <trkpt lat="45.45297" lon="3.90648">
        <ele>872</ele>
        <time>2018-09-26T17:10:35Z</time>
      </trkpt>
      <trkpt lat="45.45293" lon="3.90671">
        <ele>872</ele>
        <time>2018-09-26T17:11:35Z</time>
      </trkpt>
      <trkpt lat="45.45285" lon="3.90701">
        <ele>870</ele>
        <time>2018-09-26T17:12:35Z</time>
      </trkpt>
      <trkpt lat="45.45298" lon="3.90725">
        <ele>872</ele>
        <time>2018-09-26T17:13:35Z</time>
      </trkpt>
      <trkpt lat="45.45316" lon="3.90751">
        <ele>876</ele>
        <time>2018-09-26T17:14:35Z</time>
      </trkpt>
      <trkpt lat="45.45349" lon="3.90777">
        <ele>879</ele>
        <time>2018-09-26T17:15:35Z</time>
      </trkpt>
      <trkpt lat="45.45376" lon="3.90816">
        <ele>876</ele>
        <time>2018-09-26T17:16:35Z</time>
      </trkpt>
      <trkpt lat="45.45398" lon="3.90816">
        <ele>878</ele>
        <time>2018-09-26T17:17:35Z</time>
      </trkpt>
      <trkpt lat="45.45429" lon="3.90798">
        <ele>882</ele>
        <time>2018-09-26T17:18:35Z</time>
      </trkpt>
      <trkpt lat="45.45461" lon="3.90771">
        <ele>883</ele>
        <time>2018-09-26T17:19:35Z</time>
      </trkpt>
      <trkpt lat="45.45484" lon="3.90746">
        <ele>882</ele>
        <time>2018-09-26T17:20:35Z</time>
      </trkpt>
      <trkpt lat="45.4552" lon="3.90734">
        <ele>881</ele>
        <time>2018-09-26T17:21:35Z</time>
      </trkpt>
      <trkpt lat="45.45543" lon="3.9071">
        <ele>883</ele>
        <time>2018-09-26T17:22:35Z</time>
      </trkpt>
      <trkpt lat="45.45578" lon="3.90698">
        <ele>883</ele>
        <time>2018-09-26T17:23:35Z</time>
      </trkpt>
      <trkpt lat="45.45613" lon="3.90699">
        <ele>883</ele>
        <time>2018-09-26T17:24:35Z</time>
      </trkpt>
      <trkpt lat="45.45639" lon="3.90719">
        <ele>882</ele>
        <time>2018-09-26T17:25:35Z</time>
      </trkpt>
      <trkpt lat="45.45682" lon="3.90721">
        <ele>882</ele>
        <time>2018-09-26T17:26:35Z</time>
      </trkpt>
      <trkpt lat="45.45713" lon="3.90724">
        <ele>883</ele>
        <time>2018-09-26T17:27:35Z</time>
      </trkpt>
      <trkpt lat="45.45745" lon="3.90713">
        <ele>884</ele>
        <time>2018-09-26T17:28:35Z</time>
      </trkpt>
      <trkpt lat="45.45774" lon="3.90687">
        <ele>887</ele>
        <time>2018-09-26T17:29:35Z</time>
      </trkpt>
      <trkpt lat="45.45755" lon="3.90674">
        <ele>886</ele>
        <time>2018-09-26T17:30:35Z</time>
      </trkpt>
      <trkpt lat="45.4573" lon="3.90646">
        <ele>886</ele>
        <time>2018-09-26T17:31:35Z</time>
      </trkpt>
      <trkpt lat="45.45709" lon="3.90628">
        <ele>886</ele>
        <time>2018-09-26T17:32:35Z</time>
      </trkpt>
      <trkpt lat="45.4571" lon="3.90601">
        <ele>887</ele>
        <time>2018-09-26T17:33:35Z</time>
      </trkpt>
      <trkpt lat="45.45717" lon="3.90549">
        <ele>888</ele>
        <time>2018-09-26T17:34:35Z</time>
      </trkpt>
      <trkpt lat="45.45731" lon="3.90505">
        <ele>888</ele>
        <time>2018-09-26T17:35:35Z</time>
      </trkpt>
      <trkpt lat="45.45764" lon="3.90464">
        <ele>889</ele>
        <time>2018-09-26T17:36:35Z</time>
      </trkpt>
      <trkpt lat="45.4578" lon="3.90455">
        <ele>890</ele>
        <time>2018-09-26T17:37:35Z</time>
      </trkpt>
      <trkpt lat="45.45804" lon="3.90469">
        <ele>892</ele>
        <time>2018-09-26T17:38:35Z</time>
      </trkpt>
      <trkpt lat="45.45896" lon="3.90344">
        <ele>900</ele>
        <time>2018-09-26T17:39:35Z</time>
      </trkpt>
      <trkpt lat="45.45987" lon="3.90232">
        <ele>905</ele>
        <time>2018-09-26T17:40:35Z</time>
      </trkpt>
      <trkpt lat="45.46043" lon="3.90132">
        <ele>902</ele>
        <time>2018-09-26T17:41:35Z</time>
      </trkpt>
      <trkpt lat="45.46105" lon="3.90115">
        <ele>905</ele>
        <time>2018-09-26T17:42:35Z</time>
      </trkpt>
      <trkpt lat="45.46148" lon="3.9012">
        <ele>908</ele>
        <time>2018-09-26T17:43:35Z</time>
      </trkpt>
      <trkpt lat="45.46182" lon="3.90137">
        <ele>912</ele>
        <time>2018-09-26T17:44:35Z</time>
      </trkpt>
      <trkpt lat="45.46217" lon="3.90153">
        <ele>913</ele>
        <time>2018-09-26T17:45:35Z</time>
      </trkpt>
      <trkpt lat="45.46255" lon="3.90155">
        <ele>913</ele>
        <time>2018-09-26T17:46:35Z</time>
      </trkpt>
      <trkpt lat="45.46293" lon="3.90138">
        <ele>912</ele>
        <time>2018-09-26T17:47:35Z</time>
      </trkpt>
      <trkpt lat="45.46363" lon="3.90155">
        <ele>919</ele>
        <time>2018-09-26T17:48:35Z</time>
      </trkpt>
      <trkpt lat="45.46442" lon="3.9017">
        <ele>926</ele>
        <time>2018-09-26T17:49:35Z</time>
      </trkpt>
      <trkpt lat="45.46493" lon="3.90162">
        <ele>927</ele>
        <time>2018-09-26T17:50:35Z</time>
      </trkpt>
      <trkpt lat="45.46532" lon="3.90184">
        <ele>929</ele>
        <time>2018-09-26T17:51:35Z</time>
      </trkpt>
      <trkpt lat="45.46527" lon="3.90206">
        <ele>931</ele>
        <time>2018-09-26T17:52:35Z</time>
      </trkpt>
      <trkpt lat="45.46532" lon="3.90241">
        <ele>935</ele>
        <time>2018-09-26T17:53:35Z</time>
      </trkpt>
      <trkpt lat="45.46536" lon="3.90258">
        <ele>937</ele>
        <time>2018-09-26T17:54:35Z</time>
      </trkpt>
      <trkpt lat="45.46553" lon="3.90291">
        <ele>942</ele>
        <time>2018-09-26T17:55:35Z</time>
      </trkpt>
      <trkpt lat="45.466" lon="3.90385">
        <ele>953</ele>
        <time>2018-09-26T17:56:35Z</time>
      </trkpt>
      <trkpt lat="45.46609" lon="3.90417">
        <ele>956</ele>
        <time>2018-09-26T17:57:35Z</time>
      </trkpt>
      <trkpt lat="45.46615" lon="3.90449">
        <ele>956</ele>
        <time>2018-09-26T17:58:35Z</time>
      </trkpt>
      <trkpt lat="45.46617" lon="3.90486">
        <ele>957</ele>
        <time>2018-09-26T17:59:35Z</time>
      </trkpt>
      <trkpt lat="45.46596" lon="3.9053">
        <ele>958</ele>
        <time>2018-09-26T18:00:35Z</time>
      </trkpt>
      <trkpt lat="45.4657" lon="3.9056">
        <ele>959</ele>
        <time>2018-09-26T18:01:35Z</time>
      </trkpt>
      <trkpt lat="45.46554" lon="3.90578">
        <ele>959</ele>
        <time>2018-09-26T18:02:35Z</time>
      </trkpt>
      <trkpt lat="45.46529" lon="3.90593">
        <ele>960</ele>
        <time>2018-09-26T18:03:35Z</time>
      </trkpt>
      <trkpt lat="45.46526" lon="3.90631">
        <ele>954</ele>
        <time>2018-09-26T18:04:35Z</time>
      </trkpt>
      <trkpt lat="45.46508" lon="3.90671">
        <ele>949</ele>
        <time>2018-09-26T18:05:35Z</time>
      </trkpt>
      <trkpt lat="45.46512" lon="3.90722">
        <ele>940</ele>
        <time>2018-09-26T18:06:35Z</time>
      </trkpt>
      <trkpt lat="45.4651" lon="3.90781">
        <ele>933</ele>
        <time>2018-09-26T18:07:35Z</time>
      </trkpt>
      <trkpt lat="45.4652" lon="3.90844">
        <ele>931</ele>
        <time>2018-09-26T18:08:35Z</time>
      </trkpt>
      <trkpt lat="45.46556" lon="3.90845">
        <ele>933</ele>
        <time>2018-09-26T18:09:35Z</time>
      </trkpt>
      <trkpt lat="45.46595" lon="3.9086">
        <ele>935</ele>
        <time>2018-09-26T18:10:35Z</time>
      </trkpt>
      <trkpt lat="45.46613" lon="3.90888">
        <ele>937</ele>
        <time>2018-09-26T18:11:35Z</time>
      </trkpt>
      <trkpt lat="45.46631" lon="3.90923">
        <ele>939</ele>
        <time>2018-09-26T18:12:35Z</time>
      </trkpt>
      <trkpt lat="45.46671" lon="3.90947">
        <ele>942</ele>
        <time>2018-09-26T18:13:35Z</time>
      </trkpt>
      <trkpt lat="45.4673" lon="3.9097">
        <ele>957</ele>
        <time>2018-09-26T18:14:35Z</time>
      </trkpt>
      <trkpt lat="45.4679" lon="3.90929">
        <ele>964</ele>
        <time>2018-09-26T18:15:35Z</time>
      </trkpt>
      <trkpt lat="45.46886" lon="3.90923">
        <ele>973</ele>
        <time>2018-09-26T18:16:35Z</time>
      </trkpt>
      <trkpt lat="45.46933" lon="3.90885">
        <ele>969</ele>
        <time>2018-09-26T18:17:35Z</time>
      </trkpt>
      <trkpt lat="45.46992" lon="3.90891">
        <ele>967</ele>
        <time>2018-09-26T18:18:35Z</time>
      </trkpt>
      <trkpt lat="45.46972" lon="3.90944">
        <ele>971</ele>
        <time>2018-09-26T18:19:35Z</time>
      </trkpt>
      <trkpt lat="45.46961" lon="3.90974">
        <ele>972</ele>
        <time>2018-09-26T18:20:35Z</time>
      </trkpt>
      <trkpt lat="45.46957" lon="3.91021">
        <ele>972</ele>
        <time>2018-09-26T18:21:35Z</time>
      </trkpt>
      <trkpt lat="45.46963" lon="3.91042">
        <ele>971</ele>
        <time>2018-09-26T18:22:35Z</time>
      </trkpt>
      <trkpt lat="45.46968" lon="3.91092">
        <ele>971</ele>
        <time>2018-09-26T18:23:35Z</time>
      </trkpt>
      <trkpt lat="45.4698" lon="3.91132">
        <ele>971</ele>
        <time>2018-09-26T18:24:35Z</time>
      </trkpt>
      <trkpt lat="45.47036" lon="3.91094">
        <ele>972</ele>
        <time>2018-09-26T18:25:35Z</time>
      </trkpt>
      <trkpt lat="45.47067" lon="3.91085">
        <ele>971</ele>
        <time>2018-09-26T18:26:35Z</time>
      </trkpt>
      <trkpt lat="45.47083" lon="3.91112">
        <ele>974</ele>
        <time>2018-09-26T18:27:35Z</time>
      </trkpt>
      <trkpt lat="45.471" lon="3.91143">
        <ele>979</ele>
        <time>2018-09-26T18:28:35Z</time>
      </trkpt>
      <trkpt lat="45.47166" lon="3.91147">
        <ele>983</ele>
        <time>2018-09-26T18:29:35Z</time>
      </trkpt>
      <trkpt lat="45.47183" lon="3.91112">
        <ele>979</ele>
        <time>2018-09-26T18:30:35Z</time>
      </trkpt>
      <trkpt lat="45.47215" lon="3.91089">
        <ele>977</ele>
        <time>2018-09-26T18:31:35Z</time>
      </trkpt>
      <trkpt lat="45.47222" lon="3.91111">
        <ele>980</ele>
        <time>2018-09-26T18:32:35Z</time>
      </trkpt>
      <trkpt lat="45.47217" lon="3.91152">
        <ele>984</ele>
        <time>2018-09-26T18:33:35Z</time>
      </trkpt>
      <trkpt lat="45.47207" lon="3.91187">
        <ele>987</ele>
        <time>2018-09-26T18:34:35Z</time>
      </trkpt>
      <trkpt lat="45.47236" lon="3.91234">
        <ele>990</ele>
        <time>2018-09-26T18:35:35Z</time>
      </trkpt>
      <trkpt lat="45.47239" lon="3.91256">
        <ele>991</ele>
        <time>2018-09-26T18:36:35Z</time>
      </trkpt>
      <trkpt lat="45.47258" lon="3.91275">
        <ele>993</ele>
        <time>2018-09-26T18:37:35Z</time>
      </trkpt>
      <trkpt lat="45.47259" lon="3.91299">
        <ele>995</ele>
        <time>2018-09-26T18:38:35Z</time>
      </trkpt>
      <trkpt lat="45.4726" lon="3.91329">
        <ele>998</ele>
        <time>2018-09-26T18:39:35Z</time>
      </trkpt>
      <trkpt lat="45.47266" lon="3.91359">
        <ele>1001</ele>
        <time>2018-09-26T18:40:35Z</time>
      </trkpt>
      <trkpt lat="45.47278" lon="3.91393">
        <ele>1004</ele>
        <time>2018-09-26T18:41:35Z</time>
      </trkpt>
      <trkpt lat="45.47284" lon="3.91432">
        <ele>1005</ele>
        <time>2018-09-26T18:42:35Z</time>
      </trkpt>
      <trkpt lat="45.47321" lon="3.91466">
        <ele>1006</ele>
        <time>2018-09-26T18:43:35Z</time>
      </trkpt>
      <trkpt lat="45.47342" lon="3.91488">
        <ele>1006</ele>
        <time>2018-09-26T18:44:35Z</time>
      </trkpt>
      <trkpt lat="45.47343" lon="3.91502">
        <ele>1007</ele>
        <time>2018-09-26T18:45:35Z</time>
      </trkpt>
      <trkpt lat="45.47372" lon="3.91542">
        <ele>1010</ele>
        <time>2018-09-26T18:46:35Z</time>
      </trkpt>
      <trkpt lat="45.47406" lon="3.91599">
        <ele>1017</ele>
        <time>2018-09-26T18:47:35Z</time>
      </trkpt>
      <trkpt lat="45.47444" lon="3.91674">
        <ele>1024</ele>
        <time>2018-09-26T18:48:35Z</time>
      </trkpt>
      <trkpt lat="45.4746" lon="3.9179">
        <ele>1030</ele>
        <time>2018-09-26T18:49:35Z</time>
      </trkpt>
      <trkpt lat="45.47482" lon="3.91897">
        <ele>1040</ele>
        <time>2018-09-26T18:50:35Z</time>
      </trkpt>
      <trkpt lat="45.47495" lon="3.91927">
        <ele>1045</ele>
        <time>2018-09-26T18:51:35Z</time>
      </trkpt>
      <trkpt lat="45.47493" lon="3.92085">
        <ele>1061</ele>
        <time>2018-09-26T18:52:35Z</time>
      </trkpt>
      <trkpt lat="45.47497" lon="3.92129">
        <ele>1064</ele>
        <time>2018-09-26T18:53:35Z</time>
      </trkpt>
      <trkpt lat="45.47502" lon="3.92152">
        <ele>1065</ele>
        <time>2018-09-26T18:54:35Z</time>
      </trkpt>
      <trkpt lat="45.47521" lon="3.92183">
        <ele>1067</ele>
        <time>2018-09-26T18:55:35Z</time>
      </trkpt>
      <trkpt lat="45.47534" lon="3.92247">
        <ele>1074</ele>
        <time>2018-09-26T18:56:35Z</time>
      </trkpt>
      <trkpt lat="45.47526" lon="3.92315">
        <ele>1080</ele>
        <time>2018-09-26T18:57:35Z</time>
      </trkpt>
      <trkpt lat="45.47502" lon="3.92352">
        <ele>1081</ele>
        <time>2018-09-26T18:58:35Z</time>
      </trkpt>
      <trkpt lat="45.47484" lon="3.92391">
        <ele>1082</ele>
        <time>2018-09-26T18:59:35Z</time>
      </trkpt>
      <trkpt lat="45.47469" lon="3.9242">
        <ele>1082</ele>
        <time>2018-09-26T19:00:35Z</time>
      </trkpt>
      <trkpt lat="45.47446" lon="3.92446">
        <ele>1082</ele>
        <time>2018-09-26T19:01:35Z</time>
      </trkpt>
      <trkpt lat="45.47421" lon="3.92469">
        <ele>1082</ele>
        <time>2018-09-26T19:02:35Z</time>
      </trkpt>
      <trkpt lat="45.47401" lon="3.92493">
        <ele>1086</ele>
        <time>2018-09-26T19:03:35Z</time>
      </trkpt>
      <trkpt lat="45.47374" lon="3.92514">
        <ele>1089</ele>
        <time>2018-09-26T19:04:35Z</time>
      </trkpt>
      <trkpt lat="45.47349" lon="3.92523">
        <ele>1091</ele>
        <time>2018-09-26T19:05:35Z</time>
      </trkpt>
      <trkpt lat="45.47312" lon="3.92566">
        <ele>1097</ele>
        <time>2018-09-26T19:06:35Z</time>
      </trkpt>
      <trkpt lat="45.47295" lon="3.92585">
        <ele>1098</ele>
        <time>2018-09-26T19:07:35Z</time>
      </trkpt>
      <trkpt lat="45.47201" lon="3.9267">
        <ele>1105</ele>
        <time>2018-09-26T19:08:35Z</time>
      </trkpt>
      <trkpt lat="45.47187" lon="3.92695">
        <ele>1107</ele>
        <time>2018-09-26T19:09:35Z</time>
      </trkpt>
      <trkpt lat="45.47176" lon="3.92725">
        <ele>1110</ele>
        <time>2018-09-26T19:10:35Z</time>
      </trkpt>
      <trkpt lat="45.47181" lon="3.92761">
        <ele>1115</ele>
        <time>2018-09-26T19:11:35Z</time>
      </trkpt>
      <trkpt lat="45.47167" lon="3.92787">
        <ele>1118</ele>
        <time>2018-09-26T19:12:35Z</time>
      </trkpt>
      <trkpt lat="45.4715" lon="3.92822">
        <ele>1123</ele>
        <time>2018-09-26T19:13:35Z</time>
      </trkpt>
      <trkpt lat="45.47122" lon="3.92892">
        <ele>1133</ele>
        <time>2018-09-26T19:14:35Z</time>
      </trkpt>
      <trkpt lat="45.47079" lon="3.92988">
        <ele>1137</ele>
        <time>2018-09-26T19:15:35Z</time>
      </trkpt>
      <trkpt lat="45.4703" lon="3.93074">
        <ele>1141</ele>
        <time>2018-09-26T19:16:35Z</time>
      </trkpt>
      <trkpt lat="45.46987" lon="3.9316">
        <ele>1143</ele>
        <time>2018-09-26T19:17:35Z</time>
      </trkpt>
      <trkpt lat="45.46947" lon="3.93236">
        <ele>1146</ele>
        <time>2018-09-26T19:18:35Z</time>
      </trkpt>
      <trkpt lat="45.46844" lon="3.9339">
        <ele>1146</ele>
        <time>2018-09-26T19:19:35Z</time>
      </trkpt>
      <trkpt lat="45.46823" lon="3.93423">
        <ele>1147</ele>
        <time>2018-09-26T19:20:35Z</time>
      </trkpt>
      <trkpt lat="45.46811" lon="3.93426">
        <ele>1149</ele>
        <time>2018-09-26T19:21:35Z</time>
      </trkpt>
      <trkpt lat="45.46797" lon="3.93434">
        <ele>1151</ele>
        <time>2018-09-26T19:22:35Z</time>
      </trkpt>
      <trkpt lat="45.46786" lon="3.93418">
        <ele>1152</ele>
        <time>2018-09-26T19:23:35Z</time>
      </trkpt>
      <trkpt lat="45.46777" lon="3.93408">
        <ele>1153</ele>
        <time>2018-09-26T19:24:35Z</time>
      </trkpt>
      <trkpt lat="45.46752" lon="3.93429">
        <ele>1156</ele>
        <time>2018-09-26T19:25:35Z</time>
      </trkpt>
      <trkpt lat="45.46744" lon="3.93452">
        <ele>1155</ele>
        <time>2018-09-26T19:26:35Z</time>
      </trkpt>
      <trkpt lat="45.46729" lon="3.93484">
        <ele>1155</ele>
        <time>2018-09-26T19:27:35Z</time>
      </trkpt>
      <trkpt lat="45.46703" lon="3.93499">
        <ele>1157</ele>
        <time>2018-09-26T19:28:35Z</time>
      </trkpt>
      <trkpt lat="45.46652" lon="3.93523">
        <ele>1159</ele>
        <time>2018-09-26T19:29:35Z</time>
      </trkpt>
      <trkpt lat="45.46631" lon="3.93502">
        <ele>1160</ele>
        <time>2018-09-26T19:30:35Z</time>
      </trkpt>
      <trkpt lat="45.46604" lon="3.9349">
        <ele>1160</ele>
        <time>2018-09-26T19:31:35Z</time>
      </trkpt>
      <trkpt lat="45.46577" lon="3.93481">
        <ele>1161</ele>
        <time>2018-09-26T19:32:35Z</time>
      </trkpt>
      <trkpt lat="45.4655" lon="3.93479">
        <ele>1160</ele>
        <time>2018-09-26T19:33:35Z</time>
      </trkpt>
      <trkpt lat="45.46527" lon="3.93488">
        <ele>1159</ele>
        <time>2018-09-26T19:34:35Z</time>
      </trkpt>
      <trkpt lat="45.46503" lon="3.93506">
        <ele>1158</ele>
        <time>2018-09-26T19:35:35Z</time>
      </trkpt>
      <trkpt lat="45.46484" lon="3.93491">
        <ele>1158</ele>
        <time>2018-09-26T19:36:35Z</time>
      </trkpt>
      <trkpt lat="45.4646" lon="3.93481">
        <ele>1157</ele>
        <time>2018-09-26T19:37:35Z</time>
      </trkpt>
      <trkpt lat="45.46436" lon="3.93467">
        <ele>1156</ele>
        <time>2018-09-26T19:38:35Z</time>
      </trkpt>
      <trkpt lat="45.46408" lon="3.93446">
        <ele>1156</ele>
        <time>2018-09-26T19:39:35Z</time>
      </trkpt>
      <trkpt lat="45.46387" lon="3.93426">
        <ele>1156</ele>
        <time>2018-09-26T19:40:35Z</time>
      </trkpt>
      <trkpt lat="45.46376" lon="3.93418">
        <ele>1155</ele>
        <time>2018-09-26T19:41:35Z</time>
      </trkpt>
      <trkpt lat="45.46333" lon="3.93397">
        <ele>1153</ele>
        <time>2018-09-26T19:42:35Z</time>
      </trkpt>
      <trkpt lat="45.46299" lon="3.93491">
        <ele>1142</ele>
        <time>2018-09-26T19:43:35Z</time>
      </trkpt>
      <trkpt lat="45.46281" lon="3.93572">
        <ele>1141</ele>
        <time>2018-09-26T19:44:35Z</time>
      </trkpt>
      <trkpt lat="45.46276" lon="3.93631">
        <ele>1142</ele>
        <time>2018-09-26T19:45:35Z</time>
      </trkpt>
      <trkpt lat="45.46263" lon="3.93705">
        <ele>1142</ele>
        <time>2018-09-26T19:46:35Z</time>
      </trkpt>
      <trkpt lat="45.46246" lon="3.93749">
        <ele>1142</ele>
        <time>2018-09-26T19:47:35Z</time>
      </trkpt>
      <trkpt lat="45.46222" lon="3.93795">
        <ele>1136</ele>
        <time>2018-09-26T19:48:35Z</time>
      </trkpt>
      <trkpt lat="45.46179" lon="3.93827">
        <ele>1133</ele>
        <time>2018-09-26T19:49:35Z</time>
      </trkpt>
      <trkpt lat="45.46174" lon="3.93854">
        <ele>1134</ele>
        <time>2018-09-26T19:50:35Z</time>
      </trkpt>
      <trkpt lat="45.46158" lon="3.93874">
        <ele>1134</ele>
        <time>2018-09-26T19:51:35Z</time>
      </trkpt>
      <trkpt lat="45.46142" lon="3.93902">
        <ele>1134</ele>
        <time>2018-09-26T19:52:35Z</time>
      </trkpt>
      <trkpt lat="45.46131" lon="3.93915">
        <ele>1134</ele>
        <time>2018-09-26T19:53:35Z</time>
      </trkpt>
      <trkpt lat="45.46094" lon="3.93925">
        <ele>1133</ele>
        <time>2018-09-26T19:54:35Z</time>
      </trkpt>
      <trkpt lat="45.46076" lon="3.93936">
        <ele>1132</ele>
        <time>2018-09-26T19:55:35Z</time>
      </trkpt>
      <trkpt lat="45.46057" lon="3.93948">
        <ele>1132</ele>
        <time>2018-09-26T19:56:35Z</time>
      </trkpt>
      <trkpt lat="45.46009" lon="3.93997">
        <ele>1134</ele>
        <time>2018-09-26T19:57:35Z</time>
      </trkpt>
      <trkpt lat="45.45971" lon="3.94068">
        <ele>1135</ele>
        <time>2018-09-26T19:58:35Z</time>
      </trkpt>
      <trkpt lat="45.45968" lon="3.94189">
        <ele>1146</ele>
        <time>2018-09-26T19:59:35Z</time>
      </trkpt>
      <trkpt lat="45.45917" lon="3.94321">
        <ele>1161</ele>
        <time>2018-09-26T20:00:35Z</time>
      </trkpt>
      <trkpt lat="45.45889" lon="3.94406">
        <ele>1162</ele>
        <time>2018-09-26T20:01:35Z</time>
      </trkpt>
      <trkpt lat="45.45875" lon="3.94491">
        <ele>1159</ele>
        <time>2018-09-26T20:02:35Z</time>
      </trkpt>
      <trkpt lat="45.45885" lon="3.94611">
        <ele>1156</ele>
        <time>2018-09-26T20:03:35Z</time>
      </trkpt>
      <trkpt lat="45.45895" lon="3.94678">
        <ele>1158</ele>
        <time>2018-09-26T20:04:35Z</time>
      </trkpt>
      <trkpt lat="45.4589" lon="3.94731">
        <ele>1158</ele>
        <time>2018-09-26T20:05:35Z</time>
      </trkpt>
      <trkpt lat="45.4588" lon="3.94763">
        <ele>1158</ele>
        <time>2018-09-26T20:06:35Z</time>
      </trkpt>
      <trkpt lat="45.4586" lon="3.94792">
        <ele>1156</ele>
        <time>2018-09-26T20:07:35Z</time>
      </trkpt>
      <trkpt lat="45.45834" lon="3.94808">
        <ele>1154</ele>
        <time>2018-09-26T20:08:35Z</time>
      </trkpt>
      <trkpt lat="45.45805" lon="3.94857">
        <ele>1152</ele>
        <time>2018-09-26T20:09:35Z</time>
      </trkpt>
      <trkpt lat="45.45785" lon="3.94942">
        <ele>1155</ele>
        <time>2018-09-26T20:10:35Z</time>
      </trkpt>
      <trkpt lat="45.45761" lon="3.94968">
        <ele>1154</ele>
        <time>2018-09-26T20:11:35Z</time>
      </trkpt>
      <trkpt lat="45.45784" lon="3.95025">
        <ele>1157</ele>
        <time>2018-09-26T20:12:35Z</time>
      </trkpt>
      <trkpt lat="45.45788" lon="3.95053">
        <ele>1158</ele>
        <time>2018-09-26T20:13:35Z</time>
      </trkpt>
      <trkpt lat="45.45793" lon="3.95094">
        <ele>1159</ele>
        <time>2018-09-26T20:14:35Z</time>
      </trkpt>
      <trkpt lat="45.45773" lon="3.95141">
        <ele>1161</ele>
        <time>2018-09-26T20:15:35Z</time>
      </trkpt>
      <trkpt lat="45.45741" lon="3.95206">
        <ele>1164</ele>
        <time>2018-09-26T20:16:35Z</time>
      </trkpt>
      <trkpt lat="45.45696" lon="3.95251">
        <ele>1168</ele>
        <time>2018-09-26T20:17:35Z</time>
      </trkpt>
      <trkpt lat="45.45658" lon="3.95324">
        <ele>1172</ele>
        <time>2018-09-26T20:18:35Z</time>
      </trkpt>
      <trkpt lat="45.4562" lon="3.95374">
        <ele>1175</ele>
        <time>2018-09-26T20:19:35Z</time>
      </trkpt>
      <trkpt lat="45.45541" lon="3.95426">
        <ele>1180</ele>
        <time>2018-09-26T20:20:35Z</time>
      </trkpt>
      <trkpt lat="45.45362" lon="3.95555">
        <ele>1187</ele>
        <time>2018-09-26T20:21:35Z</time>
      </trkpt>
      <trkpt lat="45.45316" lon="3.9559">
        <ele>1190</ele>
        <time>2018-09-26T20:22:35Z</time>
      </trkpt>
      <trkpt lat="45.45273" lon="3.95693">
        <ele>1195</ele>
        <time>2018-09-26T20:23:35Z</time>
      </trkpt>
      <trkpt lat="45.45269" lon="3.95737">
        <ele>1195</ele>
        <time>2018-09-26T20:24:35Z</time>
      </trkpt>
      <trkpt lat="45.45273" lon="3.95795">
        <ele>1195</ele>
        <time>2018-09-26T20:25:35Z</time>
      </trkpt>
      <trkpt lat="45.45297" lon="3.95842">
        <ele>1193</ele>
        <time>2018-09-26T20:26:35Z</time>
      </trkpt>
      <trkpt lat="45.45354" lon="3.95901">
        <ele>1188</ele>
        <time>2018-09-26T20:27:35Z</time>
      </trkpt>
      <trkpt lat="45.45396" lon="3.95931">
        <ele>1187</ele>
        <time>2018-09-26T20:28:35Z</time>
      </trkpt>
      <trkpt lat="45.45458" lon="3.95981">
        <ele>1184</ele>
        <time>2018-09-26T20:29:35Z</time>
      </trkpt>
      <trkpt lat="45.45516" lon="3.96046">
        <ele>1176</ele>
        <time>2018-09-26T20:30:35Z</time>
      </trkpt>
      <trkpt lat="45.45593" lon="3.9611">
        <ele>1163</ele>
        <time>2018-09-26T20:31:35Z</time>
      </trkpt>
      <trkpt lat="45.45664" lon="3.96162">
        <ele>1160</ele>
        <time>2018-09-26T20:32:35Z</time>
      </trkpt>
      <trkpt lat="45.4569" lon="3.96157">
        <ele>1160</ele>
        <time>2018-09-26T20:33:35Z</time>
      </trkpt>
      <trkpt lat="45.45745" lon="3.96142">
        <ele>1160</ele>
        <time>2018-09-26T20:34:35Z</time>
      </trkpt>
      <trkpt lat="45.45783" lon="3.9614">
        <ele>1160</ele>
        <time>2018-09-26T20:35:35Z</time>
      </trkpt>
      <trkpt lat="45.45809" lon="3.96171">
        <ele>1161</ele>
        <time>2018-09-26T20:36:35Z</time>
      </trkpt>
      <trkpt lat="45.45822" lon="3.96201">
        <ele>1161</ele>
        <time>2018-09-26T20:37:35Z</time>
      </trkpt>
      <trkpt lat="45.45824" lon="3.96244">
        <ele>1161</ele>
        <time>2018-09-26T20:38:35Z</time>
      </trkpt>
      <trkpt lat="45.45806" lon="3.96304">
        <ele>1160</ele>
        <time>2018-09-26T20:39:35Z</time>
      </trkpt>
      <trkpt lat="45.45784" lon="3.96359">
        <ele>1160</ele>
        <time>2018-09-26T20:40:35Z</time>
      </trkpt>
      <trkpt lat="45.45764" lon="3.96418">
        <ele>1159</ele>
        <time>2018-09-26T20:41:35Z</time>
      </trkpt>
      <trkpt lat="45.45759" lon="3.96473">
        <ele>1159</ele>
        <time>2018-09-26T20:42:35Z</time>
      </trkpt>
      <trkpt lat="45.45766" lon="3.96544">
        <ele>1157</ele>
        <time>2018-09-26T20:43:35Z</time>
      </trkpt>
      <trkpt lat="45.45776" lon="3.96602">
        <ele>1155</ele>
        <time>2018-09-26T20:44:35Z</time>
      </trkpt>
      <trkpt lat="45.45782" lon="3.96665">
        <ele>1151</ele>
        <time>2018-09-26T20:45:35Z</time>
      </trkpt>
      <trkpt lat="45.45794" lon="3.96744">
        <ele>1147</ele>
        <time>2018-09-26T20:46:35Z</time>
      </trkpt>
      <trkpt lat="45.45791" lon="3.96819">
        <ele>1142</ele>
        <time>2018-09-26T20:47:35Z</time>
      </trkpt>
      <trkpt lat="45.45795" lon="3.96841">
        <ele>1141</ele>
        <time>2018-09-26T20:48:35Z</time>
      </trkpt>
      <trkpt lat="45.45821" lon="3.96876">
        <ele>1139</ele>
        <time>2018-09-26T20:49:35Z</time>
      </trkpt>
      <trkpt lat="45.45846" lon="3.96892">
        <ele>1136</ele>
        <time>2018-09-26T20:50:35Z</time>
      </trkpt>
      <trkpt lat="45.45893" lon="3.96864">
        <ele>1133</ele>
        <time>2018-09-26T20:51:35Z</time>
      </trkpt>
      <trkpt lat="45.4594" lon="3.96875">
        <ele>1126</ele>
        <time>2018-09-26T20:52:35Z</time>
      </trkpt>
      <trkpt lat="45.45976" lon="3.96888">
        <ele>1120</ele>
        <time>2018-09-26T20:53:35Z</time>
      </trkpt>
      <trkpt lat="45.46029" lon="3.96913">
        <ele>1113</ele>
        <time>2018-09-26T20:54:35Z</time>
      </trkpt>
      <trkpt lat="45.46171" lon="3.9701">
        <ele>1099</ele>
        <time>2018-09-26T20:55:35Z</time>
      </trkpt>
      <trkpt lat="45.46129" lon="3.97052">
        <ele>1091</ele>
        <time>2018-09-26T20:56:35Z</time>
      </trkpt>
      <trkpt lat="45.46112" lon="3.97113">
        <ele>1078</ele>
        <time>2018-09-26T20:57:35Z</time>
      </trkpt>
      <trkpt lat="45.46105" lon="3.97166">
        <ele>1068</ele>
        <time>2018-09-26T20:58:35Z</time>
      </trkpt>
      <trkpt lat="45.46108" lon="3.972">
        <ele>1063</ele>
        <time>2018-09-26T20:59:35Z</time>
      </trkpt>
      <trkpt lat="45.46096" lon="3.97236">
        <ele>1058</ele>
        <time>2018-09-26T21:00:35Z</time>
      </trkpt>
      <trkpt lat="45.46092" lon="3.97283">
        <ele>1057</ele>
        <time>2018-09-26T21:01:35Z</time>
      </trkpt>
      <trkpt lat="45.4608" lon="3.97307">
        <ele>1057</ele>
        <time>2018-09-26T21:02:35Z</time>
      </trkpt>
      <trkpt lat="45.46045" lon="3.9731">
        <ele>1058</ele>
        <time>2018-09-26T21:03:35Z</time>
      </trkpt>
      <trkpt lat="45.46017" lon="3.97328">
        <ele>1056</ele>
        <time>2018-09-26T21:04:35Z</time>
      </trkpt>
      <trkpt lat="45.45996" lon="3.97345">
        <ele>1055</ele>
        <time>2018-09-26T21:05:35Z</time>
      </trkpt>
      <trkpt lat="45.45998" lon="3.97369">
        <ele>1056</ele>
        <time>2018-09-26T21:06:35Z</time>
      </trkpt>
      <trkpt lat="45.45975" lon="3.97403">
        <ele>1056</ele>
        <time>2018-09-26T21:07:35Z</time>
      </trkpt>
      <trkpt lat="45.45958" lon="3.9743">
        <ele>1054</ele>
        <time>2018-09-26T21:08:35Z</time>
      </trkpt>
      <trkpt lat="45.45938" lon="3.97476">
        <ele>1052</ele>
        <time>2018-09-26T21:09:35Z</time>
      </trkpt>
      <trkpt lat="45.45904" lon="3.97536">
        <ele>1051</ele>
        <time>2018-09-26T21:10:35Z</time>
      </trkpt>
      <trkpt lat="45.45862" lon="3.97596">
        <ele>1048</ele>
        <time>2018-09-26T21:11:35Z</time>
      </trkpt>
      <trkpt lat="45.45848" lon="3.97629">
        <ele>1045</ele>
        <time>2018-09-26T21:12:35Z</time>
      </trkpt>
      <trkpt lat="45.45848" lon="3.97655">
        <ele>1045</ele>
        <time>2018-09-26T21:13:35Z</time>
      </trkpt>
      <trkpt lat="45.45852" lon="3.97732">
        <ele>1041</ele>
        <time>2018-09-26T21:14:35Z</time>
      </trkpt>
      <trkpt lat="45.45852" lon="3.97784">
        <ele>1037</ele>
        <time>2018-09-26T21:15:35Z</time>
      </trkpt>
      <trkpt lat="45.4585" lon="3.97849">
        <ele>1034</ele>
        <time>2018-09-26T21:16:35Z</time>
      </trkpt>
      <trkpt lat="45.4585" lon="3.97911">
        <ele>1035</ele>
        <time>2018-09-26T21:17:35Z</time>
      </trkpt>
      <trkpt lat="45.45854" lon="3.97948">
        <ele>1034</ele>
        <time>2018-09-26T21:18:35Z</time>
      </trkpt>
      <trkpt lat="45.45877" lon="3.97982">
        <ele>1036</ele>
        <time>2018-09-26T21:19:35Z</time>
      </trkpt>
      <trkpt lat="45.45892" lon="3.98023">
        <ele>1035</ele>
        <time>2018-09-26T21:20:35Z</time>
      </trkpt>
      <trkpt lat="45.45902" lon="3.98055">
        <ele>1034</ele>
        <time>2018-09-26T21:21:35Z</time>
      </trkpt>
      <trkpt lat="45.45915" lon="3.98066">
        <ele>1035</ele>
        <time>2018-09-26T21:22:35Z</time>
      </trkpt>
      <trkpt lat="45.45955" lon="3.98048">
        <ele>1037</ele>
        <time>2018-09-26T21:23:35Z</time>
      </trkpt>
      <trkpt lat="45.45991" lon="3.98042">
        <ele>1037</ele>
        <time>2018-09-26T21:24:35Z</time>
      </trkpt>
      <trkpt lat="45.46047" lon="3.98067">
        <ele>1036</ele>
        <time>2018-09-26T21:25:35Z</time>
      </trkpt>
      <trkpt lat="45.46117" lon="3.98045">
        <ele>1037</ele>
        <time>2018-09-26T21:26:35Z</time>
      </trkpt>
      <trkpt lat="45.46205" lon="3.98063">
        <ele>1044</ele>
        <time>2018-09-26T21:27:35Z</time>
      </trkpt>
      <trkpt lat="45.46256" lon="3.98073">
        <ele>1051</ele>
        <time>2018-09-26T21:28:35Z</time>
      </trkpt>
      <trkpt lat="45.46288" lon="3.98061">
        <ele>1056</ele>
        <time>2018-09-26T21:29:35Z</time>
      </trkpt>
      <trkpt lat="45.46298" lon="3.98116">
        <ele>1056</ele>
        <time>2018-09-26T21:30:35Z</time>
      </trkpt>
      <trkpt lat="45.46323" lon="3.98187">
        <ele>1055</ele>
        <time>2018-09-26T21:31:35Z</time>
      </trkpt>
      <trkpt lat="45.46355" lon="3.98227">
        <ele>1047</ele>
        <time>2018-09-26T21:32:35Z</time>
      </trkpt>
      <trkpt lat="45.46393" lon="3.98216">
        <ele>1039</ele>
        <time>2018-09-26T21:33:35Z</time>
      </trkpt>
      <trkpt lat="45.46439" lon="3.98175">
        <ele>1037</ele>
        <time>2018-09-26T21:34:35Z</time>
      </trkpt>
      <trkpt lat="45.46457" lon="3.98152">
        <ele>1038</ele>
        <time>2018-09-26T21:35:35Z</time>
      </trkpt>
      <trkpt lat="45.46475" lon="3.98124">
        <ele>1041</ele>
        <time>2018-09-26T21:36:35Z</time>
      </trkpt>
      <trkpt lat="45.46504" lon="3.98137">
        <ele>1037</ele>
        <time>2018-09-26T21:37:35Z</time>
      </trkpt>
      <trkpt lat="45.46512" lon="3.98166">
        <ele>1034</ele>
        <time>2018-09-26T21:38:35Z</time>
      </trkpt>
      <trkpt lat="45.46519" lon="3.98218">
        <ele>1034</ele>
        <time>2018-09-26T21:39:35Z</time>
      </trkpt>
      <trkpt lat="45.46517" lon="3.98251">
        <ele>1034</ele>
        <time>2018-09-26T21:40:35Z</time>
      </trkpt>
      <trkpt lat="45.46527" lon="3.98269">
        <ele>1036</ele>
        <time>2018-09-26T21:41:35Z</time>
      </trkpt>
      <trkpt lat="45.46497" lon="3.98295">
        <ele>1034</ele>
        <time>2018-09-26T21:42:35Z</time>
      </trkpt>
      <trkpt lat="45.46501" lon="3.98359">
        <ele>1040</ele>
        <time>2018-09-26T21:43:35Z</time>
      </trkpt>
      <trkpt lat="45.46499" lon="3.98381">
        <ele>1043</ele>
        <time>2018-09-26T21:44:35Z</time>
      </trkpt>
      <trkpt lat="45.46488" lon="3.9841">
        <ele>1044</ele>
        <time>2018-09-26T21:45:35Z</time>
      </trkpt>
      <trkpt lat="45.46477" lon="3.98445">
        <ele>1045</ele>
        <time>2018-09-26T21:46:35Z</time>
      </trkpt>
      <trkpt lat="45.46469" lon="3.98491">
        <ele>1048</ele>
        <time>2018-09-26T21:47:35Z</time>
      </trkpt>
      <trkpt lat="45.46472" lon="3.98532">
        <ele>1051</ele>
        <time>2018-09-26T21:48:35Z</time>
      </trkpt>
      <trkpt lat="45.46471" lon="3.98556">
        <ele>1053</ele>
        <time>2018-09-26T21:49:35Z</time>
      </trkpt>
      <trkpt lat="45.46458" lon="3.98588">
        <ele>1055</ele>
        <time>2018-09-26T21:50:35Z</time>
      </trkpt>
      <trkpt lat="45.46427" lon="3.98605">
        <ele>1056</ele>
        <time>2018-09-26T21:51:35Z</time>
      </trkpt>
      <trkpt lat="45.46413" lon="3.98638">
        <ele>1060</ele>
        <time>2018-09-26T21:52:35Z</time>
      </trkpt>
      <trkpt lat="45.46371" lon="3.98708">
        <ele>1061</ele>
        <time>2018-09-26T21:53:35Z</time>
      </trkpt>
      <trkpt lat="45.46348" lon="3.98749">
        <ele>1063</ele>
        <time>2018-09-26T21:54:35Z</time>
      </trkpt>
      <trkpt lat="45.46331" lon="3.98793">
        <ele>1066</ele>
        <time>2018-09-26T21:55:35Z</time>
      </trkpt>
      <trkpt lat="45.46309" lon="3.98829">
        <ele>1067</ele>
        <time>2018-09-26T21:56:35Z</time>
      </trkpt>
      <trkpt lat="45.46303" lon="3.98843">
        <ele>1068</ele>
        <time>2018-09-26T21:57:35Z</time>
      </trkpt>
    </trkseg>
  </trk>
  <trk>
    <name><![CDATA[J5  La Chapelle en Lafayes Aboen]]></name>
    <trkseg>
      <trkpt lat="45.46304" lon="3.98835">
        <ele>1067</ele>
        <time>2018-09-26T14:38:42Z</time>
      </trkpt>
      <trkpt lat="45.4628" lon="3.98908">
        <ele>1071</ele>
        <time>2018-09-26T14:39:42Z</time>
      </trkpt>
      <trkpt lat="45.4627" lon="3.98953">
        <ele>1072</ele>
        <time>2018-09-26T14:40:42Z</time>
      </trkpt>
      <trkpt lat="45.46248" lon="3.99017">
        <ele>1072</ele>
        <time>2018-09-26T14:41:42Z</time>
      </trkpt>
      <trkpt lat="45.46204" lon="3.99072">
        <ele>1070</ele>
        <time>2018-09-26T14:42:42Z</time>
      </trkpt>
      <trkpt lat="45.46176" lon="3.99117">
        <ele>1072</ele>
        <time>2018-09-26T14:43:42Z</time>
      </trkpt>
      <trkpt lat="45.46148" lon="3.99169">
        <ele>1076</ele>
        <time>2018-09-26T14:44:42Z</time>
      </trkpt>
      <trkpt lat="45.46131" lon="3.99221">
        <ele>1084</ele>
        <time>2018-09-26T14:45:42Z</time>
      </trkpt>
      <trkpt lat="45.46114" lon="3.99293">
        <ele>1094</ele>
        <time>2018-09-26T14:46:42Z</time>
      </trkpt>
      <trkpt lat="45.46084" lon="3.9936">
        <ele>1103</ele>
        <time>2018-09-26T14:47:42Z</time>
      </trkpt>
      <trkpt lat="45.46065" lon="3.99403">
        <ele>1109</ele>
        <time>2018-09-26T14:48:42Z</time>
      </trkpt>
      <trkpt lat="45.46029" lon="3.99478">
        <ele>1121</ele>
        <time>2018-09-26T14:49:42Z</time>
      </trkpt>
      <trkpt lat="45.46021" lon="3.99512">
        <ele>1124</ele>
        <time>2018-09-26T14:50:42Z</time>
      </trkpt>
      <trkpt lat="45.45981" lon="3.99516">
        <ele>1130</ele>
        <time>2018-09-26T14:51:42Z</time>
      </trkpt>
      <trkpt lat="45.45947" lon="3.99526">
        <ele>1136</ele>
        <time>2018-09-26T14:52:42Z</time>
      </trkpt>
      <trkpt lat="45.45941" lon="3.99566">
        <ele>1137</ele>
        <time>2018-09-26T14:53:42Z</time>
      </trkpt>
      <trkpt lat="45.45937" lon="3.99579">
        <ele>1138</ele>
        <time>2018-09-26T14:54:42Z</time>
      </trkpt>
      <trkpt lat="45.45951" lon="3.996">
        <ele>1135</ele>
        <time>2018-09-26T14:55:42Z</time>
      </trkpt>
      <trkpt lat="45.45943" lon="3.99635">
        <ele>1133</ele>
        <time>2018-09-26T14:56:42Z</time>
      </trkpt>
      <trkpt lat="45.45938" lon="3.99661">
        <ele>1131</ele>
        <time>2018-09-26T14:57:42Z</time>
      </trkpt>
      <trkpt lat="45.4593" lon="3.99677">
        <ele>1129</ele>
        <time>2018-09-26T14:58:42Z</time>
      </trkpt>
      <trkpt lat="45.45925" lon="3.99689">
        <ele>1127</ele>
        <time>2018-09-26T14:59:42Z</time>
      </trkpt>
      <trkpt lat="45.45949" lon="3.99727">
        <ele>1124</ele>
        <time>2018-09-26T15:00:42Z</time>
      </trkpt>
      <trkpt lat="45.45962" lon="3.99756">
        <ele>1122</ele>
        <time>2018-09-26T15:01:42Z</time>
      </trkpt>
      <trkpt lat="45.45966" lon="3.9979">
        <ele>1118</ele>
        <time>2018-09-26T15:02:42Z</time>
      </trkpt>
      <trkpt lat="45.45957" lon="3.99815">
        <ele>1113</ele>
        <time>2018-09-26T15:03:42Z</time>
      </trkpt>
      <trkpt lat="45.45988" lon="3.99856">
        <ele>1112</ele>
        <time>2018-09-26T15:04:42Z</time>
      </trkpt>
      <trkpt lat="45.46003" lon="3.99905">
        <ele>1106</ele>
        <time>2018-09-26T15:05:42Z</time>
      </trkpt>
      <trkpt lat="45.46011" lon="3.9995">
        <ele>1100</ele>
        <time>2018-09-26T15:06:42Z</time>
      </trkpt>
      <trkpt lat="45.46046" lon="3.99996">
        <ele>1100</ele>
        <time>2018-09-26T15:07:42Z</time>
      </trkpt>
      <trkpt lat="45.46064" lon="4.00034">
        <ele>1098</ele>
        <time>2018-09-26T15:08:42Z</time>
      </trkpt>
      <trkpt lat="45.4607" lon="4.00069">
        <ele>1095</ele>
        <time>2018-09-26T15:09:42Z</time>
      </trkpt>
      <trkpt lat="45.46078" lon="4.00096">
        <ele>1093</ele>
        <time>2018-09-26T15:10:42Z</time>
      </trkpt>
      <trkpt lat="45.46082" lon="4.00131">
        <ele>1091</ele>
        <time>2018-09-26T15:11:42Z</time>
      </trkpt>
      <trkpt lat="45.46081" lon="4.00155">
        <ele>1088</ele>
        <time>2018-09-26T15:12:42Z</time>
      </trkpt>
      <trkpt lat="45.4607" lon="4.00183">
        <ele>1083</ele>
        <time>2018-09-26T15:13:42Z</time>
      </trkpt>
      <trkpt lat="45.46072" lon="4.00208">
        <ele>1082</ele>
        <time>2018-09-26T15:14:42Z</time>
      </trkpt>
      <trkpt lat="45.46077" lon="4.00248">
        <ele>1081</ele>
        <time>2018-09-26T15:15:42Z</time>
      </trkpt>
      <trkpt lat="45.4607" lon="4.00274">
        <ele>1078</ele>
        <time>2018-09-26T15:16:42Z</time>
      </trkpt>
      <trkpt lat="45.46062" lon="4.00289">
        <ele>1076</ele>
        <time>2018-09-26T15:17:42Z</time>
      </trkpt>
      <trkpt lat="45.46068" lon="4.00316">
        <ele>1076</ele>
        <time>2018-09-26T15:18:42Z</time>
      </trkpt>
      <trkpt lat="45.46083" lon="4.00354">
        <ele>1077</ele>
        <time>2018-09-26T15:19:42Z</time>
      </trkpt>
      <trkpt lat="45.46082" lon="4.00389">
        <ele>1074</ele>
        <time>2018-09-26T15:20:42Z</time>
      </trkpt>
      <trkpt lat="45.46083" lon="4.00425">
        <ele>1073</ele>
        <time>2018-09-26T15:21:42Z</time>
      </trkpt>
      <trkpt lat="45.46075" lon="4.00451">
        <ele>1071</ele>
        <time>2018-09-26T15:22:42Z</time>
      </trkpt>
      <trkpt lat="45.46071" lon="4.00477">
        <ele>1069</ele>
        <time>2018-09-26T15:23:42Z</time>
      </trkpt>
      <trkpt lat="45.46077" lon="4.00522">
        <ele>1071</ele>
        <time>2018-09-26T15:24:42Z</time>
      </trkpt>
      <trkpt lat="45.46074" lon="4.00538">
        <ele>1072</ele>
        <time>2018-09-26T15:25:42Z</time>
      </trkpt>
      <trkpt lat="45.46065" lon="4.00556">
        <ele>1072</ele>
        <time>2018-09-26T15:26:42Z</time>
      </trkpt>
      <trkpt lat="45.46045" lon="4.00575">
        <ele>1072</ele>
        <time>2018-09-26T15:27:42Z</time>
      </trkpt>
      <trkpt lat="45.46014" lon="4.00582">
        <ele>1069</ele>
        <time>2018-09-26T15:28:42Z</time>
      </trkpt>
      <trkpt lat="45.45982" lon="4.00594">
        <ele>1066</ele>
        <time>2018-09-26T15:29:42Z</time>
      </trkpt>
      <trkpt lat="45.45958" lon="4.00601">
        <ele>1064</ele>
        <time>2018-09-26T15:30:42Z</time>
      </trkpt>
      <trkpt lat="45.45937" lon="4.00623">
        <ele>1065</ele>
        <time>2018-09-26T15:31:42Z</time>
      </trkpt>
      <trkpt lat="45.4591" lon="4.00645">
        <ele>1065</ele>
        <time>2018-09-26T15:32:42Z</time>
      </trkpt>
      <trkpt lat="45.45887" lon="4.00683">
        <ele>1069</ele>
        <time>2018-09-26T15:33:42Z</time>
      </trkpt>
      <trkpt lat="45.45867" lon="4.00715">
        <ele>1070</ele>
        <time>2018-09-26T15:34:42Z</time>
      </trkpt>
      <trkpt lat="45.45824" lon="4.00753">
        <ele>1067</ele>
        <time>2018-09-26T15:35:42Z</time>
      </trkpt>
      <trkpt lat="45.45786" lon="4.00791">
        <ele>1066</ele>
        <time>2018-09-26T15:36:42Z</time>
      </trkpt>
      <trkpt lat="45.4575" lon="4.00849">
        <ele>1068</ele>
        <time>2018-09-26T15:37:42Z</time>
      </trkpt>
      <trkpt lat="45.45735" lon="4.00859">
        <ele>1068</ele>
        <time>2018-09-26T15:38:42Z</time>
      </trkpt>
      <trkpt lat="45.45726" lon="4.00883">
        <ele>1069</ele>
        <time>2018-09-26T15:39:42Z</time>
      </trkpt>
      <trkpt lat="45.45713" lon="4.00897">
        <ele>1069</ele>
        <time>2018-09-26T15:40:42Z</time>
      </trkpt>
      <trkpt lat="45.45698" lon="4.00929">
        <ele>1071</ele>
        <time>2018-09-26T15:41:42Z</time>
      </trkpt>
      <trkpt lat="45.45678" lon="4.00941">
        <ele>1070</ele>
        <time>2018-09-26T15:42:42Z</time>
      </trkpt>
      <trkpt lat="45.4561" lon="4.00994">
        <ele>1072</ele>
        <time>2018-09-26T15:43:42Z</time>
      </trkpt>
      <trkpt lat="45.45544" lon="4.01032">
        <ele>1074</ele>
        <time>2018-09-26T15:44:42Z</time>
      </trkpt>
      <trkpt lat="45.45429" lon="4.01099">
        <ele>1078</ele>
        <time>2018-09-26T15:45:42Z</time>
      </trkpt>
      <trkpt lat="45.45402" lon="4.01132">
        <ele>1077</ele>
        <time>2018-09-26T15:46:42Z</time>
      </trkpt>
      <trkpt lat="45.45417" lon="4.01144">
        <ele>1078</ele>
        <time>2018-09-26T15:47:42Z</time>
      </trkpt>
      <trkpt lat="45.45447" lon="4.01155">
        <ele>1079</ele>
        <time>2018-09-26T15:48:42Z</time>
      </trkpt>
      <trkpt lat="45.45487" lon="4.01172">
        <ele>1081</ele>
        <time>2018-09-26T15:49:42Z</time>
      </trkpt>
      <trkpt lat="45.45517" lon="4.01204">
        <ele>1084</ele>
        <time>2018-09-26T15:50:42Z</time>
      </trkpt>
      <trkpt lat="45.4553" lon="4.01252">
        <ele>1088</ele>
        <time>2018-09-26T15:51:42Z</time>
      </trkpt>
      <trkpt lat="45.45557" lon="4.01284">
        <ele>1091</ele>
        <time>2018-09-26T15:52:42Z</time>
      </trkpt>
      <trkpt lat="45.45606" lon="4.01316">
        <ele>1094</ele>
        <time>2018-09-26T15:53:42Z</time>
      </trkpt>
      <trkpt lat="45.45703" lon="4.01378">
        <ele>1097</ele>
        <time>2018-09-26T15:54:42Z</time>
      </trkpt>
      <trkpt lat="45.45786" lon="4.01389">
        <ele>1105</ele>
        <time>2018-09-26T15:55:42Z</time>
      </trkpt>
      <trkpt lat="45.45861" lon="4.01395">
        <ele>1110</ele>
        <time>2018-09-26T15:56:42Z</time>
      </trkpt>
      <trkpt lat="45.45912" lon="4.01436">
        <ele>1116</ele>
        <time>2018-09-26T15:57:42Z</time>
      </trkpt>
      <trkpt lat="45.45944" lon="4.01446">
        <ele>1119</ele>
        <time>2018-09-26T15:58:42Z</time>
      </trkpt>
      <trkpt lat="45.46016" lon="4.01446">
        <ele>1122</ele>
        <time>2018-09-26T15:59:42Z</time>
      </trkpt>
      <trkpt lat="45.46054" lon="4.01446">
        <ele>1122</ele>
        <time>2018-09-26T16:00:42Z</time>
      </trkpt>
      <trkpt lat="45.46083" lon="4.01468">
        <ele>1123</ele>
        <time>2018-09-26T16:01:42Z</time>
      </trkpt>
      <trkpt lat="45.46078" lon="4.01612">
        <ele>1128</ele>
        <time>2018-09-26T16:02:42Z</time>
      </trkpt>
      <trkpt lat="45.46065" lon="4.01662">
        <ele>1131</ele>
        <time>2018-09-26T16:03:42Z</time>
      </trkpt>
      <trkpt lat="45.46057" lon="4.01694">
        <ele>1131</ele>
        <time>2018-09-26T16:04:42Z</time>
      </trkpt>
      <trkpt lat="45.46029" lon="4.01736">
        <ele>1132</ele>
        <time>2018-09-26T16:05:42Z</time>
      </trkpt>
      <trkpt lat="45.4597" lon="4.0187">
        <ele>1133</ele>
        <time>2018-09-26T16:06:42Z</time>
      </trkpt>
      <trkpt lat="45.45923" lon="4.01985">
        <ele>1128</ele>
        <time>2018-09-26T16:07:42Z</time>
      </trkpt>
      <trkpt lat="45.45887" lon="4.02078">
        <ele>1126</ele>
        <time>2018-09-26T16:08:42Z</time>
      </trkpt>
      <trkpt lat="45.45861" lon="4.02169">
        <ele>1123</ele>
        <time>2018-09-26T16:09:42Z</time>
      </trkpt>
      <trkpt lat="45.45845" lon="4.02228">
        <ele>1121</ele>
        <time>2018-09-26T16:10:42Z</time>
      </trkpt>
      <trkpt lat="45.4584" lon="4.02263">
        <ele>1119</ele>
        <time>2018-09-26T16:11:42Z</time>
      </trkpt>
      <trkpt lat="45.45826" lon="4.02361">
        <ele>1114</ele>
        <time>2018-09-26T16:12:42Z</time>
      </trkpt>
      <trkpt lat="45.45807" lon="4.0246">
        <ele>1108</ele>
        <time>2018-09-26T16:13:42Z</time>
      </trkpt>
      <trkpt lat="45.45785" lon="4.02515">
        <ele>1104</ele>
        <time>2018-09-26T16:14:42Z</time>
      </trkpt>
      <trkpt lat="45.45785" lon="4.02553">
        <ele>1101</ele>
        <time>2018-09-26T16:15:42Z</time>
      </trkpt>
      <trkpt lat="45.45832" lon="4.02677">
        <ele>1093</ele>
        <time>2018-09-26T16:16:42Z</time>
      </trkpt>
      <trkpt lat="45.45833" lon="4.02715">
        <ele>1095</ele>
        <time>2018-09-26T16:17:42Z</time>
      </trkpt>
      <trkpt lat="45.45869" lon="4.02823">
        <ele>1095</ele>
        <time>2018-09-26T16:18:42Z</time>
      </trkpt>
      <trkpt lat="45.45893" lon="4.02955">
        <ele>1092</ele>
        <time>2018-09-26T16:19:42Z</time>
      </trkpt>
      <trkpt lat="45.45878" lon="4.03055">
        <ele>1093</ele>
        <time>2018-09-26T16:20:42Z</time>
      </trkpt>
      <trkpt lat="45.45878" lon="4.03118">
        <ele>1091</ele>
        <time>2018-09-26T16:21:42Z</time>
      </trkpt>
      <trkpt lat="45.45875" lon="4.03144">
        <ele>1090</ele>
        <time>2018-09-26T16:22:42Z</time>
      </trkpt>
      <trkpt lat="45.45861" lon="4.03196">
        <ele>1088</ele>
        <time>2018-09-26T16:23:42Z</time>
      </trkpt>
      <trkpt lat="45.45857" lon="4.03237">
        <ele>1087</ele>
        <time>2018-09-26T16:24:42Z</time>
      </trkpt>
      <trkpt lat="45.45849" lon="4.03281">
        <ele>1086</ele>
        <time>2018-09-26T16:25:42Z</time>
      </trkpt>
      <trkpt lat="45.45806" lon="4.03367">
        <ele>1081</ele>
        <time>2018-09-26T16:26:42Z</time>
      </trkpt>
      <trkpt lat="45.45804" lon="4.03396">
        <ele>1079</ele>
        <time>2018-09-26T16:27:42Z</time>
      </trkpt>
      <trkpt lat="45.45799" lon="4.03448">
        <ele>1076</ele>
        <time>2018-09-26T16:28:42Z</time>
      </trkpt>
      <trkpt lat="45.45784" lon="4.03531">
        <ele>1072</ele>
        <time>2018-09-26T16:29:42Z</time>
      </trkpt>
      <trkpt lat="45.45796" lon="4.03561">
        <ele>1070</ele>
        <time>2018-09-26T16:30:42Z</time>
      </trkpt>
      <trkpt lat="45.45797" lon="4.03602">
        <ele>1067</ele>
        <time>2018-09-26T16:31:42Z</time>
      </trkpt>
      <trkpt lat="45.45796" lon="4.03653">
        <ele>1061</ele>
        <time>2018-09-26T16:32:42Z</time>
      </trkpt>
      <trkpt lat="45.45789" lon="4.03748">
        <ele>1051</ele>
        <time>2018-09-26T16:33:42Z</time>
      </trkpt>
      <trkpt lat="45.45775" lon="4.03792">
        <ele>1047</ele>
        <time>2018-09-26T16:34:42Z</time>
      </trkpt>
      <trkpt lat="45.45762" lon="4.03851">
        <ele>1043</ele>
        <time>2018-09-26T16:35:42Z</time>
      </trkpt>
      <trkpt lat="45.45748" lon="4.0388">
        <ele>1041</ele>
        <time>2018-09-26T16:36:42Z</time>
      </trkpt>
      <trkpt lat="45.45816" lon="4.03906">
        <ele>1044</ele>
        <time>2018-09-26T16:37:42Z</time>
      </trkpt>
      <trkpt lat="45.45834" lon="4.03938">
        <ele>1043</ele>
        <time>2018-09-26T16:38:42Z</time>
      </trkpt>
      <trkpt lat="45.45848" lon="4.03982">
        <ele>1042</ele>
        <time>2018-09-26T16:39:42Z</time>
      </trkpt>
      <trkpt lat="45.45857" lon="4.04018">
        <ele>1040</ele>
        <time>2018-09-26T16:40:42Z</time>
      </trkpt>
      <trkpt lat="45.45938" lon="4.04047">
        <ele>1046</ele>
        <time>2018-09-26T16:41:42Z</time>
      </trkpt>
      <trkpt lat="45.45974" lon="4.04102">
        <ele>1044</ele>
        <time>2018-09-26T16:42:42Z</time>
      </trkpt>
      <trkpt lat="45.45983" lon="4.0414">
        <ele>1039</ele>
        <time>2018-09-26T16:43:42Z</time>
      </trkpt>
      <trkpt lat="45.46" lon="4.04173">
        <ele>1036</ele>
        <time>2018-09-26T16:44:42Z</time>
      </trkpt>
      <trkpt lat="45.46066" lon="4.04246">
        <ele>1024</ele>
        <time>2018-09-26T16:45:42Z</time>
      </trkpt>
      <trkpt lat="45.46104" lon="4.0429">
        <ele>1017</ele>
        <time>2018-09-26T16:46:42Z</time>
      </trkpt>
      <trkpt lat="45.46132" lon="4.04313">
        <ele>1013</ele>
        <time>2018-09-26T16:47:42Z</time>
      </trkpt>
      <trkpt lat="45.46171" lon="4.04325">
        <ele>1011</ele>
        <time>2018-09-26T16:48:42Z</time>
      </trkpt>
      <trkpt lat="45.46215" lon="4.04347">
        <ele>1004</ele>
        <time>2018-09-26T16:49:42Z</time>
      </trkpt>
      <trkpt lat="45.46261" lon="4.04375">
        <ele>996</ele>
        <time>2018-09-26T16:50:42Z</time>
      </trkpt>
      <trkpt lat="45.46283" lon="4.04393">
        <ele>991</ele>
        <time>2018-09-26T16:51:42Z</time>
      </trkpt>
      <trkpt lat="45.46321" lon="4.04352">
        <ele>991</ele>
        <time>2018-09-26T16:52:42Z</time>
      </trkpt>
      <trkpt lat="45.46339" lon="4.04382">
        <ele>985</ele>
        <time>2018-09-26T16:53:42Z</time>
      </trkpt>
      <trkpt lat="45.46353" lon="4.04408">
        <ele>982</ele>
        <time>2018-09-26T16:54:42Z</time>
      </trkpt>
      <trkpt lat="45.46366" lon="4.04429">
        <ele>978</ele>
        <time>2018-09-26T16:55:42Z</time>
      </trkpt>
      <trkpt lat="45.46382" lon="4.04428">
        <ele>978</ele>
        <time>2018-09-26T16:56:42Z</time>
      </trkpt>
      <trkpt lat="45.46381" lon="4.0445">
        <ele>975</ele>
        <time>2018-09-26T16:57:42Z</time>
      </trkpt>
      <trkpt lat="45.46433" lon="4.04455">
        <ele>971</ele>
        <time>2018-09-26T16:58:42Z</time>
      </trkpt>
      <trkpt lat="45.46453" lon="4.04491">
        <ele>965</ele>
        <time>2018-09-26T16:59:42Z</time>
      </trkpt>
      <trkpt lat="45.46463" lon="4.04507">
        <ele>962</ele>
        <time>2018-09-26T17:00:42Z</time>
      </trkpt>
      <trkpt lat="45.46469" lon="4.04522">
        <ele>960</ele>
        <time>2018-09-26T17:01:42Z</time>
      </trkpt>
      <trkpt lat="45.46501" lon="4.04526">
        <ele>958</ele>
        <time>2018-09-26T17:02:42Z</time>
      </trkpt>
      <trkpt lat="45.46538" lon="4.04498">
        <ele>958</ele>
        <time>2018-09-26T17:03:42Z</time>
      </trkpt>
      <trkpt lat="45.46595" lon="4.04492">
        <ele>954</ele>
        <time>2018-09-26T17:04:42Z</time>
      </trkpt>
      <trkpt lat="45.4665" lon="4.04474">
        <ele>952</ele>
        <time>2018-09-26T17:05:42Z</time>
      </trkpt>
      <trkpt lat="45.46717" lon="4.04471">
        <ele>947</ele>
        <time>2018-09-26T17:06:42Z</time>
      </trkpt>
      <trkpt lat="45.46743" lon="4.0446">
        <ele>945</ele>
        <time>2018-09-26T17:07:42Z</time>
      </trkpt>
      <trkpt lat="45.46778" lon="4.04428">
        <ele>940</ele>
        <time>2018-09-26T17:08:42Z</time>
      </trkpt>
      <trkpt lat="45.46809" lon="4.044">
        <ele>933</ele>
        <time>2018-09-26T17:09:42Z</time>
      </trkpt>
      <trkpt lat="45.46851" lon="4.04335">
        <ele>923</ele>
        <time>2018-09-26T17:10:42Z</time>
      </trkpt>
      <trkpt lat="45.46887" lon="4.04269">
        <ele>910</ele>
        <time>2018-09-26T17:11:42Z</time>
      </trkpt>
      <trkpt lat="45.46905" lon="4.04256">
        <ele>904</ele>
        <time>2018-09-26T17:12:42Z</time>
      </trkpt>
      <trkpt lat="45.46937" lon="4.04229">
        <ele>893</ele>
        <time>2018-09-26T17:13:42Z</time>
      </trkpt>
      <trkpt lat="45.46945" lon="4.0419">
        <ele>890</ele>
        <time>2018-09-26T17:14:42Z</time>
      </trkpt>
      <trkpt lat="45.46952" lon="4.0416">
        <ele>889</ele>
        <time>2018-09-26T17:15:42Z</time>
      </trkpt>
      <trkpt lat="45.46969" lon="4.04149">
        <ele>886</ele>
        <time>2018-09-26T17:16:42Z</time>
      </trkpt>
      <trkpt lat="45.47002" lon="4.04149">
        <ele>880</ele>
        <time>2018-09-26T17:17:42Z</time>
      </trkpt>
      <trkpt lat="45.47024" lon="4.04172">
        <ele>881</ele>
        <time>2018-09-26T17:18:42Z</time>
      </trkpt>
      <trkpt lat="45.47058" lon="4.04156">
        <ele>885</ele>
        <time>2018-09-26T17:19:42Z</time>
      </trkpt>
      <trkpt lat="45.47088" lon="4.04165">
        <ele>887</ele>
        <time>2018-09-26T17:20:42Z</time>
      </trkpt>
      <trkpt lat="45.47131" lon="4.04193">
        <ele>892</ele>
        <time>2018-09-26T17:21:42Z</time>
      </trkpt>
      <trkpt lat="45.47161" lon="4.04222">
        <ele>896</ele>
        <time>2018-09-26T17:22:42Z</time>
      </trkpt>
      <trkpt lat="45.47194" lon="4.04255">
        <ele>899</ele>
        <time>2018-09-26T17:23:42Z</time>
      </trkpt>
      <trkpt lat="45.47231" lon="4.04285">
        <ele>904</ele>
        <time>2018-09-26T17:24:42Z</time>
      </trkpt>
      <trkpt lat="45.47259" lon="4.04294">
        <ele>907</ele>
        <time>2018-09-26T17:25:42Z</time>
      </trkpt>
      <trkpt lat="45.4729" lon="4.04289">
        <ele>905</ele>
        <time>2018-09-26T17:26:42Z</time>
      </trkpt>
      <trkpt lat="45.47319" lon="4.04282">
        <ele>903</ele>
        <time>2018-09-26T17:27:42Z</time>
      </trkpt>
      <trkpt lat="45.47336" lon="4.04278">
        <ele>902</ele>
        <time>2018-09-26T17:28:42Z</time>
      </trkpt>
      <trkpt lat="45.47339" lon="4.043">
        <ele>901</ele>
        <time>2018-09-26T17:29:42Z</time>
      </trkpt>
      <trkpt lat="45.47352" lon="4.04335">
        <ele>897</ele>
        <time>2018-09-26T17:30:42Z</time>
      </trkpt>
      <trkpt lat="45.47376" lon="4.04385">
        <ele>889</ele>
        <time>2018-09-26T17:31:42Z</time>
      </trkpt>
      <trkpt lat="45.47396" lon="4.04435">
        <ele>880</ele>
        <time>2018-09-26T17:32:42Z</time>
      </trkpt>
      <trkpt lat="45.47413" lon="4.04484">
        <ele>871</ele>
        <time>2018-09-26T17:33:42Z</time>
      </trkpt>
      <trkpt lat="45.47419" lon="4.04518">
        <ele>866</ele>
        <time>2018-09-26T17:34:42Z</time>
      </trkpt>
      <trkpt lat="45.47418" lon="4.04554">
        <ele>862</ele>
        <time>2018-09-26T17:35:42Z</time>
      </trkpt>
      <trkpt lat="45.47418" lon="4.04579">
        <ele>858</ele>
        <time>2018-09-26T17:36:42Z</time>
      </trkpt>
      <trkpt lat="45.47418" lon="4.04626">
        <ele>851</ele>
        <time>2018-09-26T17:37:42Z</time>
      </trkpt>
      <trkpt lat="45.4741" lon="4.04666">
        <ele>845</ele>
        <time>2018-09-26T17:38:42Z</time>
      </trkpt>
      <trkpt lat="45.4741" lon="4.04818">
        <ele>830</ele>
        <time>2018-09-26T17:39:42Z</time>
      </trkpt>
      <trkpt lat="45.47414" lon="4.04912">
        <ele>824</ele>
        <time>2018-09-26T17:40:42Z</time>
      </trkpt>
      <trkpt lat="45.47407" lon="4.0494">
        <ele>823</ele>
        <time>2018-09-26T17:41:42Z</time>
      </trkpt>
      <trkpt lat="45.47394" lon="4.0498">
        <ele>820</ele>
        <time>2018-09-26T17:42:42Z</time>
      </trkpt>
      <trkpt lat="45.47359" lon="4.05085">
        <ele>818</ele>
        <time>2018-09-26T17:43:42Z</time>
      </trkpt>
      <trkpt lat="45.47339" lon="4.05147">
        <ele>817</ele>
        <time>2018-09-26T17:44:42Z</time>
      </trkpt>
      <trkpt lat="45.47343" lon="4.05203">
        <ele>814</ele>
        <time>2018-09-26T17:45:42Z</time>
      </trkpt>
      <trkpt lat="45.47339" lon="4.0525">
        <ele>811</ele>
        <time>2018-09-26T17:46:42Z</time>
      </trkpt>
      <trkpt lat="45.47337" lon="4.05294">
        <ele>808</ele>
        <time>2018-09-26T17:47:42Z</time>
      </trkpt>
      <trkpt lat="45.47329" lon="4.05356">
        <ele>804</ele>
        <time>2018-09-26T17:48:42Z</time>
      </trkpt>
      <trkpt lat="45.47319" lon="4.0542">
        <ele>802</ele>
        <time>2018-09-26T17:49:42Z</time>
      </trkpt>
      <trkpt lat="45.47307" lon="4.0547">
        <ele>800</ele>
        <time>2018-09-26T17:50:42Z</time>
      </trkpt>
      <trkpt lat="45.4727" lon="4.05542">
        <ele>795</ele>
        <time>2018-09-26T17:51:42Z</time>
      </trkpt>
      <trkpt lat="45.47262" lon="4.05565">
        <ele>794</ele>
        <time>2018-09-26T17:52:42Z</time>
      </trkpt>
      <trkpt lat="45.47249" lon="4.05591">
        <ele>791</ele>
        <time>2018-09-26T17:53:42Z</time>
      </trkpt>
      <trkpt lat="45.4724" lon="4.05617">
        <ele>789</ele>
        <time>2018-09-26T17:54:42Z</time>
      </trkpt>
      <trkpt lat="45.4721" lon="4.05637">
        <ele>784</ele>
        <time>2018-09-26T17:55:42Z</time>
      </trkpt>
      <trkpt lat="45.47187" lon="4.05643">
        <ele>782</ele>
        <time>2018-09-26T17:56:42Z</time>
      </trkpt>
      <trkpt lat="45.47168" lon="4.05669">
        <ele>778</ele>
        <time>2018-09-26T17:57:42Z</time>
      </trkpt>
      <trkpt lat="45.47154" lon="4.05703">
        <ele>769</ele>
        <time>2018-09-26T17:58:42Z</time>
      </trkpt>
      <trkpt lat="45.47148" lon="4.05708">
        <ele>767</ele>
        <time>2018-09-26T17:59:42Z</time>
      </trkpt>
      <trkpt lat="45.47118" lon="4.05699">
        <ele>763</ele>
        <time>2018-09-26T18:00:42Z</time>
      </trkpt>
      <trkpt lat="45.47086" lon="4.05683">
        <ele>757</ele>
        <time>2018-09-26T18:01:42Z</time>
      </trkpt>
      <trkpt lat="45.47061" lon="4.05645">
        <ele>760</ele>
        <time>2018-09-26T18:02:42Z</time>
      </trkpt>
      <trkpt lat="45.47048" lon="4.0563">
        <ele>762</ele>
        <time>2018-09-26T18:03:42Z</time>
      </trkpt>
      <trkpt lat="45.47031" lon="4.05626">
        <ele>763</ele>
        <time>2018-09-26T18:04:42Z</time>
      </trkpt>
      <trkpt lat="45.47021" lon="4.05634">
        <ele>762</ele>
        <time>2018-09-26T18:05:42Z</time>
      </trkpt>
      <trkpt lat="45.4702" lon="4.05666">
        <ele>758</ele>
        <time>2018-09-26T18:06:42Z</time>
      </trkpt>
      <trkpt lat="45.47021" lon="4.05685">
        <ele>758</ele>
        <time>2018-09-26T18:07:42Z</time>
      </trkpt>
      <trkpt lat="45.47009" lon="4.05704">
        <ele>757</ele>
        <time>2018-09-26T18:08:42Z</time>
      </trkpt>
      <trkpt lat="45.47006" lon="4.0572">
        <ele>757</ele>
        <time>2018-09-26T18:09:42Z</time>
      </trkpt>
      <trkpt lat="45.47018" lon="4.05756">
        <ele>757</ele>
        <time>2018-09-26T18:10:42Z</time>
      </trkpt>
      <trkpt lat="45.47039" lon="4.05798">
        <ele>758</ele>
        <time>2018-09-26T18:11:42Z</time>
      </trkpt>
      <trkpt lat="45.47051" lon="4.05826">
        <ele>758</ele>
        <time>2018-09-26T18:12:42Z</time>
      </trkpt>
      <trkpt lat="45.47041" lon="4.05843">
        <ele>761</ele>
        <time>2018-09-26T18:13:42Z</time>
      </trkpt>
      <trkpt lat="45.47013" lon="4.05855">
        <ele>768</ele>
        <time>2018-09-26T18:14:42Z</time>
      </trkpt>
      <trkpt lat="45.46995" lon="4.05848">
        <ele>771</ele>
        <time>2018-09-26T18:15:42Z</time>
      </trkpt>
      <trkpt lat="45.46951" lon="4.05809">
        <ele>774</ele>
        <time>2018-09-26T18:16:42Z</time>
      </trkpt>
      <trkpt lat="45.46924" lon="4.05779">
        <ele>775</ele>
        <time>2018-09-26T18:17:42Z</time>
      </trkpt>
      <trkpt lat="45.469" lon="4.05765">
        <ele>776</ele>
        <time>2018-09-26T18:18:42Z</time>
      </trkpt>
      <trkpt lat="45.46882" lon="4.05759">
        <ele>776</ele>
        <time>2018-09-26T18:19:42Z</time>
      </trkpt>
      <trkpt lat="45.46854" lon="4.05758">
        <ele>777</ele>
        <time>2018-09-26T18:20:42Z</time>
      </trkpt>
      <trkpt lat="45.46828" lon="4.05741">
        <ele>778</ele>
        <time>2018-09-26T18:21:42Z</time>
      </trkpt>
      <trkpt lat="45.46798" lon="4.05725">
        <ele>783</ele>
        <time>2018-09-26T18:22:42Z</time>
      </trkpt>
      <trkpt lat="45.46781" lon="4.05732">
        <ele>787</ele>
        <time>2018-09-26T18:23:42Z</time>
      </trkpt>
      <trkpt lat="45.46761" lon="4.0573">
        <ele>791</ele>
        <time>2018-09-26T18:24:42Z</time>
      </trkpt>
      <trkpt lat="45.46746" lon="4.05721">
        <ele>793</ele>
        <time>2018-09-26T18:25:42Z</time>
      </trkpt>
      <trkpt lat="45.46724" lon="4.05711">
        <ele>796</ele>
        <time>2018-09-26T18:26:42Z</time>
      </trkpt>
      <trkpt lat="45.46709" lon="4.05699">
        <ele>798</ele>
        <time>2018-09-26T18:27:42Z</time>
      </trkpt>
      <trkpt lat="45.46698" lon="4.05687">
        <ele>799</ele>
        <time>2018-09-26T18:28:42Z</time>
      </trkpt>
      <trkpt lat="45.4666" lon="4.05671">
        <ele>806</ele>
        <time>2018-09-26T18:29:42Z</time>
      </trkpt>
      <trkpt lat="45.4665" lon="4.05662">
        <ele>807</ele>
        <time>2018-09-26T18:30:42Z</time>
      </trkpt>
      <trkpt lat="45.46632" lon="4.05642">
        <ele>806</ele>
        <time>2018-09-26T18:31:42Z</time>
      </trkpt>
      <trkpt lat="45.46614" lon="4.05653">
        <ele>810</ele>
        <time>2018-09-26T18:32:42Z</time>
      </trkpt>
      <trkpt lat="45.46596" lon="4.05651">
        <ele>813</ele>
        <time>2018-09-26T18:33:42Z</time>
      </trkpt>
      <trkpt lat="45.46583" lon="4.05651">
        <ele>814</ele>
        <time>2018-09-26T18:34:42Z</time>
      </trkpt>
      <trkpt lat="45.46583" lon="4.05678">
        <ele>816</ele>
        <time>2018-09-26T18:35:42Z</time>
      </trkpt>
      <trkpt lat="45.46578" lon="4.05701">
        <ele>816</ele>
        <time>2018-09-26T18:36:42Z</time>
      </trkpt>
      <trkpt lat="45.46565" lon="4.05717">
        <ele>817</ele>
        <time>2018-09-26T18:37:42Z</time>
      </trkpt>
      <trkpt lat="45.46528" lon="4.05744">
        <ele>817</ele>
        <time>2018-09-26T18:38:42Z</time>
      </trkpt>
      <trkpt lat="45.46518" lon="4.05764">
        <ele>817</ele>
        <time>2018-09-26T18:39:42Z</time>
      </trkpt>
      <trkpt lat="45.46507" lon="4.05791">
        <ele>818</ele>
        <time>2018-09-26T18:40:42Z</time>
      </trkpt>
      <trkpt lat="45.46495" lon="4.05821">
        <ele>819</ele>
        <time>2018-09-26T18:41:42Z</time>
      </trkpt>
      <trkpt lat="45.4649" lon="4.0585">
        <ele>818</ele>
        <time>2018-09-26T18:42:42Z</time>
      </trkpt>
      <trkpt lat="45.46483" lon="4.05897">
        <ele>816</ele>
        <time>2018-09-26T18:43:42Z</time>
      </trkpt>
      <trkpt lat="45.46521" lon="4.06042">
        <ele>809</ele>
        <time>2018-09-26T18:44:42Z</time>
      </trkpt>
      <trkpt lat="45.46533" lon="4.06081">
        <ele>809</ele>
        <time>2018-09-26T18:45:42Z</time>
      </trkpt>
      <trkpt lat="45.46536" lon="4.06105">
        <ele>808</ele>
        <time>2018-09-26T18:46:42Z</time>
      </trkpt>
      <trkpt lat="45.46535" lon="4.06174">
        <ele>805</ele>
        <time>2018-09-26T18:47:42Z</time>
      </trkpt>
      <trkpt lat="45.46556" lon="4.06232">
        <ele>803</ele>
        <time>2018-09-26T18:48:42Z</time>
      </trkpt>
      <trkpt lat="45.4657" lon="4.06281">
        <ele>802</ele>
        <time>2018-09-26T18:49:42Z</time>
      </trkpt>
      <trkpt lat="45.46573" lon="4.06316">
        <ele>802</ele>
        <time>2018-09-26T18:50:42Z</time>
      </trkpt>
      <trkpt lat="45.46586" lon="4.06353">
        <ele>803</ele>
        <time>2018-09-26T18:51:42Z</time>
      </trkpt>
      <trkpt lat="45.46604" lon="4.06372">
        <ele>802</ele>
        <time>2018-09-26T18:52:42Z</time>
      </trkpt>
      <trkpt lat="45.46616" lon="4.06418">
        <ele>801</ele>
        <time>2018-09-26T18:53:42Z</time>
      </trkpt>
      <trkpt lat="45.46635" lon="4.06458">
        <ele>798</ele>
        <time>2018-09-26T18:54:42Z</time>
      </trkpt>
      <trkpt lat="45.46677" lon="4.06511">
        <ele>794</ele>
        <time>2018-09-26T18:55:42Z</time>
      </trkpt>
      <trkpt lat="45.46735" lon="4.06611">
        <ele>790</ele>
        <time>2018-09-26T18:56:42Z</time>
      </trkpt>
      <trkpt lat="45.46761" lon="4.066">
        <ele>790</ele>
        <time>2018-09-26T18:57:42Z</time>
      </trkpt>
      <trkpt lat="45.46793" lon="4.06596">
        <ele>790</ele>
        <time>2018-09-26T18:58:42Z</time>
      </trkpt>
      <trkpt lat="45.46812" lon="4.06629">
        <ele>789</ele>
        <time>2018-09-26T18:59:42Z</time>
      </trkpt>
      <trkpt lat="45.46818" lon="4.06649">
        <ele>788</ele>
        <time>2018-09-26T19:00:42Z</time>
      </trkpt>
      <trkpt lat="45.46867" lon="4.06692">
        <ele>784</ele>
        <time>2018-09-26T19:01:42Z</time>
      </trkpt>
      <trkpt lat="45.46882" lon="4.06731">
        <ele>779</ele>
        <time>2018-09-26T19:02:42Z</time>
      </trkpt>
      <trkpt lat="45.46911" lon="4.06786">
        <ele>775</ele>
        <time>2018-09-26T19:03:42Z</time>
      </trkpt>
      <trkpt lat="45.46934" lon="4.06816">
        <ele>773</ele>
        <time>2018-09-26T19:04:42Z</time>
      </trkpt>
      <trkpt lat="45.46945" lon="4.06847">
        <ele>771</ele>
        <time>2018-09-26T19:05:42Z</time>
      </trkpt>
      <trkpt lat="45.4695" lon="4.06873">
        <ele>770</ele>
        <time>2018-09-26T19:06:42Z</time>
      </trkpt>
      <trkpt lat="45.46936" lon="4.06908">
        <ele>767</ele>
        <time>2018-09-26T19:07:42Z</time>
      </trkpt>
      <trkpt lat="45.46933" lon="4.06946">
        <ele>765</ele>
        <time>2018-09-26T19:08:42Z</time>
      </trkpt>
      <trkpt lat="45.4693" lon="4.06972">
        <ele>764</ele>
        <time>2018-09-26T19:09:42Z</time>
      </trkpt>
      <trkpt lat="45.46903" lon="4.06965">
        <ele>762</ele>
        <time>2018-09-26T19:10:42Z</time>
      </trkpt>
      <trkpt lat="45.46911" lon="4.07018">
        <ele>760</ele>
        <time>2018-09-26T19:11:42Z</time>
      </trkpt>
      <trkpt lat="45.46926" lon="4.07065">
        <ele>758</ele>
        <time>2018-09-26T19:12:42Z</time>
      </trkpt>
      <trkpt lat="45.46935" lon="4.07086">
        <ele>756</ele>
        <time>2018-09-26T19:13:42Z</time>
      </trkpt>
      <trkpt lat="45.46888" lon="4.07163">
        <ele>745</ele>
        <time>2018-09-26T19:14:42Z</time>
      </trkpt>
      <trkpt lat="45.46771" lon="4.07492">
        <ele>708</ele>
        <time>2018-09-26T19:15:42Z</time>
      </trkpt>
      <trkpt lat="45.46792" lon="4.07564">
        <ele>708</ele>
        <time>2018-09-26T19:16:42Z</time>
      </trkpt>
      <trkpt lat="45.46833" lon="4.07686">
        <ele>701</ele>
        <time>2018-09-26T19:17:42Z</time>
      </trkpt>
      <trkpt lat="45.46863" lon="4.07766">
        <ele>697</ele>
        <time>2018-09-26T19:18:42Z</time>
      </trkpt>
      <trkpt lat="45.46875" lon="4.07832">
        <ele>691</ele>
        <time>2018-09-26T19:19:42Z</time>
      </trkpt>
      <trkpt lat="45.46855" lon="4.07787">
        <ele>692</ele>
        <time>2018-09-26T19:20:42Z</time>
      </trkpt>
      <trkpt lat="45.46843" lon="4.07758">
        <ele>693</ele>
        <time>2018-09-26T19:21:42Z</time>
      </trkpt>
      <trkpt lat="45.46827" lon="4.07733">
        <ele>694</ele>
        <time>2018-09-26T19:22:42Z</time>
      </trkpt>
      <trkpt lat="45.46798" lon="4.07698">
        <ele>693</ele>
        <time>2018-09-26T19:23:42Z</time>
      </trkpt>
      <trkpt lat="45.4677" lon="4.07643">
        <ele>692</ele>
        <time>2018-09-26T19:24:42Z</time>
      </trkpt>
      <trkpt lat="45.46754" lon="4.0761">
        <ele>692</ele>
        <time>2018-09-26T19:25:42Z</time>
      </trkpt>
      <trkpt lat="45.46742" lon="4.07599">
        <ele>691</ele>
        <time>2018-09-26T19:26:42Z</time>
      </trkpt>
      <trkpt lat="45.46727" lon="4.07599">
        <ele>691</ele>
        <time>2018-09-26T19:27:42Z</time>
      </trkpt>
      <trkpt lat="45.4672" lon="4.07608">
        <ele>691</ele>
        <time>2018-09-26T19:28:42Z</time>
      </trkpt>
      <trkpt lat="45.46719" lon="4.07632">
        <ele>690</ele>
        <time>2018-09-26T19:29:42Z</time>
      </trkpt>
      <trkpt lat="45.46717" lon="4.0766">
        <ele>690</ele>
        <time>2018-09-26T19:30:42Z</time>
      </trkpt>
      <trkpt lat="45.46717" lon="4.0772">
        <ele>692</ele>
        <time>2018-09-26T19:31:42Z</time>
      </trkpt>
      <trkpt lat="45.46709" lon="4.07689">
        <ele>692</ele>
        <time>2018-09-26T19:32:42Z</time>
      </trkpt>
      <trkpt lat="45.46705" lon="4.07673">
        <ele>691</ele>
        <time>2018-09-26T19:33:42Z</time>
      </trkpt>
      <trkpt lat="45.46698" lon="4.0766">
        <ele>692</ele>
        <time>2018-09-26T19:34:42Z</time>
      </trkpt>
      <trkpt lat="45.46689" lon="4.07654">
        <ele>693</ele>
        <time>2018-09-26T19:35:42Z</time>
      </trkpt>
      <trkpt lat="45.46672" lon="4.07647">
        <ele>694</ele>
        <time>2018-09-26T19:36:42Z</time>
      </trkpt>
      <trkpt lat="45.46661" lon="4.07667">
        <ele>697</ele>
        <time>2018-09-26T19:37:42Z</time>
      </trkpt>
      <trkpt lat="45.46662" lon="4.07701">
        <ele>701</ele>
        <time>2018-09-26T19:38:42Z</time>
      </trkpt>
      <trkpt lat="45.46646" lon="4.07773">
        <ele>713</ele>
        <time>2018-09-26T19:39:42Z</time>
      </trkpt>
      <trkpt lat="45.46637" lon="4.07786">
        <ele>715</ele>
        <time>2018-09-26T19:40:42Z</time>
      </trkpt>
      <trkpt lat="45.46621" lon="4.07786">
        <ele>717</ele>
        <time>2018-09-26T19:41:42Z</time>
      </trkpt>
      <trkpt lat="45.46614" lon="4.07802">
        <ele>719</ele>
        <time>2018-09-26T19:42:42Z</time>
      </trkpt>
      <trkpt lat="45.46602" lon="4.0782">
        <ele>723</ele>
        <time>2018-09-26T19:43:42Z</time>
      </trkpt>
      <trkpt lat="45.46595" lon="4.0783">
        <ele>725</ele>
        <time>2018-09-26T19:44:42Z</time>
      </trkpt>
      <trkpt lat="45.4659" lon="4.07844">
        <ele>728</ele>
        <time>2018-09-26T19:45:42Z</time>
      </trkpt>
      <trkpt lat="45.46584" lon="4.07871">
        <ele>733</ele>
        <time>2018-09-26T19:46:42Z</time>
      </trkpt>
      <trkpt lat="45.46578" lon="4.07885">
        <ele>735</ele>
        <time>2018-09-26T19:47:42Z</time>
      </trkpt>
      <trkpt lat="45.46561" lon="4.07903">
        <ele>737</ele>
        <time>2018-09-26T19:48:42Z</time>
      </trkpt>
      <trkpt lat="45.46529" lon="4.0793">
        <ele>738</ele>
        <time>2018-09-26T19:49:42Z</time>
      </trkpt>
      <trkpt lat="45.46361" lon="4.08034">
        <ele>739</ele>
        <time>2018-09-26T19:50:42Z</time>
      </trkpt>
      <trkpt lat="45.46307" lon="4.08113">
        <ele>732</ele>
        <time>2018-09-26T19:51:42Z</time>
      </trkpt>
      <trkpt lat="45.46281" lon="4.0814">
        <ele>729</ele>
        <time>2018-09-26T19:52:42Z</time>
      </trkpt>
      <trkpt lat="45.4627" lon="4.08143">
        <ele>729</ele>
        <time>2018-09-26T19:53:42Z</time>
      </trkpt>
      <trkpt lat="45.46264" lon="4.08145">
        <ele>728</ele>
        <time>2018-09-26T19:54:42Z</time>
      </trkpt>
      <trkpt lat="45.46184" lon="4.08195">
        <ele>723</ele>
        <time>2018-09-26T19:55:42Z</time>
      </trkpt>
      <trkpt lat="45.46098" lon="4.08241">
        <ele>719</ele>
        <time>2018-09-26T19:56:42Z</time>
      </trkpt>
      <trkpt lat="45.46007" lon="4.08283">
        <ele>718</ele>
        <time>2018-09-26T19:57:42Z</time>
      </trkpt>
      <trkpt lat="45.45975" lon="4.08286">
        <ele>718</ele>
        <time>2018-09-26T19:58:42Z</time>
      </trkpt>
      <trkpt lat="45.4593" lon="4.08292">
        <ele>717</ele>
        <time>2018-09-26T19:59:42Z</time>
      </trkpt>
      <trkpt lat="45.4587" lon="4.08276">
        <ele>715</ele>
        <time>2018-09-26T20:00:42Z</time>
      </trkpt>
      <trkpt lat="45.45839" lon="4.08264">
        <ele>714</ele>
        <time>2018-09-26T20:01:42Z</time>
      </trkpt>
      <trkpt lat="45.45774" lon="4.08214">
        <ele>711</ele>
        <time>2018-09-26T20:02:42Z</time>
      </trkpt>
      <trkpt lat="45.45751" lon="4.08189">
        <ele>712</ele>
        <time>2018-09-26T20:03:42Z</time>
      </trkpt>
      <trkpt lat="45.45741" lon="4.08172">
        <ele>713</ele>
        <time>2018-09-26T20:04:42Z</time>
      </trkpt>
      <trkpt lat="45.45677" lon="4.08063">
        <ele>713</ele>
        <time>2018-09-26T20:05:42Z</time>
      </trkpt>
      <trkpt lat="45.45623" lon="4.0798">
        <ele>710</ele>
        <time>2018-09-26T20:06:42Z</time>
      </trkpt>
      <trkpt lat="45.45601" lon="4.07953">
        <ele>710</ele>
        <time>2018-09-26T20:07:42Z</time>
      </trkpt>
      <trkpt lat="45.4555" lon="4.07918">
        <ele>712</ele>
        <time>2018-09-26T20:08:42Z</time>
      </trkpt>
      <trkpt lat="45.45491" lon="4.07896">
        <ele>714</ele>
        <time>2018-09-26T20:09:42Z</time>
      </trkpt>
      <trkpt lat="45.4545" lon="4.07893">
        <ele>715</ele>
        <time>2018-09-26T20:10:42Z</time>
      </trkpt>
      <trkpt lat="45.45409" lon="4.07896">
        <ele>714</ele>
        <time>2018-09-26T20:11:42Z</time>
      </trkpt>
      <trkpt lat="45.45372" lon="4.07909">
        <ele>711</ele>
        <time>2018-09-26T20:12:42Z</time>
      </trkpt>
      <trkpt lat="45.45314" lon="4.07947">
        <ele>707</ele>
        <time>2018-09-26T20:13:42Z</time>
      </trkpt>
      <trkpt lat="45.45268" lon="4.07993">
        <ele>708</ele>
        <time>2018-09-26T20:14:42Z</time>
      </trkpt>
      <trkpt lat="45.45251" lon="4.08015">
        <ele>709</ele>
        <time>2018-09-26T20:15:42Z</time>
      </trkpt>
      <trkpt lat="45.45223" lon="4.08072">
        <ele>712</ele>
        <time>2018-09-26T20:16:42Z</time>
      </trkpt>
      <trkpt lat="45.45195" lon="4.08132">
        <ele>715</ele>
        <time>2018-09-26T20:17:42Z</time>
      </trkpt>
      <trkpt lat="45.45181" lon="4.08172">
        <ele>715</ele>
        <time>2018-09-26T20:18:42Z</time>
      </trkpt>
      <trkpt lat="45.45157" lon="4.08254">
        <ele>714</ele>
        <time>2018-09-26T20:19:42Z</time>
      </trkpt>
      <trkpt lat="45.45149" lon="4.08314">
        <ele>712</ele>
        <time>2018-09-26T20:20:42Z</time>
      </trkpt>
      <trkpt lat="45.45148" lon="4.08363">
        <ele>708</ele>
        <time>2018-09-26T20:21:42Z</time>
      </trkpt>
      <trkpt lat="45.45151" lon="4.08404">
        <ele>705</ele>
        <time>2018-09-26T20:22:42Z</time>
      </trkpt>
      <trkpt lat="45.45169" lon="4.08512">
        <ele>700</ele>
        <time>2018-09-26T20:23:42Z</time>
      </trkpt>
      <trkpt lat="45.45196" lon="4.08613">
        <ele>697</ele>
        <time>2018-09-26T20:24:42Z</time>
      </trkpt>
      <trkpt lat="45.45202" lon="4.08692">
        <ele>693</ele>
        <time>2018-09-26T20:25:42Z</time>
      </trkpt>
      <trkpt lat="45.45196" lon="4.08828">
        <ele>690</ele>
        <time>2018-09-26T20:26:42Z</time>
      </trkpt>
      <trkpt lat="45.45191" lon="4.08998">
        <ele>689</ele>
        <time>2018-09-26T20:27:42Z</time>
      </trkpt>
      <trkpt lat="45.45197" lon="4.09057">
        <ele>686</ele>
        <time>2018-09-26T20:28:42Z</time>
      </trkpt>
      <trkpt lat="45.45254" lon="4.09312">
        <ele>680</ele>
        <time>2018-09-26T20:29:42Z</time>
      </trkpt>
      <trkpt lat="45.45313" lon="4.09561">
        <ele>675</ele>
        <time>2018-09-26T20:30:42Z</time>
      </trkpt>
      <trkpt lat="45.45345" lon="4.09729">
        <ele>674</ele>
        <time>2018-09-26T20:31:42Z</time>
      </trkpt>
      <trkpt lat="45.45372" lon="4.09854">
        <ele>666</ele>
        <time>2018-09-26T20:32:42Z</time>
      </trkpt>
      <trkpt lat="45.45389" lon="4.09942">
        <ele>664</ele>
        <time>2018-09-26T20:33:42Z</time>
      </trkpt>
      <trkpt lat="45.45389" lon="4.10008">
        <ele>663</ele>
        <time>2018-09-26T20:34:42Z</time>
      </trkpt>
      <trkpt lat="45.45379" lon="4.10083">
        <ele>659</ele>
        <time>2018-09-26T20:35:42Z</time>
      </trkpt>
      <trkpt lat="45.45366" lon="4.10161">
        <ele>652</ele>
        <time>2018-09-26T20:36:42Z</time>
      </trkpt>
      <trkpt lat="45.45362" lon="4.10248">
        <ele>648</ele>
        <time>2018-09-26T20:37:42Z</time>
      </trkpt>
      <trkpt lat="45.45372" lon="4.1031">
        <ele>649</ele>
        <time>2018-09-26T20:38:42Z</time>
      </trkpt>
      <trkpt lat="45.45392" lon="4.1039">
        <ele>650</ele>
        <time>2018-09-26T20:39:42Z</time>
      </trkpt>
      <trkpt lat="45.45418" lon="4.10447">
        <ele>652</ele>
        <time>2018-09-26T20:40:42Z</time>
      </trkpt>
      <trkpt lat="45.45459" lon="4.10505">
        <ele>652</ele>
        <time>2018-09-26T20:41:42Z</time>
      </trkpt>
      <trkpt lat="45.45513" lon="4.10549">
        <ele>653</ele>
        <time>2018-09-26T20:42:42Z</time>
      </trkpt>
      <trkpt lat="45.45568" lon="4.10574">
        <ele>649</ele>
        <time>2018-09-26T20:43:42Z</time>
      </trkpt>
      <trkpt lat="45.45652" lon="4.10578">
        <ele>646</ele>
        <time>2018-09-26T20:44:42Z</time>
      </trkpt>
      <trkpt lat="45.45741" lon="4.10609">
        <ele>642</ele>
        <time>2018-09-26T20:45:42Z</time>
      </trkpt>
      <trkpt lat="45.45795" lon="4.10654">
        <ele>642</ele>
        <time>2018-09-26T20:46:42Z</time>
      </trkpt>
      <trkpt lat="45.45831" lon="4.10711">
        <ele>642</ele>
        <time>2018-09-26T20:47:42Z</time>
      </trkpt>
      <trkpt lat="45.45863" lon="4.10775">
        <ele>644</ele>
        <time>2018-09-26T20:48:42Z</time>
      </trkpt>
      <trkpt lat="45.45866" lon="4.108">
        <ele>643</ele>
        <time>2018-09-26T20:49:42Z</time>
      </trkpt>
      <trkpt lat="45.45884" lon="4.10822">
        <ele>644</ele>
        <time>2018-09-26T20:50:42Z</time>
      </trkpt>
      <trkpt lat="45.45885" lon="4.10833">
        <ele>644</ele>
        <time>2018-09-26T20:51:42Z</time>
      </trkpt>
      <trkpt lat="45.45881" lon="4.10841">
        <ele>643</ele>
        <time>2018-09-26T20:52:42Z</time>
      </trkpt>
      <trkpt lat="45.45881" lon="4.10856">
        <ele>643</ele>
        <time>2018-09-26T20:53:42Z</time>
      </trkpt>
      <trkpt lat="45.45885" lon="4.10882">
        <ele>642</ele>
        <time>2018-09-26T20:54:42Z</time>
      </trkpt>
      <trkpt lat="45.45891" lon="4.10921">
        <ele>642</ele>
        <time>2018-09-26T20:55:42Z</time>
      </trkpt>
      <trkpt lat="45.45892" lon="4.10974">
        <ele>641</ele>
        <time>2018-09-26T20:56:42Z</time>
      </trkpt>
      <trkpt lat="45.45886" lon="4.11025">
        <ele>640</ele>
        <time>2018-09-26T20:57:42Z</time>
      </trkpt>
      <trkpt lat="45.45884" lon="4.11059">
        <ele>641</ele>
        <time>2018-09-26T20:58:42Z</time>
      </trkpt>
      <trkpt lat="45.45876" lon="4.1109">
        <ele>641</ele>
        <time>2018-09-26T20:59:42Z</time>
      </trkpt>
      <trkpt lat="45.45864" lon="4.11134">
        <ele>641</ele>
        <time>2018-09-26T21:00:42Z</time>
      </trkpt>
      <trkpt lat="45.45841" lon="4.11199">
        <ele>640</ele>
        <time>2018-09-26T21:01:42Z</time>
      </trkpt>
      <trkpt lat="45.45821" lon="4.1126">
        <ele>640</ele>
        <time>2018-09-26T21:02:42Z</time>
      </trkpt>
      <trkpt lat="45.458" lon="4.11321">
        <ele>636</ele>
        <time>2018-09-26T21:03:42Z</time>
      </trkpt>
      <trkpt lat="45.45782" lon="4.11379">
        <ele>635</ele>
        <time>2018-09-26T21:04:42Z</time>
      </trkpt>
      <trkpt lat="45.45769" lon="4.11445">
        <ele>634</ele>
        <time>2018-09-26T21:05:42Z</time>
      </trkpt>
      <trkpt lat="45.45766" lon="4.11531">
        <ele>630</ele>
        <time>2018-09-26T21:06:42Z</time>
      </trkpt>
      <trkpt lat="45.45774" lon="4.11606">
        <ele>624</ele>
        <time>2018-09-26T21:07:42Z</time>
      </trkpt>
      <trkpt lat="45.45791" lon="4.11676">
        <ele>622</ele>
        <time>2018-09-26T21:08:42Z</time>
      </trkpt>
      <trkpt lat="45.45824" lon="4.11771">
        <ele>626</ele>
        <time>2018-09-26T21:09:42Z</time>
      </trkpt>
      <trkpt lat="45.45856" lon="4.11839">
        <ele>626</ele>
        <time>2018-09-26T21:10:42Z</time>
      </trkpt>
      <trkpt lat="45.45901" lon="4.11923">
        <ele>625</ele>
        <time>2018-09-26T21:11:42Z</time>
      </trkpt>
      <trkpt lat="45.45985" lon="4.12055">
        <ele>624</ele>
        <time>2018-09-26T21:12:42Z</time>
      </trkpt>
      <trkpt lat="45.4609" lon="4.12204">
        <ele>624</ele>
        <time>2018-09-26T21:13:42Z</time>
      </trkpt>
      <trkpt lat="45.46143" lon="4.1229">
        <ele>622</ele>
        <time>2018-09-26T21:14:42Z</time>
      </trkpt>
      <trkpt lat="45.46166" lon="4.12354">
        <ele>618</ele>
        <time>2018-09-26T21:15:42Z</time>
      </trkpt>
      <trkpt lat="45.46171" lon="4.12372">
        <ele>617</ele>
        <time>2018-09-26T21:16:42Z</time>
      </trkpt>
      <trkpt lat="45.46177" lon="4.1241">
        <ele>614</ele>
        <time>2018-09-26T21:17:42Z</time>
      </trkpt>
      <trkpt lat="45.46184" lon="4.12484">
        <ele>613</ele>
        <time>2018-09-26T21:18:42Z</time>
      </trkpt>
      <trkpt lat="45.46184" lon="4.12528">
        <ele>612</ele>
        <time>2018-09-26T21:19:42Z</time>
      </trkpt>
      <trkpt lat="45.46178" lon="4.12568">
        <ele>610</ele>
        <time>2018-09-26T21:20:42Z</time>
      </trkpt>
      <trkpt lat="45.46169" lon="4.12617">
        <ele>609</ele>
        <time>2018-09-26T21:21:42Z</time>
      </trkpt>
      <trkpt lat="45.46152" lon="4.12705">
        <ele>610</ele>
        <time>2018-09-26T21:22:42Z</time>
      </trkpt>
      <trkpt lat="45.46141" lon="4.12799">
        <ele>610</ele>
        <time>2018-09-26T21:23:42Z</time>
      </trkpt>
      <trkpt lat="45.46131" lon="4.12874">
        <ele>608</ele>
        <time>2018-09-26T21:24:42Z</time>
      </trkpt>
      <trkpt lat="45.46116" lon="4.12967">
        <ele>604</ele>
        <time>2018-09-26T21:25:42Z</time>
      </trkpt>
      <trkpt lat="45.46104" lon="4.13012">
        <ele>602</ele>
        <time>2018-09-26T21:26:42Z</time>
      </trkpt>
      <trkpt lat="45.46091" lon="4.13055">
        <ele>603</ele>
        <time>2018-09-26T21:27:42Z</time>
      </trkpt>
      <trkpt lat="45.46022" lon="4.13226">
        <ele>602</ele>
        <time>2018-09-26T21:28:42Z</time>
      </trkpt>
      <trkpt lat="45.45994" lon="4.13298">
        <ele>601</ele>
        <time>2018-09-26T21:29:42Z</time>
      </trkpt>
      <trkpt lat="45.45983" lon="4.13361">
        <ele>601</ele>
        <time>2018-09-26T21:30:42Z</time>
      </trkpt>
      <trkpt lat="45.45953" lon="4.13615">
        <ele>600</ele>
        <time>2018-09-26T21:31:42Z</time>
      </trkpt>
      <trkpt lat="45.45948" lon="4.13666">
        <ele>601</ele>
        <time>2018-09-26T21:32:42Z</time>
      </trkpt>
      <trkpt lat="45.45947" lon="4.13715">
        <ele>599</ele>
        <time>2018-09-26T21:33:42Z</time>
      </trkpt>
      <trkpt lat="45.45949" lon="4.13743">
        <ele>599</ele>
        <time>2018-09-26T21:34:42Z</time>
      </trkpt>
      <trkpt lat="45.45954" lon="4.13824">
        <ele>597</ele>
        <time>2018-09-26T21:35:42Z</time>
      </trkpt>
      <trkpt lat="45.45959" lon="4.13883">
        <ele>596</ele>
        <time>2018-09-26T21:36:42Z</time>
      </trkpt>
      <trkpt lat="45.45968" lon="4.13963">
        <ele>596</ele>
        <time>2018-09-26T21:37:42Z</time>
      </trkpt>
      <trkpt lat="45.45973" lon="4.14002">
        <ele>597</ele>
        <time>2018-09-26T21:38:42Z</time>
      </trkpt>
      <trkpt lat="45.45975" lon="4.14054">
        <ele>599</ele>
        <time>2018-09-26T21:39:42Z</time>
      </trkpt>
      <trkpt lat="45.45973" lon="4.14139">
        <ele>598</ele>
        <time>2018-09-26T21:40:42Z</time>
      </trkpt>
      <trkpt lat="45.45961" lon="4.14204">
        <ele>595</ele>
        <time>2018-09-26T21:41:42Z</time>
      </trkpt>
      <trkpt lat="45.45948" lon="4.14249">
        <ele>593</ele>
        <time>2018-09-26T21:42:42Z</time>
      </trkpt>
      <trkpt lat="45.45911" lon="4.14318">
        <ele>596</ele>
        <time>2018-09-26T21:43:42Z</time>
      </trkpt>
      <trkpt lat="45.45877" lon="4.14382">
        <ele>595</ele>
        <time>2018-09-26T21:44:42Z</time>
      </trkpt>
      <trkpt lat="45.45846" lon="4.1444">
        <ele>593</ele>
        <time>2018-09-26T21:45:42Z</time>
      </trkpt>
      <trkpt lat="45.45818" lon="4.14505">
        <ele>591</ele>
        <time>2018-09-26T21:46:42Z</time>
      </trkpt>
      <trkpt lat="45.45796" lon="4.14546">
        <ele>590</ele>
        <time>2018-09-26T21:47:42Z</time>
      </trkpt>
      <trkpt lat="45.45771" lon="4.146">
        <ele>590</ele>
        <time>2018-09-26T21:48:42Z</time>
      </trkpt>
      <trkpt lat="45.45736" lon="4.1467">
        <ele>591</ele>
        <time>2018-09-26T21:49:42Z</time>
      </trkpt>
      <trkpt lat="45.45725" lon="4.14703">
        <ele>593</ele>
        <time>2018-09-26T21:50:42Z</time>
      </trkpt>
      <trkpt lat="45.45718" lon="4.14737">
        <ele>595</ele>
        <time>2018-09-26T21:51:42Z</time>
      </trkpt>
      <trkpt lat="45.45708" lon="4.14813">
        <ele>596</ele>
        <time>2018-09-26T21:52:42Z</time>
      </trkpt>
      <trkpt lat="45.45711" lon="4.14872">
        <ele>592</ele>
        <time>2018-09-26T21:53:42Z</time>
      </trkpt>
      <trkpt lat="45.45718" lon="4.14928">
        <ele>586</ele>
        <time>2018-09-26T21:54:42Z</time>
      </trkpt>
      <trkpt lat="45.45731" lon="4.14971">
        <ele>585</ele>
        <time>2018-09-26T21:55:42Z</time>
      </trkpt>
      <trkpt lat="45.45743" lon="4.15008">
        <ele>586</ele>
        <time>2018-09-26T21:56:42Z</time>
      </trkpt>
      <trkpt lat="45.45766" lon="4.15051">
        <ele>590</ele>
        <time>2018-09-26T21:57:42Z</time>
      </trkpt>
      <trkpt lat="45.45785" lon="4.15077">
        <ele>592</ele>
        <time>2018-09-26T21:58:42Z</time>
      </trkpt>
      <trkpt lat="45.45822" lon="4.15123">
        <ele>592</ele>
        <time>2018-09-26T21:59:42Z</time>
      </trkpt>
      <trkpt lat="45.45847" lon="4.15142">
        <ele>592</ele>
        <time>2018-09-26T22:00:42Z</time>
      </trkpt>
      <trkpt lat="45.45875" lon="4.15158">
        <ele>592</ele>
        <time>2018-09-26T22:01:42Z</time>
      </trkpt>
      <trkpt lat="45.45929" lon="4.15184">
        <ele>595</ele>
        <time>2018-09-26T22:02:42Z</time>
      </trkpt>
      <trkpt lat="45.45984" lon="4.15215">
        <ele>594</ele>
        <time>2018-09-26T22:03:42Z</time>
      </trkpt>
      <trkpt lat="45.45945" lon="4.15271">
        <ele>593</ele>
        <time>2018-09-26T22:04:42Z</time>
      </trkpt>
      <trkpt lat="45.45959" lon="4.15281">
        <ele>593</ele>
        <time>2018-09-26T22:05:42Z</time>
      </trkpt>
      <trkpt lat="45.46023" lon="4.15314">
        <ele>592</ele>
        <time>2018-09-26T22:06:42Z</time>
      </trkpt>
      <trkpt lat="45.46048" lon="4.15318">
        <ele>593</ele>
        <time>2018-09-26T22:07:42Z</time>
      </trkpt>
      <trkpt lat="45.4608" lon="4.1534">
        <ele>593</ele>
        <time>2018-09-26T22:08:42Z</time>
      </trkpt>
      <trkpt lat="45.46111" lon="4.15365">
        <ele>593</ele>
        <time>2018-09-26T22:09:42Z</time>
      </trkpt>
      <trkpt lat="45.46144" lon="4.15393">
        <ele>593</ele>
        <time>2018-09-26T22:10:42Z</time>
      </trkpt>
      <trkpt lat="45.4616" lon="4.15412">
        <ele>594</ele>
        <time>2018-09-26T22:11:42Z</time>
      </trkpt>
      <trkpt lat="45.46179" lon="4.15445">
        <ele>594</ele>
        <time>2018-09-26T22:12:42Z</time>
      </trkpt>
      <trkpt lat="45.46192" lon="4.15475">
        <ele>595</ele>
        <time>2018-09-26T22:13:42Z</time>
      </trkpt>
      <trkpt lat="45.46209" lon="4.15518">
        <ele>593</ele>
        <time>2018-09-26T22:14:42Z</time>
      </trkpt>
      <trkpt lat="45.46341" lon="4.15607">
        <ele>585</ele>
        <time>2018-09-26T22:15:42Z</time>
      </trkpt>
      <trkpt lat="45.4639" lon="4.15639">
        <ele>584</ele>
        <time>2018-09-26T22:16:42Z</time>
      </trkpt>
      <trkpt lat="45.46432" lon="4.1566">
        <ele>583</ele>
        <time>2018-09-26T22:17:42Z</time>
      </trkpt>
      <trkpt lat="45.46481" lon="4.1566">
        <ele>581</ele>
        <time>2018-09-26T22:18:42Z</time>
      </trkpt>
      <trkpt lat="45.46509" lon="4.15668">
        <ele>580</ele>
        <time>2018-09-26T22:19:42Z</time>
      </trkpt>
      <trkpt lat="45.46537" lon="4.15692">
        <ele>578</ele>
        <time>2018-09-26T22:20:42Z</time>
      </trkpt>
      <trkpt lat="45.46569" lon="4.15721">
        <ele>576</ele>
        <time>2018-09-26T22:21:42Z</time>
      </trkpt>
      <trkpt lat="45.46596" lon="4.15754">
        <ele>576</ele>
        <time>2018-09-26T22:22:42Z</time>
      </trkpt>
      <trkpt lat="45.46627" lon="4.15772">
        <ele>575</ele>
        <time>2018-09-26T22:23:42Z</time>
      </trkpt>
      <trkpt lat="45.46642" lon="4.15791">
        <ele>575</ele>
        <time>2018-09-26T22:24:42Z</time>
      </trkpt>
      <trkpt lat="45.46663" lon="4.15867">
        <ele>575</ele>
        <time>2018-09-26T22:25:42Z</time>
      </trkpt>
      <trkpt lat="45.46677" lon="4.15899">
        <ele>575</ele>
        <time>2018-09-26T22:26:42Z</time>
      </trkpt>
      <trkpt lat="45.46698" lon="4.15939">
        <ele>572</ele>
        <time>2018-09-26T22:27:42Z</time>
      </trkpt>
      <trkpt lat="45.46718" lon="4.15965">
        <ele>569</ele>
        <time>2018-09-26T22:28:42Z</time>
      </trkpt>
      <trkpt lat="45.46816" lon="4.16043">
        <ele>561</ele>
        <time>2018-09-26T22:29:42Z</time>
      </trkpt>
      <trkpt lat="45.46851" lon="4.16062">
        <ele>558</ele>
        <time>2018-09-26T22:30:42Z</time>
      </trkpt>
      <trkpt lat="45.46902" lon="4.16063">
        <ele>553</ele>
        <time>2018-09-26T22:31:42Z</time>
      </trkpt>
      <trkpt lat="45.46934" lon="4.16066">
        <ele>550</ele>
        <time>2018-09-26T22:32:42Z</time>
      </trkpt>
      <trkpt lat="45.46937" lon="4.16166">
        <ele>546</ele>
        <time>2018-09-26T22:33:42Z</time>
      </trkpt>
      <trkpt lat="45.47003" lon="4.16158">
        <ele>538</ele>
        <time>2018-09-26T22:34:42Z</time>
      </trkpt>
      <trkpt lat="45.47057" lon="4.16128">
        <ele>532</ele>
        <time>2018-09-26T22:35:42Z</time>
      </trkpt>
      <trkpt lat="45.47116" lon="4.16134">
        <ele>526</ele>
        <time>2018-09-26T22:36:42Z</time>
      </trkpt>
      <trkpt lat="45.47165" lon="4.16159">
        <ele>519</ele>
        <time>2018-09-26T22:37:42Z</time>
      </trkpt>
      <trkpt lat="45.47198" lon="4.16153">
        <ele>519</ele>
        <time>2018-09-26T22:38:42Z</time>
      </trkpt>
      <trkpt lat="45.47228" lon="4.1614">
        <ele>519</ele>
        <time>2018-09-26T22:39:42Z</time>
      </trkpt>
      <trkpt lat="45.47275" lon="4.16176">
        <ele>520</ele>
        <time>2018-09-26T22:40:42Z</time>
      </trkpt>
      <trkpt lat="45.47249" lon="4.16217">
        <ele>520</ele>
        <time>2018-09-26T22:41:42Z</time>
      </trkpt>
      <trkpt lat="45.47224" lon="4.16273">
        <ele>519</ele>
        <time>2018-09-26T22:42:42Z</time>
      </trkpt>
      <trkpt lat="45.47197" lon="4.16358">
        <ele>517</ele>
        <time>2018-09-26T22:43:42Z</time>
      </trkpt>
      <trkpt lat="45.47187" lon="4.16458">
        <ele>514</ele>
        <time>2018-09-26T22:44:42Z</time>
      </trkpt>
      <trkpt lat="45.47183" lon="4.16574">
        <ele>513</ele>
        <time>2018-09-26T22:45:42Z</time>
      </trkpt>
      <trkpt lat="45.47189" lon="4.16691">
        <ele>510</ele>
        <time>2018-09-26T22:46:42Z</time>
      </trkpt>
      <trkpt lat="45.47226" lon="4.16924">
        <ele>505</ele>
        <time>2018-09-26T22:47:42Z</time>
      </trkpt>
      <trkpt lat="45.47234" lon="4.16985">
        <ele>504</ele>
        <time>2018-09-26T22:48:42Z</time>
      </trkpt>
      <trkpt lat="45.47225" lon="4.17042">
        <ele>502</ele>
        <time>2018-09-26T22:49:42Z</time>
      </trkpt>
      <trkpt lat="45.47225" lon="4.1706">
        <ele>502</ele>
        <time>2018-09-26T22:50:42Z</time>
      </trkpt>
      <trkpt lat="45.47219" lon="4.17125">
        <ele>502</ele>
        <time>2018-09-26T22:51:42Z</time>
      </trkpt>
      <trkpt lat="45.47207" lon="4.17178">
        <ele>500</ele>
        <time>2018-09-26T22:52:42Z</time>
      </trkpt>
      <trkpt lat="45.47192" lon="4.1725">
        <ele>497</ele>
        <time>2018-09-26T22:53:42Z</time>
      </trkpt>
      <trkpt lat="45.47182" lon="4.17305">
        <ele>495</ele>
        <time>2018-09-26T22:54:42Z</time>
      </trkpt>
      <trkpt lat="45.47183" lon="4.17398">
        <ele>496</ele>
        <time>2018-09-26T22:55:42Z</time>
      </trkpt>
      <trkpt lat="45.47192" lon="4.1744">
        <ele>494</ele>
        <time>2018-09-26T22:56:42Z</time>
      </trkpt>
      <trkpt lat="45.47203" lon="4.17484">
        <ele>488</ele>
        <time>2018-09-26T22:57:42Z</time>
      </trkpt>
      <trkpt lat="45.47228" lon="4.17548">
        <ele>482</ele>
        <time>2018-09-26T22:58:42Z</time>
      </trkpt>
      <trkpt lat="45.47251" lon="4.17596">
        <ele>476</ele>
        <time>2018-09-26T22:59:42Z</time>
      </trkpt>
      <trkpt lat="45.47302" lon="4.17652">
        <ele>476</ele>
        <time>2018-09-26T23:00:42Z</time>
      </trkpt>
      <trkpt lat="45.4735" lon="4.17713">
        <ele>476</ele>
        <time>2018-09-26T23:01:42Z</time>
      </trkpt>
      <trkpt lat="45.47378" lon="4.17763">
        <ele>474</ele>
        <time>2018-09-26T23:02:42Z</time>
      </trkpt>
      <trkpt lat="45.47404" lon="4.17817">
        <ele>472</ele>
        <time>2018-09-26T23:03:42Z</time>
      </trkpt>
      <trkpt lat="45.47432" lon="4.179">
        <ele>469</ele>
        <time>2018-09-26T23:04:42Z</time>
      </trkpt>
      <trkpt lat="45.47475" lon="4.17993">
        <ele>470</ele>
        <time>2018-09-26T23:05:42Z</time>
      </trkpt>
      <trkpt lat="45.47527" lon="4.18068">
        <ele>466</ele>
        <time>2018-09-26T23:06:42Z</time>
      </trkpt>
      <trkpt lat="45.47582" lon="4.18134">
        <ele>464</ele>
        <time>2018-09-26T23:07:42Z</time>
      </trkpt>
      <trkpt lat="45.47714" lon="4.18305">
        <ele>456</ele>
        <time>2018-09-26T23:08:42Z</time>
      </trkpt>
      <trkpt lat="45.47749" lon="4.18353">
        <ele>454</ele>
        <time>2018-09-26T23:09:42Z</time>
      </trkpt>
      <trkpt lat="45.47798" lon="4.18475">
        <ele>452</ele>
        <time>2018-09-26T23:10:42Z</time>
      </trkpt>
      <trkpt lat="45.47842" lon="4.1858">
        <ele>449</ele>
        <time>2018-09-26T23:11:42Z</time>
      </trkpt>
      <trkpt lat="45.47873" lon="4.18633">
        <ele>449</ele>
        <time>2018-09-26T23:12:42Z</time>
      </trkpt>
      <trkpt lat="45.47943" lon="4.18711">
        <ele>444</ele>
        <time>2018-09-26T23:13:42Z</time>
      </trkpt>
      <trkpt lat="45.48033" lon="4.18739">
        <ele>443</ele>
        <time>2018-09-26T23:14:42Z</time>
      </trkpt>
      <trkpt lat="45.48105" lon="4.18755">
        <ele>444</ele>
        <time>2018-09-26T23:15:42Z</time>
      </trkpt>
      <trkpt lat="45.48219" lon="4.18734">
        <ele>439</ele>
        <time>2018-09-26T23:16:42Z</time>
      </trkpt>
      <trkpt lat="45.48363" lon="4.18688">
        <ele>434</ele>
        <time>2018-09-26T23:17:42Z</time>
      </trkpt>
      <trkpt lat="45.48489" lon="4.1863">
        <ele>431</ele>
        <time>2018-09-26T23:18:42Z</time>
      </trkpt>
      <trkpt lat="45.48546" lon="4.18607">
        <ele>427</ele>
        <time>2018-09-26T23:19:42Z</time>
      </trkpt>
      <trkpt lat="45.48602" lon="4.18601">
        <ele>423</ele>
        <time>2018-09-26T23:20:42Z</time>
      </trkpt>
      <trkpt lat="45.48682" lon="4.18621">
        <ele>419</ele>
        <time>2018-09-26T23:21:42Z</time>
      </trkpt>
      <trkpt lat="45.48756" lon="4.1865">
        <ele>418</ele>
        <time>2018-09-26T23:22:42Z</time>
      </trkpt>
      <trkpt lat="45.4882" lon="4.18665">
        <ele>415</ele>
        <time>2018-09-26T23:23:42Z</time>
      </trkpt>
      <trkpt lat="45.48945" lon="4.1863">
        <ele>414</ele>
        <time>2018-09-26T23:24:42Z</time>
      </trkpt>
      <trkpt lat="45.49108" lon="4.18582">
        <ele>415</ele>
        <time>2018-09-26T23:25:42Z</time>
      </trkpt>
      <trkpt lat="45.49276" lon="4.18558">
        <ele>415</ele>
        <time>2018-09-26T23:26:42Z</time>
      </trkpt>
      <trkpt lat="45.49494" lon="4.18557">
        <ele>414</ele>
        <time>2018-09-26T23:27:42Z</time>
      </trkpt>
      <trkpt lat="45.49659" lon="4.18564">
        <ele>415</ele>
        <time>2018-09-26T23:28:42Z</time>
      </trkpt>
      <trkpt lat="45.49775" lon="4.1858">
        <ele>413</ele>
        <time>2018-09-26T23:29:42Z</time>
      </trkpt>
      <trkpt lat="45.4983" lon="4.18591">
        <ele>411</ele>
        <time>2018-09-26T23:30:42Z</time>
      </trkpt>
      <trkpt lat="45.49981" lon="4.18633">
        <ele>407</ele>
        <time>2018-09-26T23:31:42Z</time>
      </trkpt>
      <trkpt lat="45.50117" lon="4.18686">
        <ele>405</ele>
        <time>2018-09-26T23:32:42Z</time>
      </trkpt>
      <trkpt lat="45.50245" lon="4.18733">
        <ele>405</ele>
        <time>2018-09-26T23:33:42Z</time>
      </trkpt>
      <trkpt lat="45.50345" lon="4.18774">
        <ele>405</ele>
        <time>2018-09-26T23:34:42Z</time>
      </trkpt>
      <trkpt lat="45.50531" lon="4.18878">
        <ele>402</ele>
        <time>2018-09-26T23:35:42Z</time>
      </trkpt>
      <trkpt lat="45.50657" lon="4.18956">
        <ele>399</ele>
        <time>2018-09-26T23:36:42Z</time>
      </trkpt>
      <trkpt lat="45.50764" lon="4.19007">
        <ele>398</ele>
        <time>2018-09-26T23:37:42Z</time>
      </trkpt>
      <trkpt lat="45.511" lon="4.19111">
        <ele>390</ele>
        <time>2018-09-26T23:38:42Z</time>
      </trkpt>
      <trkpt lat="45.511" lon="4.19098">
        <ele>390</ele>
        <time>2018-09-26T23:39:42Z</time>
      </trkpt>
      <trkpt lat="45.51136" lon="4.19104">
        <ele>390</ele>
        <time>2018-09-26T23:40:42Z</time>
      </trkpt>
      <trkpt lat="45.51159" lon="4.19123">
        <ele>389</ele>
        <time>2018-09-26T23:41:42Z</time>
      </trkpt>
      <trkpt lat="45.51176" lon="4.19176">
        <ele>388</ele>
        <time>2018-09-26T23:42:42Z</time>
      </trkpt>
      <trkpt lat="45.51206" lon="4.19149">
        <ele>388</ele>
        <time>2018-09-26T23:43:42Z</time>
      </trkpt>
      <trkpt lat="45.51165" lon="4.19065">
        <ele>389</ele>
        <time>2018-09-26T23:44:42Z</time>
      </trkpt>
      <trkpt lat="45.51154" lon="4.19042">
        <ele>390</ele>
        <time>2018-09-26T23:45:42Z</time>
      </trkpt>
      <trkpt lat="45.51161" lon="4.19024">
        <ele>390</ele>
        <time>2018-09-26T23:46:42Z</time>
      </trkpt>
      <trkpt lat="45.51207" lon="4.19016">
        <ele>389</ele>
        <time>2018-09-26T23:47:42Z</time>
      </trkpt>
      <trkpt lat="45.51262" lon="4.18997">
        <ele>389</ele>
        <time>2018-09-26T23:48:42Z</time>
      </trkpt>
      <trkpt lat="45.51311" lon="4.1895">
        <ele>388</ele>
        <time>2018-09-26T23:49:42Z</time>
      </trkpt>
      <trkpt lat="45.51375" lon="4.18855">
        <ele>388</ele>
        <time>2018-09-26T23:50:42Z</time>
      </trkpt>
      <trkpt lat="45.51423" lon="4.18772">
        <ele>390</ele>
        <time>2018-09-26T23:51:42Z</time>
      </trkpt>
      <trkpt lat="45.51463" lon="4.18663">
        <ele>390</ele>
        <time>2018-09-26T23:52:42Z</time>
      </trkpt>
      <trkpt lat="45.51469" lon="4.18582">
        <ele>390</ele>
        <time>2018-09-26T23:53:42Z</time>
      </trkpt>
      <trkpt lat="45.51467" lon="4.1852">
        <ele>390</ele>
        <time>2018-09-26T23:54:42Z</time>
      </trkpt>
      <trkpt lat="45.5145" lon="4.18443">
        <ele>389</ele>
        <time>2018-09-26T23:55:42Z</time>
      </trkpt>
      <trkpt lat="45.51434" lon="4.18413">
        <ele>389</ele>
        <time>2018-09-26T23:56:42Z</time>
      </trkpt>
      <trkpt lat="45.51415" lon="4.18374">
        <ele>387</ele>
        <time>2018-09-26T23:57:42Z</time>
      </trkpt>
      <trkpt lat="45.51402" lon="4.18352">
        <ele>387</ele>
        <time>2018-09-26T23:58:42Z</time>
      </trkpt>
      <trkpt lat="45.51384" lon="4.18328">
        <ele>386</ele>
        <time>2018-09-26T23:59:42Z</time>
      </trkpt>
      <trkpt lat="45.51365" lon="4.18312">
        <ele>387</ele>
        <time>2018-09-27T00:00:42Z</time>
      </trkpt>
      <trkpt lat="45.51339" lon="4.1828">
        <ele>387</ele>
        <time>2018-09-27T00:01:42Z</time>
      </trkpt>
      <trkpt lat="45.51317" lon="4.18247">
        <ele>388</ele>
        <time>2018-09-27T00:02:42Z</time>
      </trkpt>
      <trkpt lat="45.51287" lon="4.18201">
        <ele>389</ele>
        <time>2018-09-27T00:03:42Z</time>
      </trkpt>
      <trkpt lat="45.51265" lon="4.18131">
        <ele>388</ele>
        <time>2018-09-27T00:04:42Z</time>
      </trkpt>
      <trkpt lat="45.51247" lon="4.18035">
        <ele>388</ele>
        <time>2018-09-27T00:05:42Z</time>
      </trkpt>
      <trkpt lat="45.5125" lon="4.17982">
        <ele>389</ele>
        <time>2018-09-27T00:06:42Z</time>
      </trkpt>
      <trkpt lat="45.51258" lon="4.17935">
        <ele>388</ele>
        <time>2018-09-27T00:07:42Z</time>
      </trkpt>
      <trkpt lat="45.51275" lon="4.17863">
        <ele>388</ele>
        <time>2018-09-27T00:08:42Z</time>
      </trkpt>
      <trkpt lat="45.5126" lon="4.17847">
        <ele>388</ele>
        <time>2018-09-27T00:09:42Z</time>
      </trkpt>
      <trkpt lat="45.51236" lon="4.17845">
        <ele>388</ele>
        <time>2018-09-27T00:10:42Z</time>
      </trkpt>
      <trkpt lat="45.51219" lon="4.17846">
        <ele>387</ele>
        <time>2018-09-27T00:11:42Z</time>
      </trkpt>
      <trkpt lat="45.51196" lon="4.17861">
        <ele>386</ele>
        <time>2018-09-27T00:12:42Z</time>
      </trkpt>
      <trkpt lat="45.51176" lon="4.17865">
        <ele>386</ele>
        <time>2018-09-27T00:13:42Z</time>
      </trkpt>
      <trkpt lat="45.51179" lon="4.17841">
        <ele>386</ele>
        <time>2018-09-27T00:14:42Z</time>
      </trkpt>
      <trkpt lat="45.51183" lon="4.17807">
        <ele>386</ele>
        <time>2018-09-27T00:15:42Z</time>
      </trkpt>
      <trkpt lat="45.51195" lon="4.17774">
        <ele>386</ele>
        <time>2018-09-27T00:16:42Z</time>
      </trkpt>
      <trkpt lat="45.5119" lon="4.1775">
        <ele>387</ele>
        <time>2018-09-27T00:17:42Z</time>
      </trkpt>
      <trkpt lat="45.51178" lon="4.17729">
        <ele>387</ele>
        <time>2018-09-27T00:18:42Z</time>
      </trkpt>
      <trkpt lat="45.5115" lon="4.17696">
        <ele>387</ele>
        <time>2018-09-27T00:19:42Z</time>
      </trkpt>
      <trkpt lat="45.51126" lon="4.17674">
        <ele>387</ele>
        <time>2018-09-27T00:20:42Z</time>
      </trkpt>
      <trkpt lat="45.51095" lon="4.17648">
        <ele>386</ele>
        <time>2018-09-27T00:21:42Z</time>
      </trkpt>
      <trkpt lat="45.51051" lon="4.17636">
        <ele>385</ele>
        <time>2018-09-27T00:22:42Z</time>
      </trkpt>
      <trkpt lat="45.51044" lon="4.17607">
        <ele>385</ele>
        <time>2018-09-27T00:23:42Z</time>
      </trkpt>
      <trkpt lat="45.51035" lon="4.17573">
        <ele>385</ele>
        <time>2018-09-27T00:24:42Z</time>
      </trkpt>
      <trkpt lat="45.5103" lon="4.17545">
        <ele>385</ele>
        <time>2018-09-27T00:25:42Z</time>
      </trkpt>
      <trkpt lat="45.51041" lon="4.17522">
        <ele>386</ele>
        <time>2018-09-27T00:26:42Z</time>
      </trkpt>
      <trkpt lat="45.51051" lon="4.17497">
        <ele>385</ele>
        <time>2018-09-27T00:27:42Z</time>
      </trkpt>
      <trkpt lat="45.51063" lon="4.17472">
        <ele>385</ele>
        <time>2018-09-27T00:28:42Z</time>
      </trkpt>
      <trkpt lat="45.51074" lon="4.1743">
        <ele>384</ele>
        <time>2018-09-27T00:29:42Z</time>
      </trkpt>
      <trkpt lat="45.51092" lon="4.1734">
        <ele>383</ele>
        <time>2018-09-27T00:30:42Z</time>
      </trkpt>
      <trkpt lat="45.51044" lon="4.17332">
        <ele>384</ele>
        <time>2018-09-27T00:31:42Z</time>
      </trkpt>
      <trkpt lat="45.5102" lon="4.17317">
        <ele>385</ele>
        <time>2018-09-27T00:32:42Z</time>
      </trkpt>
      <trkpt lat="45.50998" lon="4.17299">
        <ele>385</ele>
        <time>2018-09-27T00:33:42Z</time>
      </trkpt>
      <trkpt lat="45.50987" lon="4.17289">
        <ele>385</ele>
        <time>2018-09-27T00:34:42Z</time>
      </trkpt>
      <trkpt lat="45.50965" lon="4.17263">
        <ele>385</ele>
        <time>2018-09-27T00:35:42Z</time>
      </trkpt>
      <trkpt lat="45.50959" lon="4.17239">
        <ele>385</ele>
        <time>2018-09-27T00:36:42Z</time>
      </trkpt>
      <trkpt lat="45.50953" lon="4.17224">
        <ele>385</ele>
        <time>2018-09-27T00:37:42Z</time>
      </trkpt>
      <trkpt lat="45.50947" lon="4.1719">
        <ele>386</ele>
        <time>2018-09-27T00:38:42Z</time>
      </trkpt>
      <trkpt lat="45.50943" lon="4.17127">
        <ele>386</ele>
        <time>2018-09-27T00:39:42Z</time>
      </trkpt>
    </trkseg>
  </trk>
</gpx>